<?xml version="1.0" encoding="utf-8"?>
<gpx version="1.1" creator="Guru Maps/6.1.1" xmlns:xsi="http://www.w3.org/2001/XMLSchema-instance" xmlns="http://www.topografix.com/GPX/1/1" xmlns:gom="https://gurumaps.app/gpx/v3" xsi:schemaLocation="http://www.topografix.com/GPX/1/1 http://www.topografix.com/GPX/1/1/gpx.xsd https://gurumaps.app/gpx/v3 https://gurumaps.app/gpx/v3/schema.xsd">
 <metadata>
  <name>20260420_треки</name>
  <time>2026-04-21T04:58:27.000Z</time>
 </metadata>
 <trk>
  <name>20260420_Lisa41</name>
  <desc>20260420_Lisa41</desc>
  <type>TrackStyle_2196F3C8</type>
  <extensions>
   <gom:time>2026-04-20T10:41:54.001Z</gom:time>
   <line xmlns="http://www.topografix.com/GPX/gpx_style/0/2">
    <color>2196F3</color>
   </line>
  </extensions>
  <trkseg>
   <trkpt lat="59.124999989" lon="30.0402559549"><ele>99.151</ele><time>2026-04-20T10:41:54.001Z</time></trkpt>
   <trkpt lat="59.1249179721" lon="30.0408049696"><ele>98.48</ele><time>2026-04-20T10:42:00.999Z</time></trkpt>
   <trkpt lat="59.1250579918" lon="30.0408539199"><ele>87.203</ele><time>2026-04-20T10:42:18.996Z</time></trkpt>
   <trkpt lat="59.125043994" lon="30.040663986"><ele>80.771</ele><time>2026-04-20T10:43:17.999Z</time></trkpt>
   <trkpt lat="59.124660983" lon="30.0402729702"><ele>69.159</ele><time>2026-04-20T10:48:01.002Z</time></trkpt>
   <trkpt lat="59.1245679857" lon="30.0400879816"><ele>76.26</ele><time>2026-04-20T10:49:23.998Z</time></trkpt>
   <trkpt lat="59.1244689955" lon="30.0400589802"><ele>75.895</ele><time>2026-04-20T10:49:39.999Z</time></trkpt>
   <trkpt lat="59.1242619625" lon="30.0401649274"><ele>75.407</ele><time>2026-04-20T10:50:29.999Z</time></trkpt>
   <trkpt lat="59.1241019938" lon="30.0400579744"><ele>74.95</ele><time>2026-04-20T10:50:51.996Z</time></trkpt>
   <trkpt lat="59.1242619625" lon="30.0395579938"><ele>76.413</ele><time>2026-04-20T10:52:28.004Z</time></trkpt>
   <trkpt lat="59.1242819952" lon="30.0394229614"><ele>76.321</ele><time>2026-04-20T10:52:44.999Z</time></trkpt>
   <trkpt lat="59.1242179994" lon="30.0391289242"><ele>79.857</ele><time>2026-04-20T10:53:36.001Z</time></trkpt>
   <trkpt lat="59.124075968" lon="30.0390839972"><ele>81.869</ele><time>2026-04-20T10:56:12.998Z</time></trkpt>
   <trkpt lat="59.1239859883" lon="30.0387829193"><ele>81.259</ele><time>2026-04-20T10:56:47.999Z</time></trkpt>
   <trkpt lat="59.1238419872" lon="30.0387419317"><ele>78.912</ele><time>2026-04-20T10:59:28.003Z</time></trkpt>
   <trkpt lat="59.1234819845" lon="30.0387029559"><ele>72.572</ele><time>2026-04-20T11:00:10.996Z</time></trkpt>
   <trkpt lat="59.1233389892" lon="30.0389509764"><ele>69.159</ele><time>2026-04-20T11:00:45.003Z</time></trkpt>
   <trkpt lat="59.1231529948" lon="30.0392839894"><ele>73.517</ele><time>2026-04-20T11:01:58.002Z</time></trkpt>
   <trkpt lat="59.1231489714" lon="30.0394589197"><ele>73.822</ele><time>2026-04-20T11:02:37.997Z</time></trkpt>
   <trkpt lat="59.123063979" lon="30.0397219439"><ele>75.163</ele><time>2026-04-20T11:03:23.996Z</time></trkpt>
   <trkpt lat="59.1230969617" lon="30.039946998"><ele>75.895</ele><time>2026-04-20T11:04:02.004Z</time></trkpt>
   <trkpt lat="59.1230759651" lon="30.0401879777"><ele>76.352</ele><time>2026-04-20T11:05:38.003Z</time></trkpt>
   <trkpt lat="59.123025967" lon="30.0399729819"><ele>77.419</ele><time>2026-04-20T11:06:31.000Z</time></trkpt>
   <trkpt lat="59.1228019607" lon="30.040028973"><ele>81.32</ele><time>2026-04-20T11:07:46.998Z</time></trkpt>
   <trkpt lat="59.1226639945" lon="30.0400279671"><ele>80.284</ele><time>2026-04-20T11:08:35.002Z</time></trkpt>
   <trkpt lat="59.122472971" lon="30.0402399455"><ele>77.754</ele><time>2026-04-20T11:09:22.003Z</time></trkpt>
   <trkpt lat="59.1224009704" lon="30.040450918"><ele>76.87</ele><time>2026-04-20T11:10:00.002Z</time></trkpt>
   <trkpt lat="59.1222379843" lon="30.0411419221"><ele>77.114</ele><time>2026-04-20T11:11:41.997Z</time></trkpt>
   <trkpt lat="59.1222689973" lon="30.0413039443"><ele>76.108</ele><time>2026-04-20T11:12:07.001Z</time></trkpt>
   <trkpt lat="59.1223919599" lon="30.0415919465"><ele>75.956</ele><time>2026-04-20T11:12:46.996Z</time></trkpt>
   <trkpt lat="59.1224079693" lon="30.0418549706"><ele>74.767</ele><time>2026-04-20T11:13:09.002Z</time></trkpt>
   <trkpt lat="59.1223459851" lon="30.0423479941"><ele>73.334</ele><time>2026-04-20T11:14:18.001Z</time></trkpt>
   <trkpt lat="59.1222749904" lon="30.0424259458"><ele>70.683</ele><time>2026-04-20T11:16:18.002Z</time></trkpt>
   <trkpt lat="59.1222769602" lon="30.0427589588"><ele>72.908</ele><time>2026-04-20T11:19:16.997Z</time></trkpt>
   <trkpt lat="59.122195991" lon="30.0429959991"><ele>73.67</ele><time>2026-04-20T11:19:35.996Z</time></trkpt>
   <trkpt lat="59.1220719807" lon="30.0431669899"><ele>75.925</ele><time>2026-04-20T11:20:24.000Z</time></trkpt>
   <trkpt lat="59.1218209846" lon="30.0431709294"><ele>74.675</ele><time>2026-04-20T11:21:04.003Z</time></trkpt>
   <trkpt lat="59.1213369716" lon="30.043524981"><ele>72.938</ele><time>2026-04-20T11:22:30.999Z</time></trkpt>
   <trkpt lat="59.1209119672" lon="30.0435029366"><ele>76.961</ele><time>2026-04-20T11:24:33.998Z</time></trkpt>
   <trkpt lat="59.1207759708" lon="30.043637969"><ele>79.43</ele><time>2026-04-20T11:25:53.003Z</time></trkpt>
   <trkpt lat="59.1205069956" lon="30.0437549804"><ele>76.657</ele><time>2026-04-20T11:26:36.997Z</time></trkpt>
   <trkpt lat="59.1203839911" lon="30.043990931"><ele>77.723</ele><time>2026-04-20T11:27:21.001Z</time></trkpt>
   <trkpt lat="59.1201799756" lon="30.0441009854"><ele>76.321</ele><time>2026-04-20T11:28:11.001Z</time></trkpt>
   <trkpt lat="59.1198529976" lon="30.0440289848"><ele>72.42</ele><time>2026-04-20T11:28:58.002Z</time></trkpt>
   <trkpt lat="59.1197769737" lon="30.0441349321"><ele>70.5</ele><time>2026-04-20T11:29:17.002Z</time></trkpt>
   <trkpt lat="59.1193299668" lon="30.0443219323"><ele>66.446</ele><time>2026-04-20T11:30:39.997Z</time></trkpt>
   <trkpt lat="59.1192099799" lon="30.0442779273"><ele>73.06</ele><time>2026-04-20T11:32:07.996Z</time></trkpt>
   <trkpt lat="59.1189969957" lon="30.0443379418"><ele>72.42</ele><time>2026-04-20T11:33:20.002Z</time></trkpt>
   <trkpt lat="59.1185429899" lon="30.0443059229"><ele>64.16</ele><time>2026-04-20T11:34:38.997Z</time></trkpt>
   <trkpt lat="59.1184389705" lon="30.0442639296"><ele>62.697</ele><time>2026-04-20T11:34:57.003Z</time></trkpt>
   <trkpt lat="59.1183659641" lon="30.0441749976"><ele>62.544</ele><time>2026-04-20T11:35:17.998Z</time></trkpt>
   <trkpt lat="59.1182859589" lon="30.0441689626"><ele>64.891</ele><time>2026-04-20T11:35:42.000Z</time></trkpt>
   <trkpt lat="59.1181499625" lon="30.0442909193"><ele>64.221</ele><time>2026-04-20T11:36:03.004Z</time></trkpt>
   <trkpt lat="59.1179559633" lon="30.0442639296"><ele>63.398</ele><time>2026-04-20T11:36:37.002Z</time></trkpt>
   <trkpt lat="59.1177579828" lon="30.0443629198"><ele>64.007</ele><time>2026-04-20T11:37:20.004Z</time></trkpt>
   <trkpt lat="59.1177399617" lon="30.0445549492"><ele>65.379</ele><time>2026-04-20T11:38:18.004Z</time></trkpt>
   <trkpt lat="59.1177959947" lon="30.0440559745"><ele>65.775</ele><time>2026-04-20T11:39:23.996Z</time></trkpt>
   <trkpt lat="59.1177249581" lon="30.0439059385"><ele>67.086</ele><time>2026-04-20T11:39:50.996Z</time></trkpt>
   <trkpt lat="59.1177319989" lon="30.0435979873"><ele>66.903</ele><time>2026-04-20T11:40:29.997Z</time></trkpt>
   <trkpt lat="59.1176719845" lon="30.0431059696"><ele>67.909</ele><time>2026-04-20T11:41:23.004Z</time></trkpt>
   <trkpt lat="59.1176629739" lon="30.042625938"><ele>66.781</ele><time>2026-04-20T11:42:09.003Z</time></trkpt>
   <trkpt lat="59.1175719884" lon="30.0425399397"><ele>67.635</ele><time>2026-04-20T11:43:00.998Z</time></trkpt>
   <trkpt lat="59.117498982" lon="30.0418909289"><ele>66.934</ele><time>2026-04-20T11:44:40.004Z</time></trkpt>
   <trkpt lat="59.1175639836" lon="30.0419539609"><ele>66.476</ele><time>2026-04-20T11:46:09.998Z</time></trkpt>
   <trkpt lat="59.117410972" lon="30.0410589412"><ele>60.716</ele><time>2026-04-20T11:47:14.997Z</time></trkpt>
   <trkpt lat="59.1174349861" lon="30.0408379943"><ele>58.491</ele><time>2026-04-20T11:47:36.001Z</time></trkpt>
   <trkpt lat="59.1172879676" lon="30.0403749779"><ele>57.454</ele><time>2026-04-20T11:48:22.000Z</time></trkpt>
   <trkpt lat="59.1172429987" lon="30.0397739955"><ele>56.906</ele><time>2026-04-20T11:49:21.996Z</time></trkpt>
   <trkpt lat="59.1171729679" lon="30.0393889308"><ele>58.003</ele><time>2026-04-20T11:50:00.997Z</time></trkpt>
   <trkpt lat="59.1171009673" lon="30.0393129908"><ele>61.02</ele><time>2026-04-20T11:50:31.004Z</time></trkpt>
   <trkpt lat="59.1170719659" lon="30.0394539744"><ele>69.921</ele><time>2026-04-20T11:53:13.998Z</time></trkpt>
   <trkpt lat="59.1171389792" lon="30.039342998"><ele>77.48</ele><time>2026-04-20T11:55:47.997Z</time></trkpt>
   <trkpt lat="59.1172139973" lon="30.0392139167"><ele>78.211</ele><time>2026-04-20T11:56:36.001Z</time></trkpt>
   <trkpt lat="59.1171159709" lon="30.0389889464"><ele>73.273</ele><time>2026-04-20T11:56:55.000Z</time></trkpt>
   <trkpt lat="59.1169739815" lon="30.0378739857"><ele>61.478</ele><time>2026-04-20T11:58:33.004Z</time></trkpt>
   <trkpt lat="59.116863969" lon="30.0373329338"><ele>59.954</ele><time>2026-04-20T11:59:38.003Z</time></trkpt>
   <trkpt lat="59.1169009751" lon="30.0371959735"><ele>60.258</ele><time>2026-04-20T11:59:56.000Z</time></trkpt>
   <trkpt lat="59.1170639612" lon="30.0371669721"><ele>61.142</ele><time>2026-04-20T12:00:55.996Z</time></trkpt>
   <trkpt lat="59.1170639612" lon="30.0370219652"><ele>61.661</ele><time>2026-04-20T12:02:11.000Z</time></trkpt>
   <trkpt lat="59.1168809843" lon="30.0370729272"><ele>62.666</ele><time>2026-04-20T12:03:17.001Z</time></trkpt>
   <trkpt lat="59.1166719815" lon="30.0370549899"><ele>64.343</ele><time>2026-04-20T12:05:21.002Z</time></trkpt>
   <trkpt lat="59.1162769843" lon="30.0373349455"><ele>57.911</ele><time>2026-04-20T12:06:36.999Z</time></trkpt>
   <trkpt lat="59.1160809735" lon="30.0373909366"><ele>58.46</ele><time>2026-04-20T12:07:20.001Z</time></trkpt>
   <trkpt lat="59.1160309755" lon="30.0372839835"><ele>57.942</ele><time>2026-04-20T12:07:37.998Z</time></trkpt>
   <trkpt lat="59.1159859646" lon="30.0374379591"><ele>59.07</ele><time>2026-04-20T12:08:07.002Z</time></trkpt>
   <trkpt lat="59.115750978" lon="30.037487999"><ele>58.491</ele><time>2026-04-20T12:09:23.000Z</time></trkpt>
   <trkpt lat="59.11552496" lon="30.0367939774"><ele>58.887</ele><time>2026-04-20T12:11:16.002Z</time></trkpt>
   <trkpt lat="59.1154419791" lon="30.0366699253"><ele>58.795</ele><time>2026-04-20T12:11:36.004Z</time></trkpt>
   <trkpt lat="59.1153069886" lon="30.0366069772"><ele>60.716</ele><time>2026-04-20T12:12:19.999Z</time></trkpt>
   <trkpt lat="59.1153279852" lon="30.0362469744"><ele>61.447</ele><time>2026-04-20T12:14:44.002Z</time></trkpt>
   <trkpt lat="59.1153709844" lon="30.0361129478"><ele>61.539</ele><time>2026-04-20T12:15:01.999Z</time></trkpt>
   <trkpt lat="59.1153379597" lon="30.0359749817"><ele>61.478</ele><time>2026-04-20T12:17:19.003Z</time></trkpt>
   <trkpt lat="59.1153529633" lon="30.0357809406"><ele>60.015</ele><time>2026-04-20T12:17:34.996Z</time></trkpt>
   <trkpt lat="59.1155289833" lon="30.0355459959"><ele>57.454</ele><time>2026-04-20T12:18:10.999Z</time></trkpt>
   <trkpt lat="59.1156999741" lon="30.0351849873"><ele>57.515</ele><time>2026-04-20T12:18:52.004Z</time></trkpt>
   <trkpt lat="59.1157199649" lon="30.0349869229"><ele>58.491</ele><time>2026-04-20T12:19:07.997Z</time></trkpt>
   <trkpt lat="59.1157259999" lon="30.0346079771"><ele>59.039</ele><time>2026-04-20T12:19:53.996Z</time></trkpt>
   <trkpt lat="59.1156229863" lon="30.0343789835"><ele>61.6</ele><time>2026-04-20T12:21:10.996Z</time></trkpt>
   <trkpt lat="59.1157229824" lon="30.0341329746"><ele>62.057</ele><time>2026-04-20T12:21:56.002Z</time></trkpt>
   <trkpt lat="59.1157959888" lon="30.0341569469"><ele>64.038</ele><time>2026-04-20T12:22:58.996Z</time></trkpt>
   <trkpt lat="59.1156989683" lon="30.0338059966"><ele>62.514</ele><time>2026-04-20T12:23:59.001Z</time></trkpt>
   <trkpt lat="59.1156179991" lon="30.0338639994"><ele>61.843</ele><time>2026-04-20T12:24:22.000Z</time></trkpt>
   <trkpt lat="59.1154199766" lon="30.0337669369"><ele>62.087</ele><time>2026-04-20T12:25:57.999Z</time></trkpt>
   <trkpt lat="59.1153149933" lon="30.0334729836"><ele>62.087</ele><time>2026-04-20T12:27:31.000Z</time></trkpt>
   <trkpt lat="59.1150119875" lon="30.0330439978"><ele>60.868</ele><time>2026-04-20T12:30:15.998Z</time></trkpt>
   <trkpt lat="59.1149089739" lon="30.0328579195"><ele>61.325</ele><time>2026-04-20T12:31:54.002Z</time></trkpt>
   <trkpt lat="59.1147679903" lon="30.0327279162"><ele>60.99</ele><time>2026-04-20T12:32:28.000Z</time></trkpt>
   <trkpt lat="59.1146389928" lon="30.0327109848"><ele>60.563</ele><time>2026-04-20T12:33:04.003Z</time></trkpt>
   <trkpt lat="59.1146409625" lon="30.0325639662"><ele>61.051</ele><time>2026-04-20T12:33:23.996Z</time></trkpt>
   <trkpt lat="59.1145489712" lon="30.0324419257"><ele>61.081</ele><time>2026-04-20T12:34:26.999Z</time></trkpt>
   <trkpt lat="59.1143709814" lon="30.0325499684"><ele>61.386</ele><time>2026-04-20T12:35:06.000Z</time></trkpt>
   <trkpt lat="59.1142499887" lon="30.0327949714"><ele>64.16</ele><time>2026-04-20T12:36:06.998Z</time></trkpt>
   <trkpt lat="59.1141399762" lon="30.0326759484"><ele>63.276</ele><time>2026-04-20T12:36:52.004Z</time></trkpt>
   <trkpt lat="59.1139719609" lon="30.0326439295"><ele>65.166</ele><time>2026-04-20T12:37:37.001Z</time></trkpt>
   <trkpt lat="59.1140739687" lon="30.0327839911"><ele>68.854</ele><time>2026-04-20T12:38:24.996Z</time></trkpt>
   <trkpt lat="59.1137919596" lon="30.0327049498"><ele>69.281</ele><time>2026-04-20T12:40:35.996Z</time></trkpt>
   <trkpt lat="59.1137469907" lon="30.0325789698"><ele>70.591</ele><time>2026-04-20T12:41:02.996Z</time></trkpt>
   <trkpt lat="59.1136419654" lon="30.0328009226"><ele>71.048</ele><time>2026-04-20T12:41:49.004Z</time></trkpt>
   <trkpt lat="59.1135859743" lon="30.0326989987"><ele>70.987</ele><time>2026-04-20T12:42:12.004Z</time></trkpt>
   <trkpt lat="59.1134609582" lon="30.0328799639"><ele>70.774</ele><time>2026-04-20T12:43:02.004Z</time></trkpt>
   <trkpt lat="59.1133579865" lon="30.0326239806"><ele>70.408</ele><time>2026-04-20T12:43:29.997Z</time></trkpt>
   <trkpt lat="59.1132669591" lon="30.0326399901"><ele>75.255</ele><time>2026-04-20T12:44:23.997Z</time></trkpt>
   <trkpt lat="59.1131169649" lon="30.0323209748"><ele>71.567</ele><time>2026-04-20T12:45:09.996Z</time></trkpt>
   <trkpt lat="59.1129629893" lon="30.0320009538"><ele>71.506</ele><time>2026-04-20T12:46:26.003Z</time></trkpt>
   <trkpt lat="59.1127869694" lon="30.0317789171"><ele>70.103</ele><time>2026-04-20T12:47:20.003Z</time></trkpt>
   <trkpt lat="59.1126899908" lon="30.0315699563"><ele>69.341</ele><time>2026-04-20T12:47:44.998Z</time></trkpt>
   <trkpt lat="59.1126539905" lon="30.031130996"><ele>67.574</ele><time>2026-04-20T12:49:08.996Z</time></trkpt>
   <trkpt lat="59.1126869733" lon="30.0309669622"><ele>67.543</ele><time>2026-04-20T12:49:39.003Z</time></trkpt>
   <trkpt lat="59.1127529808" lon="30.0310819619"><ele>70.713</ele><time>2026-04-20T12:52:33.997Z</time></trkpt>
   <trkpt lat="59.1126689941" lon="30.0310969655"><ele>71.627</ele><time>2026-04-20T12:53:34.996Z</time></trkpt>
   <trkpt lat="59.1127109874" lon="30.03098096"><ele>69.159</ele><time>2026-04-20T12:55:53.003Z</time></trkpt>
   <trkpt lat="59.1126469916" lon="30.0305479508"><ele>65.684</ele><time>2026-04-20T12:56:40.004Z</time></trkpt>
   <trkpt lat="59.1125119591" lon="30.0303029478"><ele>62.666</ele><time>2026-04-20T12:57:17.001Z</time></trkpt>
   <trkpt lat="59.1124759589" lon="30.0300069828"><ele>61.02</ele><time>2026-04-20T12:57:54.999Z</time></trkpt>
   <trkpt lat="59.1124009827" lon="30.0296659232"><ele>58.369</ele><time>2026-04-20T12:58:47.004Z</time></trkpt>
   <trkpt lat="59.1121989789" lon="30.0293109496"><ele>57.119</ele><time>2026-04-20T13:00:22.000Z</time></trkpt>
   <trkpt lat="59.1119919878" lon="30.0288069457"><ele>59.405</ele><time>2026-04-20T13:01:44.003Z</time></trkpt>
   <trkpt lat="59.1121799939" lon="30.0283309375"><ele>59.314</ele><time>2026-04-20T13:03:10.999Z</time></trkpt>
   <trkpt lat="59.1120369986" lon="30.0282069691"><ele>65.989</ele><time>2026-04-20T13:03:50.000Z</time></trkpt>
   <trkpt lat="59.1121869927" lon="30.0282959849"><ele>70.805</ele><time>2026-04-20T13:04:33.001Z</time></trkpt>
   <trkpt lat="59.1120899722" lon="30.0280859344"><ele>71.14</ele><time>2026-04-20T13:05:01.003Z</time></trkpt>
   <trkpt lat="59.1121489808" lon="30.0282119982"><ele>72.725</ele><time>2026-04-20T13:06:00.999Z</time></trkpt>
   <trkpt lat="59.1120199833" lon="30.0280889519"><ele>65.41</ele><time>2026-04-20T13:09:01.999Z</time></trkpt>
   <trkpt lat="59.1119589631" lon="30.0277759716"><ele>63.794</ele><time>2026-04-20T13:09:42.002Z</time></trkpt>
   <trkpt lat="59.1119709911" lon="30.0276069925"><ele>62.301</ele><time>2026-04-20T13:09:59.999Z</time></trkpt>
   <trkpt lat="59.1119209931" lon="30.0274329842"><ele>61.356</ele><time>2026-04-20T13:10:17.996Z</time></trkpt>
   <trkpt lat="59.1117749803" lon="30.0269979634"><ele>62.88</ele><time>2026-04-20T13:12:24.002Z</time></trkpt>
   <trkpt lat="59.1116879761" lon="30.0268769287"><ele>64.129</ele><time>2026-04-20T13:13:15.997Z</time></trkpt>
   <trkpt lat="59.1115469925" lon="30.0265859928"><ele>63.855</ele><time>2026-04-20T13:13:58.999Z</time></trkpt>
   <trkpt lat="59.1114729803" lon="30.0263809715"><ele>65.867</ele><time>2026-04-20T13:15:42.998Z</time></trkpt>
   <trkpt lat="59.1114669873" lon="30.0262039457"><ele>65.044</ele><time>2026-04-20T13:16:32.998Z</time></trkpt>
   <trkpt lat="59.1113909634" lon="30.0259959907"><ele>65.166</ele><time>2026-04-20T13:16:54.002Z</time></trkpt>
   <trkpt lat="59.1112099981" lon="30.0252579641"><ele>65.958</ele><time>2026-04-20T13:18:23.003Z</time></trkpt>
   <trkpt lat="59.1112259656" lon="30.0250779208"><ele>68.732</ele><time>2026-04-20T13:20:22.001Z</time></trkpt>
   <trkpt lat="59.1111999817" lon="30.0244649522"><ele>66.842</ele><time>2026-04-20T13:21:23.000Z</time></trkpt>
   <trkpt lat="59.1113029953" lon="30.0240129162"><ele>65.745</ele><time>2026-04-20T13:22:57.003Z</time></trkpt>
   <trkpt lat="59.1112409692" lon="30.0237249978"><ele>65.166</ele><time>2026-04-20T13:23:39.002Z</time></trkpt>
   <trkpt lat="59.1111589942" lon="30.0235069845"><ele>65.684</ele><time>2026-04-20T13:24:05.000Z</time></trkpt>
   <trkpt lat="59.1111619698" lon="30.0230159726"><ele>63.398</ele><time>2026-04-20T13:24:48.001Z</time></trkpt>
   <trkpt lat="59.1112329645" lon="30.0229139649"><ele>64.312</ele><time>2026-04-20T13:25:24.997Z</time></trkpt>
   <trkpt lat="59.111267959" lon="30.0227799383"><ele>67.055</ele><time>2026-04-20T13:25:53.000Z</time></trkpt>
   <trkpt lat="59.1111949945" lon="30.0228729774"><ele>69.037</ele><time>2026-04-20T13:26:48.002Z</time></trkpt>
   <trkpt lat="59.1111549709" lon="30.022460923"><ele>71.475</ele><time>2026-04-20T13:28:25.997Z</time></trkpt>
   <trkpt lat="59.1111939887" lon="30.0222789519"><ele>71.567</ele><time>2026-04-20T13:28:48.003Z</time></trkpt>
   <trkpt lat="59.1109699823" lon="30.0215769675"><ele>69.402</ele><time>2026-04-20T13:30:08.001Z</time></trkpt>
   <trkpt lat="59.1109089621" lon="30.0210859556"><ele>68.823</ele><time>2026-04-20T13:30:59.996Z</time></trkpt>
   <trkpt lat="59.1108219998" lon="30.0208559562"><ele>69.037</ele><time>2026-04-20T13:31:19.004Z</time></trkpt>
   <trkpt lat="59.1108319743" lon="30.0205459934"><ele>69.768</ele><time>2026-04-20T13:31:38.004Z</time></trkpt>
   <trkpt lat="59.1107889751" lon="30.0200109765"><ele>69.677</ele><time>2026-04-20T13:32:16.002Z</time></trkpt>
   <trkpt lat="59.1108329801" lon="30.0201689754"><ele>65.714</ele><time>2026-04-20T13:33:15.998Z</time></trkpt>
   <trkpt lat="59.1107259851" lon="30.0196239841"><ele>68.397</ele><time>2026-04-20T13:34:53.000Z</time></trkpt>
   <trkpt lat="59.1106419984" lon="30.0194749538"><ele>68.153</ele><time>2026-04-20T13:35:13.001Z</time></trkpt>
   <trkpt lat="59.1107169746" lon="30.0190729578"><ele>66.568</ele><time>2026-04-20T13:35:48.002Z</time></trkpt>
   <trkpt lat="59.1106559962" lon="30.0189229217"><ele>65.227</ele><time>2026-04-20T13:36:08.997Z</time></trkpt>
   <trkpt lat="59.110613961" lon="30.0185039942"><ele>66.476</ele><time>2026-04-20T13:36:45.000Z</time></trkpt>
   <trkpt lat="59.1105159765" lon="30.0183029961"><ele>70.591</ele><time>2026-04-20T13:37:25.997Z</time></trkpt>
   <trkpt lat="59.1106349996" lon="30.0177079648"><ele>68.092</ele><time>2026-04-20T13:38:02.000Z</time></trkpt>
   <trkpt lat="59.1106149668" lon="30.0170749635"><ele>61.234</ele><time>2026-04-20T13:38:56.000Z</time></trkpt>
   <trkpt lat="59.1105889829" lon="30.016908918"><ele>60.929</ele><time>2026-04-20T13:39:13.997Z</time></trkpt>
   <trkpt lat="59.1104059641" lon="30.0165479932"><ele>65.166</ele><time>2026-04-20T13:40:29.001Z</time></trkpt>
   <trkpt lat="59.1104359713" lon="30.0162569736"><ele>68.061</ele><time>2026-04-20T13:41:28.003Z</time></trkpt>
   <trkpt lat="59.1105219696" lon="30.0159919378"><ele>65.958</ele><time>2026-04-20T13:42:48.001Z</time></trkpt>
   <trkpt lat="59.1105249871" lon="30.0154119939"><ele>64.526</ele><time>2026-04-20T13:45:08.997Z</time></trkpt>
   <trkpt lat="59.1105409965" lon="30.0151309487"><ele>62.148</ele><time>2026-04-20T13:45:27.003Z</time></trkpt>
   <trkpt lat="59.1104959857" lon="30.0148609676"><ele>59.862</ele><time>2026-04-20T13:45:45.000Z</time></trkpt>
   <trkpt lat="59.1104479993" lon="30.0146959279"><ele>67.635</ele><time>2026-04-20T13:47:47.999Z</time></trkpt>
   <trkpt lat="59.110487981" lon="30.014386971"><ele>65.257</ele><time>2026-04-20T13:48:17.997Z</time></trkpt>
   <trkpt lat="59.1104829937" lon="30.0139069394"><ele>64.739</ele><time>2026-04-20T13:49:03.996Z</time></trkpt>
   <trkpt lat="59.1105489593" lon="30.0137659558"><ele>65.135</ele><time>2026-04-20T13:49:25.000Z</time></trkpt>
   <trkpt lat="59.1105709618" lon="30.0135599286"><ele>64.648</ele><time>2026-04-20T13:49:46.004Z</time></trkpt>
   <trkpt lat="59.1105269987" lon="30.0131409172"><ele>65.196</ele><time>2026-04-20T13:50:32.004Z</time></trkpt>
   <trkpt lat="59.1105619932" lon="30.0129119236"><ele>64.465</ele><time>2026-04-20T13:50:56.999Z</time></trkpt>
   <trkpt lat="59.1103729813" lon="30.0115189352"><ele>61.447</ele><time>2026-04-20T13:53:25.996Z</time></trkpt>
   <trkpt lat="59.1103149785" lon="30.0114229624"><ele>61.173</ele><time>2026-04-20T13:53:56.996Z</time></trkpt>
   <trkpt lat="59.110386979" lon="30.0114569929"><ele>64.83</ele><time>2026-04-20T13:54:23.996Z</time></trkpt>
   <trkpt lat="59.110260999" lon="30.0110969902"><ele>65.989</ele><time>2026-04-20T13:55:37.004Z</time></trkpt>
   <trkpt lat="59.1103069738" lon="30.0109579344"><ele>65.471</ele><time>2026-04-20T13:55:59.002Z</time></trkpt>
   <trkpt lat="59.1102029963" lon="30.0108839222"><ele>68.366</ele><time>2026-04-20T13:57:01.002Z</time></trkpt>
   <trkpt lat="59.1100469671" lon="30.0110049569"><ele>68.488</ele><time>2026-04-20T13:57:39.001Z</time></trkpt>
   <trkpt lat="59.1099689735" lon="30.0107089919"><ele>65.989</ele><time>2026-04-20T13:58:30.996Z</time></trkpt>
   <trkpt lat="59.1098139921" lon="30.0106879533"><ele>64.8</ele><time>2026-04-20T13:59:28.003Z</time></trkpt>
   <trkpt lat="59.1098249724" lon="30.0102849514"><ele>65.41</ele><time>2026-04-20T14:01:07.000Z</time></trkpt>
   <trkpt lat="59.1098989846" lon="30.0102269486"><ele>65.349</ele><time>2026-04-20T14:01:24.997Z</time></trkpt>
   <trkpt lat="59.1099989807" lon="30.010180932"><ele>65.135</ele><time>2026-04-20T14:02:41.004Z</time></trkpt>
   <trkpt lat="59.1101779763" lon="30.0102639966"><ele>66.537</ele><time>2026-04-20T14:03:27.003Z</time></trkpt>
   <trkpt lat="59.1102709735" lon="30.010010947"><ele>66.172</ele><time>2026-04-20T14:04:36.002Z</time></trkpt>
   <trkpt lat="59.1102859771" lon="30.0098579772"><ele>65.958</ele><time>2026-04-20T14:04:56.997Z</time></trkpt>
   <trkpt lat="59.1102429779" lon="30.0096379523"><ele>66.293</ele><time>2026-04-20T14:05:37.000Z</time></trkpt>
   <trkpt lat="59.1103309879" lon="30.0095229526"><ele>69.189</ele><time>2026-04-20T14:07:03.996Z</time></trkpt>
   <trkpt lat="59.1102059718" lon="30.009148952"><ele>72.694</ele><time>2026-04-20T14:08:59.004Z</time></trkpt>
   <trkpt lat="59.1101839693" lon="30.0092839845"><ele>70.134</ele><time>2026-04-20T14:10:44.999Z</time></trkpt>
   <trkpt lat="59.1102689618" lon="30.0094939512"><ele>70.926</ele><time>2026-04-20T14:11:56.003Z</time></trkpt>
   <trkpt lat="59.1103819918" lon="30.0094789476"><ele>70.713</ele><time>2026-04-20T14:12:30.001Z</time></trkpt>
   <trkpt lat="59.1101949916" lon="30.0097229448"><ele>72.359</ele><time>2026-04-20T14:13:44.003Z</time></trkpt>
   <trkpt lat="59.1101839693" lon="30.0099519384"><ele>70.622</ele><time>2026-04-20T14:15:13.003Z</time></trkpt>
   <trkpt lat="59.1103019865" lon="30.0095409736"><ele>68.122</ele><time>2026-04-20T14:16:15.004Z</time></trkpt>
   <trkpt lat="59.110260999" lon="30.0091879279"><ele>66.964</ele><time>2026-04-20T14:16:46.998Z</time></trkpt>
   <trkpt lat="59.1101369888" lon="30.0088999257"><ele>65.257</ele><time>2026-04-20T14:17:27.001Z</time></trkpt>
   <trkpt lat="59.1100209832" lon="30.0088409171"><ele>64.739</ele><time>2026-04-20T14:18:06.002Z</time></trkpt>
   <trkpt lat="59.109940978" lon="30.0087019451"><ele>64.648</ele><time>2026-04-20T14:18:30.004Z</time></trkpt>
   <trkpt lat="59.1099099649" lon="30.0084139429"><ele>64.648</ele><time>2026-04-20T14:18:50.999Z</time></trkpt>
   <trkpt lat="59.1099039719" lon="30.0075739924"><ele>66.842</ele><time>2026-04-20T14:20:44.002Z</time></trkpt>
   <trkpt lat="59.1098469749" lon="30.0074739963"><ele>64.83</ele><time>2026-04-20T14:21:23.003Z</time></trkpt>
   <trkpt lat="59.1096359605" lon="30.0074469228"><ele>64.495</ele><time>2026-04-20T14:22:25.003Z</time></trkpt>
   <trkpt lat="59.1099799957" lon="30.0074509461"><ele>65.349</ele><time>2026-04-20T14:23:34.996Z</time></trkpt>
   <trkpt lat="59.1099689735" lon="30.0070249778"><ele>67.482</ele><time>2026-04-20T14:24:48.997Z</time></trkpt>
   <trkpt lat="59.109940978" lon="30.0067059625"><ele>68.275</ele><time>2026-04-20T14:25:44.000Z</time></trkpt>
   <trkpt lat="59.1099199813" lon="30.0065099936"><ele>67.421</ele><time>2026-04-20T14:26:54.001Z</time></trkpt>
   <trkpt lat="59.1097699872" lon="30.0065299426"><ele>66.05</ele><time>2026-04-20T14:27:53.997Z</time></trkpt>
   <trkpt lat="59.109814998" lon="30.0062799942"><ele>63.642</ele><time>2026-04-20T14:31:37.004Z</time></trkpt>
   <trkpt lat="59.1097489905" lon="30.0059859571"><ele>64.434</ele><time>2026-04-20T14:32:54.004Z</time></trkpt>
   <trkpt lat="59.1097489905" lon="30.0057929218"><ele>64.8</ele><time>2026-04-20T14:33:43.001Z</time></trkpt>
   <trkpt lat="59.1096419955" lon="30.005715976"><ele>68.336</ele><time>2026-04-20T14:34:49.996Z</time></trkpt>
   <trkpt lat="59.1096379722" lon="30.0055099488"><ele>67.025</ele><time>2026-04-20T14:35:51.996Z</time></trkpt>
   <trkpt lat="59.1095199969" lon="30.0054669496"><ele>63.977</ele><time>2026-04-20T14:37:01.004Z</time></trkpt>
   <trkpt lat="59.109544975" lon="30.0051159993"><ele>60.929</ele><time>2026-04-20T14:41:46.003Z</time></trkpt>
   <trkpt lat="59.109638978" lon="30.0049649574"><ele>60.045</ele><time>2026-04-20T14:42:25.998Z</time></trkpt>
   <trkpt lat="59.1097619824" lon="30.0049249758"><ele>60.899</ele><time>2026-04-20T14:43:07.003Z</time></trkpt>
   <trkpt lat="59.109820991" lon="30.004734958"><ele>59.893</ele><time>2026-04-20T14:44:02.999Z</time></trkpt>
   <trkpt lat="59.1099609688" lon="30.0046579283"><ele>64.83</ele><time>2026-04-20T14:45:10.002Z</time></trkpt>
   <trkpt lat="59.1100049738" lon="30.0045089819"><ele>62.483</ele><time>2026-04-20T14:45:29.002Z</time></trkpt>
   <trkpt lat="59.1100569835" lon="30.0042169564"><ele>61.569</ele><time>2026-04-20T14:46:07.000Z</time></trkpt>
   <trkpt lat="59.1100459613" lon="30.0039709475"><ele>60.015</ele><time>2026-04-20T14:46:43.003Z</time></trkpt>
   <trkpt lat="59.1100009924" lon="30.0041199778"><ele>64.129</ele><time>2026-04-20T14:47:41.997Z</time></trkpt>
   <trkpt lat="59.1100839732" lon="30.0040379189"><ele>68.945</ele><time>2026-04-20T14:48:38.002Z</time></trkpt>
   <trkpt lat="59.1101059757" lon="30.0038819317"><ele>68.671</ele><time>2026-04-20T14:49:02.004Z</time></trkpt>
   <trkpt lat="59.1101219852" lon="30.0030549732"><ele>67.177</ele><time>2026-04-20T14:49:56.997Z</time></trkpt>
   <trkpt lat="59.1101999788" lon="30.0027359579"><ele>65.958</ele><time>2026-04-20T14:50:22.001Z</time></trkpt>
   <trkpt lat="59.1101819996" lon="30.002539989"><ele>65.684</ele><time>2026-04-20T14:50:37.000Z</time></trkpt>
   <trkpt lat="59.1102699677" lon="30.0022099935"><ele>66.568</ele><time>2026-04-20T14:51:09.996Z</time></trkpt>
   <trkpt lat="59.110292976" lon="30.0019329716"><ele>66.659</ele><time>2026-04-20T14:51:25.998Z</time></trkpt>
   <trkpt lat="59.1102349732" lon="30.0017129466"><ele>73.456</ele><time>2026-04-20T14:52:18.002Z</time></trkpt>
   <trkpt lat="59.1102889946" lon="30.0007629417"><ele>70.652</ele><time>2026-04-20T14:54:09.000Z</time></trkpt>
   <trkpt lat="59.1103609951" lon="30.0004489556"><ele>70.317</ele><time>2026-04-20T14:54:34.004Z</time></trkpt>
   <trkpt lat="59.1103549602" lon="30.0002959859"><ele>67.574</ele><time>2026-04-20T14:54:49.003Z</time></trkpt>
   <trkpt lat="59.1104019827" lon="29.9999629729"><ele>65.196</ele><time>2026-04-20T14:55:23.002Z</time></trkpt>
   <trkpt lat="59.1103829976" lon="29.999672959"><ele>64.709</ele><time>2026-04-20T14:57:43.998Z</time></trkpt>
   <trkpt lat="59.1103839616" lon="29.9994699493"><ele>63.337</ele><time>2026-04-20T14:57:58.003Z</time></trkpt>
   <trkpt lat="59.1102899585" lon="29.9992279638"><ele>59.954</ele><time>2026-04-20T14:58:18.998Z</time></trkpt>
   <trkpt lat="59.1101849752" lon="29.9984049447"><ele>63.337</ele><time>2026-04-20T14:59:35.998Z</time></trkpt>
   <trkpt lat="59.1103829976" lon="29.9982929625"><ele>64.709</ele><time>2026-04-20T15:00:12.001Z</time></trkpt>
   <trkpt lat="59.1105089776" lon="29.9978849315"><ele>64.038</ele><time>2026-04-20T15:00:41.999Z</time></trkpt>
   <trkpt lat="59.1106869674" lon="29.9975539301"><ele>67.238</ele><time>2026-04-20T15:01:19.004Z</time></trkpt>
   <trkpt lat="59.1106349996" lon="29.9971979507"><ele>68.762</ele><time>2026-04-20T15:01:53.996Z</time></trkpt>
   <trkpt lat="59.1106479915" lon="29.9969529476"><ele>68.915</ele><time>2026-04-20T15:02:11.000Z</time></trkpt>
   <trkpt lat="59.1107099757" lon="29.9967289832"><ele>68.884</ele><time>2026-04-20T15:02:28.997Z</time></trkpt>
   <trkpt lat="59.1109639893" lon="29.9961909488"><ele>74.493</ele><time>2026-04-20T15:04:34.000Z</time></trkpt>
   <trkpt lat="59.1109139912" lon="29.9959279247"><ele>74.797</ele><time>2026-04-20T15:05:22.004Z</time></trkpt>
   <trkpt lat="59.1108379673" lon="29.9957509827"><ele>72.603</ele><time>2026-04-20T15:05:37.003Z</time></trkpt>
   <trkpt lat="59.1108799607" lon="29.9952569534"><ele>71.353</ele><time>2026-04-20T15:06:43.004Z</time></trkpt>
   <trkpt lat="59.1109529671" lon="29.9951299675"><ele>71.597</ele><time>2026-04-20T15:07:02.004Z</time></trkpt>
   <trkpt lat="59.1108059904" lon="29.9950299714"><ele>71.658</ele><time>2026-04-20T15:07:37.004Z</time></trkpt>
   <trkpt lat="59.1107489934" lon="29.9948739842"><ele>72.329</ele><time>2026-04-20T15:07:53.999Z</time></trkpt>
   <trkpt lat="59.1107619854" lon="29.9946359381"><ele>71.048</ele><time>2026-04-20T15:08:31.004Z</time></trkpt>
   <trkpt lat="59.1108579582" lon="29.9942489457"><ele>66.233</ele><time>2026-04-20T15:09:09.003Z</time></trkpt>
   <trkpt lat="59.1109879615" lon="29.9942269851"><ele>69.829</ele><time>2026-04-20T15:09:56.998Z</time></trkpt>
   <trkpt lat="59.1109019632" lon="29.9942199443"><ele>72.359</ele><time>2026-04-20T15:11:20.996Z</time></trkpt>
   <trkpt lat="59.1109859918" lon="29.9941689823"><ele>71.597</ele><time>2026-04-20T15:11:48.998Z</time></trkpt>
   <trkpt lat="59.1109769812" lon="29.9943179287"><ele>69.067</ele><time>2026-04-20T15:12:13.000Z</time></trkpt>
   <trkpt lat="59.1109269832" lon="29.9941759393"><ele>69.982</ele><time>2026-04-20T15:12:32.000Z</time></trkpt>
   <trkpt lat="59.1108369615" lon="29.9937149346"><ele>70.774</ele><time>2026-04-20T15:14:10.997Z</time></trkpt>
   <trkpt lat="59.1109169668" lon="29.9937589396"><ele>76.474</ele><time>2026-04-20T15:15:24.998Z</time></trkpt>
   <trkpt lat="59.1109689765" lon="29.9938989174"><ele>75.773</ele><time>2026-04-20T15:15:46.002Z</time></trkpt>
   <trkpt lat="59.1110889634" lon="29.9937649746"><ele>74.096</ele><time>2026-04-20T15:16:21.996Z</time></trkpt>
   <trkpt lat="59.1112689648" lon="29.9934949935"><ele>73.426</ele><time>2026-04-20T15:16:59.002Z</time></trkpt>
   <trkpt lat="59.111518997" lon="29.993284943"><ele>71.963</ele><time>2026-04-20T15:17:58.004Z</time></trkpt>
   <trkpt lat="59.1115909975" lon="29.9933779821"><ele>73.578</ele><time>2026-04-20T15:18:44.997Z</time></trkpt>
   <trkpt lat="59.111518997" lon="29.9933929857"><ele>83.21</ele><time>2026-04-20T15:20:01.997Z</time></trkpt>
   <trkpt lat="59.1116619922" lon="29.9931949214"><ele>75.681</ele><time>2026-04-20T15:21:42.998Z</time></trkpt>
   <trkpt lat="59.1116549934" lon="29.9925009836"><ele>68.549</ele><time>2026-04-20T15:22:23.002Z</time></trkpt>
   <trkpt lat="59.1117909897" lon="29.9917469476"><ele>59.679</ele><time>2026-04-20T15:23:06.003Z</time></trkpt>
   <trkpt lat="59.1117819792" lon="29.9910769821"><ele>57.058</ele><time>2026-04-20T15:23:41.004Z</time></trkpt>
   <trkpt lat="59.1119189814" lon="29.9896839936"><ele>53.157</ele><time>2026-04-20T15:25:13.002Z</time></trkpt>
   <trkpt lat="59.1123269705" lon="29.9897439242"><ele>54.711</ele><time>2026-04-20T15:26:29.000Z</time></trkpt>
   <trkpt lat="59.1124079816" lon="29.9896429222"><ele>55.717</ele><time>2026-04-20T15:26:38.996Z</time></trkpt>
   <trkpt lat="59.1123949897" lon="29.9891339731"><ele>58.978</ele><time>2026-04-20T15:27:06.998Z</time></trkpt>
   <trkpt lat="59.1124199677" lon="29.9887539376"><ele>61.843</ele><time>2026-04-20T15:27:25.004Z</time></trkpt>
   <trkpt lat="59.1123449916" lon="29.9884349224"><ele>65.44</ele><time>2026-04-20T15:27:54.000Z</time></trkpt>
   <trkpt lat="59.112260963" lon="29.9872869369"><ele>61.081</ele><time>2026-04-20T15:29:01.003Z</time></trkpt>
   <trkpt lat="59.1122289861" lon="29.9871109169"><ele>62.209</ele><time>2026-04-20T15:29:20.003Z</time></trkpt>
   <trkpt lat="59.1121089991" lon="29.9868789897"><ele>65.41</ele><time>2026-04-20T15:29:36.997Z</time></trkpt>
   <trkpt lat="59.1120749686" lon="29.9865679373"><ele>67.817</ele><time>2026-04-20T15:29:54.001Z</time></trkpt>
   <trkpt lat="59.1118119864" lon="29.9858079501"><ele>73.334</ele><time>2026-04-20T15:30:38.998Z</time></trkpt>
   <trkpt lat="59.1113649795" lon="29.9851579335"><ele>80.04</ele><time>2026-04-20T15:31:31.002Z</time></trkpt>
   <trkpt lat="59.111235982" lon="29.9847489804"><ele>78.729</ele><time>2026-04-20T15:32:14.997Z</time></trkpt>
   <trkpt lat="59.1109929906" lon="29.9843949289"><ele>74.736</ele><time>2026-04-20T15:32:38.999Z</time></trkpt>
   <trkpt lat="59.1109219959" lon="29.9836689722"><ele>69.646</ele><time>2026-04-20T15:33:09.999Z</time></trkpt>
   <trkpt lat="59.1108039787" lon="29.9833029345"><ele>70.561</ele><time>2026-04-20T15:33:28.999Z</time></trkpt>
   <trkpt lat="59.1104219735" lon="29.9831569218"><ele>70.805</ele><time>2026-04-20T15:34:13.996Z</time></trkpt>
   <trkpt lat="59.1102979632" lon="29.9832099792"><ele>75.377</ele><time>2026-04-20T15:37:12.999Z</time></trkpt>
   <trkpt lat="59.1101639785" lon="29.983343922"><ele>74.157</ele><time>2026-04-20T15:37:29.001Z</time></trkpt>
   <trkpt lat="59.1098389702" lon="29.9833709956"><ele>71.871</ele><time>2026-04-20T15:38:00.001Z</time></trkpt>
   <trkpt lat="59.1096449711" lon="29.9831409961"><ele>72.938</ele><time>2026-04-20T15:38:17.998Z</time></trkpt>
   <trkpt lat="59.1097029738" lon="29.9830089812"><ele>65.044</ele><time>2026-04-20T15:39:21.001Z</time></trkpt>
   <trkpt lat="59.1091339683" lon="29.9825109285"><ele>63.672</ele><time>2026-04-20T15:40:19.001Z</time></trkpt>
   <trkpt lat="59.1089939906" lon="29.9824789934"><ele>63.825</ele><time>2026-04-20T15:40:32.998Z</time></trkpt>
   <trkpt lat="59.1087889692" lon="29.9823389318"><ele>64.19</ele><time>2026-04-20T15:40:51.004Z</time></trkpt>
   <trkpt lat="59.1082249928" lon="29.982211946"><ele>67.086</ele><time>2026-04-20T15:41:34.999Z</time></trkpt>
   <trkpt lat="59.1074919954" lon="29.9818929308"><ele>67.574</ele><time>2026-04-20T15:42:31.003Z</time></trkpt>
  </trkseg>
 </trk>
 <trk>
  <name>20260420_Lisa42</name>
  <desc>20260420_Lisa42</desc>
  <type>TrackStyle_2196F3C8</type>
  <extensions>
   <gom:time>2026-04-20T11:22:40.002Z</gom:time>
   <line xmlns="http://www.topografix.com/GPX/gpx_style/0/2">
    <color>2196F3</color>
   </line>
  </extensions>
  <trkseg>
   <trkpt lat="59.0922929647" lon="29.9863499239"><ele>62.331</ele><time>2026-04-20T11:22:40.002Z</time></trkpt>
   <trkpt lat="59.0928049732" lon="29.9892099969"><ele>61.386</ele><time>2026-04-20T11:23:22.001Z</time></trkpt>
   <trkpt lat="59.0927409774" lon="29.9893189617"><ele>62.118</ele><time>2026-04-20T11:23:54.997Z</time></trkpt>
   <trkpt lat="59.0928369921" lon="29.9892239947"><ele>62.514</ele><time>2026-04-20T11:24:55.996Z</time></trkpt>
   <trkpt lat="59.0927359902" lon="29.9892409262"><ele>61.874</ele><time>2026-04-20T11:25:27.998Z</time></trkpt>
   <trkpt lat="59.0926519616" lon="29.9889049795"><ele>62.453</ele><time>2026-04-20T11:25:38.997Z</time></trkpt>
   <trkpt lat="59.0924629916" lon="29.9876879272"><ele>62.27</ele><time>2026-04-20T11:26:28.003Z</time></trkpt>
   <trkpt lat="59.0928179652" lon="29.9894789722"><ele>64.983</ele><time>2026-04-20T11:35:06.999Z</time></trkpt>
   <trkpt lat="59.0928679632" lon="29.9899769411"><ele>64.526</ele><time>2026-04-20T11:35:27.001Z</time></trkpt>
   <trkpt lat="59.0929789815" lon="29.990511958"><ele>64.282</ele><time>2026-04-20T11:35:47.003Z</time></trkpt>
   <trkpt lat="59.0933959812" lon="29.9933609669"><ele>63.611</ele><time>2026-04-20T11:37:35.003Z</time></trkpt>
   <trkpt lat="59.0935199915" lon="29.9938949779"><ele>61.63</ele><time>2026-04-20T11:37:58.996Z</time></trkpt>
   <trkpt lat="59.0937139906" lon="29.9944459204"><ele>63.154</ele><time>2026-04-20T11:38:22.998Z</time></trkpt>
   <trkpt lat="59.0937379629" lon="29.9946039193"><ele>62.636</ele><time>2026-04-20T11:38:36.001Z</time></trkpt>
   <trkpt lat="59.0936999928" lon="29.9949269578"><ele>63.063</ele><time>2026-04-20T11:38:56.996Z</time></trkpt>
   <trkpt lat="59.0938539684" lon="29.9951209989"><ele>61.935</ele><time>2026-04-20T11:39:23.996Z</time></trkpt>
   <trkpt lat="59.0938469695" lon="29.9958339636"><ele>61.234</ele><time>2026-04-20T11:40:13.002Z</time></trkpt>
   <trkpt lat="59.0938849814" lon="29.9962899391"><ele>60.899</ele><time>2026-04-20T11:40:29.997Z</time></trkpt>
   <trkpt lat="59.0940359814" lon="29.997195939"><ele>61.996</ele><time>2026-04-20T11:41:03.002Z</time></trkpt>
   <trkpt lat="59.0941259612" lon="29.9975409382"><ele>61.142</ele><time>2026-04-20T11:41:16.999Z</time></trkpt>
   <trkpt lat="59.094321972" lon="29.9987589963"><ele>61.691</ele><time>2026-04-20T11:42:09.003Z</time></trkpt>
   <trkpt lat="59.094428967" lon="29.9992189952"><ele>61.203</ele><time>2026-04-20T11:42:28.996Z</time></trkpt>
   <trkpt lat="59.0944659731" lon="29.9997879588"><ele>60.533</ele><time>2026-04-20T11:42:52.998Z</time></trkpt>
   <trkpt lat="59.0945629936" lon="30.0000969995"><ele>60.685</ele><time>2026-04-20T11:43:07.003Z</time></trkpt>
   <trkpt lat="59.0947089644" lon="30.0010469206"><ele>58.795</ele><time>2026-04-20T11:43:42.004Z</time></trkpt>
   <trkpt lat="59.094767973" lon="30.0012169894"><ele>58.613</ele><time>2026-04-20T11:43:48.000Z</time></trkpt>
   <trkpt lat="59.0948139897" lon="30.0017529283"><ele>58.582</ele><time>2026-04-20T11:44:06.999Z</time></trkpt>
   <trkpt lat="59.0949199788" lon="30.0022319541"><ele>57.851</ele><time>2026-04-20T11:44:27.001Z</time></trkpt>
   <trkpt lat="59.0949779816" lon="30.0028959685"><ele>58.46</ele><time>2026-04-20T11:44:51.003Z</time></trkpt>
   <trkpt lat="59.0951749982" lon="30.0035349209"><ele>58.46</ele><time>2026-04-20T11:45:18.003Z</time></trkpt>
   <trkpt lat="59.0953579752" lon="30.004363975"><ele>57.851</ele><time>2026-04-20T11:46:01.004Z</time></trkpt>
   <trkpt lat="59.0955389824" lon="30.0054909219"><ele>56.753</ele><time>2026-04-20T11:46:44.999Z</time></trkpt>
   <trkpt lat="59.0955609849" lon="30.0058249407"><ele>56.662</ele><time>2026-04-20T11:46:57.000Z</time></trkpt>
   <trkpt lat="59.0957349932" lon="30.0067459442"><ele>56.205</ele><time>2026-04-20T11:47:30.998Z</time></trkpt>
   <trkpt lat="59.0957449677" lon="30.0070199486"><ele>57.546</ele><time>2026-04-20T11:47:42.999Z</time></trkpt>
   <trkpt lat="59.0958319718" lon="30.0072669633"><ele>56.814</ele><time>2026-04-20T11:47:52.996Z</time></trkpt>
   <trkpt lat="59.095918976" lon="30.0080089294"><ele>55.565</ele><time>2026-04-20T11:48:22.000Z</time></trkpt>
   <trkpt lat="59.0962999754" lon="30.0093539734"><ele>55.229</ele><time>2026-04-20T11:49:17.996Z</time></trkpt>
   <trkpt lat="59.0964319904" lon="30.0102989492"><ele>55.016</ele><time>2026-04-20T11:49:55.001Z</time></trkpt>
   <trkpt lat="59.0965119956" lon="30.0104369991"><ele>54.955</ele><time>2026-04-20T11:50:27.004Z</time></trkpt>
   <trkpt lat="59.0966209604" lon="30.0102609791"><ele>53.614</ele><time>2026-04-20T11:50:43.999Z</time></trkpt>
   <trkpt lat="59.0965899892" lon="30.0105019588"><ele>53.553</ele><time>2026-04-20T11:51:01.002Z</time></trkpt>
   <trkpt lat="59.0966149673" lon="30.010764983"><ele>53.98</ele><time>2026-04-20T11:51:13.003Z</time></trkpt>
   <trkpt lat="59.096729967" lon="30.011267981"><ele>54.65</ele><time>2026-04-20T11:51:59.003Z</time></trkpt>
   <trkpt lat="59.0966689887" lon="30.0114659615"><ele>53.644</ele><time>2026-04-20T11:52:19.004Z</time></trkpt>
   <trkpt lat="59.0966689887" lon="30.0119519443"><ele>53.339</ele><time>2026-04-20T11:52:46.004Z</time></trkpt>
   <trkpt lat="59.0968239701" lon="30.0124489911"><ele>53.644</ele><time>2026-04-20T11:53:09.004Z</time></trkpt>
   <trkpt lat="59.0968709925" lon="30.0129429367"><ele>52.73</ele><time>2026-04-20T11:53:28.003Z</time></trkpt>
   <trkpt lat="59.0969869981" lon="30.013411988"><ele>52.364</ele><time>2026-04-20T11:53:47.996Z</time></trkpt>
   <trkpt lat="59.0970899698" lon="30.0142389466"><ele>51.45</ele><time>2026-04-20T11:54:21.001Z</time></trkpt>
   <trkpt lat="59.0971969648" lon="30.0145199918"><ele>51.45</ele><time>2026-04-20T11:54:45.003Z</time></trkpt>
   <trkpt lat="59.0972259661" lon="30.0149769731"><ele>51.968</ele><time>2026-04-20T11:55:04.002Z</time></trkpt>
   <trkpt lat="59.0975419639" lon="30.0165489991"><ele>51.724</ele><time>2026-04-20T11:56:14.997Z</time></trkpt>
   <trkpt lat="59.0976299739" lon="30.0173449446"><ele>50.535</ele><time>2026-04-20T11:56:44.002Z</time></trkpt>
   <trkpt lat="59.0978089694" lon="30.0184649345"><ele>51.206</ele><time>2026-04-20T11:57:28.999Z</time></trkpt>
   <trkpt lat="59.0979269866" lon="30.0189999514"><ele>49.987</ele><time>2026-04-20T11:57:51.998Z</time></trkpt>
   <trkpt lat="59.0979849894" lon="30.0194879458"><ele>50.993</ele><time>2026-04-20T11:58:13.996Z</time></trkpt>
   <trkpt lat="59.0980839797" lon="30.0198809732"><ele>50.84</ele><time>2026-04-20T11:58:32.002Z</time></trkpt>
   <trkpt lat="59.0981109694" lon="30.0201739207"><ele>50.596</ele><time>2026-04-20T11:58:48.003Z</time></trkpt>
   <trkpt lat="59.0982629752" lon="30.0209859595"><ele>49.225</ele><time>2026-04-20T11:59:23.004Z</time></trkpt>
   <trkpt lat="59.098282966" lon="30.0212789909"><ele>49.59</ele><time>2026-04-20T11:59:34.996Z</time></trkpt>
   <trkpt lat="59.0985299807" lon="30.0222509563"><ele>48.828</ele><time>2026-04-20T12:00:16.001Z</time></trkpt>
   <trkpt lat="59.0985279691" lon="30.0227349274"><ele>48.981</ele><time>2026-04-20T12:00:58.000Z</time></trkpt>
   <trkpt lat="59.0985999696" lon="30.0226829596"><ele>48.554</ele><time>2026-04-20T12:01:21.000Z</time></trkpt>
   <trkpt lat="59.0986859679" lon="30.0231509213"><ele>48.341</ele><time>2026-04-20T12:01:49.002Z</time></trkpt>
   <trkpt lat="59.0987349602" lon="30.0240609445"><ele>48.402</ele><time>2026-04-20T12:02:29.999Z</time></trkpt>
   <trkpt lat="59.0988029793" lon="30.024239982"><ele>48.371</ele><time>2026-04-20T12:02:40.004Z</time></trkpt>
   <trkpt lat="59.098823976" lon="30.0245559797"><ele>48.066</ele><time>2026-04-20T12:02:55.003Z</time></trkpt>
   <trkpt lat="59.0991409796" lon="30.0259959907"><ele>47.975</ele><time>2026-04-20T12:03:53.004Z</time></trkpt>
   <trkpt lat="59.0991509959" lon="30.0261429254"><ele>48.737</ele><time>2026-04-20T12:04:01.004Z</time></trkpt>
   <trkpt lat="59.0992229965" lon="30.0269029964"><ele>49.011</ele><time>2026-04-20T12:04:31.002Z</time></trkpt>
   <trkpt lat="59.099332967" lon="30.0272569642"><ele>49.408</ele><time>2026-04-20T12:04:50.002Z</time></trkpt>
   <trkpt lat="59.0993469648" lon="30.0275709503"><ele>48.95</ele><time>2026-04-20T12:05:06.996Z</time></trkpt>
   <trkpt lat="59.0994539598" lon="30.0277209864"><ele>48.615</ele><time>2026-04-20T12:05:22.004Z</time></trkpt>
   <trkpt lat="59.0995879865" lon="30.0285779521"><ele>49.621</ele><time>2026-04-20T12:06:08.004Z</time></trkpt>
   <trkpt lat="59.0997029862" lon="30.0287769385"><ele>51.846</ele><time>2026-04-20T12:06:59.999Z</time></trkpt>
   <trkpt lat="59.0997919601" lon="30.0299459626"><ele>48.646</ele><time>2026-04-20T12:07:48.996Z</time></trkpt>
   <trkpt lat="59.0999149645" lon="30.0304749445"><ele>49.773</ele><time>2026-04-20T12:08:16.999Z</time></trkpt>
   <trkpt lat="59.1001389709" lon="30.031735918"><ele>49.194</ele><time>2026-04-20T12:09:23.000Z</time></trkpt>
   <trkpt lat="59.1001809642" lon="30.0323229865"><ele>49.926</ele><time>2026-04-20T12:09:48.004Z</time></trkpt>
   <trkpt lat="59.1002709858" lon="30.0325809815"><ele>49.712</ele><time>2026-04-20T12:10:06.001Z</time></trkpt>
   <trkpt lat="59.1004949922" lon="30.0339969364"><ele>50.627</ele><time>2026-04-20T12:11:24.003Z</time></trkpt>
   <trkpt lat="59.1006749936" lon="30.0347759504"><ele>50.291</ele><time>2026-04-20T12:11:59.997Z</time></trkpt>
   <trkpt lat="59.1007049589" lon="30.0351759349"><ele>50.2</ele><time>2026-04-20T12:12:22.003Z</time></trkpt>
   <trkpt lat="59.10078597" lon="30.0355449901"><ele>50.474</ele><time>2026-04-20T12:12:44.001Z</time></trkpt>
   <trkpt lat="59.1009219663" lon="30.0364439492"><ele>50.718</ele><time>2026-04-20T12:13:11.001Z</time></trkpt>
   <trkpt lat="59.1009949727" lon="30.0367249944"><ele>50.291</ele><time>2026-04-20T12:13:21.999Z</time></trkpt>
   <trkpt lat="59.1011019677" lon="30.0377309904"><ele>50.291</ele><time>2026-04-20T12:14:06.003Z</time></trkpt>
   <trkpt lat="59.1012099685" lon="30.0380189926"><ele>50.261</ele><time>2026-04-20T12:14:22.004Z</time></trkpt>
   <trkpt lat="59.101376978" lon="30.0383009598"><ele>51.023</ele><time>2026-04-20T12:14:57.998Z</time></trkpt>
   <trkpt lat="59.1012909796" lon="30.0385539257"><ele>50.109</ele><time>2026-04-20T12:15:16.998Z</time></trkpt>
   <trkpt lat="59.1012459688" lon="30.038896997"><ele>50.962</ele><time>2026-04-20T12:16:02.997Z</time></trkpt>
   <trkpt lat="59.1013129821" lon="30.038978972"><ele>51.998</ele><time>2026-04-20T12:16:25.997Z</time></trkpt>
   <trkpt lat="59.1013599627" lon="30.0391519744"><ele>51.663</ele><time>2026-04-20T12:16:40.002Z</time></trkpt>
   <trkpt lat="59.1014019979" lon="30.039016942"><ele>51.846</ele><time>2026-04-20T12:17:47.999Z</time></trkpt>
   <trkpt lat="59.1013089588" lon="30.0388199673"><ele>50.84</ele><time>2026-04-20T12:18:09.003Z</time></trkpt>
   <trkpt lat="59.1012549794" lon="30.038418977"><ele>51.602</ele><time>2026-04-20T12:18:33.998Z</time></trkpt>
   <trkpt lat="59.1011579588" lon="30.0382859562"><ele>51.815</ele><time>2026-04-20T12:18:48.997Z</time></trkpt>
   <trkpt lat="59.1011839846" lon="30.0381119479"><ele>51.511</ele><time>2026-04-20T12:19:06.001Z</time></trkpt>
   <trkpt lat="59.1011049852" lon="30.0375989754"><ele>52.456</ele><time>2026-04-20T12:19:38.004Z</time></trkpt>
   <trkpt lat="59.1010049891" lon="30.0378089421"><ele>53.431</ele><time>2026-04-20T12:21:03.997Z</time></trkpt>
   <trkpt lat="59.1009329885" lon="30.0378729798"><ele>54.467</ele><time>2026-04-20T12:22:32.998Z</time></trkpt>
   <trkpt lat="59.1006519852" lon="30.0378939346"><ele>55.321</ele><time>2026-04-20T12:23:09.001Z</time></trkpt>
   <trkpt lat="59.099980972" lon="30.0383169693"><ele>55.473</ele><time>2026-04-20T12:24:51.998Z</time></trkpt>
   <trkpt lat="59.0999099773" lon="30.0385039695"><ele>57.546</ele><time>2026-04-20T12:26:08.998Z</time></trkpt>
   <trkpt lat="59.0998999609" lon="30.0383459706"><ele>58.033</ele><time>2026-04-20T12:27:31.000Z</time></trkpt>
   <trkpt lat="59.0998159742" lon="30.0383739662"><ele>57.637</ele><time>2026-04-20T12:27:54.000Z</time></trkpt>
   <trkpt lat="59.0996909581" lon="30.0385299534"><ele>58.064</ele><time>2026-04-20T12:28:21.000Z</time></trkpt>
   <trkpt lat="59.0996039959" lon="30.0384619762"><ele>58.613</ele><time>2026-04-20T12:29:12.002Z</time></trkpt>
   <trkpt lat="59.0995309895" lon="30.0385729526"><ele>58.064</ele><time>2026-04-20T12:29:39.002Z</time></trkpt>
   <trkpt lat="59.0993089948" lon="30.0386039656"><ele>58.613</ele><time>2026-04-20T12:30:00.999Z</time></trkpt>
   <trkpt lat="59.0991939951" lon="30.038714942"><ele>58.521</ele><time>2026-04-20T12:30:52.001Z</time></trkpt>
   <trkpt lat="59.0990169693" lon="30.0388049637"><ele>59.527</ele><time>2026-04-20T12:31:07.000Z</time></trkpt>
   <trkpt lat="59.0989389757" lon="30.0389569276"><ele>60.076</ele><time>2026-04-20T12:33:23.996Z</time></trkpt>
   <trkpt lat="59.098785964" lon="30.038796917"><ele>59.984</ele><time>2026-04-20T12:33:53.001Z</time></trkpt>
   <trkpt lat="59.0986619957" lon="30.0388059695"><ele>61.051</ele><time>2026-04-20T12:34:06.997Z</time></trkpt>
   <trkpt lat="59.0984929746" lon="30.0389999267"><ele>59.71</ele><time>2026-04-20T12:34:35.000Z</time></trkpt>
   <trkpt lat="59.0984239916" lon="30.0391649664"><ele>61.02</ele><time>2026-04-20T12:34:48.996Z</time></trkpt>
   <trkpt lat="59.0982879952" lon="30.039274937"><ele>59.801</ele><time>2026-04-20T12:35:15.996Z</time></trkpt>
   <trkpt lat="59.0981589977" lon="30.0393219594"><ele>61.782</ele><time>2026-04-20T12:35:50.997Z</time></trkpt>
   <trkpt lat="59.0979159644" lon="30.0391059578"><ele>61.843</ele><time>2026-04-20T12:36:29.998Z</time></trkpt>
   <trkpt lat="59.0979759788" lon="30.0389199634"><ele>60.959</ele><time>2026-04-20T12:37:11.997Z</time></trkpt>
   <trkpt lat="59.0979899766" lon="30.0390719273"><ele>62.026</ele><time>2026-04-20T12:38:11.000Z</time></trkpt>
   <trkpt lat="59.0979199877" lon="30.0391259905"><ele>62.087</ele><time>2026-04-20T12:38:48.998Z</time></trkpt>
   <trkpt lat="59.0977469852" lon="30.0391549919"><ele>62.483</ele><time>2026-04-20T12:40:24.004Z</time></trkpt>
   <trkpt lat="59.0976299739" lon="30.0393159245"><ele>62.819</ele><time>2026-04-20T12:40:44.999Z</time></trkpt>
   <trkpt lat="59.097169975" lon="30.0392499589"><ele>63.367</ele><time>2026-04-20T12:41:56.003Z</time></trkpt>
   <trkpt lat="59.0969449628" lon="30.0394019228"><ele>64.465</ele><time>2026-04-20T12:42:26.001Z</time></trkpt>
   <trkpt lat="59.0967649615" lon="30.0397569802"><ele>63.276</ele><time>2026-04-20T12:43:10.998Z</time></trkpt>
   <trkpt lat="59.0969089626" lon="30.0396759272"><ele>63.672</ele><time>2026-04-20T12:44:26.002Z</time></trkpt>
   <trkpt lat="59.0967569987" lon="30.0397119694"><ele>64.282</ele><time>2026-04-20T12:45:18.999Z</time></trkpt>
   <trkpt lat="59.0966559967" lon="30.0396299944"><ele>64.007</ele><time>2026-04-20T12:45:39.001Z</time></trkpt>
   <trkpt lat="59.0965379795" lon="30.0398649391"><ele>64.16</ele><time>2026-04-20T12:46:17.000Z</time></trkpt>
   <trkpt lat="59.0963219779" lon="30.0399979599"><ele>63.977</ele><time>2026-04-20T12:46:46.998Z</time></trkpt>
   <trkpt lat="59.0959639868" lon="30.0399969541"><ele>64.617</ele><time>2026-04-20T12:47:44.998Z</time></trkpt>
   <trkpt lat="59.0957849913" lon="30.040103991"><ele>65.836</ele><time>2026-04-20T12:48:18.996Z</time></trkpt>
   <trkpt lat="59.0957599713" lon="30.0404179771"><ele>66.233</ele><time>2026-04-20T12:49:50.002Z</time></trkpt>
   <trkpt lat="59.0955869688" lon="30.0404609763"><ele>66.934</ele><time>2026-04-20T12:50:37.003Z</time></trkpt>
   <trkpt lat="59.0954559596" lon="30.0404729624"><ele>66.293</ele><time>2026-04-20T12:51:00.003Z</time></trkpt>
   <trkpt lat="59.0951359805" lon="30.0408319593"><ele>67.269</ele><time>2026-04-20T12:51:51.998Z</time></trkpt>
   <trkpt lat="59.0950339727" lon="30.0408179615"><ele>66.751</ele><time>2026-04-20T12:52:17.996Z</time></trkpt>
   <trkpt lat="59.094987998" lon="30.0410889485"><ele>67.055</ele><time>2026-04-20T12:58:35.003Z</time></trkpt>
   <trkpt lat="59.0949989783" lon="30.0408729468"><ele>66.964</ele><time>2026-04-20T12:59:15.999Z</time></trkpt>
   <trkpt lat="59.0949119741" lon="30.040732969"><ele>67.299</ele><time>2026-04-20T12:59:32.001Z</time></trkpt>
   <trkpt lat="59.0946179789" lon="30.0407929835"><ele>66.08</ele><time>2026-04-20T13:00:08.997Z</time></trkpt>
   <trkpt lat="59.094503985" lon="30.0408699293"><ele>66.781</ele><time>2026-04-20T13:00:27.996Z</time></trkpt>
   <trkpt lat="59.0944209622" lon="30.0407869485"><ele>65.836</ele><time>2026-04-20T13:01:47.001Z</time></trkpt>
   <trkpt lat="59.0945009675" lon="30.0407639821"><ele>65.653</ele><time>2026-04-20T13:02:34.996Z</time></trkpt>
   <trkpt lat="59.0939769728" lon="30.0409789779"><ele>65.318</ele><time>2026-04-20T13:03:37.999Z</time></trkpt>
   <trkpt lat="59.0936599693" lon="30.0412059598"><ele>64.526</ele><time>2026-04-20T13:04:26.003Z</time></trkpt>
   <trkpt lat="59.0935909862" lon="30.0412579276"><ele>64.769</ele><time>2026-04-20T13:05:44.998Z</time></trkpt>
   <trkpt lat="59.0934219651" lon="30.0413119909"><ele>63.337</ele><time>2026-04-20T13:06:14.996Z</time></trkpt>
   <trkpt lat="59.0930909638" lon="30.0414709956"><ele>64.343</ele><time>2026-04-20T13:08:29.003Z</time></trkpt>
   <trkpt lat="59.0929629721" lon="30.0414789584"><ele>64.312</ele><time>2026-04-20T13:09:09.999Z</time></trkpt>
   <trkpt lat="59.0928969646" lon="30.0416289945"><ele>64.861</ele><time>2026-04-20T13:10:01.001Z</time></trkpt>
   <trkpt lat="59.0929209788" lon="30.0421579764"><ele>65.135</ele><time>2026-04-20T13:12:39.001Z</time></trkpt>
   <trkpt lat="59.0929589907" lon="30.0424499181"><ele>65.531</ele><time>2026-04-20T13:14:08.002Z</time></trkpt>
   <trkpt lat="59.0928989763" lon="30.0429669977"><ele>65.379</ele><time>2026-04-20T13:15:45.003Z</time></trkpt>
   <trkpt lat="59.0929049693" lon="30.0431209732"><ele>66.141</ele><time>2026-04-20T13:16:07.000Z</time></trkpt>
   <trkpt lat="59.0929839688" lon="30.0433299341"><ele>65.105</ele><time>2026-04-20T13:16:27.002Z</time></trkpt>
   <trkpt lat="59.0930649799" lon="30.0433349632"><ele>65.531</ele><time>2026-04-20T13:16:40.999Z</time></trkpt>
   <trkpt lat="59.0936919881" lon="30.0431629666"><ele>64.587</ele><time>2026-04-20T13:18:19.002Z</time></trkpt>
   <trkpt lat="59.0940029986" lon="30.0429809955"><ele>64.861</ele><time>2026-04-20T13:19:05.002Z</time></trkpt>
   <trkpt lat="59.0943439745" lon="30.0427169655"><ele>65.135</ele><time>2026-04-20T13:21:40.003Z</time></trkpt>
   <trkpt lat="59.0946879678" lon="30.0425209966"><ele>63.977</ele><time>2026-04-20T13:22:38.997Z</time></trkpt>
   <trkpt lat="59.0949279836" lon="30.0424539414"><ele>65.196</ele><time>2026-04-20T13:24:11.998Z</time></trkpt>
   <trkpt lat="59.095006983" lon="30.0424919952"><ele>64.007</ele><time>2026-04-20T13:25:43.997Z</time></trkpt>
   <trkpt lat="59.0951869844" lon="30.0423039891"><ele>63.185</ele><time>2026-04-20T13:26:24.000Z</time></trkpt>
   <trkpt lat="59.0955439696" lon="30.0420609978"><ele>63.459</ele><time>2026-04-20T13:27:35.004Z</time></trkpt>
   <trkpt lat="59.0956769904" lon="30.0421329983"><ele>62.483</ele><time>2026-04-20T13:28:40.996Z</time></trkpt>
   <trkpt lat="59.095767976" lon="30.0419849739"><ele>62.88</ele><time>2026-04-20T13:29:06.000Z</time></trkpt>
   <trkpt lat="59.0959519588" lon="30.0418579881"><ele>62.331</ele><time>2026-04-20T13:29:31.998Z</time></trkpt>
   <trkpt lat="59.0960289885" lon="30.041846924"><ele>61.843</ele><time>2026-04-20T13:29:46.997Z</time></trkpt>
   <trkpt lat="59.096113981" lon="30.0419099559"><ele>60.929</ele><time>2026-04-20T13:30:08.001Z</time></trkpt>
   <trkpt lat="59.0962309923" lon="30.0418119714"><ele>60.502</ele><time>2026-04-20T13:30:36.996Z</time></trkpt>
   <trkpt lat="59.0964239856" lon="30.0418159947"><ele>59.314</ele><time>2026-04-20T13:31:45.002Z</time></trkpt>
   <trkpt lat="59.0964889873" lon="30.0417059403"><ele>58.765</ele><time>2026-04-20T13:32:16.996Z</time></trkpt>
   <trkpt lat="59.0967179809" lon="30.0413849973"><ele>58.673</ele><time>2026-04-20T13:33:30.997Z</time></trkpt>
   <trkpt lat="59.0969439989" lon="30.0413049501"><ele>57.82</ele><time>2026-04-20T13:34:35.996Z</time></trkpt>
   <trkpt lat="59.0970709847" lon="30.0411329534"><ele>57.393</ele><time>2026-04-20T13:35:02.996Z</time></trkpt>
   <trkpt lat="59.0971549714" lon="30.0411899504"><ele>57.942</ele><time>2026-04-20T13:35:22.004Z</time></trkpt>
   <trkpt lat="59.0973379903" lon="30.0409609568"><ele>55.534</ele><time>2026-04-20T13:36:43.998Z</time></trkpt>
   <trkpt lat="59.0974509783" lon="30.0409939815"><ele>55.443</ele><time>2026-04-20T13:37:57.999Z</time></trkpt>
   <trkpt lat="59.0975549977" lon="30.0408599549"><ele>55.412</ele><time>2026-04-20T13:38:23.004Z</time></trkpt>
   <trkpt lat="59.0976599811" lon="30.0408499804"><ele>54.833</ele><time>2026-04-20T13:38:43.999Z</time></trkpt>
   <trkpt lat="59.0978829816" lon="30.0406549335"><ele>55.351</ele><time>2026-04-20T13:39:31.000Z</time></trkpt>
   <trkpt lat="59.0981139869" lon="30.0406589568"><ele>54.071</ele><time>2026-04-20T13:40:53.003Z</time></trkpt>
   <trkpt lat="59.0981839758" lon="30.0405479804"><ele>54.132</ele><time>2026-04-20T13:41:21.998Z</time></trkpt>
   <trkpt lat="59.0985479599" lon="30.0406439532"><ele>51.267</ele><time>2026-04-20T13:43:58.002Z</time></trkpt>
   <trkpt lat="59.0986369757" lon="30.0404349924"><ele>51.114</ele><time>2026-04-20T13:45:00.996Z</time></trkpt>
   <trkpt lat="59.098640999" lon="30.0402839505"><ele>50.688</ele><time>2026-04-20T13:45:20.998Z</time></trkpt>
   <trkpt lat="59.0989229663" lon="30.0403669313"><ele>50.657</ele><time>2026-04-20T13:46:43.000Z</time></trkpt>
   <trkpt lat="59.0988409912" lon="30.0404299632"><ele>51.328</ele><time>2026-04-20T13:48:25.998Z</time></trkpt>
   <trkpt lat="59.098911986" lon="30.0403679371"><ele>51.206</ele><time>2026-04-20T13:50:08.002Z</time></trkpt>
   <trkpt lat="59.0988359621" lon="30.0403239321"><ele>51.419</ele><time>2026-04-20T13:52:07.000Z</time></trkpt>
   <trkpt lat="59.0988649635" lon="30.0405349885"><ele>52.273</ele><time>2026-04-20T13:54:35.997Z</time></trkpt>
   <trkpt lat="59.0989609782" lon="30.0403959327"><ele>53.461</ele><time>2026-04-20T13:55:40.996Z</time></trkpt>
   <trkpt lat="59.0990219984" lon="30.0402559549"><ele>55.26</ele><time>2026-04-20T13:57:41.999Z</time></trkpt>
   <trkpt lat="59.0991739623" lon="30.0403399416"><ele>56.022</ele><time>2026-04-20T13:58:21.000Z</time></trkpt>
   <trkpt lat="59.099376972" lon="30.0403149635"><ele>56.357</ele><time>2026-04-20T13:59:19.000Z</time></trkpt>
   <trkpt lat="59.0997169839" lon="30.0399139733"><ele>55.656</ele><time>2026-04-20T14:00:27.999Z</time></trkpt>
   <trkpt lat="59.0999529764" lon="30.0398829602"><ele>57.393</ele><time>2026-04-20T14:01:03.000Z</time></trkpt>
   <trkpt lat="59.1001279906" lon="30.0397229497"><ele>57.149</ele><time>2026-04-20T14:02:41.997Z</time></trkpt>
   <trkpt lat="59.1004689664" lon="30.0395779428"><ele>58.277</ele><time>2026-04-20T14:03:46.996Z</time></trkpt>
   <trkpt lat="59.100728973" lon="30.0394509569"><ele>59.314</ele><time>2026-04-20T14:04:26.999Z</time></trkpt>
   <trkpt lat="59.1008819847" lon="30.0395209458"><ele>59.405</ele><time>2026-04-20T14:04:48.996Z</time></trkpt>
   <trkpt lat="59.1009639597" lon="30.0396109675"><ele>59.009</ele><time>2026-04-20T14:04:59.002Z</time></trkpt>
   <trkpt lat="59.1010569988" lon="30.0398229458"><ele>59.496</ele><time>2026-04-20T14:05:18.001Z</time></trkpt>
   <trkpt lat="59.101105991" lon="30.0400629197"><ele>59.71</ele><time>2026-04-20T14:05:37.000Z</time></trkpt>
   <trkpt lat="59.1010549871" lon="30.0403189868"><ele>59.557</ele><time>2026-04-20T14:06:58.000Z</time></trkpt>
   <trkpt lat="59.1010769896" lon="30.0404759799"><ele>60.472</ele><time>2026-04-20T14:07:18.002Z</time></trkpt>
   <trkpt lat="59.1010169752" lon="30.0402549491"><ele>59.923</ele><time>2026-04-20T14:07:58.999Z</time></trkpt>
   <trkpt lat="59.1010439649" lon="30.0407389202"><ele>59.344</ele><time>2026-04-20T14:08:44.998Z</time></trkpt>
   <trkpt lat="59.1009589724" lon="30.0410159421"><ele>61.965</ele><time>2026-04-20T14:09:13.000Z</time></trkpt>
   <trkpt lat="59.1010339905" lon="30.0410619587"><ele>59.649</ele><time>2026-04-20T14:09:45.003Z</time></trkpt>
   <trkpt lat="59.1008019794" lon="30.0410809856"><ele>60.502</ele><time>2026-04-20T14:10:31.002Z</time></trkpt>
   <trkpt lat="59.1005419728" lon="30.0414029345"><ele>60.746</ele><time>2026-04-20T14:11:33.996Z</time></trkpt>
   <trkpt lat="59.1004689664" lon="30.0413779565"><ele>61.539</ele><time>2026-04-20T14:12:01.999Z</time></trkpt>
   <trkpt lat="59.1004059764" lon="30.041506954"><ele>60.716</ele><time>2026-04-20T14:12:20.998Z</time></trkpt>
   <trkpt lat="59.1002609695" lon="30.0415799603"><ele>61.325</ele><time>2026-04-20T14:12:50.003Z</time></trkpt>
   <trkpt lat="59.1002059842" lon="30.0417159986"><ele>61.234</ele><time>2026-04-20T14:13:22.999Z</time></trkpt>
   <trkpt lat="59.0999459775" lon="30.0420129695"><ele>61.813</ele><time>2026-04-20T14:14:58.004Z</time></trkpt>
   <trkpt lat="59.0998879748" lon="30.0421509356"><ele>61.935</ele><time>2026-04-20T14:15:47.002Z</time></trkpt>
   <trkpt lat="59.0998509687" lon="30.0423659314"><ele>62.057</ele><time>2026-04-20T14:17:02.999Z</time></trkpt>
   <trkpt lat="59.0994049676" lon="30.0424679392"><ele>62.483</ele><time>2026-04-20T14:18:02.002Z</time></trkpt>
   <trkpt lat="59.0992669596" lon="30.0424359203"><ele>62.331</ele><time>2026-04-20T14:18:30.997Z</time></trkpt>
   <trkpt lat="59.098974976" lon="30.0425339886"><ele>62.575</ele><time>2026-04-20T14:19:12.996Z</time></trkpt>
   <trkpt lat="59.0988959765" lon="30.0426549394"><ele>62.118</ele><time>2026-04-20T14:19:55.004Z</time></trkpt>
   <trkpt lat="59.098936964" lon="30.0428029638"><ele>61.904</ele><time>2026-04-20T14:20:11.999Z</time></trkpt>
   <trkpt lat="59.0987089763" lon="30.0430849311"><ele>62.727</ele><time>2026-04-20T14:21:23.003Z</time></trkpt>
   <trkpt lat="59.0984819943" lon="30.0430279341"><ele>61.6</ele><time>2026-04-20T14:23:18.001Z</time></trkpt>
   <trkpt lat="59.0982519949" lon="30.0430229888"><ele>62.697</ele><time>2026-04-20T14:24:01.996Z</time></trkpt>
   <trkpt lat="59.0981639849" lon="30.0428949971"><ele>62.514</ele><time>2026-04-20T14:24:29.998Z</time></trkpt>
   <trkpt lat="59.0980369991" lon="30.0430829194"><ele>63.124</ele><time>2026-04-20T14:27:07.998Z</time></trkpt>
   <trkpt lat="59.0978909863" lon="30.0431979191"><ele>62.423</ele><time>2026-04-20T14:28:12.996Z</time></trkpt>
   <trkpt lat="59.0976889825" lon="30.0430309516"><ele>63.185</ele><time>2026-04-20T14:28:51.997Z</time></trkpt>
   <trkpt lat="59.0972529978" lon="30.0430739508"><ele>64.709</ele><time>2026-04-20T14:31:20.001Z</time></trkpt>
   <trkpt lat="59.0971429853" lon="30.0432289322"><ele>63.947</ele><time>2026-04-20T14:32:02.000Z</time></trkpt>
   <trkpt lat="59.0967829826" lon="30.0433609471"><ele>64.587</ele><time>2026-04-20T14:33:01.002Z</time></trkpt>
   <trkpt lat="59.0968199887" lon="30.0435239751"><ele>65.349</ele><time>2026-04-20T14:33:48.004Z</time></trkpt>
   <trkpt lat="59.0968329806" lon="30.043908956"><ele>65.41</ele><time>2026-04-20T14:34:23.998Z</time></trkpt>
   <trkpt lat="59.0966769934" lon="30.0434979912"><ele>65.013</ele><time>2026-04-20T14:35:27.001Z</time></trkpt>
   <trkpt lat="59.0966079684" lon="30.0433539901"><ele>64.922</ele><time>2026-04-20T14:35:40.998Z</time></trkpt>
   <trkpt lat="59.0965279632" lon="30.043297999"><ele>65.531</ele><time>2026-04-20T14:36:18.003Z</time></trkpt>
   <trkpt lat="59.0964059646" lon="30.0433479552"><ele>65.074</ele><time>2026-04-20T14:37:04.002Z</time></trkpt>
   <trkpt lat="59.0963229837" lon="30.0432839174"><ele>65.775</ele><time>2026-04-20T14:37:21.999Z</time></trkpt>
   <trkpt lat="59.0962789787" lon="30.0431229849"><ele>65.775</ele><time>2026-04-20T14:37:43.997Z</time></trkpt>
   <trkpt lat="59.0960009929" lon="30.043128936"><ele>65.775</ele><time>2026-04-20T14:39:03.001Z</time></trkpt>
   <trkpt lat="59.0959889649" lon="30.0432849233"><ele>66.324</ele><time>2026-04-20T14:39:15.002Z</time></trkpt>
   <trkpt lat="59.0958769826" lon="30.0433129188"><ele>65.989</ele><time>2026-04-20T14:39:38.002Z</time></trkpt>
   <trkpt lat="59.095289998" lon="30.0433979951"><ele>65.684</ele><time>2026-04-20T14:40:59.002Z</time></trkpt>
   <trkpt lat="59.0947729603" lon="30.0433879369"><ele>66.141</ele><time>2026-04-20T14:42:08.001Z</time></trkpt>
   <trkpt lat="59.0946679769" lon="30.0435269926"><ele>66.324</ele><time>2026-04-20T14:42:36.003Z</time></trkpt>
   <trkpt lat="59.0945789611" lon="30.0435619452"><ele>66.05</ele><time>2026-04-20T14:42:54.000Z</time></trkpt>
   <trkpt lat="59.094616973" lon="30.0436869193"><ele>67.817</ele><time>2026-04-20T14:43:52.000Z</time></trkpt>
   <trkpt lat="59.0944339961" lon="30.0436779507"><ele>66.202</ele><time>2026-04-20T14:44:38.000Z</time></trkpt>
   <trkpt lat="59.0943769992" lon="30.0438659568"><ele>67.025</ele><time>2026-04-20T14:45:06.002Z</time></trkpt>
   <trkpt lat="59.0941259612" lon="30.0442329165"><ele>67.269</ele><time>2026-04-20T14:46:32.998Z</time></trkpt>
   <trkpt lat="59.0940409687" lon="30.0442019873"><ele>67.665</ele><time>2026-04-20T14:46:44.999Z</time></trkpt>
   <trkpt lat="59.0939829659" lon="30.0442929309"><ele>67.177</ele><time>2026-04-20T14:47:05.001Z</time></trkpt>
   <trkpt lat="59.0939659925" lon="30.0444319867"><ele>67.513</ele><time>2026-04-20T14:47:29.003Z</time></trkpt>
   <trkpt lat="59.0940559723" lon="30.0445899856"><ele>67.025</ele><time>2026-04-20T14:47:57.998Z</time></trkpt>
   <trkpt lat="59.0939589936" lon="30.0446939212"><ele>67.238</ele><time>2026-04-20T14:48:22.000Z</time></trkpt>
   <trkpt lat="59.0939219875" lon="30.0450059794"><ele>66.263</ele><time>2026-04-20T14:49:03.999Z</time></trkpt>
   <trkpt lat="59.0940349756" lon="30.0453169481"><ele>67.604</ele><time>2026-04-20T14:50:26.002Z</time></trkpt>
   <trkpt lat="59.0939899648" lon="30.0455329497"><ele>66.873</ele><time>2026-04-20T14:51:04.000Z</time></trkpt>
   <trkpt lat="59.0943679886" lon="30.0453779683"><ele>66.354</ele><time>2026-04-20T14:52:03.003Z</time></trkpt>
   <trkpt lat="59.0944739778" lon="30.0452299439"><ele>66.141</ele><time>2026-04-20T14:52:50.998Z</time></trkpt>
   <trkpt lat="59.0947119819" lon="30.0452319556"><ele>65.653</ele><time>2026-04-20T14:53:33.999Z</time></trkpt>
   <trkpt lat="59.0945869658" lon="30.0451029581"><ele>65.928</ele><time>2026-04-20T14:54:07.998Z</time></trkpt>
   <trkpt lat="59.0948329747" lon="30.0452259206"><ele>66.385</ele><time>2026-04-20T14:54:45.003Z</time></trkpt>
   <trkpt lat="59.0949179672" lon="30.0453129247"><ele>65.958</ele><time>2026-04-20T14:54:57.004Z</time></trkpt>
   <trkpt lat="59.09497597" lon="30.0450139423"><ele>65.623</ele><time>2026-04-20T14:55:43.003Z</time></trkpt>
   <trkpt lat="59.0951939833" lon="30.044945965"><ele>65.836</ele><time>2026-04-20T14:56:02.996Z</time></trkpt>
   <trkpt lat="59.0953199633" lon="30.0450199772"><ele>65.196</ele><time>2026-04-20T14:56:14.004Z</time></trkpt>
   <trkpt lat="59.0953999685" lon="30.0450679217"><ele>65.592</ele><time>2026-04-20T14:57:43.998Z</time></trkpt>
   <trkpt lat="59.095528966" lon="30.0448359944"><ele>65.074</ele><time>2026-04-20T14:58:52.003Z</time></trkpt>
   <trkpt lat="59.0957379688" lon="30.0447589648"><ele>65.044</ele><time>2026-04-20T14:59:15.003Z</time></trkpt>
   <trkpt lat="59.0959619751" lon="30.04477598"><ele>65.958</ele><time>2026-04-20T14:59:50.997Z</time></trkpt>
   <trkpt lat="59.0960349815" lon="30.0447109365"><ele>65.562</ele><time>2026-04-20T15:00:00.000Z</time></trkpt>
   <trkpt lat="59.0962199701" lon="30.0447329809"><ele>63.215</ele><time>2026-04-20T15:00:32.996Z</time></trkpt>
   <trkpt lat="59.0963349698" lon="30.044656957"><ele>66.537</ele><time>2026-04-20T15:00:54.000Z</time></trkpt>
   <trkpt lat="59.096427967" lon="30.0446589687"><ele>65.166</ele><time>2026-04-20T15:02:33.999Z</time></trkpt>
   <trkpt lat="59.0964069704" lon="30.0444679451"><ele>64.617</ele><time>2026-04-20T15:03:26.997Z</time></trkpt>
   <trkpt lat="59.0965139654" lon="30.0444839545"><ele>64.617</ele><time>2026-04-20T15:04:11.001Z</time></trkpt>
   <trkpt lat="59.0964249915" lon="30.0444719684"><ele>67.025</ele><time>2026-04-20T15:08:07.996Z</time></trkpt>
   <trkpt lat="59.0964999676" lon="30.0446159695"><ele>66.05</ele><time>2026-04-20T15:09:04.000Z</time></trkpt>
   <trkpt lat="59.0967529753" lon="30.0444629998"><ele>67.848</ele><time>2026-04-20T15:11:12.002Z</time></trkpt>
   <trkpt lat="59.0966519734" lon="30.0443669431"><ele>67.513</ele><time>2026-04-20T15:11:59.997Z</time></trkpt>
   <trkpt lat="59.0967399834" lon="30.0444219284"><ele>68.153</ele><time>2026-04-20T15:12:33.002Z</time></trkpt>
   <trkpt lat="59.0963439804" lon="30.0445019756"><ele>68.061</ele><time>2026-04-20T15:15:35.997Z</time></trkpt>
   <trkpt lat="59.096226969" lon="30.0443099462"><ele>67.391</ele><time>2026-04-20T15:16:22.999Z</time></trkpt>
   <trkpt lat="59.0963439804" lon="30.0444229343"><ele>67.543</ele><time>2026-04-20T15:16:39.000Z</time></trkpt>
   <trkpt lat="59.0965799729" lon="30.0445239362"><ele>66.842</ele><time>2026-04-20T15:17:16.999Z</time></trkpt>
   <trkpt lat="59.0966329884" lon="30.0444169831"><ele>66.629</ele><time>2026-04-20T15:18:10.999Z</time></trkpt>
   <trkpt lat="59.0967559928" lon="30.044442967"><ele>67.269</ele><time>2026-04-20T15:22:39.003Z</time></trkpt>
   <trkpt lat="59.0970069889" lon="30.0442449865"><ele>67.817</ele><time>2026-04-20T15:23:37.003Z</time></trkpt>
   <trkpt lat="59.0971279817" lon="30.0441339262"><ele>67.817</ele><time>2026-04-20T15:23:53.998Z</time></trkpt>
   <trkpt lat="59.09721398" lon="30.0441939407"><ele>67.238</ele><time>2026-04-20T15:24:12.997Z</time></trkpt>
   <trkpt lat="59.0973109586" lon="30.0443529454"><ele>67.421</ele><time>2026-04-20T15:24:54.003Z</time></trkpt>
   <trkpt lat="59.0975239847" lon="30.0444329925"><ele>67.452</ele><time>2026-04-20T15:26:19.997Z</time></trkpt>
   <trkpt lat="59.0974479608" lon="30.0449559395"><ele>66.354</ele><time>2026-04-20T15:28:03.003Z</time></trkpt>
   <trkpt lat="59.0973529939" lon="30.0453109969"><ele>67.177</ele><time>2026-04-20T15:28:46.004Z</time></trkpt>
   <trkpt lat="59.0973909639" lon="30.0454369769"><ele>67.513</ele><time>2026-04-20T15:29:09.004Z</time></trkpt>
   <trkpt lat="59.0975019822" lon="30.0455349614"><ele>67.299</ele><time>2026-04-20T15:29:36.997Z</time></trkpt>
   <trkpt lat="59.0974259583" lon="30.0456959777"><ele>66.873</ele><time>2026-04-20T15:30:09.000Z</time></trkpt>
   <trkpt lat="59.0974229828" lon="30.0458619394"><ele>68.244</ele><time>2026-04-20T15:31:01.998Z</time></trkpt>
   <trkpt lat="59.0974379864" lon="30.0460119755"><ele>67.787</ele><time>2026-04-20T15:31:35.003Z</time></trkpt>
   <trkpt lat="59.097320975" lon="30.0459839799"><ele>68.732</ele><time>2026-04-20T15:32:25.996Z</time></trkpt>
   <trkpt lat="59.0972639781" lon="30.0461029191"><ele>68.519</ele><time>2026-04-20T15:33:16.004Z</time></trkpt>
   <trkpt lat="59.0970109703" lon="30.0465569668"><ele>68.488</ele><time>2026-04-20T15:34:35.000Z</time></trkpt>
   <trkpt lat="59.096905987" lon="30.0467959349"><ele>68.427</ele><time>2026-04-20T15:35:12.998Z</time></trkpt>
   <trkpt lat="59.0967809709" lon="30.046593931"><ele>68.122</ele><time>2026-04-20T15:36:13.003Z</time></trkpt>
   <trkpt lat="59.0967709964" lon="30.0464409613"><ele>68.305</ele><time>2026-04-20T15:36:27.000Z</time></trkpt>
   <trkpt lat="59.0966499618" lon="30.0462929369"><ele>68.336</ele><time>2026-04-20T15:36:48.997Z</time></trkpt>
   <trkpt lat="59.0966129976" lon="30.0460389652"><ele>68.793</ele><time>2026-04-20T15:37:42.004Z</time></trkpt>
   <trkpt lat="59.0962859776" lon="30.045624983"><ele>68.793</ele><time>2026-04-20T15:39:41.996Z</time></trkpt>
   <trkpt lat="59.095987959" lon="30.045580978"><ele>69.281</ele><time>2026-04-20T15:40:32.998Z</time></trkpt>
   <trkpt lat="59.0956069596" lon="30.0457419944"><ele>68.732</ele><time>2026-04-20T15:41:25.996Z</time></trkpt>
   <trkpt lat="59.0952539977" lon="30.0458649569"><ele>68.64</ele><time>2026-04-20T15:42:15.002Z</time></trkpt>
   <trkpt lat="59.0950799894" lon="30.0459889252"><ele>68.549</ele><time>2026-04-20T15:42:47.998Z</time></trkpt>
   <trkpt lat="59.0950419774" lon="30.0461149891"><ele>68.397</ele><time>2026-04-20T15:43:13.996Z</time></trkpt>
   <trkpt lat="59.094918973" lon="30.0461209402"><ele>69.128</ele><time>2026-04-20T15:45:04.000Z</time></trkpt>
   <trkpt lat="59.094352985" lon="30.0460269791"><ele>69.341</ele><time>2026-04-20T15:46:53.003Z</time></trkpt>
   <trkpt lat="59.0941039587" lon="30.0463699665"><ele>69.738</ele><time>2026-04-20T15:47:38.000Z</time></trkpt>
   <trkpt lat="59.0940419745" lon="30.0468129501"><ele>69.89</ele><time>2026-04-20T15:48:42.998Z</time></trkpt>
   <trkpt lat="59.0940299884" lon="30.0469559454"><ele>71.14</ele><time>2026-04-20T15:53:26.002Z</time></trkpt>
   <trkpt lat="59.0942469958" lon="30.0470859487"><ele>70.286</ele><time>2026-04-20T15:54:05.003Z</time></trkpt>
   <trkpt lat="59.0942409609" lon="30.0473929778"><ele>70.957</ele><time>2026-04-20T15:54:40.003Z</time></trkpt>
   <trkpt lat="59.094264975" lon="30.0478379731"><ele>71.506</ele><time>2026-04-20T15:57:17.001Z</time></trkpt>
   <trkpt lat="59.0943789689" lon="30.0477039464"><ele>70.652</ele><time>2026-04-20T15:57:41.003Z</time></trkpt>
   <trkpt lat="59.0944629975" lon="30.0475149345"><ele>70.744</ele><time>2026-04-20T15:58:01.004Z</time></trkpt>
   <trkpt lat="59.09469899" lon="30.0473389984"><ele>70.043</ele><time>2026-04-20T15:58:27.002Z</time></trkpt>
   <trkpt lat="59.0948189769" lon="30.0473369867"><ele>68.884</ele><time>2026-04-20T15:58:47.004Z</time></trkpt>
   <trkpt lat="59.0948579947" lon="30.0474589434"><ele>70.225</ele><time>2026-04-20T15:59:06.996Z</time></trkpt>
   <trkpt lat="59.0953329971" lon="30.0472929817"><ele>69.616</ele><time>2026-04-20T16:00:07.001Z</time></trkpt>
   <trkpt lat="59.0954639644" lon="30.0473869429"><ele>69.555</ele><time>2026-04-20T16:00:24.998Z</time></trkpt>
   <trkpt lat="59.0959359912" lon="30.0473309517"><ele>69.189</ele><time>2026-04-20T16:02:50.004Z</time></trkpt>
   <trkpt lat="59.0960809982" lon="30.0472029601"><ele>68.275</ele><time>2026-04-20T16:03:12.001Z</time></trkpt>
   <trkpt lat="59.0962569762" lon="30.0471479748"><ele>68.579</ele><time>2026-04-20T16:03:32.996Z</time></trkpt>
   <trkpt lat="59.0964809826" lon="30.0469389301"><ele>69.22</ele><time>2026-04-20T16:04:11.004Z</time></trkpt>
   <trkpt lat="59.0966299709" lon="30.0469259382"><ele>68.275</ele><time>2026-04-20T16:04:34.997Z</time></trkpt>
   <trkpt lat="59.0967499998" lon="30.0470169657"><ele>67.97</ele><time>2026-04-20T16:05:00.001Z</time></trkpt>
   <trkpt lat="59.096830969" lon="30.0470519182"><ele>65.989</ele><time>2026-04-20T16:10:43.000Z</time></trkpt>
   <trkpt lat="59.0972009881" lon="30.0472929817"><ele>67.086</ele><time>2026-04-20T16:12:08.001Z</time></trkpt>
   <trkpt lat="59.0973009842" lon="30.0471799937"><ele>66.324</ele><time>2026-04-20T16:12:31.000Z</time></trkpt>
   <trkpt lat="59.0974029919" lon="30.0472329673"><ele>66.842</ele><time>2026-04-20T16:12:44.004Z</time></trkpt>
   <trkpt lat="59.0976059597" lon="30.0475449417"><ele>66.446</ele><time>2026-04-20T16:13:22.996Z</time></trkpt>
   <trkpt lat="59.0978199916" lon="30.0475099892"><ele>66.537</ele><time>2026-04-20T16:14:24.003Z</time></trkpt>
   <trkpt lat="59.0978689838" lon="30.0472789839"><ele>66.446</ele><time>2026-04-20T16:15:03.997Z</time></trkpt>
   <trkpt lat="59.0980859913" lon="30.0471569434"><ele>66.507</ele><time>2026-04-20T16:15:54.999Z</time></trkpt>
   <trkpt lat="59.0981859874" lon="30.0469809235"><ele>65.989</ele><time>2026-04-20T16:16:26.000Z</time></trkpt>
   <trkpt lat="59.0983559724" lon="30.0468909856"><ele>65.745</ele><time>2026-04-20T16:17:01.000Z</time></trkpt>
   <trkpt lat="59.098653991" lon="30.0469439593"><ele>65.379</ele><time>2026-04-20T16:18:39.997Z</time></trkpt>
   <trkpt lat="59.0987189926" lon="30.0466559571"><ele>65.105</ele><time>2026-04-20T16:18:58.997Z</time></trkpt>
   <trkpt lat="59.098791999" lon="30.046549926"><ele>64.343</ele><time>2026-04-20T16:19:09.002Z</time></trkpt>
   <trkpt lat="59.0991599646" lon="30.0465099443"><ele>64.739</ele><time>2026-04-20T16:20:00.997Z</time></trkpt>
   <trkpt lat="59.0992759701" lon="30.0464429729"><ele>64.739</ele><time>2026-04-20T16:20:19.997Z</time></trkpt>
   <trkpt lat="59.0993889582" lon="30.0462839682"><ele>64.129</ele><time>2026-04-20T16:20:46.997Z</time></trkpt>
   <trkpt lat="59.0995879865" lon="30.0462879915"><ele>63.611</ele><time>2026-04-20T16:21:27.000Z</time></trkpt>
   <trkpt lat="59.0996589812" lon="30.0464619998"><ele>64.099</ele><time>2026-04-20T16:22:19.998Z</time></trkpt>
   <trkpt lat="59.0998849992" lon="30.0465239421"><ele>63.703</ele><time>2026-04-20T16:22:54.998Z</time></trkpt>
   <trkpt lat="59.1000039803" lon="30.0464809429"><ele>63.276</ele><time>2026-04-20T16:23:56.999Z</time></trkpt>
   <trkpt lat="59.1000769867" lon="30.0466669374"><ele>63.459</ele><time>2026-04-20T16:24:14.003Z</time></trkpt>
   <trkpt lat="59.1003749633" lon="30.0470439554"><ele>61.721</ele><time>2026-04-20T16:25:01.998Z</time></trkpt>
   <trkpt lat="59.100640963" lon="30.0472849351"><ele>61.447</ele><time>2026-04-20T16:25:43.003Z</time></trkpt>
   <trkpt lat="59.1008229761" lon="30.0470509962"><ele>59.74</ele><time>2026-04-20T16:27:58.997Z</time></trkpt>
   <trkpt lat="59.1011939591" lon="30.0469909818"><ele>59.253</ele><time>2026-04-20T16:29:12.998Z</time></trkpt>
   <trkpt lat="59.1013589988" lon="30.0468369224"><ele>59.192</ele><time>2026-04-20T16:29:53.002Z</time></trkpt>
   <trkpt lat="59.1015549677" lon="30.0468399399"><ele>58.948</ele><time>2026-04-20T16:30:24.002Z</time></trkpt>
   <trkpt lat="59.1020259887" lon="30.0466829468"><ele>58.186</ele><time>2026-04-20T16:31:19.998Z</time></trkpt>
   <trkpt lat="59.1021199918" lon="30.0465299771"><ele>58.521</ele><time>2026-04-20T16:31:30.996Z</time></trkpt>
   <trkpt lat="59.1021139987" lon="30.0463249557"><ele>58.552</ele><time>2026-04-20T16:31:58.999Z</time></trkpt>
   <trkpt lat="59.1020169782" lon="30.0459819682"><ele>57.607</ele><time>2026-04-20T16:32:32.997Z</time></trkpt>
   <trkpt lat="59.1020669762" lon="30.0456959777"><ele>58.094</ele><time>2026-04-20T16:34:01.998Z</time></trkpt>
   <trkpt lat="59.1019319857" lon="30.0452369847"><ele>57.546</ele><time>2026-04-20T16:35:41.997Z</time></trkpt>
   <trkpt lat="59.1020099793" lon="30.0449539278"><ele>57.668</ele><time>2026-04-20T16:36:15.002Z</time></trkpt>
   <trkpt lat="59.1020399865" lon="30.0446779956"><ele>57.515</ele><time>2026-04-20T16:36:31.003Z</time></trkpt>
   <trkpt lat="59.1022259809" lon="30.0444969465"><ele>57.119</ele><time>2026-04-20T16:37:17.003Z</time></trkpt>
   <trkpt lat="59.1022749732" lon="30.0442519434"><ele>57.485</ele><time>2026-04-20T16:37:48.003Z</time></trkpt>
   <trkpt lat="59.1022279926" lon="30.0441239518"><ele>58.247</ele><time>2026-04-20T16:37:55.001Z</time></trkpt>
   <trkpt lat="59.1022409845" lon="30.043970982"><ele>56.997</ele><time>2026-04-20T16:38:18.001Z</time></trkpt>
   <trkpt lat="59.1022489893" lon="30.0435709976"><ele>57.851</ele><time>2026-04-20T16:40:18.002Z</time></trkpt>
   <trkpt lat="59.1021579618" lon="30.0430229888"><ele>58.43</ele><time>2026-04-20T16:40:54.998Z</time></trkpt>
   <trkpt lat="59.1020799682" lon="30.0421829545"><ele>60.015</ele><time>2026-04-20T16:41:42.000Z</time></trkpt>
   <trkpt lat="59.1019189937" lon="30.041462949"><ele>59.649</ele><time>2026-04-20T16:42:10.002Z</time></trkpt>
   <trkpt lat="59.1018009765" lon="30.0405799993"><ele>59.832</ele><time>2026-04-20T16:43:01.004Z</time></trkpt>
   <trkpt lat="59.1018089812" lon="30.040368943"><ele>59.161</ele><time>2026-04-20T16:43:16.997Z</time></trkpt>
   <trkpt lat="59.1017459912" lon="30.0401349202"><ele>59.07</ele><time>2026-04-20T16:43:36.998Z</time></trkpt>
   <trkpt lat="59.1016989688" lon="30.0397129752"><ele>58.734</ele><time>2026-04-20T16:44:03.998Z</time></trkpt>
   <trkpt lat="59.1016289799" lon="30.0393779506"><ele>56.967</ele><time>2026-04-20T16:44:28.000Z</time></trkpt>
   <trkpt lat="59.1016239926" lon="30.0390499667"><ele>56.723</ele><time>2026-04-20T16:44:42.999Z</time></trkpt>
   <trkpt lat="59.1013969688" lon="30.038085964"><ele>56.845</ele><time>2026-04-20T16:45:19.002Z</time></trkpt>
   <trkpt lat="59.1013399719" lon="30.0377449882"><ele>56.327</ele><time>2026-04-20T16:45:32.999Z</time></trkpt>
   <trkpt lat="59.1013079949" lon="30.0372649566"><ele>56.083</ele><time>2026-04-20T16:46:13.002Z</time></trkpt>
   <trkpt lat="59.1012059871" lon="30.0367099908"><ele>54.772</ele><time>2026-04-20T16:46:47.001Z</time></trkpt>
   <trkpt lat="59.1010859583" lon="30.0357879814"><ele>54.041</ele><time>2026-04-20T16:47:34.002Z</time></trkpt>
   <trkpt lat="59.1008589763" lon="30.0345949851"><ele>53.522</ele><time>2026-04-20T16:48:17.997Z</time></trkpt>
   <trkpt lat="59.1007339603" lon="30.0340839405"><ele>52.913</ele><time>2026-04-20T16:48:48.997Z</time></trkpt>
   <trkpt lat="59.1007109938" lon="30.0337949325"><ele>52.334</ele><time>2026-04-20T16:49:00.998Z</time></trkpt>
   <trkpt lat="59.1005379914" lon="30.0327079673"><ele>50.261</ele><time>2026-04-20T16:50:13.998Z</time></trkpt>
   <trkpt lat="59.1005569764" lon="30.0325669837"><ele>50.688</ele><time>2026-04-20T16:50:31.001Z</time></trkpt>
   <trkpt lat="59.1004589919" lon="30.0321899657"><ele>49.59</ele><time>2026-04-20T16:50:47.996Z</time></trkpt>
   <trkpt lat="59.1003259711" lon="30.0313909188"><ele>48.585</ele><time>2026-04-20T16:51:23.999Z</time></trkpt>
   <trkpt lat="59.1002569881" lon="30.0311599974"><ele>48.615</ele><time>2026-04-20T16:51:41.996Z</time></trkpt>
   <trkpt lat="59.1000449678" lon="30.0297459703"><ele>48.737</ele><time>2026-04-20T16:52:43.997Z</time></trkpt>
   <trkpt lat="59.0996819895" lon="30.0281049613"><ele>46.908</ele><time>2026-04-20T16:53:52.996Z</time></trkpt>
   <trkpt lat="59.0994999765" lon="30.0269359373"><ele>45.933</ele><time>2026-04-20T16:54:39.997Z</time></trkpt>
   <trkpt lat="59.099263984" lon="30.0258189649"><ele>45.354</ele><time>2026-04-20T16:55:37.998Z</time></trkpt>
   <trkpt lat="59.0992339768" lon="30.0252469838"><ele>44.927</ele><time>2026-04-20T16:56:15.996Z</time></trkpt>
   <trkpt lat="59.0989889737" lon="30.0242819753"><ele>45.171</ele><time>2026-04-20T16:57:23.000Z</time></trkpt>
   <trkpt lat="59.0988669751" lon="30.0240459409"><ele>45.476</ele><time>2026-04-20T16:58:37.001Z</time></trkpt>
   <trkpt lat="59.098942999" lon="30.0240719248"><ele>44.957</ele><time>2026-04-20T16:59:36.997Z</time></trkpt>
   <trkpt lat="59.0988599763" lon="30.0241289218"><ele>45.994</ele><time>2026-04-20T17:00:34.004Z</time></trkpt>
   <trkpt lat="59.0988419971" lon="30.0235839304"><ele>45.598</ele><time>2026-04-20T17:02:33.003Z</time></trkpt>
   <trkpt lat="59.098584966" lon="30.0223109708"><ele>45.841</ele><time>2026-04-20T17:03:46.002Z</time></trkpt>
   <trkpt lat="59.0983779749" lon="30.0207449798"><ele>45.476</ele><time>2026-04-20T17:05:04.004Z</time></trkpt>
   <trkpt lat="59.0982499832" lon="30.0202809576"><ele>45.719</ele><time>2026-04-20T17:05:27.004Z</time></trkpt>
   <trkpt lat="59.0980659586" lon="30.0192779791"><ele>44.226</ele><time>2026-04-20T17:06:17.997Z</time></trkpt>
   <trkpt lat="59.098062983" lon="30.0190439564"><ele>44.348</ele><time>2026-04-20T17:07:06.001Z</time></trkpt>
   <trkpt lat="59.0976739789" lon="30.0170819205"><ele>44.348</ele><time>2026-04-20T17:08:50.001Z</time></trkpt>
   <trkpt lat="59.0975459872" lon="30.0161309936"><ele>43.494</ele><time>2026-04-20T17:09:34.004Z</time></trkpt>
   <trkpt lat="59.0974119606" lon="30.0156349525"><ele>43.19</ele><time>2026-04-20T17:10:13.999Z</time></trkpt>
   <trkpt lat="59.0973259622" lon="30.0149909709"><ele>43.068</ele><time>2026-04-20T17:10:40.999Z</time></trkpt>
   <trkpt lat="59.0972609606" lon="30.0147499912"><ele>43.037</ele><time>2026-04-20T17:10:51.997Z</time></trkpt>
   <trkpt lat="59.0972369883" lon="30.0141759985"><ele>43.159</ele><time>2026-04-20T17:11:18.997Z</time></trkpt>
   <trkpt lat="59.0970209867" lon="30.0127559364"><ele>43.799</ele><time>2026-04-20T17:12:18.000Z</time></trkpt>
   <trkpt lat="59.0968229642" lon="30.0117299915"><ele>43.708</ele><time>2026-04-20T17:13:03.999Z</time></trkpt>
   <trkpt lat="59.0966339942" lon="30.0109829963"><ele>44.104</ele><time>2026-04-20T17:14:07.996Z</time></trkpt>
   <trkpt lat="59.0964509754" lon="30.0098479189"><ele>44.287</ele><time>2026-04-20T17:15:02.998Z</time></trkpt>
   <trkpt lat="59.0962939823" lon="30.0091719185"><ele>44.409</ele><time>2026-04-20T17:15:40.003Z</time></trkpt>
   <trkpt lat="59.096119974" lon="30.0086359796"><ele>44.714</ele><time>2026-04-20T17:16:10.001Z</time></trkpt>
   <trkpt lat="59.0958419882" lon="30.0071599264"><ele>45.506</ele><time>2026-04-20T17:17:20.003Z</time></trkpt>
   <trkpt lat="59.0957559899" lon="30.0062039704"><ele>46.238</ele><time>2026-04-20T17:18:02.002Z</time></trkpt>
   <trkpt lat="59.0953739846" lon="30.0043389969"><ele>45.079</ele><time>2026-04-20T17:19:27.002Z</time></trkpt>
   <trkpt lat="59.0953099888" lon="30.0036299717"><ele>44.957</ele><time>2026-04-20T17:20:01.000Z</time></trkpt>
   <trkpt lat="59.0949059811" lon="30.0019139447"><ele>44.714</ele><time>2026-04-20T17:21:39.004Z</time></trkpt>
   <trkpt lat="59.09488796" lon="30.0016519264"><ele>44.866</ele><time>2026-04-20T17:21:50.003Z</time></trkpt>
   <trkpt lat="59.0949339766" lon="30.0014389422"><ele>44.866</ele><time>2026-04-20T17:21:55.999Z</time></trkpt>
   <trkpt lat="59.0948319689" lon="30.0006079603"><ele>45.415</ele><time>2026-04-20T17:22:40.996Z</time></trkpt>
   <trkpt lat="59.0947089644" lon="30.0001619593"><ele>45.445</ele><time>2026-04-20T17:23:02.000Z</time></trkpt>
   <trkpt lat="59.0945819786" lon="29.9994519283"><ele>45.476</ele><time>2026-04-20T17:23:34.002Z</time></trkpt>
   <trkpt lat="59.0943699584" lon="29.9988069408"><ele>45.415</ele><time>2026-04-20T17:24:04.000Z</time></trkpt>
   <trkpt lat="59.0942789728" lon="29.9982689903"><ele>45.14</ele><time>2026-04-20T17:24:28.002Z</time></trkpt>
   <trkpt lat="59.0941409648" lon="29.9977399245"><ele>44.988</ele><time>2026-04-20T17:24:52.004Z</time></trkpt>
   <trkpt lat="59.0940119673" lon="29.9967099563"><ele>45.262</ele><time>2026-04-20T17:25:35.999Z</time></trkpt>
   <trkpt lat="59.0939179642" lon="29.9962139991"><ele>45.14</ele><time>2026-04-20T17:26:00.001Z</time></trkpt>
   <trkpt lat="59.0938339776" lon="29.996025993"><ele>45.659</ele><time>2026-04-20T17:26:11.000Z</time></trkpt>
   <trkpt lat="59.0938019587" lon="29.9957809899"><ele>45.171</ele><time>2026-04-20T17:26:23.001Z</time></trkpt>
   <trkpt lat="59.0938159984" lon="29.9954799958"><ele>45.11</ele><time>2026-04-20T17:26:43.002Z</time></trkpt>
   <trkpt lat="59.0937259767" lon="29.9952929955"><ele>45.11</ele><time>2026-04-20T17:27:07.004Z</time></trkpt>
   <trkpt lat="59.0936809659" lon="29.9949709628"><ele>44.957</ele><time>2026-04-20T17:27:23.999Z</time></trkpt>
   <trkpt lat="59.093698987" lon="29.994378949"><ele>44.439</ele><time>2026-04-20T17:27:59.000Z</time></trkpt>
   <trkpt lat="59.0936469773" lon="29.9942079582"><ele>45.018</ele><time>2026-04-20T17:28:08.003Z</time></trkpt>
   <trkpt lat="59.0936029723" lon="29.9937709257"><ele>45.171</ele><time>2026-04-20T17:28:24.004Z</time></trkpt>
   <trkpt lat="59.0934799679" lon="29.9929939233"><ele>44.897</ele><time>2026-04-20T17:28:55.998Z</time></trkpt>
   <trkpt lat="59.0932499685" lon="29.9917409964"><ele>44.866</ele><time>2026-04-20T17:29:52.996Z</time></trkpt>
   <trkpt lat="59.0929889979" lon="29.990555963"><ele>45.689</ele><time>2026-04-20T17:30:54.003Z</time></trkpt>
   <trkpt lat="59.0929439871" lon="29.9903879896"><ele>45.902</ele><time>2026-04-20T17:32:00.004Z</time></trkpt>
   <trkpt lat="59.0929079868" lon="29.9898359575"><ele>45.628</ele><time>2026-04-20T17:32:42.003Z</time></trkpt>
   <trkpt lat="59.0927469704" lon="29.9889139481"><ele>46.36</ele><time>2026-04-20T17:33:25.998Z</time></trkpt>
   <trkpt lat="59.0925359979" lon="29.9878559843"><ele>46.786</ele><time>2026-04-20T17:34:18.002Z</time></trkpt>
   <trkpt lat="59.0924129935" lon="29.9876879272"><ele>47.0</ele><time>2026-04-20T17:35:16.996Z</time></trkpt>
   <trkpt lat="59.0922319863" lon="29.9865719606"><ele>49.225</ele><time>2026-04-20T17:41:04.998Z</time></trkpt>
  </trkseg>
 </trk>
 <trk>
  <name>20260420_Lisa43</name>
  <desc>20260420_Lisa43</desc>
  <type>TrackStyle_2196F3C8</type>
  <extensions>
   <gom:time>2026-04-20T12:00:58.000Z</gom:time>
   <line xmlns="http://www.topografix.com/GPX/gpx_style/0/2">
    <color>2196F3</color>
   </line>
  </extensions>
  <trkseg>
   <trkpt lat="59.0626629789" lon="30.0215009436"><ele>80.954</ele><time>2026-04-20T12:00:58.000Z</time></trkpt>
   <trkpt lat="59.0628159905" lon="30.0212899711"><ele>81.899</ele><time>2026-04-20T12:02:43.996Z</time></trkpt>
   <trkpt lat="59.0628539605" lon="30.0211039767"><ele>82.235</ele><time>2026-04-20T12:02:54.001Z</time></trkpt>
   <trkpt lat="59.0629999733" lon="30.0212389254"><ele>81.442</ele><time>2026-04-20T12:03:11.998Z</time></trkpt>
   <trkpt lat="59.0630789727" lon="30.021209924"><ele>83.393</ele><time>2026-04-20T12:04:24.997Z</time></trkpt>
   <trkpt lat="59.0631469919" lon="30.0210729637"><ele>85.313</ele><time>2026-04-20T12:05:53.998Z</time></trkpt>
   <trkpt lat="59.0633509655" lon="30.0210489914"><ele>84.582</ele><time>2026-04-20T12:06:16.004Z</time></trkpt>
   <trkpt lat="59.0636769796" lon="30.0207709637"><ele>83.698</ele><time>2026-04-20T12:07:01.001Z</time></trkpt>
   <trkpt lat="59.0638749601" lon="30.0203929399"><ele>83.88</ele><time>2026-04-20T12:07:29.997Z</time></trkpt>
   <trkpt lat="59.0641929695" lon="30.0202469271"><ele>86.014</ele><time>2026-04-20T12:15:12.997Z</time></trkpt>
   <trkpt lat="59.0645809678" lon="30.01961292"><ele>86.38</ele><time>2026-04-20T12:16:24.001Z</time></trkpt>
   <trkpt lat="59.0646649964" lon="30.0194149394"><ele>87.355</ele><time>2026-04-20T12:16:40.002Z</time></trkpt>
   <trkpt lat="59.0647649925" lon="30.0192199763"><ele>86.928</ele><time>2026-04-20T12:18:37.999Z</time></trkpt>
   <trkpt lat="59.0653349619" lon="30.018807922"><ele>86.441</ele><time>2026-04-20T12:19:58.999Z</time></trkpt>
   <trkpt lat="59.0654479919" lon="30.0186719675"><ele>86.38</ele><time>2026-04-20T12:20:13.004Z</time></trkpt>
   <trkpt lat="59.0655749777" lon="30.0185909983"><ele>86.288</ele><time>2026-04-20T12:20:27.001Z</time></trkpt>
   <trkpt lat="59.0657289952" lon="30.0186099414"><ele>87.203</ele><time>2026-04-20T12:21:30.004Z</time></trkpt>
   <trkpt lat="59.0659799913" lon="30.0181009923"><ele>88.666</ele><time>2026-04-20T12:22:55.998Z</time></trkpt>
   <trkpt lat="59.0662679935" lon="30.0179689773"><ele>89.641</ele><time>2026-04-20T12:23:22.004Z</time></trkpt>
   <trkpt lat="59.0663559616" lon="30.0179819692"><ele>90.037</ele><time>2026-04-20T12:23:33.996Z</time></trkpt>
   <trkpt lat="59.0665599771" lon="30.0178589229"><ele>88.666</ele><time>2026-04-20T12:24:11.002Z</time></trkpt>
   <trkpt lat="59.0667099713" lon="30.0176599365"><ele>91.196</ele><time>2026-04-20T12:25:45.998Z</time></trkpt>
   <trkpt lat="59.0667799601" lon="30.0173979182"><ele>90.647</ele><time>2026-04-20T12:26:24.999Z</time></trkpt>
   <trkpt lat="59.0669669604" lon="30.0176809751"><ele>90.342</ele><time>2026-04-20T12:27:09.003Z</time></trkpt>
   <trkpt lat="59.0671159906" lon="30.0176589307"><ele>90.921</ele><time>2026-04-20T12:27:31.000Z</time></trkpt>
   <trkpt lat="59.0672129693" lon="30.0175459426"><ele>91.927</ele><time>2026-04-20T12:27:51.002Z</time></trkpt>
   <trkpt lat="59.0669649907" lon="30.017210918"><ele>94.03</ele><time>2026-04-20T12:29:17.998Z</time></trkpt>
   <trkpt lat="59.0669179682" lon="30.0170139432"><ele>96.011</ele><time>2026-04-20T12:29:43.002Z</time></trkpt>
   <trkpt lat="59.0670189701" lon="30.0169739616"><ele>93.39</ele><time>2026-04-20T12:30:14.003Z</time></trkpt>
   <trkpt lat="59.0673769612" lon="30.0168659188"><ele>96.011</ele><time>2026-04-20T12:32:47.000Z</time></trkpt>
   <trkpt lat="59.0674429687" lon="30.0167419505"><ele>95.158</ele><time>2026-04-20T12:33:00.003Z</time></trkpt>
   <trkpt lat="59.0674709642" lon="30.0163029902"><ele>94.914</ele><time>2026-04-20T12:33:24.998Z</time></trkpt>
   <trkpt lat="59.067597992" lon="30.0161749986"><ele>94.396</ele><time>2026-04-20T12:33:45.000Z</time></trkpt>
   <trkpt lat="59.0676659692" lon="30.0161189236"><ele>93.329</ele><time>2026-04-20T12:34:01.001Z</time></trkpt>
   <trkpt lat="59.0677729642" lon="30.0162759167"><ele>91.927</ele><time>2026-04-20T12:34:17.003Z</time></trkpt>
   <trkpt lat="59.0678739661" lon="30.0163519405"><ele>91.897</ele><time>2026-04-20T12:34:35.000Z</time></trkpt>
   <trkpt lat="59.0681699731" lon="30.0159599189"><ele>92.476</ele><time>2026-04-20T12:36:54.000Z</time></trkpt>
   <trkpt lat="59.0683409639" lon="30.0160159939"><ele>92.598</ele><time>2026-04-20T12:37:11.004Z</time></trkpt>
   <trkpt lat="59.0686869688" lon="30.0156209548"><ele>94.579</ele><time>2026-04-20T12:37:57.003Z</time></trkpt>
   <trkpt lat="59.0687819777" lon="30.0154979922"><ele>94.945</ele><time>2026-04-20T12:38:09.004Z</time></trkpt>
   <trkpt lat="59.0688289583" lon="30.0153449387"><ele>95.768</ele><time>2026-04-20T12:38:44.998Z</time></trkpt>
   <trkpt lat="59.068905988" lon="30.0152779673"><ele>95.493</ele><time>2026-04-20T12:39:03.997Z</time></trkpt>
   <trkpt lat="59.0691569841" lon="30.0149669987"><ele>98.267</ele><time>2026-04-20T12:40:32.998Z</time></trkpt>
   <trkpt lat="59.0696389854" lon="30.0147559423"><ele>98.389</ele><time>2026-04-20T12:41:29.996Z</time></trkpt>
   <trkpt lat="59.069892999" lon="30.0144639168"><ele>100.675</ele><time>2026-04-20T12:42:23.003Z</time></trkpt>
   <trkpt lat="59.0701859884" lon="30.0141739868"><ele>100.187</ele><time>2026-04-20T12:44:02.000Z</time></trkpt>
   <trkpt lat="59.0702839729" lon="30.0141699635"><ele>100.035</ele><time>2026-04-20T12:44:15.003Z</time></trkpt>
   <trkpt lat="59.0704969989" lon="30.0139169977"><ele>98.816</ele><time>2026-04-20T12:44:46.003Z</time></trkpt>
   <trkpt lat="59.0706359709" lon="30.0136249722"><ele>96.255</ele><time>2026-04-20T12:45:17.004Z</time></trkpt>
   <trkpt lat="59.0707059598" lon="30.0136989844"><ele>96.469</ele><time>2026-04-20T12:45:32.996Z</time></trkpt>
   <trkpt lat="59.0707809778" lon="30.0137029239"><ele>98.237</ele><time>2026-04-20T12:46:21.000Z</time></trkpt>
   <trkpt lat="59.0708499609" lon="30.0134619441"><ele>97.84</ele><time>2026-04-20T12:47:01.003Z</time></trkpt>
   <trkpt lat="59.0710269867" lon="30.0133529794"><ele>96.956</ele><time>2026-04-20T12:47:24.996Z</time></trkpt>
   <trkpt lat="59.0715079822" lon="30.0133059569"><ele>94.0</ele><time>2026-04-20T12:48:41.003Z</time></trkpt>
   <trkpt lat="59.0715989677" lon="30.0131719303"><ele>85.283</ele><time>2026-04-20T12:49:12.996Z</time></trkpt>
   <trkpt lat="59.0713259692" lon="30.0133329466"><ele>82.235</ele><time>2026-04-20T12:49:43.003Z</time></trkpt>
   <trkpt lat="59.0712579919" lon="30.013273938"><ele>84.886</ele><time>2026-04-20T12:50:28.000Z</time></trkpt>
   <trkpt lat="59.0713289866" lon="30.0132369739"><ele>85.435</ele><time>2026-04-20T12:51:18.000Z</time></trkpt>
   <trkpt lat="59.0711969717" lon="30.0129589461"><ele>87.447</ele><time>2026-04-20T12:51:58.003Z</time></trkpt>
   <trkpt lat="59.0710549822" lon="30.0128679187"><ele>86.41</ele><time>2026-04-20T12:52:13.002Z</time></trkpt>
   <trkpt lat="59.0709989911" lon="30.0127039686"><ele>85.892</ele><time>2026-04-20T12:52:29.997Z</time></trkpt>
   <trkpt lat="59.0711219955" lon="30.0122399465"><ele>86.898</ele><time>2026-04-20T12:53:03.002Z</time></trkpt>
   <trkpt lat="59.0710419903" lon="30.0116309174"><ele>88.757</ele><time>2026-04-20T12:53:39.998Z</time></trkpt>
   <trkpt lat="59.0709589675" lon="30.0113749341"><ele>90.83</ele><time>2026-04-20T12:54:25.004Z</time></trkpt>
   <trkpt lat="59.070974977" lon="30.0111879338"><ele>90.068</ele><time>2026-04-20T12:55:23.998Z</time></trkpt>
   <trkpt lat="59.0708779983" lon="30.0105909747"><ele>89.946</ele><time>2026-04-20T12:57:44.001Z</time></trkpt>
   <trkpt lat="59.0708579656" lon="30.010337925"><ele>90.342</ele><time>2026-04-20T12:58:01.004Z</time></trkpt>
   <trkpt lat="59.0707759906" lon="30.0099969492"><ele>87.995</ele><time>2026-04-20T12:58:31.002Z</time></trkpt>
   <trkpt lat="59.0707639625" lon="30.0096329231"><ele>86.227</ele><time>2026-04-20T13:00:00.996Z</time></trkpt>
   <trkpt lat="59.0708459795" lon="30.0096529559"><ele>86.197</ele><time>2026-04-20T13:01:44.996Z</time></trkpt>
   <trkpt lat="59.0707079714" lon="30.0092099723"><ele>89.062</ele><time>2026-04-20T13:03:58.000Z</time></trkpt>
   <trkpt lat="59.0706429698" lon="30.0088279251"><ele>89.214</ele><time>2026-04-20T13:05:04.001Z</time></trkpt>
   <trkpt lat="59.0706349651" lon="30.0082009588"><ele>89.001</ele><time>2026-04-20T13:05:48.998Z</time></trkpt>
   <trkpt lat="59.0706849631" lon="30.0080749788"><ele>89.458</ele><time>2026-04-20T13:08:51.000Z</time></trkpt>
   <trkpt lat="59.070747995" lon="30.0079389405"><ele>87.629</ele><time>2026-04-20T13:09:16.004Z</time></trkpt>
   <trkpt lat="59.070848997" lon="30.0078589771"><ele>87.69</ele><time>2026-04-20T13:09:31.997Z</time></trkpt>
   <trkpt lat="59.0709909864" lon="30.0076569733"><ele>85.984</ele><time>2026-04-20T13:11:07.002Z</time></trkpt>
   <trkpt lat="59.0711929903" lon="30.0076279719"><ele>85.465</ele><time>2026-04-20T13:11:33.000Z</time></trkpt>
   <trkpt lat="59.0714889972" lon="30.00738892"><ele>86.41</ele><time>2026-04-20T13:12:20.002Z</time></trkpt>
   <trkpt lat="59.07164796" lon="30.0072829728"><ele>87.69</ele><time>2026-04-20T13:15:03.004Z</time></trkpt>
   <trkpt lat="59.0720379699" lon="30.0071759358"><ele>87.538</ele><time>2026-04-20T13:15:37.996Z</time></trkpt>
   <trkpt lat="59.0724679615" lon="30.0064149429"><ele>84.917</ele><time>2026-04-20T13:19:47.001Z</time></trkpt>
   <trkpt lat="59.072193999" lon="30.0063809962"><ele>85.404</ele><time>2026-04-20T13:21:40.997Z</time></trkpt>
   <trkpt lat="59.0721569929" lon="30.0062389229"><ele>84.642</ele><time>2026-04-20T13:21:52.998Z</time></trkpt>
   <trkpt lat="59.0720609782" lon="30.0061799981"><ele>84.033</ele><time>2026-04-20T13:22:08.999Z</time></trkpt>
   <trkpt lat="59.0720109802" lon="30.0060439598"><ele>84.49</ele><time>2026-04-20T13:22:26.003Z</time></trkpt>
   <trkpt lat="59.0718829885" lon="30.0060239271"><ele>84.124</ele><time>2026-04-20T13:22:38.997Z</time></trkpt>
   <trkpt lat="59.0717909971" lon="30.0059509207"><ele>84.429</ele><time>2026-04-20T13:22:53.996Z</time></trkpt>
   <trkpt lat="59.0716969941" lon="30.0056899921"><ele>85.679</ele><time>2026-04-20T13:23:13.004Z</time></trkpt>
   <trkpt lat="59.0715499755" lon="30.0055559654"><ele>85.313</ele><time>2026-04-20T13:23:33.999Z</time></trkpt>
   <trkpt lat="59.0715829583" lon="30.0053849746"><ele>87.05</ele><time>2026-04-20T13:23:44.998Z</time></trkpt>
   <trkpt lat="59.071936968" lon="30.0050719943"><ele>83.698</ele><time>2026-04-20T13:24:33.002Z</time></trkpt>
   <trkpt lat="59.0719229702" lon="30.0048999977"><ele>84.094</ele><time>2026-04-20T13:25:01.998Z</time></trkpt>
   <trkpt lat="59.0720189849" lon="30.0051339366"><ele>84.764</ele><time>2026-04-20T13:26:06.996Z</time></trkpt>
   <trkpt lat="59.0720849924" lon="30.0051909335"><ele>82.875</ele><time>2026-04-20T13:27:39.997Z</time></trkpt>
   <trkpt lat="59.0723489804" lon="30.0049639516"><ele>82.417</ele><time>2026-04-20T13:28:45.998Z</time></trkpt>
   <trkpt lat="59.0725069793" lon="30.0046339561"><ele>82.052</ele><time>2026-04-20T13:29:29.000Z</time></trkpt>
   <trkpt lat="59.0725419738" lon="30.0044959899"><ele>81.381</ele><time>2026-04-20T13:29:42.996Z</time></trkpt>
   <trkpt lat="59.0729629967" lon="30.0041299522"><ele>82.021</ele><time>2026-04-20T13:31:11.997Z</time></trkpt>
   <trkpt lat="59.0733419845" lon="30.0035829492"><ele>83.271</ele><time>2026-04-20T13:33:22.997Z</time></trkpt>
   <trkpt lat="59.0735949922" lon="30.0032739923"><ele>81.594</ele><time>2026-04-20T13:34:01.004Z</time></trkpt>
   <trkpt lat="59.0736879895" lon="30.0031179212"><ele>81.381</ele><time>2026-04-20T13:34:28.004Z</time></trkpt>
   <trkpt lat="59.0737969961" lon="30.0030949548"><ele>81.473</ele><time>2026-04-20T13:36:03.001Z</time></trkpt>
   <trkpt lat="59.0739069667" lon="30.0029359501"><ele>80.741</ele><time>2026-04-20T13:36:23.003Z</time></trkpt>
   <trkpt lat="59.074457993" lon="30.0022319541"><ele>80.832</ele><time>2026-04-20T13:38:46.003Z</time></trkpt>
   <trkpt lat="59.0747949874" lon="30.0019629788"><ele>78.882</ele><time>2026-04-20T13:40:34.997Z</time></trkpt>
   <trkpt lat="59.0750759907" lon="30.0015989528"><ele>81.716</ele><time>2026-04-20T13:41:20.003Z</time></trkpt>
   <trkpt lat="59.075237971" lon="30.0013109506"><ele>79.979</ele><time>2026-04-20T13:41:55.003Z</time></trkpt>
   <trkpt lat="59.0752079638" lon="30.001106935"><ele>80.985</ele><time>2026-04-20T13:43:30.000Z</time></trkpt>
   <trkpt lat="59.0750169821" lon="30.0003659748"><ele>81.838</ele><time>2026-04-20T13:44:38.999Z</time></trkpt>
   <trkpt lat="59.074948963" lon="29.999798939"><ele>80.223</ele><time>2026-04-20T13:46:26.999Z</time></trkpt>
   <trkpt lat="59.074979976" lon="29.9993379344"><ele>80.65</ele><time>2026-04-20T13:47:20.999Z</time></trkpt>
   <trkpt lat="59.0748929719" lon="29.9990369402"><ele>80.162</ele><time>2026-04-20T13:47:58.004Z</time></trkpt>
   <trkpt lat="59.0748789741" lon="29.9986999877"><ele>79.065</ele><time>2026-04-20T13:48:28.002Z</time></trkpt>
   <trkpt lat="59.0748319935" lon="29.9984349519"><ele>81.412</ele><time>2026-04-20T13:49:39.999Z</time></trkpt>
   <trkpt lat="59.0746679597" lon="29.9985329364"><ele>80.589</ele><time>2026-04-20T13:50:48.998Z</time></trkpt>
   <trkpt lat="59.0744469708" lon="29.9985729181"><ele>80.375</ele><time>2026-04-20T13:51:13.000Z</time></trkpt>
   <trkpt lat="59.0743589608" lon="29.9986699805"><ele>79.766</ele><time>2026-04-20T13:51:25.001Z</time></trkpt>
   <trkpt lat="59.0742579589" lon="29.9986629397"><ele>79.552</ele><time>2026-04-20T13:51:37.002Z</time></trkpt>
   <trkpt lat="59.07412498" lon="29.9988449946"><ele>78.912</ele><time>2026-04-20T13:51:57.004Z</time></trkpt>
   <trkpt lat="59.0739979942" lon="29.9988789414"><ele>79.827</ele><time>2026-04-20T13:52:12.996Z</time></trkpt>
   <trkpt lat="59.0738119997" lon="29.9990589846"><ele>78.973</ele><time>2026-04-20T13:52:58.002Z</time></trkpt>
   <trkpt lat="59.0738269614" lon="29.9989099544"><ele>78.272</ele><time>2026-04-20T14:01:12.996Z</time></trkpt>
   <trkpt lat="59.0735269731" lon="29.9990839627"><ele>78.303</ele><time>2026-04-20T14:07:35.999Z</time></trkpt>
   <trkpt lat="59.0734249653" lon="29.999169961"><ele>78.364</ele><time>2026-04-20T14:07:49.002Z</time></trkpt>
   <trkpt lat="59.0730379729" lon="29.9990279716"><ele>79.735</ele><time>2026-04-20T14:09:57.004Z</time></trkpt>
   <trkpt lat="59.0727279682" lon="29.9990239483"><ele>80.619</ele><time>2026-04-20T14:10:35.996Z</time></trkpt>
   <trkpt lat="59.0725789799" lon="29.998880953"><ele>80.924</ele><time>2026-04-20T14:10:57.000Z</time></trkpt>
   <trkpt lat="59.0724359846" lon="29.9988659494"><ele>83.698</ele><time>2026-04-20T14:12:58.997Z</time></trkpt>
   <trkpt lat="59.0724419776" lon="29.9983969819"><ele>81.594</ele><time>2026-04-20T14:13:56.004Z</time></trkpt>
   <trkpt lat="59.072495999" lon="29.9982049525"><ele>79.705</ele><time>2026-04-20T14:14:18.001Z</time></trkpt>
   <trkpt lat="59.0724619685" lon="29.9980219756"><ele>79.888</ele><time>2026-04-20T14:14:31.004Z</time></trkpt>
   <trkpt lat="59.0725259643" lon="29.9979209736"><ele>79.126</ele><time>2026-04-20T14:14:46.997Z</time></trkpt>
   <trkpt lat="59.0725659879" lon="29.9969679513"><ele>79.4</ele><time>2026-04-20T14:16:58.999Z</time></trkpt>
   <trkpt lat="59.0725319993" lon="29.9964759335"><ele>78.851</ele><time>2026-04-20T14:17:58.001Z</time></trkpt>
   <trkpt lat="59.0725499785" lon="29.9963279929"><ele>79.339</ele><time>2026-04-20T14:18:10.002Z</time></trkpt>
   <trkpt lat="59.0724799896" lon="29.9961049505"><ele>79.217</ele><time>2026-04-20T14:18:34.004Z</time></trkpt>
   <trkpt lat="59.0724979688" lon="29.9958949838"><ele>78.485</ele><time>2026-04-20T14:18:56.002Z</time></trkpt>
   <trkpt lat="59.0724369904" lon="29.9956989311"><ele>78.394</ele><time>2026-04-20T14:19:16.003Z</time></trkpt>
   <trkpt lat="59.0724249624" lon="29.9954609689"><ele>78.638</ele><time>2026-04-20T14:19:30.000Z</time></trkpt>
   <trkpt lat="59.0725129724" lon="29.9955379986"><ele>78.425</ele><time>2026-04-20T14:21:30.001Z</time></trkpt>
   <trkpt lat="59.0726509804" lon="29.9953889683"><ele>77.693</ele><time>2026-04-20T14:21:50.003Z</time></trkpt>
   <trkpt lat="59.0728449796" lon="29.995346975"><ele>77.784</ele><time>2026-04-20T14:22:12.000Z</time></trkpt>
   <trkpt lat="59.0729419582" lon="29.9952379264"><ele>77.205</ele><time>2026-04-20T14:22:25.003Z</time></trkpt>
   <trkpt lat="59.0730169762" lon="29.9953439575"><ele>75.163</ele><time>2026-04-20T14:22:37.998Z</time></trkpt>
   <trkpt lat="59.0731149607" lon="29.9952979409"><ele>76.23</ele><time>2026-04-20T14:22:48.996Z</time></trkpt>
   <trkpt lat="59.0732119812" lon="29.9950409517"><ele>80.04</ele><time>2026-04-20T14:24:48.004Z</time></trkpt>
   <trkpt lat="59.0732959679" lon="29.9949309811"><ele>80.162</ele><time>2026-04-20T14:25:12.999Z</time></trkpt>
   <trkpt lat="59.0735089939" lon="29.9949419614"><ele>80.375</ele><time>2026-04-20T14:25:39.999Z</time></trkpt>
   <trkpt lat="59.0737679947" lon="29.9948759959"><ele>80.741</ele><time>2026-04-20T14:26:16.002Z</time></trkpt>
   <trkpt lat="59.0738449825" lon="29.9947979603"><ele>81.716</ele><time>2026-04-20T14:26:28.003Z</time></trkpt>
   <trkpt lat="59.0738789711" lon="29.9946339265"><ele>80.924</ele><time>2026-04-20T14:26:43.002Z</time></trkpt>
   <trkpt lat="59.0740069628" lon="29.9945759237"><ele>80.954</ele><time>2026-04-20T14:27:03.997Z</time></trkpt>
   <trkpt lat="59.074174978" lon="29.9946259637"><ele>80.009</ele><time>2026-04-20T14:27:32.000Z</time></trkpt>
   <trkpt lat="59.0742599705" lon="29.9945399654"><ele>77.327</ele><time>2026-04-20T14:27:49.997Z</time></trkpt>
   <trkpt lat="59.0743299594" lon="29.9946029973"><ele>76.87</ele><time>2026-04-20T14:28:48.999Z</time></trkpt>
   <trkpt lat="59.0743609725" lon="29.9944329285"><ele>78.425</ele><time>2026-04-20T14:29:14.004Z</time></trkpt>
   <trkpt lat="59.0748989649" lon="29.9945769296"><ele>78.638</ele><time>2026-04-20T14:30:16.004Z</time></trkpt>
   <trkpt lat="59.0750629988" lon="29.9945539631"><ele>80.802</ele><time>2026-04-20T14:30:31.003Z</time></trkpt>
   <trkpt lat="59.0752169743" lon="29.9944419809"><ele>82.235</ele><time>2026-04-20T14:31:02.997Z</time></trkpt>
   <trkpt lat="59.0752209976" lon="29.994585982"><ele>80.619</ele><time>2026-04-20T14:31:24.001Z</time></trkpt>
   <trkpt lat="59.0752209976" lon="29.9943639454"><ele>82.082</ele><time>2026-04-20T14:32:11.003Z</time></trkpt>
   <trkpt lat="59.0755509932" lon="29.9942769412"><ele>81.107</ele><time>2026-04-20T14:32:47.999Z</time></trkpt>
   <trkpt lat="59.0759129657" lon="29.9940629512"><ele>83.515</ele><time>2026-04-20T14:34:06.001Z</time></trkpt>
   <trkpt lat="59.0760589784" lon="29.9936939799"><ele>82.326</ele><time>2026-04-20T14:34:49.002Z</time></trkpt>
   <trkpt lat="59.076180977" lon="29.9937579338"><ele>82.661</ele><time>2026-04-20T14:35:43.002Z</time></trkpt>
   <trkpt lat="59.0762269937" lon="29.9936049641"><ele>80.223</ele><time>2026-04-20T14:37:35.003Z</time></trkpt>
   <trkpt lat="59.0766059814" lon="29.9931519222"><ele>77.845</ele><time>2026-04-20T14:38:34.999Z</time></trkpt>
   <trkpt lat="59.0768989708" lon="29.9930959311"><ele>75.62</ele><time>2026-04-20T14:39:09.999Z</time></trkpt>
   <trkpt lat="59.0770819897" lon="29.9930969369"><ele>77.48</ele><time>2026-04-20T14:39:49.000Z</time></trkpt>
   <trkpt lat="59.0773809722" lon="29.9934559338"><ele>80.497</ele><time>2026-04-20T14:41:53.002Z</time></trkpt>
   <trkpt lat="59.0773929583" lon="29.9936599493"><ele>80.101</ele><time>2026-04-20T14:42:08.001Z</time></trkpt>
   <trkpt lat="59.0774789985" lon="29.9937319499"><ele>78.455</ele><time>2026-04-20T14:42:33.998Z</time></trkpt>
   <trkpt lat="59.077501965" lon="29.9938739393"><ele>78.211</ele><time>2026-04-20T14:42:48.004Z</time></trkpt>
   <trkpt lat="59.0777189724" lon="29.9939409946"><ele>82.387</ele><time>2026-04-20T14:44:32.997Z</time></trkpt>
   <trkpt lat="59.0777609658" lon="29.9937909585"><ele>81.137</ele><time>2026-04-20T14:44:48.998Z</time></trkpt>
   <trkpt lat="59.0780329585" lon="29.9943529651"><ele>77.449</ele><time>2026-04-20T14:45:34.004Z</time></trkpt>
   <trkpt lat="59.0781519815" lon="29.9944489379"><ele>76.931</ele><time>2026-04-20T14:46:42.001Z</time></trkpt>
   <trkpt lat="59.0783859624" lon="29.9948919215"><ele>76.443</ele><time>2026-04-20T14:47:22.998Z</time></trkpt>
   <trkpt lat="59.078557959" lon="29.9950369284"><ele>81.625</ele><time>2026-04-20T14:48:32.999Z</time></trkpt>
   <trkpt lat="59.0785709929" lon="29.9956549261"><ele>80.528</ele><time>2026-04-20T14:49:57.999Z</time></trkpt>
   <trkpt lat="59.0784909876" lon="29.9964069505"><ele>80.589</ele><time>2026-04-20T14:50:39.998Z</time></trkpt>
   <trkpt lat="59.0785259821" lon="29.9968439829"><ele>78.485</ele><time>2026-04-20T14:51:48.997Z</time></trkpt>
   <trkpt lat="59.0781669852" lon="29.9968779296"><ele>79.644</ele><time>2026-04-20T14:53:01.997Z</time></trkpt>
   <trkpt lat="59.0779439846" lon="29.9971419596"><ele>80.284</ele><time>2026-04-20T14:53:32.997Z</time></trkpt>
   <trkpt lat="59.0778109638" lon="29.9976689298"><ele>81.473</ele><time>2026-04-20T14:54:11.998Z</time></trkpt>
   <trkpt lat="59.0776789908" lon="29.9979099933"><ele>81.594</ele><time>2026-04-20T14:54:37.002Z</time></trkpt>
   <trkpt lat="59.0771709636" lon="29.9980629631"><ele>78.882</ele><time>2026-04-20T14:58:24.001Z</time></trkpt>
   <trkpt lat="59.0769749947" lon="29.9979119212"><ele>78.668</ele><time>2026-04-20T14:58:55.001Z</time></trkpt>
   <trkpt lat="59.0768869847" lon="29.9979559262"><ele>78.333</ele><time>2026-04-20T14:59:07.002Z</time></trkpt>
   <trkpt lat="59.0765909778" lon="29.9981949781"><ele>78.211</ele><time>2026-04-20T15:02:13.998Z</time></trkpt>
   <trkpt lat="59.076438972" lon="29.9984259833"><ele>76.718</ele><time>2026-04-20T15:03:07.004Z</time></trkpt>
   <trkpt lat="59.0762289634" lon="29.9983519711"><ele>76.474</ele><time>2026-04-20T15:03:50.999Z</time></trkpt>
   <trkpt lat="59.075998964" lon="29.9983999994"><ele>79.674</ele><time>2026-04-20T15:04:38.001Z</time></trkpt>
   <trkpt lat="59.0761199987" lon="29.9990099505"><ele>79.583</ele><time>2026-04-20T15:06:34.001Z</time></trkpt>
   <trkpt lat="59.0761349604" lon="29.999389986"><ele>79.187</ele><time>2026-04-20T15:07:01.001Z</time></trkpt>
   <trkpt lat="59.0761899876" lon="29.9995189835"><ele>80.893</ele><time>2026-04-20T15:07:12.000Z</time></trkpt>
   <trkpt lat="59.0761919992" lon="29.9998629768"><ele>79.491</ele><time>2026-04-20T15:07:36.002Z</time></trkpt>
   <trkpt lat="59.0762729684" lon="30.0001729396"><ele>78.79</ele><time>2026-04-20T15:09:18.999Z</time></trkpt>
   <trkpt lat="59.0764019659" lon="30.0006739259"><ele>78.882</ele><time>2026-04-20T15:10:04.999Z</time></trkpt>
   <trkpt lat="59.0764599687" lon="30.0010229484"><ele>78.394</ele><time>2026-04-20T15:10:33.001Z</time></trkpt>
   <trkpt lat="59.0764619803" lon="30.00141497"><ele>78.882</ele><time>2026-04-20T15:10:58.999Z</time></trkpt>
   <trkpt lat="59.0765659997" lon="30.0015599769"><ele>79.43</ele><time>2026-04-20T15:11:32.004Z</time></trkpt>
   <trkpt lat="59.0765989825" lon="30.0018749688"><ele>83.85</ele><time>2026-04-20T15:12:41.996Z</time></trkpt>
   <trkpt lat="59.0767799897" lon="30.0018309638"><ele>84.734</ele><time>2026-04-20T15:13:36.998Z</time></trkpt>
   <trkpt lat="59.0769059697" lon="30.0017199874"><ele>84.155</ele><time>2026-04-20T15:13:50.002Z</time></trkpt>
   <trkpt lat="59.077123983" lon="30.0020859413"><ele>83.149</ele><time>2026-04-20T15:14:18.997Z</time></trkpt>
   <trkpt lat="59.0774559902" lon="30.0021679163"><ele>83.698</ele><time>2026-04-20T15:15:12.997Z</time></trkpt>
   <trkpt lat="59.0775649969" lon="30.0022959918"><ele>83.911</ele><time>2026-04-20T15:15:23.996Z</time></trkpt>
   <trkpt lat="59.0776139891" lon="30.002427923"><ele>84.551</ele><time>2026-04-20T15:15:31.997Z</time></trkpt>
   <trkpt lat="59.0777369935" lon="30.0026179407"><ele>84.917</ele><time>2026-04-20T15:15:54.996Z</time></trkpt>
   <trkpt lat="59.0779319985" lon="30.0026719202"><ele>86.593</ele><time>2026-04-20T15:16:39.000Z</time></trkpt>
   <trkpt lat="59.0780069746" lon="30.0024829921"><ele>84.338</ele><time>2026-04-20T15:19:07.997Z</time></trkpt>
   <trkpt lat="59.0783949729" lon="30.0020709377"><ele>78.882</ele><time>2026-04-20T15:20:01.003Z</time></trkpt>
   <trkpt lat="59.0785029737" lon="30.002087953"><ele>79.247</ele><time>2026-04-20T15:20:13.004Z</time></trkpt>
   <trkpt lat="59.0785899779" lon="30.0019019586"><ele>80.162</ele><time>2026-04-20T15:20:28.003Z</time></trkpt>
   <trkpt lat="59.078733979" lon="30.0018619769"><ele>80.406</ele><time>2026-04-20T15:20:43.002Z</time></trkpt>
   <trkpt lat="59.0788429856" lon="30.0017459713"><ele>80.223</ele><time>2026-04-20T15:21:11.998Z</time></trkpt>
   <trkpt lat="59.0788949954" lon="30.0014519342"><ele>77.967</ele><time>2026-04-20T15:22:38.001Z</time></trkpt>
   <trkpt lat="59.078997967" lon="30.0013279658"><ele>77.541</ele><time>2026-04-20T15:22:53.000Z</time></trkpt>
   <trkpt lat="59.0791369809" lon="30.0013179914"><ele>77.175</ele><time>2026-04-20T15:23:09.001Z</time></trkpt>
   <trkpt lat="59.0792709656" lon="30.0012239464"><ele>76.992</ele><time>2026-04-20T15:23:24.000Z</time></trkpt>
   <trkpt lat="59.0795119872" lon="30.0014719669"><ele>77.205</ele><time>2026-04-20T15:24:04.003Z</time></trkpt>
   <trkpt lat="59.0797469739" lon="30.0014909938"><ele>79.827</ele><time>2026-04-20T15:24:34.001Z</time></trkpt>
   <trkpt lat="59.0798479758" lon="30.0013799336"><ele>78.089</ele><time>2026-04-20T15:24:55.999Z</time></trkpt>
   <trkpt lat="59.0800059747" lon="30.0013949372"><ele>79.4</ele><time>2026-04-20T15:26:04.004Z</time></trkpt>
   <trkpt lat="59.0801229861" lon="30.0011629262"><ele>76.992</ele><time>2026-04-20T15:26:27.004Z</time></trkpt>
   <trkpt lat="59.0802259997" lon="30.0011749961"><ele>76.291</ele><time>2026-04-20T15:26:38.996Z</time></trkpt>
   <trkpt lat="59.0803339586" lon="30.0010179192"><ele>75.194</ele><time>2026-04-20T15:26:50.997Z</time></trkpt>
   <trkpt lat="59.0804339966" lon="30.0011109584"><ele>76.047</ele><time>2026-04-20T15:27:08.001Z</time></trkpt>
   <trkpt lat="59.080525988" lon="30.001037952"><ele>75.255</ele><time>2026-04-20T15:27:23.000Z</time></trkpt>
   <trkpt lat="59.0806849927" lon="30.0005989917"><ele>74.554</ele><time>2026-04-20T15:27:55.996Z</time></trkpt>
   <trkpt lat="59.0807929935" lon="30.0005039409"><ele>76.291</ele><time>2026-04-20T15:28:38.997Z</time></trkpt>
   <trkpt lat="59.0808259763" lon="30.0002969917"><ele>78.851</ele><time>2026-04-20T15:31:20.997Z</time></trkpt>
   <trkpt lat="59.0807879644" lon="29.9999839277"><ele>74.493</ele><time>2026-04-20T15:31:59.998Z</time></trkpt>
   <trkpt lat="59.0807129882" lon="29.9998209835"><ele>75.62</ele><time>2026-04-20T15:32:52.002Z</time></trkpt>
   <trkpt lat="59.0807009602" lon="29.9995769863"><ele>75.864</ele><time>2026-04-20T15:33:22.000Z</time></trkpt>
   <trkpt lat="59.0807579991" lon="29.9994229269"><ele>75.62</ele><time>2026-04-20T15:33:50.003Z</time></trkpt>
   <trkpt lat="59.080758963" lon="29.9992759921"><ele>73.883</ele><time>2026-04-20T15:34:18.998Z</time></trkpt>
   <trkpt lat="59.0808299996" lon="29.9991789297"><ele>73.151</ele><time>2026-04-20T15:35:39.998Z</time></trkpt>
   <trkpt lat="59.0812189618" lon="29.9996239249"><ele>75.011</ele><time>2026-04-20T15:36:44.997Z</time></trkpt>
   <trkpt lat="59.0812849693" lon="29.9997719493"><ele>77.022</ele><time>2026-04-20T15:36:59.996Z</time></trkpt>
   <trkpt lat="59.0813869771" lon="29.9998399266"><ele>76.779</ele><time>2026-04-20T15:37:15.004Z</time></trkpt>
   <trkpt lat="59.0815309782" lon="30.0000779726"><ele>75.681</ele><time>2026-04-20T15:37:38.004Z</time></trkpt>
   <trkpt lat="59.0816359615" lon="29.9998709396"><ele>73.578</ele><time>2026-04-20T15:39:41.003Z</time></trkpt>
   <trkpt lat="59.0817569962" lon="29.9996809219"><ele>72.725</ele><time>2026-04-20T15:40:05.998Z</time></trkpt>
   <trkpt lat="59.0818819704" lon="29.9995639943"><ele>71.323</ele><time>2026-04-20T15:40:58.002Z</time></trkpt>
   <trkpt lat="59.0820419809" lon="29.9993009702"><ele>71.749</ele><time>2026-04-20T15:41:44.002Z</time></trkpt>
   <trkpt lat="59.0819379615" lon="29.999339946"><ele>71.719</ele><time>2026-04-20T15:42:14.000Z</time></trkpt>
   <trkpt lat="59.0818929926" lon="29.9990529497"><ele>71.567</ele><time>2026-04-20T15:43:44.003Z</time></trkpt>
   <trkpt lat="59.081820992" lon="29.998428917"><ele>71.841</ele><time>2026-04-20T15:44:22.001Z</time></trkpt>
   <trkpt lat="59.0818269851" lon="29.9981339578"><ele>71.414</ele><time>2026-04-20T15:44:33.000Z</time></trkpt>
   <trkpt lat="59.0817159668" lon="29.9977019545"><ele>72.999</ele><time>2026-04-20T15:44:58.004Z</time></trkpt>
   <trkpt lat="59.0816459779" lon="29.9972379324"><ele>76.017</ele><time>2026-04-20T15:45:25.998Z</time></trkpt>
   <trkpt lat="59.0816449721" lon="29.9969559651"><ele>76.078</ele><time>2026-04-20T15:45:40.997Z</time></trkpt>
   <trkpt lat="59.0815739773" lon="29.9963559885"><ele>73.06</ele><time>2026-04-20T15:46:42.997Z</time></trkpt>
   <trkpt lat="59.0814579718" lon="29.9956309539"><ele>72.024</ele><time>2026-04-20T15:53:34.996Z</time></trkpt>
   <trkpt lat="59.0813919643" lon="29.9955019564"><ele>72.176</ele><time>2026-04-20T15:53:58.004Z</time></trkpt>
   <trkpt lat="59.0814199599" lon="29.9950929195"><ele>73.944</ele><time>2026-04-20T15:55:22.002Z</time></trkpt>
   <trkpt lat="59.0813979993" lon="29.9949069251"><ele>74.035</ele><time>2026-04-20T15:55:37.001Z</time></trkpt>
   <trkpt lat="59.0813269627" lon="29.9947369401"><ele>75.773</ele><time>2026-04-20T15:55:44.000Z</time></trkpt>
   <trkpt lat="59.0814009749" lon="29.9946729862"><ele>75.133</ele><time>2026-04-20T15:56:09.004Z</time></trkpt>
   <trkpt lat="59.0814229774" lon="29.9941669707"><ele>75.559</ele><time>2026-04-20T15:56:40.004Z</time></trkpt>
   <trkpt lat="59.0813789724" lon="29.9937869352"><ele>76.321</ele><time>2026-04-20T15:57:10.996Z</time></trkpt>
   <trkpt lat="59.0812719774" lon="29.9931909819"><ele>75.803</ele><time>2026-04-20T15:58:57.000Z</time></trkpt>
   <trkpt lat="59.0812019885" lon="29.993114958"><ele>76.535</ele><time>2026-04-20T15:59:06.996Z</time></trkpt>
   <trkpt lat="59.0811619649" lon="29.9928929214"><ele>77.053</ele><time>2026-04-20T15:59:20.000Z</time></trkpt>
   <trkpt lat="59.081078984" lon="29.99227199"><ele>76.565</ele><time>2026-04-20T16:00:07.001Z</time></trkpt>
   <trkpt lat="59.081135981" lon="29.9920789548"><ele>79.369</ele><time>2026-04-20T16:01:32.002Z</time></trkpt>
   <trkpt lat="59.0810929818" lon="29.9917049542"><ele>79.034</ele><time>2026-04-20T16:02:00.004Z</time></trkpt>
   <trkpt lat="59.0809339771" lon="29.9911879585"><ele>75.895</ele><time>2026-04-20T16:02:41.001Z</time></trkpt>
   <trkpt lat="59.0809169619" lon="29.9909359985"><ele>77.693</ele><time>2026-04-20T16:02:57.002Z</time></trkpt>
   <trkpt lat="59.0809209852" lon="29.9907019757"><ele>78.242</ele><time>2026-04-20T16:04:37.001Z</time></trkpt>
   <trkpt lat="59.0807979807" lon="29.9903819547"><ele>75.834</ele><time>2026-04-20T16:05:28.997Z</time></trkpt>
   <trkpt lat="59.0808999885" lon="29.9903259635"><ele>76.504</ele><time>2026-04-20T16:05:42.000Z</time></trkpt>
   <trkpt lat="59.0809519982" lon="29.9901409749"><ele>76.809</ele><time>2026-04-20T16:06:03.004Z</time></trkpt>
   <trkpt lat="59.0813479593" lon="29.9897639569"><ele>78.15</ele><time>2026-04-20T16:08:18.004Z</time></trkpt>
   <trkpt lat="59.0813739851" lon="29.9896129989"><ele>77.845</ele><time>2026-04-20T16:08:29.003Z</time></trkpt>
   <trkpt lat="59.0814809801" lon="29.989410995"><ele>76.87</ele><time>2026-04-20T16:09:11.002Z</time></trkpt>
   <trkpt lat="59.0814909965" lon="29.9892619647"><ele>77.754</ele><time>2026-04-20T16:09:24.998Z</time></trkpt>
   <trkpt lat="59.0815559982" lon="29.9891639803"><ele>77.967</ele><time>2026-04-20T16:09:36.999Z</time></trkpt>
   <trkpt lat="59.0815589737" lon="29.9889559415"><ele>76.657</ele><time>2026-04-20T16:10:06.004Z</time></trkpt>
   <trkpt lat="59.0814529846" lon="29.9887489923"><ele>79.4</ele><time>2026-04-20T16:11:54.004Z</time></trkpt>
   <trkpt lat="59.0814789685" lon="29.9885349185"><ele>80.162</ele><time>2026-04-20T16:12:06.998Z</time></trkpt>
   <trkpt lat="59.0814669823" lon="29.9883199227"><ele>80.802</ele><time>2026-04-20T16:12:20.002Z</time></trkpt>
   <trkpt lat="59.0815599796" lon="29.9882899993"><ele>75.956</ele><time>2026-04-20T16:12:36.003Z</time></trkpt>
   <trkpt lat="59.0816589698" lon="29.9884269596"><ele>76.565</ele><time>2026-04-20T16:12:48.997Z</time></trkpt>
   <trkpt lat="59.0818429945" lon="29.9882429768"><ele>76.565</ele><time>2026-04-20T16:13:14.002Z</time></trkpt>
   <trkpt lat="59.0819659989" lon="29.9883569707"><ele>75.651</ele><time>2026-04-20T16:13:34.003Z</time></trkpt>
   <trkpt lat="59.0822199706" lon="29.988096964"><ele>74.889</ele><time>2026-04-20T16:14:02.999Z</time></trkpt>
   <trkpt lat="59.082292977" lon="29.9881989718"><ele>77.297</ele><time>2026-04-20T16:14:21.998Z</time></trkpt>
   <trkpt lat="59.0822899595" lon="29.9878939543"><ele>80.832</ele><time>2026-04-20T16:15:11.998Z</time></trkpt>
   <trkpt lat="59.0824199628" lon="29.9880899232"><ele>100.462</ele><time>2026-04-20T16:18:04.997Z</time></trkpt>
   <trkpt lat="59.08260097" lon="29.9879949563"><ele>88.026</ele><time>2026-04-20T16:18:43.004Z</time></trkpt>
   <trkpt lat="59.083298973" lon="29.9876169324"><ele>85.984</ele><time>2026-04-20T16:20:08.998Z</time></trkpt>
   <trkpt lat="59.0833789783" lon="29.9877489474"><ele>83.21</ele><time>2026-04-20T16:20:46.003Z</time></trkpt>
   <trkpt lat="59.0833139766" lon="29.9874929641"><ele>82.783</ele><time>2026-04-20T16:22:30.996Z</time></trkpt>
   <trkpt lat="59.0835119991" lon="29.9875549902"><ele>81.29</ele><time>2026-04-20T16:23:21.998Z</time></trkpt>
   <trkpt lat="59.0837039866" lon="29.9874769546"><ele>78.973</ele><time>2026-04-20T16:23:47.003Z</time></trkpt>
   <trkpt lat="59.0837949721" lon="29.9873879388"><ele>77.571</ele><time>2026-04-20T16:24:02.002Z</time></trkpt>
   <trkpt lat="59.0839469779" lon="29.9873709236"><ele>74.828</ele><time>2026-04-20T16:24:30.997Z</time></trkpt>
   <trkpt lat="59.0841699785" lon="29.9871959933"><ele>76.078</ele><time>2026-04-20T16:25:16.003Z</time></trkpt>
   <trkpt lat="59.0842339743" lon="29.9870109208"><ele>78.577</ele><time>2026-04-20T16:25:51.997Z</time></trkpt>
   <trkpt lat="59.084285984" lon="29.9873599433"><ele>75.072</ele><time>2026-04-20T16:27:31.003Z</time></trkpt>
   <trkpt lat="59.0842619699" lon="29.987172943"><ele>76.169</ele><time>2026-04-20T16:28:06.997Z</time></trkpt>
   <trkpt lat="59.0844329607" lon="29.9870699294"><ele>76.961</ele><time>2026-04-20T16:28:29.004Z</time></trkpt>
   <trkpt lat="59.0846839987" lon="29.9869699333"><ele>78.425</ele><time>2026-04-20T16:29:04.004Z</time></trkpt>
   <trkpt lat="59.0851279881" lon="29.9867649958"><ele>79.491</ele><time>2026-04-20T16:29:47.999Z</time></trkpt>
   <trkpt lat="59.085247975" lon="29.9869309575"><ele>78.699</ele><time>2026-04-20T16:30:44.004Z</time></trkpt>
   <trkpt lat="59.0852099631" lon="29.9868029658"><ele>79.004</ele><time>2026-04-20T16:30:59.996Z</time></trkpt>
   <trkpt lat="59.0852559798" lon="29.9863959406"><ele>79.126</ele><time>2026-04-20T16:31:25.000Z</time></trkpt>
   <trkpt lat="59.0853099592" lon="29.9866559472"><ele>80.528</ele><time>2026-04-20T16:32:29.999Z</time></trkpt>
   <trkpt lat="59.0855179981" lon="29.9866999522"><ele>82.631</ele><time>2026-04-20T16:32:43.996Z</time></trkpt>
   <trkpt lat="59.0858729717" lon="29.9865759839"><ele>83.118</ele><time>2026-04-20T16:33:13.000Z</time></trkpt>
   <trkpt lat="59.0863939908" lon="29.9862689548"><ele>82.844</ele><time>2026-04-20T16:34:03.000Z</time></trkpt>
   <trkpt lat="59.086385986" lon="29.9860659451"><ele>82.6</ele><time>2026-04-20T16:34:17.999Z</time></trkpt>
   <trkpt lat="59.0863299949" lon="29.9858789448"><ele>82.143</ele><time>2026-04-20T16:34:55.998Z</time></trkpt>
   <trkpt lat="59.0864249619" lon="29.9860629276"><ele>83.057</ele><time>2026-04-20T16:35:18.004Z</time></trkpt>
   <trkpt lat="59.0865149835" lon="29.9864889797"><ele>82.539</ele><time>2026-04-20T16:35:44.002Z</time></trkpt>
   <trkpt lat="59.0865259638" lon="29.9866989464"><ele>82.844</ele><time>2026-04-20T16:36:15.002Z</time></trkpt>
   <trkpt lat="59.0865579827" lon="29.9865359184"><ele>83.301</ele><time>2026-04-20T16:36:47.998Z</time></trkpt>
   <trkpt lat="59.0868849607" lon="29.9860619218"><ele>84.216</ele><time>2026-04-20T16:37:22.999Z</time></trkpt>
   <trkpt lat="59.0874129787" lon="29.9858349398"><ele>82.052</ele><time>2026-04-20T16:38:07.996Z</time></trkpt>
   <trkpt lat="59.0875859812" lon="29.9858009931"><ele>81.716</ele><time>2026-04-20T16:38:22.001Z</time></trkpt>
   <trkpt lat="59.087687989" lon="29.9858689703"><ele>82.753</ele><time>2026-04-20T16:38:38.003Z</time></trkpt>
   <trkpt lat="59.0877189601" lon="29.9854539823"><ele>81.046</ele><time>2026-04-20T16:39:50.000Z</time></trkpt>
   <trkpt lat="59.0877629651" lon="29.9853139207"><ele>81.808</ele><time>2026-04-20T16:40:07.003Z</time></trkpt>
   <trkpt lat="59.0878599856" lon="29.9854459357"><ele>83.515</ele><time>2026-04-20T16:40:57.003Z</time></trkpt>
   <trkpt lat="59.0879629992" lon="29.9852259946"><ele>84.002</ele><time>2026-04-20T16:41:12.002Z</time></trkpt>
   <trkpt lat="59.0881109817" lon="29.9852589354"><ele>84.46</ele><time>2026-04-20T16:41:24.996Z</time></trkpt>
   <trkpt lat="59.0882919889" lon="29.9850279302"><ele>84.734</ele><time>2026-04-20T16:42:05.000Z</time></trkpt>
   <trkpt lat="59.0883599661" lon="29.9855679762"><ele>83.332</ele><time>2026-04-20T16:43:24.004Z</time></trkpt>
   <trkpt lat="59.0883869978" lon="29.9854129948"><ele>85.008</ele><time>2026-04-20T16:44:24.000Z</time></trkpt>
   <trkpt lat="59.0884879997" lon="29.9853209615"><ele>84.124</ele><time>2026-04-20T16:44:34.999Z</time></trkpt>
   <trkpt lat="59.0889199611" lon="29.9855729215"><ele>81.473</ele><time>2026-04-20T16:45:16.004Z</time></trkpt>
   <trkpt lat="59.0892509625" lon="29.9854689859"><ele>82.905</ele><time>2026-04-20T16:45:57.001Z</time></trkpt>
   <trkpt lat="59.0895919802" lon="29.9858169187"><ele>80.467</ele><time>2026-04-20T16:46:40.996Z</time></trkpt>
   <trkpt lat="59.0897489732" lon="29.9858819623"><ele>79.461</ele><time>2026-04-20T16:46:52.997Z</time></trkpt>
  </trkseg>
 </trk>
 <trk>
  <name>20260420_Lisa44</name>
  <desc>20260420_Lisa44</desc>
  <type>TrackStyle_2196F3C8</type>
  <extensions>
   <gom:time>2026-04-20T15:07:25.003Z</gom:time>
   <line xmlns="http://www.topografix.com/GPX/gpx_style/0/2">
    <color>2196F3</color>
   </line>
  </extensions>
  <trkseg>
   <trkpt lat="59.095270971" lon="30.0046409969"><ele>83.149</ele><time>2026-04-20T15:07:25.003Z</time></trkpt>
   <trkpt lat="59.0953469949" lon="30.0048709963"><ele>81.564</ele><time>2026-04-20T15:07:44.003Z</time></trkpt>
   <trkpt lat="59.0952619605" lon="30.0052039255"><ele>83.637</ele><time>2026-04-20T15:08:41.001Z</time></trkpt>
   <trkpt lat="59.0953099888" lon="30.0053379521"><ele>83.606</ele><time>2026-04-20T15:09:01.002Z</time></trkpt>
   <trkpt lat="59.0953669857" lon="30.0056919199"><ele>80.375</ele><time>2026-04-20T15:10:02.001Z</time></trkpt>
   <trkpt lat="59.0953469949" lon="30.0059439637"><ele>77.998</ele><time>2026-04-20T15:10:19.998Z</time></trkpt>
   <trkpt lat="59.0951599946" lon="30.0058989529"><ele>77.266</ele><time>2026-04-20T15:11:09.997Z</time></trkpt>
   <trkpt lat="59.0950919755" lon="30.0061529246"><ele>77.053</ele><time>2026-04-20T15:11:40.998Z</time></trkpt>
   <trkpt lat="59.0951439852" lon="30.0063879531"><ele>79.308</ele><time>2026-04-20T15:12:40.000Z</time></trkpt>
   <trkpt lat="59.0952939794" lon="30.0065739476"><ele>82.478</ele><time>2026-04-20T15:13:28.004Z</time></trkpt>
   <trkpt lat="59.0955779582" lon="30.0063999393"><ele>81.838</ele><time>2026-04-20T15:14:29.003Z</time></trkpt>
   <trkpt lat="59.095490996" lon="30.0064989295"><ele>81.899</ele><time>2026-04-20T15:14:57.998Z</time></trkpt>
   <trkpt lat="59.0953899941" lon="30.0064989295"><ele>83.789</ele><time>2026-04-20T15:16:25.003Z</time></trkpt>
   <trkpt lat="59.0953619985" lon="30.0066349678"><ele>85.069</ele><time>2026-04-20T15:16:44.003Z</time></trkpt>
   <trkpt lat="59.0952919677" lon="30.00674695"><ele>87.508</ele><time>2026-04-20T15:17:37.000Z</time></trkpt>
   <trkpt lat="59.0951559713" lon="30.0072379619"><ele>87.142</ele><time>2026-04-20T15:18:56.998Z</time></trkpt>
   <trkpt lat="59.0952089869" lon="30.007381963"><ele>86.593</ele><time>2026-04-20T15:19:15.004Z</time></trkpt>
   <trkpt lat="59.0950599985" lon="30.0076349289"><ele>88.391</ele><time>2026-04-20T15:20:38.000Z</time></trkpt>
   <trkpt lat="59.0949509919" lon="30.0075779319"><ele>88.3</ele><time>2026-04-20T15:21:54.999Z</time></trkpt>
   <trkpt lat="59.0947309669" lon="30.0077499286"><ele>87.233</ele><time>2026-04-20T15:22:55.004Z</time></trkpt>
   <trkpt lat="59.0945839903" lon="30.0076929316"><ele>85.892</ele><time>2026-04-20T15:23:29.003Z</time></trkpt>
   <trkpt lat="59.0943879795" lon="30.0078369327"><ele>83.637</ele><time>2026-04-20T15:25:40.002Z</time></trkpt>
   <trkpt lat="59.0944249856" lon="30.0082029704"><ele>82.082</ele><time>2026-04-20T15:26:54.997Z</time></trkpt>
   <trkpt lat="59.0943329942" lon="30.0083339796"><ele>81.412</ele><time>2026-04-20T15:27:41.999Z</time></trkpt>
   <trkpt lat="59.0943129614" lon="30.0085169565"><ele>80.528</ele><time>2026-04-20T15:28:19.998Z</time></trkpt>
   <trkpt lat="59.0942619994" lon="30.0086169526"><ele>80.04</ele><time>2026-04-20T15:28:52.000Z</time></trkpt>
   <trkpt lat="59.0941779709" lon="30.0084659946"><ele>78.729</ele><time>2026-04-20T15:29:25.999Z</time></trkpt>
   <trkpt lat="59.0939789845" lon="30.0083579518"><ele>75.986</ele><time>2026-04-20T15:30:36.000Z</time></trkpt>
   <trkpt lat="59.093931962" lon="30.0082409405"><ele>75.041</ele><time>2026-04-20T15:31:08.003Z</time></trkpt>
   <trkpt lat="59.0937759748" lon="30.0082599674"><ele>77.754</ele><time>2026-04-20T15:32:37.997Z</time></trkpt>
   <trkpt lat="59.0935929978" lon="30.0080089294"><ele>75.407</ele><time>2026-04-20T15:33:41.000Z</time></trkpt>
   <trkpt lat="59.0935069995" lon="30.0079839513"><ele>75.346</ele><time>2026-04-20T15:34:02.004Z</time></trkpt>
   <trkpt lat="59.0933049957" lon="30.0077959452"><ele>76.169</ele><time>2026-04-20T15:34:56.997Z</time></trkpt>
   <trkpt lat="59.0931319932" lon="30.0080619868"><ele>75.011</ele><time>2026-04-20T15:35:37.000Z</time></trkpt>
   <trkpt lat="59.0928839727" lon="30.0082889688"><ele>78.059</ele><time>2026-04-20T15:36:35.001Z</time></trkpt>
   <trkpt lat="59.0926259777" lon="30.0083649926"><ele>78.638</ele><time>2026-04-20T15:37:34.003Z</time></trkpt>
   <trkpt lat="59.0924079644" lon="30.0087319524"><ele>78.028</ele><time>2026-04-20T15:38:29.999Z</time></trkpt>
   <trkpt lat="59.0921249913" lon="30.0089599401"><ele>77.754</ele><time>2026-04-20T15:39:30.004Z</time></trkpt>
   <trkpt lat="59.0921059644" lon="30.0091919512"><ele>81.747</ele><time>2026-04-20T15:42:08.004Z</time></trkpt>
   <trkpt lat="59.0921659788" lon="30.0095179234"><ele>79.705</ele><time>2026-04-20T15:42:50.996Z</time></trkpt>
   <trkpt lat="59.0920849677" lon="30.0097139761"><ele>78.181</ele><time>2026-04-20T15:43:10.998Z</time></trkpt>
   <trkpt lat="59.0919559702" lon="30.0096909259"><ele>77.998</ele><time>2026-04-20T15:43:57.999Z</time></trkpt>
   <trkpt lat="59.091887993" lon="30.0097639323"><ele>78.394</ele><time>2026-04-20T15:44:18.001Z</time></trkpt>
   <trkpt lat="59.0917359872" lon="30.0097079412"><ele>75.956</ele><time>2026-04-20T15:45:29.998Z</time></trkpt>
   <trkpt lat="59.0915719953" lon="30.0095539656"><ele>75.377</ele><time>2026-04-20T15:46:00.998Z</time></trkpt>
   <trkpt lat="59.0914249767" lon="30.0095149897"><ele>73.334</ele><time>2026-04-20T15:46:22.002Z</time></trkpt>
   <trkpt lat="59.0910879823" lon="30.0095499423"><ele>70.378</ele><time>2026-04-20T15:47:17.998Z</time></trkpt>
   <trkpt lat="59.0909289776" lon="30.0093739223"><ele>70.622</ele><time>2026-04-20T15:47:55.997Z</time></trkpt>
   <trkpt lat="59.0907789834" lon="30.0092229642"><ele>72.908</ele><time>2026-04-20T15:48:50.999Z</time></trkpt>
   <trkpt lat="59.0907509878" lon="30.0090389815"><ele>73.761</ele><time>2026-04-20T15:49:20.997Z</time></trkpt>
   <trkpt lat="59.0906139856" lon="30.0089679867"><ele>74.615</ele><time>2026-04-20T15:49:55.004Z</time></trkpt>
   <trkpt lat="59.0903689826" lon="30.0090339523"><ele>71.627</ele><time>2026-04-20T15:51:11.002Z</time></trkpt>
   <trkpt lat="59.0903079624" lon="30.009318937"><ele>77.327</ele><time>2026-04-20T15:52:22.999Z</time></trkpt>
   <trkpt lat="59.0901959801" lon="30.0093489442"><ele>77.449</ele><time>2026-04-20T15:52:37.998Z</time></trkpt>
   <trkpt lat="59.0900049985" lon="30.0095409736"><ele>79.461</ele><time>2026-04-20T15:53:54.997Z</time></trkpt>
   <trkpt lat="59.0897419743" lon="30.0095349387"><ele>79.613</ele><time>2026-04-20T15:57:30.997Z</time></trkpt>
   <trkpt lat="59.0894999888" lon="30.0098799378"><ele>72.816</ele><time>2026-04-20T15:58:20.997Z</time></trkpt>
   <trkpt lat="59.0893729611" lon="30.0099569675"><ele>69.646</ele><time>2026-04-20T15:58:38.001Z</time></trkpt>
   <trkpt lat="59.0892359588" lon="30.0099069275"><ele>68.153</ele><time>2026-04-20T15:59:18.004Z</time></trkpt>
   <trkpt lat="59.0890469888" lon="30.009664942"><ele>67.208</ele><time>2026-04-20T16:00:34.001Z</time></trkpt>
   <trkpt lat="59.0889719708" lon="30.0097339251"><ele>67.482</ele><time>2026-04-20T16:00:54.003Z</time></trkpt>
   <trkpt lat="59.0889049994" lon="30.009909945"><ele>68.061</ele><time>2026-04-20T16:01:10.998Z</time></trkpt>
   <trkpt lat="59.0886449928" lon="30.0100099411"><ele>76.687</ele><time>2026-04-20T16:03:04.000Z</time></trkpt>
   <trkpt lat="59.0883559847" lon="30.0098009803"><ele>74.98</ele><time>2026-04-20T16:03:54.000Z</time></trkpt>
   <trkpt lat="59.0883159612" lon="30.0096789398"><ele>75.011</ele><time>2026-04-20T16:04:11.997Z</time></trkpt>
   <trkpt lat="59.0882509595" lon="30.0100379367"><ele>66.751</ele><time>2026-04-20T16:04:46.998Z</time></trkpt>
   <trkpt lat="59.0881309726" lon="30.0104529247"><ele>61.63</ele><time>2026-04-20T16:05:32.997Z</time></trkpt>
   <trkpt lat="59.0882079603" lon="30.0108389952"><ele>66.751</ele><time>2026-04-20T16:06:32.000Z</time></trkpt>
   <trkpt lat="59.0880759873" lon="30.0111639616"><ele>68.275</ele><time>2026-04-20T16:07:21.999Z</time></trkpt>
   <trkpt lat="59.0880299706" lon="30.0114149996"><ele>67.787</ele><time>2026-04-20T16:07:51.004Z</time></trkpt>
   <trkpt lat="59.087951977" lon="30.0115139898"><ele>67.604</ele><time>2026-04-20T16:08:07.999Z</time></trkpt>
   <trkpt lat="59.0878169865" lon="30.0115479365"><ele>66.324</ele><time>2026-04-20T16:08:51.000Z</time></trkpt>
   <trkpt lat="59.0877299823" lon="30.011512984"><ele>67.116</ele><time>2026-04-20T16:09:05.999Z</time></trkpt>
   <trkpt lat="59.0876259629" lon="30.0112929591"><ele>65.105</ele><time>2026-04-20T16:09:27.003Z</time></trkpt>
   <trkpt lat="59.0875019945" lon="30.0112919532"><ele>64.373</ele><time>2026-04-20T16:09:43.004Z</time></trkpt>
   <trkpt lat="59.0873129826" lon="30.0111729302"><ele>64.587</ele><time>2026-04-20T16:10:13.996Z</time></trkpt>
   <trkpt lat="59.0871089671" lon="30.0108549208"><ele>62.88</ele><time>2026-04-20T16:10:56.004Z</time></trkpt>
   <trkpt lat="59.0869989965" lon="30.0109339621"><ele>60.106</ele><time>2026-04-20T16:11:11.996Z</time></trkpt>
   <trkpt lat="59.0869009702" lon="30.0109199644"><ele>64.891</ele><time>2026-04-20T16:12:43.001Z</time></trkpt>
   <trkpt lat="59.0868049974" lon="30.010978973"><ele>66.964</ele><time>2026-04-20T16:13:15.004Z</time></trkpt>
   <trkpt lat="59.0866119621" lon="30.0110849202"><ele>66.111</ele><time>2026-04-20T16:13:46.004Z</time></trkpt>
   <trkpt lat="59.0864979683" lon="30.0110189546"><ele>66.812</ele><time>2026-04-20T16:14:01.997Z</time></trkpt>
   <trkpt lat="59.0862539711" lon="30.0112439249"><ele>65.623</ele><time>2026-04-20T16:14:42.000Z</time></trkpt>
   <trkpt lat="59.0862019614" lon="30.011387926"><ele>73.548</ele><time>2026-04-20T16:15:22.997Z</time></trkpt>
   <trkpt lat="59.086008968" lon="30.011298994"><ele>71.048</ele><time>2026-04-20T16:17:01.000Z</time></trkpt>
   <trkpt lat="59.0858539866" lon="30.0115349446"><ele>73.304</ele><time>2026-04-20T16:18:00.996Z</time></trkpt>
   <trkpt lat="59.0859179825" lon="30.0117419776"><ele>74.98</ele><time>2026-04-20T16:18:28.999Z</time></trkpt>
   <trkpt lat="59.0857899908" lon="30.0120119587"><ele>73.7</ele><time>2026-04-20T16:19:10.004Z</time></trkpt>
   <trkpt lat="59.085486985" lon="30.0119159859"><ele>70.043</ele><time>2026-04-20T16:20:19.003Z</time></trkpt>
   <trkpt lat="59.0853479712" lon="30.0119109568"><ele>69.86</ele><time>2026-04-20T16:20:54.004Z</time></trkpt>
   <trkpt lat="59.0852409762" lon="30.0120119587"><ele>71.597</ele><time>2026-04-20T16:21:28.996Z</time></trkpt>
   <trkpt lat="59.0852329714" lon="30.0121839554"><ele>70.5</ele><time>2026-04-20T16:21:44.997Z</time></trkpt>
   <trkpt lat="59.0850849889" lon="30.0122519326"><ele>69.463</ele><time>2026-04-20T16:22:15.997Z</time></trkpt>
   <trkpt lat="59.0850129884" lon="30.0123549462"><ele>69.281</ele><time>2026-04-20T16:22:30.003Z</time></trkpt>
   <trkpt lat="59.0849879684" lon="30.0126029667"><ele>67.574</ele><time>2026-04-20T16:22:46.004Z</time></trkpt>
   <trkpt lat="59.0847779598" lon="30.0128879514"><ele>61.02</ele><time>2026-04-20T16:23:25.999Z</time></trkpt>
   <trkpt lat="59.0845649757" lon="30.0128559325"><ele>62.179</ele><time>2026-04-20T16:23:52.999Z</time></trkpt>
   <trkpt lat="59.0843809929" lon="30.0127379992"><ele>59.649</ele><time>2026-04-20T16:24:23.999Z</time></trkpt>
   <trkpt lat="59.0841849821" lon="30.0127819203"><ele>58.216</ele><time>2026-04-20T16:24:53.004Z</time></trkpt>
   <trkpt lat="59.0840699824" lon="30.0127259292"><ele>58.582</ele><time>2026-04-20T16:25:08.003Z</time></trkpt>
   <trkpt lat="59.0839929946" lon="30.0126879592"><ele>61.203</ele><time>2026-04-20T16:25:35.996Z</time></trkpt>
   <trkpt lat="59.0838099757" lon="30.0124739692"><ele>64.678</ele><time>2026-04-20T16:26:41.997Z</time></trkpt>
   <trkpt lat="59.0839729618" lon="30.0129179586"><ele>60.685</ele><time>2026-04-20T16:27:36.999Z</time></trkpt>
   <trkpt lat="59.0840579963" lon="30.0130499736"><ele>56.845</ele><time>2026-04-20T16:27:54.003Z</time></trkpt>
   <trkpt lat="59.0840559846" lon="30.01367694"><ele>53.827</ele><time>2026-04-20T16:28:44.996Z</time></trkpt>
   <trkpt lat="59.0839909829" lon="30.0137569871"><ele>59.009</ele><time>2026-04-20T16:28:59.002Z</time></trkpt>
   <trkpt lat="59.0842529593" lon="30.0139079452"><ele>69.372</ele><time>2026-04-20T16:31:41.002Z</time></trkpt>
   <trkpt lat="59.0843089923" lon="30.0140419718"><ele>68.701</ele><time>2026-04-20T16:32:02.999Z</time></trkpt>
   <trkpt lat="59.0843369879" lon="30.0138959591"><ele>76.382</ele><time>2026-04-20T16:33:46.999Z</time></trkpt>
   <trkpt lat="59.0843309948" lon="30.0135309272"><ele>72.969</ele><time>2026-04-20T16:35:55.000Z</time></trkpt>
   <trkpt lat="59.0845719746" lon="30.0130149372"><ele>58.826</ele><time>2026-04-20T16:36:39.997Z</time></trkpt>
   <trkpt lat="59.0846839987" lon="30.0129309506"><ele>56.906</ele><time>2026-04-20T16:36:54.003Z</time></trkpt>
   <trkpt lat="59.0848549895" lon="30.0129079842"><ele>54.498</ele><time>2026-04-20T16:37:20.001Z</time></trkpt>
   <trkpt lat="59.0849669717" lon="30.0131289311"><ele>52.273</ele><time>2026-04-20T16:37:45.998Z</time></trkpt>
   <trkpt lat="59.0851389684" lon="30.0131249916"><ele>64.038</ele><time>2026-04-20T16:39:00.000Z</time></trkpt>
   <trkpt lat="59.0851919839" lon="30.0129319564"><ele>62.026</ele><time>2026-04-20T16:39:17.004Z</time></trkpt>
   <trkpt lat="59.0852909742" lon="30.0128509872"><ele>60.197</ele><time>2026-04-20T16:39:36.996Z</time></trkpt>
   <trkpt lat="59.0854729872" lon="30.0129879475"><ele>58.186</ele><time>2026-04-20T16:40:11.997Z</time></trkpt>
   <trkpt lat="59.0855929742" lon="30.0129629694"><ele>59.375</ele><time>2026-04-20T16:40:29.001Z</time></trkpt>
   <trkpt lat="59.0856759969" lon="30.0128219858"><ele>62.575</ele><time>2026-04-20T16:40:49.002Z</time></trkpt>
   <trkpt lat="59.0860939605" lon="30.0125879631"><ele>58.552</ele><time>2026-04-20T16:41:56.999Z</time></trkpt>
   <trkpt lat="59.086247978" lon="30.0123769906"><ele>57.454</ele><time>2026-04-20T16:43:01.998Z</time></trkpt>
   <trkpt lat="59.0865379919" lon="30.0123359193"><ele>59.618</ele><time>2026-04-20T16:43:55.998Z</time></trkpt>
   <trkpt lat="59.0865919713" lon="30.012242964"><ele>61.721</ele><time>2026-04-20T16:44:14.997Z</time></trkpt>
   <trkpt lat="59.0869119924" lon="30.0125659187"><ele>63.794</ele><time>2026-04-20T16:45:46.996Z</time></trkpt>
   <trkpt lat="59.0870789599" lon="30.0124729634"><ele>63.367</ele><time>2026-04-20T16:46:17.003Z</time></trkpt>
   <trkpt lat="59.0871679757" lon="30.0123649206"><ele>64.007</ele><time>2026-04-20T16:46:33.004Z</time></trkpt>
   <trkpt lat="59.0872599671" lon="30.0121759925"><ele>63.916</ele><time>2026-04-20T16:47:03.002Z</time></trkpt>
   <trkpt lat="59.0872949615" lon="30.0119769223"><ele>65.105</ele><time>2026-04-20T16:47:20.999Z</time></trkpt>
   <trkpt lat="59.0875329657" lon="30.0120679498"><ele>67.025</ele><time>2026-04-20T16:48:35.001Z</time></trkpt>
   <trkpt lat="59.0876569759" lon="30.0119139743"><ele>64.648</ele><time>2026-04-20T16:48:56.998Z</time></trkpt>
   <trkpt lat="59.0879259931" lon="30.0117469229"><ele>60.594</ele><time>2026-04-20T16:50:05.997Z</time></trkpt>
   <trkpt lat="59.0883979781" lon="30.0120989629"><ele>62.423</ele><time>2026-04-20T16:51:41.003Z</time></trkpt>
   <trkpt lat="59.0885259697" lon="30.0116589968"><ele>64.556</ele><time>2026-04-20T16:52:24.997Z</time></trkpt>
   <trkpt lat="59.0885389617" lon="30.0114839826"><ele>63.52</ele><time>2026-04-20T16:52:38.001Z</time></trkpt>
   <trkpt lat="59.0886219844" lon="30.0114769418"><ele>68.0</ele><time>2026-04-20T16:53:14.997Z</time></trkpt>
   <trkpt lat="59.0887179991" lon="30.0113629479"><ele>69.982</ele><time>2026-04-20T16:54:31.003Z</time></trkpt>
   <trkpt lat="59.088831993" lon="30.0111009296"><ele>69.524</ele><time>2026-04-20T16:55:06.997Z</time></trkpt>
   <trkpt lat="59.0888669875" lon="30.0108599499"><ele>67.208</ele><time>2026-04-20T16:55:40.002Z</time></trkpt>
   <trkpt lat="59.0890559994" lon="30.0106519949"><ele>62.727</ele><time>2026-04-20T16:56:14.001Z</time></trkpt>
   <trkpt lat="59.0891309755" lon="30.0104959239"><ele>61.843</ele><time>2026-04-20T16:56:31.004Z</time></trkpt>
   <trkpt lat="59.089227996" lon="30.0104239233"><ele>61.935</ele><time>2026-04-20T16:56:46.997Z</time></trkpt>
   <trkpt lat="59.0894889666" lon="30.0106619694"><ele>57.485</ele><time>2026-04-20T16:57:37.999Z</time></trkpt>
   <trkpt lat="59.0896859832" lon="30.010833966"><ele>58.765</ele><time>2026-04-20T16:58:12.999Z</time></trkpt>
   <trkpt lat="59.0898039585" lon="30.0108249974"><ele>66.751</ele><time>2026-04-20T16:58:57.996Z</time></trkpt>
   <trkpt lat="59.0897009868" lon="30.0107719399"><ele>76.321</ele><time>2026-04-20T17:00:54.999Z</time></trkpt>
   <trkpt lat="59.0898209738" lon="30.0108459522"><ele>80.04</ele><time>2026-04-20T17:02:13.001Z</time></trkpt>
   <trkpt lat="59.0898979616" lon="30.010808988"><ele>84.46</ele><time>2026-04-20T17:05:07.996Z</time></trkpt>
   <trkpt lat="59.0898149807" lon="30.0108259194"><ele>82.966</ele><time>2026-04-20T17:05:35.998Z</time></trkpt>
   <trkpt lat="59.0901469879" lon="30.0104769808"><ele>72.054</ele><time>2026-04-20T17:06:55.002Z</time></trkpt>
   <trkpt lat="59.0905039732" lon="30.0101539422"><ele>63.306</ele><time>2026-04-20T17:07:50.998Z</time></trkpt>
   <trkpt lat="59.0907749601" lon="30.0097959511"><ele>58.338</ele><time>2026-04-20T17:08:46.000Z</time></trkpt>
   <trkpt lat="59.0908639759" lon="30.0098579772"><ele>57.607</ele><time>2026-04-20T17:09:07.004Z</time></trkpt>
   <trkpt lat="59.0913419958" lon="30.0097539578"><ele>60.655</ele><time>2026-04-20T17:10:15.001Z</time></trkpt>
   <trkpt lat="59.0915659603" lon="30.0100279622"><ele>61.752</ele><time>2026-04-20T17:10:51.004Z</time></trkpt>
   <trkpt lat="59.0919819961" lon="30.0102199916"><ele>64.373</ele><time>2026-04-20T17:11:45.004Z</time></trkpt>
   <trkpt lat="59.0922849599" lon="30.0099969492"><ele>61.782</ele><time>2026-04-20T17:12:19.002Z</time></trkpt>
   <trkpt lat="59.0927779835" lon="30.009293959"><ele>59.588</ele><time>2026-04-20T17:13:37.004Z</time></trkpt>
   <trkpt lat="59.0930609985" lon="30.0090329465"><ele>65.44</ele><time>2026-04-20T17:14:34.996Z</time></trkpt>
   <trkpt lat="59.0933959812" lon="30.008821974"><ele>65.135</ele><time>2026-04-20T17:15:29.998Z</time></trkpt>
   <trkpt lat="59.0938719895" lon="30.0090149254"><ele>63.947</ele><time>2026-04-20T17:16:34.997Z</time></trkpt>
   <trkpt lat="59.0940049684" lon="30.0090979901"><ele>62.27</ele><time>2026-04-20T17:16:49.002Z</time></trkpt>
   <trkpt lat="59.0940569781" lon="30.0092049432"><ele>65.714</ele><time>2026-04-20T17:17:28.997Z</time></trkpt>
   <trkpt lat="59.0942419667" lon="30.008607984"><ele>55.961</ele><time>2026-04-20T17:19:08.996Z</time></trkpt>
   <trkpt lat="59.09422097" lon="30.0082089216"><ele>57.972</ele><time>2026-04-20T17:19:42.001Z</time></trkpt>
   <trkpt lat="59.0943859678" lon="30.0078189955"><ele>61.63</ele><time>2026-04-20T17:21:16.998Z</time></trkpt>
   <trkpt lat="59.0945159711" lon="30.0077019841"><ele>67.177</ele><time>2026-04-20T17:21:47.998Z</time></trkpt>
   <trkpt lat="59.0946759816" lon="30.0077119586"><ele>67.269</ele><time>2026-04-20T17:22:18.998Z</time></trkpt>
   <trkpt lat="59.0947859941" lon="30.0078109488"><ele>67.299</ele><time>2026-04-20T17:22:37.998Z</time></trkpt>
   <trkpt lat="59.0948719925" lon="30.0079109449"><ele>65.836</ele><time>2026-04-20T17:22:55.001Z</time></trkpt>
   <trkpt lat="59.0949839747" lon="30.0081649166"><ele>59.832</ele><time>2026-04-20T17:23:19.003Z</time></trkpt>
   <trkpt lat="59.0950839708" lon="30.008237923"><ele>57.485</ele><time>2026-04-20T17:23:34.996Z</time></trkpt>
   <trkpt lat="59.0953229808" lon="30.0081399385"><ele>53.675</ele><time>2026-04-20T17:24:06.998Z</time></trkpt>
   <trkpt lat="59.0955569616" lon="30.0077769183"><ele>51.419</ele><time>2026-04-20T17:24:43.001Z</time></trkpt>
   <trkpt lat="59.0957839854" lon="30.0076319952"><ele>57.058</ele><time>2026-04-20T17:25:52.000Z</time></trkpt>
   <trkpt lat="59.0958579976" lon="30.0076769222"><ele>67.208</ele><time>2026-04-20T17:28:47.997Z</time></trkpt>
   <trkpt lat="59.0958569918" lon="30.0078179896"><ele>62.758</ele><time>2026-04-20T17:29:18.004Z</time></trkpt>
   <trkpt lat="59.095949989" lon="30.0080419541"><ele>56.875</ele><time>2026-04-20T17:30:03.001Z</time></trkpt>
   <trkpt lat="59.0959039724" lon="30.0089499657"><ele>56.296</ele><time>2026-04-20T17:31:51.001Z</time></trkpt>
   <trkpt lat="59.0958589615" lon="30.0090999179"><ele>60.106</ele><time>2026-04-20T17:32:38.996Z</time></trkpt>
   <trkpt lat="59.0958959677" lon="30.008941919"><ele>64.038</ele><time>2026-04-20T17:33:54.000Z</time></trkpt>
   <trkpt lat="59.0957959715" lon="30.008852987"><ele>63.124</ele><time>2026-04-20T17:34:11.004Z</time></trkpt>
   <trkpt lat="59.0955959793" lon="30.0088309426"><ele>58.216</ele><time>2026-04-20T17:34:45.002Z</time></trkpt>
   <trkpt lat="59.0953639683" lon="30.0089399912"><ele>53.736</ele><time>2026-04-20T17:35:20.003Z</time></trkpt>
   <trkpt lat="59.0952279719" lon="30.0088379834"><ele>53.583</ele><time>2026-04-20T17:35:50.001Z</time></trkpt>
   <trkpt lat="59.095050988" lon="30.0087949843"><ele>59.009</ele><time>2026-04-20T17:36:26.997Z</time></trkpt>
   <trkpt lat="59.0950659916" lon="30.0089819845"><ele>58.978</ele><time>2026-04-20T17:36:44.001Z</time></trkpt>
   <trkpt lat="59.0952169916" lon="30.0095399678"><ele>57.607</ele><time>2026-04-20T17:37:32.998Z</time></trkpt>
   <trkpt lat="59.0951269699" lon="30.0098589831"><ele>66.05</ele><time>2026-04-20T17:38:13.001Z</time></trkpt>
   <trkpt lat="59.0950759661" lon="30.0100889825"><ele>66.934</ele><time>2026-04-20T17:38:40.001Z</time></trkpt>
   <trkpt lat="59.094855983" lon="30.0100749847"><ele>62.849</ele><time>2026-04-20T17:39:28.999Z</time></trkpt>
   <trkpt lat="59.0948099664" lon="30.00995395"><ele>61.478</ele><time>2026-04-20T17:39:46.002Z</time></trkpt>
   <trkpt lat="59.094629965" lon="30.0097369425"><ele>60.137</ele><time>2026-04-20T17:40:36.002Z</time></trkpt>
   <trkpt lat="59.0944979919" lon="30.0096319173"><ele>62.301</ele><time>2026-04-20T17:41:00.004Z</time></trkpt>
   <trkpt lat="59.0943739817" lon="30.0094169215"><ele>65.684</ele><time>2026-04-20T17:42:37.999Z</time></trkpt>
   <trkpt lat="59.0938859873" lon="30.0094769359"><ele>67.878</ele><time>2026-04-20T17:45:07.004Z</time></trkpt>
   <trkpt lat="59.0936529704" lon="30.0098089431"><ele>70.225</ele><time>2026-04-20T17:46:46.001Z</time></trkpt>
   <trkpt lat="59.0935029762" lon="30.0095279817"><ele>69.372</ele><time>2026-04-20T17:47:21.002Z</time></trkpt>
   <trkpt lat="59.0933669798" lon="30.0099049997"><ele>67.391</ele><time>2026-04-20T17:48:08.997Z</time></trkpt>
   <trkpt lat="59.093289992" lon="30.0100749847"><ele>67.817</ele><time>2026-04-20T17:48:27.996Z</time></trkpt>
   <trkpt lat="59.0932509743" lon="30.01021798"><ele>67.97</ele><time>2026-04-20T17:48:46.002Z</time></trkpt>
   <trkpt lat="59.0932609907" lon="30.0104029686"><ele>68.214</ele><time>2026-04-20T17:49:10.998Z</time></trkpt>
   <trkpt lat="59.0931719748" lon="30.010619976"><ele>69.372</ele><time>2026-04-20T17:49:37.004Z</time></trkpt>
   <trkpt lat="59.0930659857" lon="30.010758948"><ele>68.915</ele><time>2026-04-20T17:50:07.996Z</time></trkpt>
   <trkpt lat="59.0930369843" lon="30.0110149313"><ele>72.694</ele><time>2026-04-20T17:51:21.997Z</time></trkpt>
   <trkpt lat="59.0931089848" lon="30.0114509579"><ele>67.177</ele><time>2026-04-20T17:52:07.997Z</time></trkpt>
   <trkpt lat="59.0930969987" lon="30.0117199332"><ele>65.074</ele><time>2026-04-20T17:52:44.000Z</time></trkpt>
   <trkpt lat="59.0933479948" lon="30.0117759243"><ele>68.549</ele><time>2026-04-20T17:53:48.998Z</time></trkpt>
   <trkpt lat="59.0935469812" lon="30.011305951"><ele>69.098</ele><time>2026-04-20T17:55:01.004Z</time></trkpt>
   <trkpt lat="59.0937839795" lon="30.0111189507"><ele>65.897</ele><time>2026-04-20T17:55:51.004Z</time></trkpt>
   <trkpt lat="59.0939279806" lon="30.0112019316"><ele>64.19</ele><time>2026-04-20T17:56:17.002Z</time></trkpt>
   <trkpt lat="59.0941839639" lon="30.0109989219"><ele>63.459</ele><time>2026-04-20T17:57:03.001Z</time></trkpt>
   <trkpt lat="59.0943519792" lon="30.0110579305"><ele>61.904</ele><time>2026-04-20T17:57:43.998Z</time></trkpt>
   <trkpt lat="59.0944099819" lon="30.0111479521"><ele>62.605</ele><time>2026-04-20T17:58:16.000Z</time></trkpt>
   <trkpt lat="59.0945689867" lon="30.0110489618"><ele>61.295</ele><time>2026-04-20T17:58:48.996Z</time></trkpt>
   <trkpt lat="59.094685998" lon="30.0108239916"><ele>65.074</ele><time>2026-04-20T17:59:16.999Z</time></trkpt>
   <trkpt lat="59.0948959647" lon="30.0104229175"><ele>67.238</ele><time>2026-04-20T18:00:39.001Z</time></trkpt>
   <trkpt lat="59.0953539938" lon="30.0102399406"><ele>71.323</ele><time>2026-04-20T18:03:53.997Z</time></trkpt>
   <trkpt lat="59.095446991" lon="30.0101099372"><ele>72.024</ele><time>2026-04-20T18:04:24.997Z</time></trkpt>
   <trkpt lat="59.0955759885" lon="30.0100469891"><ele>71.749</ele><time>2026-04-20T18:04:42.001Z</time></trkpt>
   <trkpt lat="59.095748991" lon="30.0100209214"><ele>73.792</ele><time>2026-04-20T18:05:10.997Z</time></trkpt>
   <trkpt lat="59.0959029665" lon="30.0097669498"><ele>73.03</ele><time>2026-04-20T18:05:53.998Z</time></trkpt>
   <trkpt lat="59.0959469715" lon="30.0099419639"><ele>73.822</ele><time>2026-04-20T18:06:05.999Z</time></trkpt>
   <trkpt lat="59.0960549724" lon="30.0101949297"><ele>73.913</ele><time>2026-04-20T18:06:24.998Z</time></trkpt>
   <trkpt lat="59.0960829679" lon="30.0084579479"><ele>54.041</ele><time>2026-04-20T18:08:49.001Z</time></trkpt>
   <trkpt lat="59.0959729973" lon="30.0077929277"><ele>51.663</ele><time>2026-04-20T18:09:25.998Z</time></trkpt>
   <trkpt lat="59.0959039724" lon="30.0075989705"><ele>51.815</ele><time>2026-04-20T18:09:40.003Z</time></trkpt>
   <trkpt lat="59.0958059879" lon="30.0076489266"><ele>53.858</ele><time>2026-04-20T18:10:04.999Z</time></trkpt>
   <trkpt lat="59.095886999" lon="30.0075329211"><ele>60.868</ele><time>2026-04-20T18:10:52.000Z</time></trkpt>
   <trkpt lat="59.095880964" lon="30.0071279914"><ele>62.971</ele><time>2026-04-20T18:11:13.004Z</time></trkpt>
   <trkpt lat="59.0957689818" lon="30.0067939725"><ele>60.167</ele><time>2026-04-20T18:11:36.004Z</time></trkpt>
   <trkpt lat="59.0957159663" lon="30.0065059703"><ele>59.649</ele><time>2026-04-20T18:11:56.999Z</time></trkpt>
   <trkpt lat="59.0956969813" lon="30.0060209934"><ele>59.405</ele><time>2026-04-20T18:12:19.999Z</time></trkpt>
   <trkpt lat="59.0954609888" lon="30.004728923"><ele>54.345</ele><time>2026-04-20T18:13:26.000Z</time></trkpt>
  </trkseg>
 </trk>
 <trk>
  <name>20260420_Lisa45</name>
  <desc>20260420_Lisa45</desc>
  <type>TrackStyle_2196F3C8</type>
  <extensions>
   <gom:time>2026-04-20T15:27:29.998Z</gom:time>
   <line xmlns="http://www.topografix.com/GPX/gpx_style/0/2">
    <color>2196F3</color>
   </line>
  </extensions>
  <trkseg>
   <trkpt lat="59.0969269837" lon="30.0133659713"><ele>69.86</ele><time>2026-04-20T15:27:29.998Z</time></trkpt>
   <trkpt lat="59.0966779992" lon="30.0136099685"><ele>72.938</ele><time>2026-04-20T15:30:59.000Z</time></trkpt>
   <trkpt lat="59.0965709623" lon="30.0135919475"><ele>72.085</ele><time>2026-04-20T15:31:36.998Z</time></trkpt>
   <trkpt lat="59.0964609917" lon="30.0135719985"><ele>70.683</ele><time>2026-04-20T15:33:46.002Z</time></trkpt>
   <trkpt lat="59.0964369776" lon="30.0137789477"><ele>70.987</ele><time>2026-04-20T15:34:20.001Z</time></trkpt>
   <trkpt lat="59.0963789748" lon="30.0138689694"><ele>71.932</ele><time>2026-04-20T15:34:44.996Z</time></trkpt>
   <trkpt lat="59.0962889951" lon="30.0137349427"><ele>72.054</ele><time>2026-04-20T15:35:29.000Z</time></trkpt>
   <trkpt lat="59.0962379912" lon="30.0135619402"><ele>71.14</ele><time>2026-04-20T15:36:50.000Z</time></trkpt>
   <trkpt lat="59.0960729934" lon="30.0136709888"><ele>72.237</ele><time>2026-04-20T15:37:30.003Z</time></trkpt>
   <trkpt lat="59.0960819621" lon="30.0134779536"><ele>70.347</ele><time>2026-04-20T15:38:43.002Z</time></trkpt>
   <trkpt lat="59.0959859893" lon="30.0138259702"><ele>63.489</ele><time>2026-04-20T15:39:14.003Z</time></trkpt>
   <trkpt lat="59.0959019607" lon="30.0139809516"><ele>59.222</ele><time>2026-04-20T15:39:34.004Z</time></trkpt>
   <trkpt lat="59.0958069937" lon="30.0138909299"><ele>63.825</ele><time>2026-04-20T15:40:32.998Z</time></trkpt>
   <trkpt lat="59.095880964" lon="30.0139629305"><ele>69.006</ele><time>2026-04-20T15:41:29.003Z</time></trkpt>
   <trkpt lat="59.095704986" lon="30.0143279624"><ele>70.805</ele><time>2026-04-20T15:43:53.999Z</time></trkpt>
   <trkpt lat="59.0956959754" lon="30.0141559657"><ele>67.513</ele><time>2026-04-20T15:44:11.996Z</time></trkpt>
   <trkpt lat="59.0954969891" lon="30.0138409738"><ele>68.793</ele><time>2026-04-20T15:45:35.001Z</time></trkpt>
   <trkpt lat="59.0954549957" lon="30.0141189177"><ele>67.33</ele><time>2026-04-20T15:46:17.000Z</time></trkpt>
   <trkpt lat="59.0952279719" lon="30.014285969"><ele>67.97</ele><time>2026-04-20T15:47:44.998Z</time></trkpt>
   <trkpt lat="59.0950419774" lon="30.0145629909"><ele>71.231</ele><time>2026-04-20T15:49:59.998Z</time></trkpt>
   <trkpt lat="59.0947029714" lon="30.0146649987"><ele>68.244</ele><time>2026-04-20T15:50:57.998Z</time></trkpt>
   <trkpt lat="59.0946349941" lon="30.0148029648"><ele>68.122</ele><time>2026-04-20T15:51:16.004Z</time></trkpt>
   <trkpt lat="59.0944519753" lon="30.0149429426"><ele>72.511</ele><time>2026-04-20T15:52:16.000Z</time></trkpt>
   <trkpt lat="59.094170972" lon="30.0150759634"><ele>72.176</ele><time>2026-04-20T15:53:30.002Z</time></trkpt>
   <trkpt lat="59.0940649828" lon="30.0151239917"><ele>72.268</ele><time>2026-04-20T15:56:25.999Z</time></trkpt>
   <trkpt lat="59.0938009948" lon="30.0152019434"><ele>71.079</ele><time>2026-04-20T15:57:48.001Z</time></trkpt>
   <trkpt lat="59.0936569937" lon="30.0153389875"><ele>70.073</ele><time>2026-04-20T15:58:34.000Z</time></trkpt>
   <trkpt lat="59.0931109965" lon="30.0153829925"><ele>70.012</ele><time>2026-04-20T16:00:43.004Z</time></trkpt>
   <trkpt lat="59.0929799874" lon="30.0153819867"><ele>72.329</ele><time>2026-04-20T16:02:54.004Z</time></trkpt>
   <trkpt lat="59.0926269835" lon="30.015399924"><ele>69.25</ele><time>2026-04-20T16:03:56.998Z</time></trkpt>
   <trkpt lat="59.0923749816" lon="30.0157359545"><ele>68.458</ele><time>2026-04-20T16:04:48.000Z</time></trkpt>
   <trkpt lat="59.0921639672" lon="30.0158869964"><ele>69.037</ele><time>2026-04-20T16:05:32.997Z</time></trkpt>
   <trkpt lat="59.0919339677" lon="30.0161329214"><ele>70.012</ele><time>2026-04-20T16:06:15.998Z</time></trkpt>
   <trkpt lat="59.0918739952" lon="30.0162649364"><ele>71.018</ele><time>2026-04-20T16:06:33.002Z</time></trkpt>
   <trkpt lat="59.0912629964" lon="30.0169189763"><ele>72.268</ele><time>2026-04-20T16:08:29.996Z</time></trkpt>
   <trkpt lat="59.0911439734" lon="30.0169639871"><ele>72.511</ele><time>2026-04-20T16:08:48.002Z</time></trkpt>
   <trkpt lat="59.0910819892" lon="30.0168699421"><ele>73.578</ele><time>2026-04-20T16:09:39.997Z</time></trkpt>
   <trkpt lat="59.0909599906" lon="30.0169049785"><ele>74.797</ele><time>2026-04-20T16:11:23.004Z</time></trkpt>
   <trkpt lat="59.0908859784" lon="30.017064989"><ele>74.523</ele><time>2026-04-20T16:11:43.999Z</time></trkpt>
   <trkpt lat="59.0907069829" lon="30.017209996"><ele>73.395</ele><time>2026-04-20T16:12:25.004Z</time></trkpt>
   <trkpt lat="59.0904869998" lon="30.0174959865"><ele>71.445</ele><time>2026-04-20T16:13:04.999Z</time></trkpt>
   <trkpt lat="59.090384992" lon="30.0175129179"><ele>70.957</ele><time>2026-04-20T16:13:22.996Z</time></trkpt>
   <trkpt lat="59.0902619876" lon="30.0176049512"><ele>71.81</ele><time>2026-04-20T16:14:08.002Z</time></trkpt>
   <trkpt lat="59.0901829882" lon="30.0176479504"><ele>76.87</ele><time>2026-04-20T16:14:28.997Z</time></trkpt>
   <trkpt lat="59.0901189923" lon="30.0175659754"><ele>77.937</ele><time>2026-04-20T16:14:52.999Z</time></trkpt>
   <trkpt lat="59.0901209621" lon="30.0174059649"><ele>77.175</ele><time>2026-04-20T16:15:11.998Z</time></trkpt>
   <trkpt lat="59.0902559946" lon="30.0169519172"><ele>73.578</ele><time>2026-04-20T16:16:08.003Z</time></trkpt>
   <trkpt lat="59.0903619837" lon="30.0167429563"><ele>71.78</ele><time>2026-04-20T16:16:26.000Z</time></trkpt>
   <trkpt lat="59.0904959684" lon="30.0167729635"><ele>69.982</ele><time>2026-04-20T16:16:46.001Z</time></trkpt>
   <trkpt lat="59.0908659876" lon="30.0166719616"><ele>66.751</ele><time>2026-04-20T16:18:15.002Z</time></trkpt>
   <trkpt lat="59.0908049673" lon="30.0165579677"><ele>72.176</ele><time>2026-04-20T16:20:00.997Z</time></trkpt>
   <trkpt lat="59.0907199748" lon="30.0167069979"><ele>75.041</ele><time>2026-04-20T16:21:18.999Z</time></trkpt>
   <trkpt lat="59.0906469684" lon="30.0169749674"><ele>77.022</ele><time>2026-04-20T16:22:08.999Z</time></trkpt>
   <trkpt lat="59.0903869618" lon="30.017190969"><ele>76.474</ele><time>2026-04-20T16:23:13.004Z</time></trkpt>
   <trkpt lat="59.0899939763" lon="30.0172739499"><ele>75.986</ele><time>2026-04-20T16:24:48.001Z</time></trkpt>
   <trkpt lat="59.0898719777" lon="30.0171809946"><ele>74.371</ele><time>2026-04-20T16:27:16.998Z</time></trkpt>
   <trkpt lat="59.0896549702" lon="30.017291971"><ele>72.664</ele><time>2026-04-20T16:28:25.997Z</time></trkpt>
   <trkpt lat="59.0894089613" lon="30.0175759499"><ele>72.908</ele><time>2026-04-20T16:29:23.004Z</time></trkpt>
   <trkpt lat="59.0892089691" lon="30.0177299254"><ele>72.389</ele><time>2026-04-20T16:30:04.000Z</time></trkpt>
   <trkpt lat="59.0889689952" lon="30.0177759421"><ele>70.957</ele><time>2026-04-20T16:30:52.998Z</time></trkpt>
   <trkpt lat="59.088819965" lon="30.0177719187"><ele>70.926</ele><time>2026-04-20T16:33:13.000Z</time></trkpt>
   <trkpt lat="59.0885139836" lon="30.0181459193"><ele>71.231</ele><time>2026-04-20T16:34:26.000Z</time></trkpt>
   <trkpt lat="59.0883599661" lon="30.018222949"><ele>72.725</ele><time>2026-04-20T16:35:03.998Z</time></trkpt>
   <trkpt lat="59.0879509712" lon="30.018247927"><ele>75.773</ele><time>2026-04-20T16:36:24.998Z</time></trkpt>
   <trkpt lat="59.087970962" lon="30.0184229412"><ele>81.93</ele><time>2026-04-20T16:37:48.996Z</time></trkpt>
   <trkpt lat="59.0878609915" lon="30.0182469212"><ele>81.533</ele><time>2026-04-20T16:39:05.996Z</time></trkpt>
   <trkpt lat="59.0874059798" lon="30.0184629228"><ele>79.796</ele><time>2026-04-20T16:40:39.999Z</time></trkpt>
   <trkpt lat="59.0871689815" lon="30.0187609833"><ele>78.272</ele><time>2026-04-20T16:41:43.002Z</time></trkpt>
   <trkpt lat="59.0870409899" lon="30.0187289645"><ele>78.028</ele><time>2026-04-20T16:42:36.000Z</time></trkpt>
   <trkpt lat="59.0871089671" lon="30.0188369234"><ele>78.668</ele><time>2026-04-20T16:43:09.998Z</time></trkpt>
   <trkpt lat="59.0870239746" lon="30.0187739753"><ele>79.43</ele><time>2026-04-20T16:44:41.997Z</time></trkpt>
   <trkpt lat="59.0866209727" lon="30.0190239236"><ele>77.693</ele><time>2026-04-20T16:46:33.997Z</time></trkpt>
   <trkpt lat="59.086335988" lon="30.0192429428"><ele>74.432</ele><time>2026-04-20T16:47:31.004Z</time></trkpt>
   <trkpt lat="59.0860069983" lon="30.0192839303"><ele>68.458</ele><time>2026-04-20T16:50:24.996Z</time></trkpt>
   <trkpt lat="59.0858499633" lon="30.0193369877"><ele>68.976</ele><time>2026-04-20T16:52:30.000Z</time></trkpt>
   <trkpt lat="59.0856619992" lon="30.019429943"><ele>69.86</ele><time>2026-04-20T16:53:13.001Z</time></trkpt>
   <trkpt lat="59.0857289706" lon="30.0197659735"><ele>67.757</ele><time>2026-04-20T16:53:55.000Z</time></trkpt>
   <trkpt lat="59.0857419625" lon="30.0195089844"><ele>66.842</ele><time>2026-04-20T16:54:31.997Z</time></trkpt>
   <trkpt lat="59.0855739892" lon="30.0194349722"><ele>69.098</ele><time>2026-04-20T16:55:51.001Z</time></trkpt>
   <trkpt lat="59.0853139825" lon="30.0198279996"><ele>68.427</ele><time>2026-04-20T16:56:54.997Z</time></trkpt>
   <trkpt lat="59.0851069914" lon="30.0200369604"><ele>70.439</ele><time>2026-04-20T16:57:55.996Z</time></trkpt>
   <trkpt lat="59.0850959692" lon="30.0197619502"><ele>73.487</ele><time>2026-04-20T16:59:43.002Z</time></trkpt>
   <trkpt lat="59.0850519642" lon="30.019894971"><ele>67.238</ele><time>2026-04-20T17:02:06.003Z</time></trkpt>
   <trkpt lat="59.0849769881" lon="30.0199999962"><ele>70.103</ele><time>2026-04-20T17:03:11.002Z</time></trkpt>
   <trkpt lat="59.0848049915" lon="30.0200639502"><ele>68.458</ele><time>2026-04-20T17:03:54.996Z</time></trkpt>
   <trkpt lat="59.0846519798" lon="30.0200449232"><ele>64.495</ele><time>2026-04-20T17:06:12.001Z</time></trkpt>
   <trkpt lat="59.0849039817" lon="30.0203119707"><ele>68.61</ele><time>2026-04-20T17:07:15.997Z</time></trkpt>
   <trkpt lat="59.0848999584" lon="30.0204629288"><ele>75.285</ele><time>2026-04-20T17:07:38.997Z</time></trkpt>
   <trkpt lat="59.0850299617" lon="30.0209569581"><ele>73.822</ele><time>2026-04-20T17:09:13.000Z</time></trkpt>
   <trkpt lat="59.0850099709" lon="30.0211509992"><ele>73.548</ele><time>2026-04-20T17:09:38.998Z</time></trkpt>
   <trkpt lat="59.0850369606" lon="30.0214069825"><ele>73.883</ele><time>2026-04-20T17:10:04.996Z</time></trkpt>
   <trkpt lat="59.0851639884" lon="30.0213869498"><ele>74.767</ele><time>2026-04-20T17:12:16.004Z</time></trkpt>
   <trkpt lat="59.0853649864" lon="30.0212189764"><ele>72.694</ele><time>2026-04-20T17:14:41.001Z</time></trkpt>
   <trkpt lat="59.085455972" lon="30.0212209881"><ele>72.146</ele><time>2026-04-20T17:15:00.000Z</time></trkpt>
   <trkpt lat="59.086033988" lon="30.0207419623"><ele>63.367</ele><time>2026-04-20T17:16:45.002Z</time></trkpt>
   <trkpt lat="59.0861489877" lon="30.0207199179"><ele>65.775</ele><time>2026-04-20T17:18:06.002Z</time></trkpt>
   <trkpt lat="59.0863709824" lon="30.0206759967"><ele>69.067</ele><time>2026-04-20T17:20:55.000Z</time></trkpt>
   <trkpt lat="59.0865399616" lon="30.0205819518"><ele>67.939</ele><time>2026-04-20T17:21:18.000Z</time></trkpt>
   <trkpt lat="59.0866229844" lon="30.0204509426"><ele>66.263</ele><time>2026-04-20T17:21:42.002Z</time></trkpt>
   <trkpt lat="59.0869839929" lon="30.0202819635"><ele>61.661</ele><time>2026-04-20T17:23:07.002Z</time></trkpt>
   <trkpt lat="59.0871299638" lon="30.0200879224"><ele>64.495</ele><time>2026-04-20T17:24:08.001Z</time></trkpt>
   <trkpt lat="59.0873799959" lon="30.0198849965"><ele>65.592</ele><time>2026-04-20T17:26:16.996Z</time></trkpt>
   <trkpt lat="59.0876539584" lon="30.0198279996"><ele>62.544</ele><time>2026-04-20T17:27:19.999Z</time></trkpt>
   <trkpt lat="59.0881539809" lon="30.0194029533"><ele>59.923</ele><time>2026-04-20T17:29:01.000Z</time></trkpt>
   <trkpt lat="59.0883949606" lon="30.0193839264"><ele>60.868</ele><time>2026-04-20T17:30:04.003Z</time></trkpt>
   <trkpt lat="59.0883519614" lon="30.0192359858"><ele>67.97</ele><time>2026-04-20T17:30:34.001Z</time></trkpt>
   <trkpt lat="59.0884289911" lon="30.019171948"><ele>77.998</ele><time>2026-04-20T17:31:08.000Z</time></trkpt>
   <trkpt lat="59.0885879958" lon="30.019127943"><ele>75.285</ele><time>2026-04-20T17:32:15.996Z</time></trkpt>
   <trkpt lat="59.0887079828" lon="30.0191309605"><ele>72.542</ele><time>2026-04-20T17:32:37.000Z</time></trkpt>
   <trkpt lat="59.088787988" lon="30.0191889633"><ele>72.42</ele><time>2026-04-20T17:32:58.998Z</time></trkpt>
   <trkpt lat="59.0890759902" lon="30.0190389272"><ele>69.768</ele><time>2026-04-20T17:34:30.996Z</time></trkpt>
   <trkpt lat="59.0893619808" lon="30.0190509972"><ele>69.433</ele><time>2026-04-20T17:35:47.003Z</time></trkpt>
   <trkpt lat="59.0895889627" lon="30.0187739753"><ele>76.23</ele><time>2026-04-20T17:43:27.998Z</time></trkpt>
   <trkpt lat="59.0899209699" lon="30.018599967"><ele>76.931</ele><time>2026-04-20T17:45:14.996Z</time></trkpt>
   <trkpt lat="59.0899929704" lon="30.0186129589"><ele>75.895</ele><time>2026-04-20T17:45:34.998Z</time></trkpt>
   <trkpt lat="59.0903129915" lon="30.0183149823"><ele>73.091</ele><time>2026-04-20T17:46:44.999Z</time></trkpt>
   <trkpt lat="59.0903899793" lon="30.01832898"><ele>74.035</ele><time>2026-04-20T17:49:56.997Z</time></trkpt>
   <trkpt lat="59.0904719962" lon="30.0183459953"><ele>73.365</ele><time>2026-04-20T17:50:19.003Z</time></trkpt>
   <trkpt lat="59.0907239981" lon="30.0181679637"><ele>72.359</ele><time>2026-04-20T17:51:28.002Z</time></trkpt>
   <trkpt lat="59.0909169914" lon="30.0181669578"><ele>72.755</ele><time>2026-04-20T17:52:53.003Z</time></trkpt>
   <trkpt lat="59.0912109867" lon="30.0179339409"><ele>72.054</ele><time>2026-04-20T17:53:47.003Z</time></trkpt>
   <trkpt lat="59.0913589692" lon="30.017907957"><ele>76.108</ele><time>2026-04-20T17:54:13.000Z</time></trkpt>
   <trkpt lat="59.0915289961" lon="30.0176849984"><ele>82.387</ele><time>2026-04-20T17:58:03.999Z</time></trkpt>
   <trkpt lat="59.0916499889" lon="30.0175599404"><ele>83.423</ele><time>2026-04-20T17:59:20.999Z</time></trkpt>
   <trkpt lat="59.0919389969" lon="30.0173849263"><ele>80.101</ele><time>2026-04-20T18:00:25.998Z</time></trkpt>
   <trkpt lat="59.0920619594" lon="30.0172279332"><ele>77.541</ele><time>2026-04-20T18:00:48.004Z</time></trkpt>
   <trkpt lat="59.0921689963" lon="30.0172649812"><ele>77.022</ele><time>2026-04-20T18:01:25.000Z</time></trkpt>
   <trkpt lat="59.0922669808" lon="30.017316949"><ele>80.528</ele><time>2026-04-20T18:02:12.002Z</time></trkpt>
   <trkpt lat="59.0923129974" lon="30.0171319604"><ele>81.32</ele><time>2026-04-20T18:03:41.003Z</time></trkpt>
   <trkpt lat="59.0923899852" lon="30.0172769674"><ele>81.137</ele><time>2026-04-20T18:07:13.996Z</time></trkpt>
   <trkpt lat="59.0926729582" lon="30.0170979299"><ele>84.764</ele><time>2026-04-20T18:09:17.004Z</time></trkpt>
   <trkpt lat="59.0928669993" lon="30.016901961"><ele>82.722</ele><time>2026-04-20T18:09:55.002Z</time></trkpt>
   <trkpt lat="59.0930059713" lon="30.0168349896"><ele>80.528</ele><time>2026-04-20T18:10:18.002Z</time></trkpt>
   <trkpt lat="59.0931979587" lon="30.0164829497"><ele>77.876</ele><time>2026-04-20T18:11:47.003Z</time></trkpt>
   <trkpt lat="59.0932799757" lon="30.0165059999"><ele>76.809</ele><time>2026-04-20T18:12:57.997Z</time></trkpt>
   <trkpt lat="59.0932699593" lon="30.0167809263"><ele>76.87</ele><time>2026-04-20T18:13:40.999Z</time></trkpt>
   <trkpt lat="59.0933759904" lon="30.0166839477"><ele>78.059</ele><time>2026-04-20T18:16:13.996Z</time></trkpt>
   <trkpt lat="59.093334961" lon="30.0168049824"><ele>78.973</ele><time>2026-04-20T18:17:04.004Z</time></trkpt>
   <trkpt lat="59.0937489851" lon="30.0162329175"><ele>70.134</ele><time>2026-04-20T18:18:56.998Z</time></trkpt>
   <trkpt lat="59.0939739973" lon="30.0161399622"><ele>69.067</ele><time>2026-04-20T18:19:53.003Z</time></trkpt>
   <trkpt lat="59.0941969978" lon="30.0161359389"><ele>69.555</ele><time>2026-04-20T18:20:31.001Z</time></trkpt>
   <trkpt lat="59.0942579761" lon="30.0160419778"><ele>69.128</ele><time>2026-04-20T18:20:46.000Z</time></trkpt>
   <trkpt lat="59.0943209661" lon="30.0157879223"><ele>65.257</ele><time>2026-04-20T18:22:34.000Z</time></trkpt>
   <trkpt lat="59.0942479598" lon="30.015933935"><ele>62.27</ele><time>2026-04-20T18:23:33.996Z</time></trkpt>
   <trkpt lat="59.0942919648" lon="30.0160579872"><ele>64.465</ele><time>2026-04-20T18:26:00.004Z</time></trkpt>
   <trkpt lat="59.0944539869" lon="30.0161469192"><ele>64.709</ele><time>2026-04-20T18:27:09.003Z</time></trkpt>
   <trkpt lat="59.0945119897" lon="30.0160549697"><ele>65.775</ele><time>2026-04-20T18:27:43.001Z</time></trkpt>
   <trkpt lat="59.0948909775" lon="30.0158939533"><ele>69.555</ele><time>2026-04-20T18:29:24.003Z</time></trkpt>
   <trkpt lat="59.0950709788" lon="30.0158699811"><ele>70.591</ele><time>2026-04-20T18:30:23.999Z</time></trkpt>
   <trkpt lat="59.0951469608" lon="30.0158239644"><ele>69.951</ele><time>2026-04-20T18:30:54.999Z</time></trkpt>
   <trkpt lat="59.0952039996" lon="30.015694967"><ele>71.445</ele><time>2026-04-20T18:31:42.001Z</time></trkpt>
   <trkpt lat="59.0955379766" lon="30.0156209548"><ele>78.303</ele><time>2026-04-20T18:34:13.996Z</time></trkpt>
   <trkpt lat="59.0955629965" lon="30.0154469464"><ele>82.174</ele><time>2026-04-20T18:36:04.000Z</time></trkpt>
   <trkpt lat="59.0955039879" lon="30.0155789614"><ele>83.362</ele><time>2026-04-20T18:37:02.001Z</time></trkpt>
   <trkpt lat="59.0955389824" lon="30.0153779634"><ele>84.124</ele><time>2026-04-20T18:38:04.001Z</time></trkpt>
   <trkpt lat="59.095641996" lon="30.0154729303"><ele>78.638</ele><time>2026-04-20T18:40:01.998Z</time></trkpt>
   <trkpt lat="59.0955179857" lon="30.0155409914"><ele>81.655</ele><time>2026-04-20T18:41:33.003Z</time></trkpt>
   <trkpt lat="59.0955519743" lon="30.0153609481"><ele>80.589</ele><time>2026-04-20T18:42:18.000Z</time></trkpt>
   <trkpt lat="59.095679966" lon="30.0151389953"><ele>78.181</ele><time>2026-04-20T18:42:58.003Z</time></trkpt>
   <trkpt lat="59.0958009588" lon="30.014920982"><ele>77.205</ele><time>2026-04-20T18:44:00.004Z</time></trkpt>
   <trkpt lat="59.0958399765" lon="30.014682936"><ele>77.388</ele><time>2026-04-20T18:44:34.002Z</time></trkpt>
   <trkpt lat="59.0962919707" lon="30.0148289487"><ele>79.613</ele><time>2026-04-20T18:47:56.999Z</time></trkpt>
   <trkpt lat="59.0961959979" lon="30.0147249293"><ele>76.992</ele><time>2026-04-20T18:48:54.999Z</time></trkpt>
   <trkpt lat="59.0962689623" lon="30.0147759751"><ele>74.34</ele><time>2026-04-20T18:50:25.002Z</time></trkpt>
   <trkpt lat="59.096572974" lon="30.0148849398"><ele>73.243</ele><time>2026-04-20T18:52:12.000Z</time></trkpt>
   <trkpt lat="59.0966189906" lon="30.0150879495"><ele>74.828</ele><time>2026-04-20T18:52:56.997Z</time></trkpt>
   <trkpt lat="59.0966389815" lon="30.0148109276"><ele>73.974</ele><time>2026-04-20T18:54:45.999Z</time></trkpt>
   <trkpt lat="59.0966349581" lon="30.0145099335"><ele>73.456</ele><time>2026-04-20T18:55:35.999Z</time></trkpt>
   <trkpt lat="59.0966989959" lon="30.0141409621"><ele>73.609</ele><time>2026-04-20T18:57:07.998Z</time></trkpt>
   <trkpt lat="59.0966259895" lon="30.0138019979"><ele>71.079</ele><time>2026-04-20T18:58:08.996Z</time></trkpt>
   <trkpt lat="59.0966259895" lon="30.0136139919"><ele>67.635</ele><time>2026-04-20T18:59:21.002Z</time></trkpt>
   <trkpt lat="59.0968129898" lon="30.0134909455"><ele>74.371</ele><time>2026-04-20T19:00:50.003Z</time></trkpt>
   <trkpt lat="59.0968919892" lon="30.0133659713"><ele>72.816</ele><time>2026-04-20T19:01:28.001Z</time></trkpt>
   <trkpt lat="59.0969839806" lon="30.0133629539"><ele>72.176</ele><time>2026-04-20T19:02:10.000Z</time></trkpt>
   <trkpt lat="59.0969269837" lon="30.0127749634"><ele>69.982</ele><time>2026-04-20T19:02:58.004Z</time></trkpt>
   <trkpt lat="59.0968169712" lon="30.0122979492"><ele>65.105</ele><time>2026-04-20T19:03:23.000Z</time></trkpt>
   <trkpt lat="59.0966489978" lon="30.0112439249"><ele>65.41</ele><time>2026-04-20T19:04:46.004Z</time></trkpt>
  </trkseg>
 </trk>
 <trk>
  <name>20260420_Lisa46</name>
  <desc>20260420_Lisa46</desc>
  <type>TrackStyle_2196F3C8</type>
  <extensions>
   <gom:time>2026-04-20T15:35:16.999Z</gom:time>
   <line xmlns="http://www.topografix.com/GPX/gpx_style/0/2">
    <color>2196F3</color>
   </line>
  </extensions>
  <trkseg>
   <trkpt lat="59.0971629761" lon="30.0185219314"><ele>75.864</ele><time>2026-04-20T15:35:16.999Z</time></trkpt>
   <trkpt lat="59.0972089928" lon="30.0186349195"><ele>73.913</ele><time>2026-04-20T15:36:17.004Z</time></trkpt>
   <trkpt lat="59.0971719867" lon="30.0187649228"><ele>75.62</ele><time>2026-04-20T15:36:36.003Z</time></trkpt>
   <trkpt lat="59.0971059792" lon="30.0188549445"><ele>74.462</ele><time>2026-04-20T15:36:58.000Z</time></trkpt>
   <trkpt lat="59.0970659975" lon="30.0190889672"><ele>76.596</ele><time>2026-04-20T15:37:18.002Z</time></trkpt>
   <trkpt lat="59.097119977" lon="30.0192499836"><ele>71.688</ele><time>2026-04-20T15:38:02.999Z</time></trkpt>
   <trkpt lat="59.0970119761" lon="30.0192849361"><ele>76.169</ele><time>2026-04-20T15:38:58.001Z</time></trkpt>
   <trkpt lat="59.0971049734" lon="30.0188269489"><ele>78.546</ele><time>2026-04-20T15:40:17.999Z</time></trkpt>
   <trkpt lat="59.0969519617" lon="30.0186739792"><ele>71.963</ele><time>2026-04-20T15:41:21.002Z</time></trkpt>
   <trkpt lat="59.0968359981" lon="30.0187999592"><ele>70.5</ele><time>2026-04-20T15:41:37.997Z</time></trkpt>
   <trkpt lat="59.0967279973" lon="30.0188429583"><ele>68.945</ele><time>2026-04-20T15:41:56.996Z</time></trkpt>
   <trkpt lat="59.0965849601" lon="30.0190799986"><ele>70.713</ele><time>2026-04-20T15:42:31.003Z</time></trkpt>
   <trkpt lat="59.0965219701" lon="30.0192239997"><ele>72.603</ele><time>2026-04-20T15:42:47.998Z</time></trkpt>
   <trkpt lat="59.0965039909" lon="30.0193819985"><ele>71.048</ele><time>2026-04-20T15:43:06.004Z</time></trkpt>
   <trkpt lat="59.0963539968" lon="30.0197479524"><ele>72.268</ele><time>2026-04-20T15:44:03.002Z</time></trkpt>
   <trkpt lat="59.0961929804" lon="30.0198939652"><ele>64.251</ele><time>2026-04-20T15:45:04.000Z</time></trkpt>
   <trkpt lat="59.0959639868" lon="30.0200309255"><ele>70.134</ele><time>2026-04-20T15:45:54.000Z</time></trkpt>
   <trkpt lat="59.0958489871" lon="30.020095969"><ele>64.8</ele><time>2026-04-20T15:48:07.998Z</time></trkpt>
   <trkpt lat="59.0956699915" lon="30.0201809615"><ele>67.939</ele><time>2026-04-20T15:48:40.000Z</time></trkpt>
   <trkpt lat="59.0955489988" lon="30.020234941"><ele>62.727</ele><time>2026-04-20T15:49:39.996Z</time></trkpt>
   <trkpt lat="59.0955049938" lon="30.0204669521"><ele>74.188</ele><time>2026-04-20T15:50:41.004Z</time></trkpt>
   <trkpt lat="59.0955419999" lon="30.0207149726"><ele>70.164</ele><time>2026-04-20T15:51:12.997Z</time></trkpt>
   <trkpt lat="59.0954999646" lon="30.0209749792"><ele>71.627</ele><time>2026-04-20T15:51:50.003Z</time></trkpt>
   <trkpt lat="59.095339996" lon="30.0211919867"><ele>70.378</ele><time>2026-04-20T15:53:14.001Z</time></trkpt>
   <trkpt lat="59.0953039957" lon="30.0213979301"><ele>74.371</ele><time>2026-04-20T15:53:57.002Z</time></trkpt>
   <trkpt lat="59.0951699691" lon="30.02148594"><ele>73.944</ele><time>2026-04-20T15:54:48.997Z</time></trkpt>
   <trkpt lat="59.0951059733" lon="30.0214149453"><ele>64.099</ele><time>2026-04-20T15:57:57.997Z</time></trkpt>
   <trkpt lat="59.0950619683" lon="30.021529945"><ele>66.354</ele><time>2026-04-20T15:58:16.003Z</time></trkpt>
   <trkpt lat="59.0949399697" lon="30.0215919711"><ele>67.757</ele><time>2026-04-20T15:58:48.999Z</time></trkpt>
   <trkpt lat="59.0948939949" lon="30.0218479544"><ele>76.931</ele><time>2026-04-20T15:59:53.998Z</time></trkpt>
   <trkpt lat="59.0949169614" lon="30.0217139278"><ele>82.448</ele><time>2026-04-20T16:00:54.003Z</time></trkpt>
   <trkpt lat="59.0948009977" lon="30.0219379761"><ele>75.255</ele><time>2026-04-20T16:02:22.001Z</time></trkpt>
   <trkpt lat="59.0946779933" lon="30.0219149258"><ele>72.572</ele><time>2026-04-20T16:03:04.000Z</time></trkpt>
   <trkpt lat="59.0947609741" lon="30.0221739267"><ele>72.359</ele><time>2026-04-20T16:04:11.004Z</time></trkpt>
   <trkpt lat="59.0946759816" lon="30.0223489408"><ele>79.979</ele><time>2026-04-20T16:05:20.003Z</time></trkpt>
   <trkpt lat="59.0946579606" lon="30.0225889985"><ele>66.934</ele><time>2026-04-20T16:08:41.997Z</time></trkpt>
   <trkpt lat="59.0947919872" lon="30.0228049163"><ele>71.018</ele><time>2026-04-20T16:10:18.998Z</time></trkpt>
   <trkpt lat="59.0947449647" lon="30.0229449779"><ele>70.561</ele><time>2026-04-20T16:12:18.999Z</time></trkpt>
   <trkpt lat="59.0947819708" lon="30.0227519427"><ele>74.035</ele><time>2026-04-20T16:14:02.999Z</time></trkpt>
   <trkpt lat="59.0948129839" lon="30.0230569602"><ele>74.096</ele><time>2026-04-20T16:15:11.998Z</time></trkpt>
   <trkpt lat="59.0948829727" lon="30.0231929984"><ele>74.401</ele><time>2026-04-20T16:16:16.003Z</time></trkpt>
   <trkpt lat="59.0948089605" lon="30.023510924"><ele>70.561</ele><time>2026-04-20T16:17:49.998Z</time></trkpt>
   <trkpt lat="59.0948659994" lon="30.0238509778"><ele>74.432</ele><time>2026-04-20T16:19:12.000Z</time></trkpt>
   <trkpt lat="59.094780965" lon="30.0241949711"><ele>68.579</ele><time>2026-04-20T16:20:31.004Z</time></trkpt>
   <trkpt lat="59.0947999919" lon="30.0245369528"><ele>71.018</ele><time>2026-04-20T16:22:02.001Z</time></trkpt>
   <trkpt lat="59.0948739622" lon="30.024874995"><ele>70.622</ele><time>2026-04-20T16:24:02.002Z</time></trkpt>
   <trkpt lat="59.0949929852" lon="30.0249929283"><ele>74.401</ele><time>2026-04-20T16:25:39.996Z</time></trkpt>
   <trkpt lat="59.0949799933" lon="30.0252099358"><ele>72.024</ele><time>2026-04-20T16:26:47.000Z</time></trkpt>
   <trkpt lat="59.095069973" lon="30.025321918"><ele>65.318</ele><time>2026-04-20T16:27:39.997Z</time></trkpt>
   <trkpt lat="59.0953679916" lon="30.0250849616"><ele>70.103</ele><time>2026-04-20T16:29:03.002Z</time></trkpt>
   <trkpt lat="59.0955439696" lon="30.0250569661"><ele>68.823</ele><time>2026-04-20T16:29:46.003Z</time></trkpt>
   <trkpt lat="59.0956779963" lon="30.0249189999"><ele>72.725</ele><time>2026-04-20T16:30:25.004Z</time></trkpt>
   <trkpt lat="59.0958199857" lon="30.0248479214"><ele>72.176</ele><time>2026-04-20T16:31:07.003Z</time></trkpt>
   <trkpt lat="59.0959989812" lon="30.0248739891"><ele>62.423</ele><time>2026-04-20T16:31:42.004Z</time></trkpt>
   <trkpt lat="59.0961519929" lon="30.0246459175"><ele>67.817</ele><time>2026-04-20T16:32:13.998Z</time></trkpt>
   <trkpt lat="59.0966369698" lon="30.0243989867"><ele>68.823</ele><time>2026-04-20T16:35:18.004Z</time></trkpt>
   <trkpt lat="59.0967289612" lon="30.0243309256"><ele>69.799</ele><time>2026-04-20T16:35:38.999Z</time></trkpt>
   <trkpt lat="59.096892995" lon="30.0243739248"><ele>71.475</ele><time>2026-04-20T16:36:19.002Z</time></trkpt>
   <trkpt lat="59.0970169634" lon="30.0242899381"><ele>68.519</ele><time>2026-04-20T16:37:02.997Z</time></trkpt>
   <trkpt lat="59.0972479686" lon="30.024277952"><ele>68.884</ele><time>2026-04-20T16:38:34.002Z</time></trkpt>
   <trkpt lat="59.0970999861" lon="30.0246429839"><ele>69.616</ele><time>2026-04-20T16:39:41.999Z</time></trkpt>
   <trkpt lat="59.0971149897" lon="30.0248449877"><ele>73.853</ele><time>2026-04-20T16:40:27.998Z</time></trkpt>
   <trkpt lat="59.0972799875" lon="30.0242829811"><ele>63.794</ele><time>2026-04-20T16:41:29.999Z</time></trkpt>
   <trkpt lat="59.0974769622" lon="30.0240409956"><ele>66.385</ele><time>2026-04-20T16:42:07.004Z</time></trkpt>
   <trkpt lat="59.0977209594" lon="30.0238469545"><ele>74.035</ele><time>2026-04-20T16:43:01.998Z</time></trkpt>
   <trkpt lat="59.0978099752" lon="30.0238989223"><ele>71.963</ele><time>2026-04-20T16:43:21.999Z</time></trkpt>
   <trkpt lat="59.0977759866" lon="30.0237669912"><ele>76.382</ele><time>2026-04-20T16:44:06.003Z</time></trkpt>
   <trkpt lat="59.0979209935" lon="30.0238109962"><ele>79.552</ele><time>2026-04-20T16:45:18.000Z</time></trkpt>
   <trkpt lat="59.0978719594" lon="30.023944939"><ele>76.078</ele><time>2026-04-20T16:45:46.002Z</time></trkpt>
   <trkpt lat="59.098219976" lon="30.0236289412"><ele>70.012</ele><time>2026-04-20T16:49:49.996Z</time></trkpt>
   <trkpt lat="59.0983949902" lon="30.0236949906"><ele>70.591</ele><time>2026-04-20T16:50:33.999Z</time></trkpt>
   <trkpt lat="59.0984919688" lon="30.0236209784"><ele>68.579</ele><time>2026-04-20T16:50:51.003Z</time></trkpt>
   <trkpt lat="59.0985339621" lon="30.0237489701"><ele>70.378</ele><time>2026-04-20T16:51:10.002Z</time></trkpt>
   <trkpt lat="59.0986319885" lon="30.0238679931"><ele>76.139</ele><time>2026-04-20T16:51:56.002Z</time></trkpt>
   <trkpt lat="59.0986489618" lon="30.024019957"><ele>82.417</ele><time>2026-04-20T16:52:51.997Z</time></trkpt>
   <trkpt lat="59.0987349602" lon="30.0240619503"><ele>80.284</ele><time>2026-04-20T16:53:33.003Z</time></trkpt>
   <trkpt lat="59.0988069607" lon="30.0241249823"><ele>70.378</ele><time>2026-04-20T16:57:52.004Z</time></trkpt>
   <trkpt lat="59.0987509696" lon="30.0240189512"><ele>73.548</ele><time>2026-04-20T17:00:45.996Z</time></trkpt>
   <trkpt lat="59.0987519754" lon="30.0242789578"><ele>70.469</ele><time>2026-04-20T17:02:18.997Z</time></trkpt>
   <trkpt lat="59.0988269935" lon="30.0249679503"><ele>71.475</ele><time>2026-04-20T17:03:41.000Z</time></trkpt>
   <trkpt lat="59.0988689868" lon="30.025113963"><ele>71.871</ele><time>2026-04-20T17:03:58.003Z</time></trkpt>
   <trkpt lat="59.0987059588" lon="30.0256109261"><ele>81.503</ele><time>2026-04-20T17:05:15.996Z</time></trkpt>
   <trkpt lat="59.0987489999" lon="30.0257369899"><ele>78.546</ele><time>2026-04-20T17:05:37.000Z</time></trkpt>
   <trkpt lat="59.0989699887" lon="30.0258319568"><ele>66.446</ele><time>2026-04-20T17:06:23.000Z</time></trkpt>
   <trkpt lat="59.0991039735" lon="30.0259729404"><ele>70.347</ele><time>2026-04-20T17:06:59.003Z</time></trkpt>
   <trkpt lat="59.0991089607" lon="30.026170921"><ele>72.115</ele><time>2026-04-20T17:07:19.998Z</time></trkpt>
   <trkpt lat="59.0992569851" lon="30.0263679795"><ele>78.211</ele><time>2026-04-20T17:08:20.003Z</time></trkpt>
   <trkpt lat="59.0992709829" lon="30.0265179318"><ele>77.327</ele><time>2026-04-20T17:08:40.998Z</time></trkpt>
   <trkpt lat="59.099219979" lon="30.0262729288"><ele>74.584</ele><time>2026-04-20T17:09:22.003Z</time></trkpt>
   <trkpt lat="59.0991309632" lon="30.025673958"><ele>72.816</ele><time>2026-04-20T17:10:13.999Z</time></trkpt>
  </trkseg>
 </trk>
 <trk>
  <name>20260420_Lisa47</name>
  <desc>20260420_Lisa47</desc>
  <type>TrackStyle_2196F3C8</type>
  <extensions>
   <gom:time>2026-04-20T16:38:04.998Z</gom:time>
   <line xmlns="http://www.topografix.com/GPX/gpx_style/0/2">
    <color>2196F3</color>
   </line>
  </extensions>
  <trkseg>
   <trkpt lat="59.0992729945" lon="30.0265449215"><ele>56.387</ele><time>2026-04-20T16:38:04.998Z</time></trkpt>
   <trkpt lat="59.0994369865" lon="30.0275349919"><ele>54.833</ele><time>2026-04-20T16:38:54.997Z</time></trkpt>
   <trkpt lat="59.0993589929" lon="30.0272829481"><ele>62.27</ele><time>2026-04-20T16:39:56.998Z</time></trkpt>
   <trkpt lat="59.0992309593" lon="30.0271559623"><ele>66.934</ele><time>2026-04-20T16:42:03.997Z</time></trkpt>
   <trkpt lat="59.0991089607" lon="30.0273619894"><ele>67.238</ele><time>2026-04-20T16:43:44.999Z</time></trkpt>
   <trkpt lat="59.0990489882" lon="30.0274799228"><ele>69.524</ele><time>2026-04-20T16:44:29.996Z</time></trkpt>
   <trkpt lat="59.0988349982" lon="30.0277219922"><ele>67.238</ele><time>2026-04-20T16:45:27.996Z</time></trkpt>
   <trkpt lat="59.0986649713" lon="30.0277709425"><ele>66.934</ele><time>2026-04-20T16:46:24.001Z</time></trkpt>
   <trkpt lat="59.0984929746" lon="30.0277499877"><ele>66.995</ele><time>2026-04-20T16:47:26.002Z</time></trkpt>
   <trkpt lat="59.0983529968" lon="30.0277499877"><ele>58.338</ele><time>2026-04-20T16:51:59.000Z</time></trkpt>
   <trkpt lat="59.0981599616" lon="30.0279159494"><ele>60.899</ele><time>2026-04-20T16:52:36.998Z</time></trkpt>
   <trkpt lat="59.0980779866" lon="30.0279859383"><ele>61.112</ele><time>2026-04-20T16:52:59.998Z</time></trkpt>
   <trkpt lat="59.0978599733" lon="30.0281979166"><ele>61.661</ele><time>2026-04-20T16:53:44.002Z</time></trkpt>
   <trkpt lat="59.0977139605" lon="30.0281769619"><ele>62.026</ele><time>2026-04-20T16:54:16.004Z</time></trkpt>
   <trkpt lat="59.0974579772" lon="30.0283689913"><ele>65.044</ele><time>2026-04-20T16:54:58.997Z</time></trkpt>
   <trkpt lat="59.0973609986" lon="30.0283879344"><ele>64.8</ele><time>2026-04-20T16:55:13.002Z</time></trkpt>
   <trkpt lat="59.0972949911" lon="30.0284799677"><ele>67.269</ele><time>2026-04-20T16:55:48.003Z</time></trkpt>
   <trkpt lat="59.0972089928" lon="30.0285259843"><ele>74.493</ele><time>2026-04-20T17:01:04.996Z</time></trkpt>
   <trkpt lat="59.0969809631" lon="30.028565966"><ele>70.561</ele><time>2026-04-20T17:01:40.999Z</time></trkpt>
   <trkpt lat="59.0966869679" lon="30.028817926"><ele>65.684</ele><time>2026-04-20T17:02:29.996Z</time></trkpt>
   <trkpt lat="59.0960749632" lon="30.0290049263"><ele>60.959</ele><time>2026-04-20T17:04:09.002Z</time></trkpt>
   <trkpt lat="59.0959989812" lon="30.0290029984"><ele>60.99</ele><time>2026-04-20T17:06:43.001Z</time></trkpt>
   <trkpt lat="59.0958399765" lon="30.0291359354"><ele>63.489</ele><time>2026-04-20T17:08:15.000Z</time></trkpt>
   <trkpt lat="59.0956229691" lon="30.0293099437"><ele>63.276</ele><time>2026-04-20T17:09:05.000Z</time></trkpt>
   <trkpt lat="59.0951939833" lon="30.0294229318"><ele>58.155</ele><time>2026-04-20T17:10:09.998Z</time></trkpt>
   <trkpt lat="59.095100986" lon="30.0295059965"><ele>58.552</ele><time>2026-04-20T17:10:27.002Z</time></trkpt>
   <trkpt lat="59.0948159594" lon="30.0295829423"><ele>55.778</ele><time>2026-04-20T17:11:10.003Z</time></trkpt>
   <trkpt lat="59.0946649594" lon="30.0297289551"><ele>59.466</ele><time>2026-04-20T17:12:46.996Z</time></trkpt>
   <trkpt lat="59.0944679847" lon="30.0298569467"><ele>68.305</ele><time>2026-04-20T17:16:27.998Z</time></trkpt>
   <trkpt lat="59.0942669867" lon="30.029886954"><ele>67.939</ele><time>2026-04-20T17:17:00.001Z</time></trkpt>
   <trkpt lat="59.093742992" lon="30.03016297"><ele>58.673</ele><time>2026-04-20T17:18:29.002Z</time></trkpt>
   <trkpt lat="59.0936529704" lon="30.0301269278"><ele>57.942</ele><time>2026-04-20T17:18:45.996Z</time></trkpt>
   <trkpt lat="59.0934379745" lon="30.0302389939"><ele>59.222</ele><time>2026-04-20T17:20:26.998Z</time></trkpt>
   <trkpt lat="59.0929019937" lon="30.0304289278"><ele>57.271</ele><time>2026-04-20T17:26:47.003Z</time></trkpt>
   <trkpt lat="59.0926299591" lon="30.0306309317"><ele>58.734</ele><time>2026-04-20T17:27:42.998Z</time></trkpt>
   <trkpt lat="59.0924149633" lon="30.0307139963"><ele>60.655</ele><time>2026-04-20T17:28:19.001Z</time></trkpt>
   <trkpt lat="59.0922709622" lon="30.03085498"><ele>65.257</ele><time>2026-04-20T17:29:01.000Z</time></trkpt>
   <trkpt lat="59.0922189944" lon="30.0309849833"><ele>70.317</ele><time>2026-04-20T17:31:29.997Z</time></trkpt>
   <trkpt lat="59.0921389891" lon="30.0309519586"><ele>73.304</ele><time>2026-04-20T17:33:14.999Z</time></trkpt>
   <trkpt lat="59.092038993" lon="30.0309489411"><ele>73.913</ele><time>2026-04-20T17:33:33.998Z</time></trkpt>
   <trkpt lat="59.0915139925" lon="30.0311979674"><ele>57.089</ele><time>2026-04-20T17:34:49.002Z</time></trkpt>
   <trkpt lat="59.0913379725" lon="30.0312229455"><ele>57.028</ele><time>2026-04-20T17:35:15.000Z</time></trkpt>
   <trkpt lat="59.0911729748" lon="30.0314229377"><ele>59.618</ele><time>2026-04-20T17:35:52.999Z</time></trkpt>
   <trkpt lat="59.0909759581" lon="30.0315069244"><ele>62.423</ele><time>2026-04-20T17:36:30.004Z</time></trkpt>
   <trkpt lat="59.0908539595" lon="30.0315339979"><ele>66.263</ele><time>2026-04-20T17:39:54.003Z</time></trkpt>
   <trkpt lat="59.0907079887" lon="30.0315799308"><ele>72.725</ele><time>2026-04-20T17:41:23.004Z</time></trkpt>
   <trkpt lat="59.0905579945" lon="30.0316889793"><ele>70.256</ele><time>2026-04-20T17:42:00.000Z</time></trkpt>
   <trkpt lat="59.0903239718" lon="30.0317089282"><ele>70.043</ele><time>2026-04-20T17:42:44.997Z</time></trkpt>
   <trkpt lat="59.0902459782" lon="30.0318029732"><ele>69.982</ele><time>2026-04-20T17:43:03.003Z</time></trkpt>
   <trkpt lat="59.0898979616" lon="30.0319079984"><ele>69.25</ele><time>2026-04-20T17:43:46.004Z</time></trkpt>
   <trkpt lat="59.0896389608" lon="30.0320899696"><ele>67.269</ele><time>2026-04-20T17:44:39.002Z</time></trkpt>
   <trkpt lat="59.089542988" lon="30.032105979"><ele>74.096</ele><time>2026-04-20T17:45:05.000Z</time></trkpt>
   <trkpt lat="59.0894639885" lon="30.032193989"><ele>74.584</ele><time>2026-04-20T17:50:08.998Z</time></trkpt>
   <trkpt lat="59.0892039819" lon="30.0323249981"><ele>67.939</ele><time>2026-04-20T17:51:00.000Z</time></trkpt>
   <trkpt lat="59.0889639661" lon="30.0325269182"><ele>68.793</ele><time>2026-04-20T17:51:48.004Z</time></trkpt>
   <trkpt lat="59.0887339667" lon="30.0325869326"><ele>64.739</ele><time>2026-04-20T17:52:21.000Z</time></trkpt>
   <trkpt lat="59.0885579886" lon="30.0327379745"><ele>63.063</ele><time>2026-04-20T17:52:57.996Z</time></trkpt>
   <trkpt lat="59.0883549789" lon="30.0328189437"><ele>68.793</ele><time>2026-04-20T17:54:26.004Z</time></trkpt>
   <trkpt lat="59.0883049809" lon="30.0326689914"><ele>74.096</ele><time>2026-04-20T17:57:54.003Z</time></trkpt>
   <trkpt lat="59.0881719601" lon="30.0326849171"><ele>74.736</ele><time>2026-04-20T17:58:44.003Z</time></trkpt>
   <trkpt lat="59.088026995" lon="30.0331699778"><ele>74.98</ele><time>2026-04-20T17:59:42.996Z</time></trkpt>
   <trkpt lat="59.087976997" lon="30.033501985"><ele>77.236</ele><time>2026-04-20T18:01:10.001Z</time></trkpt>
   <trkpt lat="59.0878039945" lon="30.0335309864"><ele>78.211</ele><time>2026-04-20T18:02:24.003Z</time></trkpt>
   <trkpt lat="59.0877559662" lon="30.0333889969"><ele>79.766</ele><time>2026-04-20T18:02:56.999Z</time></trkpt>
   <trkpt lat="59.0876289804" lon="30.033464937"><ele>77.602</ele><time>2026-04-20T18:04:35.996Z</time></trkpt>
   <trkpt lat="59.0876379909" lon="30.0336679467"><ele>79.065</ele><time>2026-04-20T18:05:36.001Z</time></trkpt>
   <trkpt lat="59.0876949879" lon="30.0339449686"><ele>82.082</ele><time>2026-04-20T18:06:58.997Z</time></trkpt>
   <trkpt lat="59.0878329959" lon="30.0340279494"><ele>82.235</ele><time>2026-04-20T18:07:48.003Z</time></trkpt>
   <trkpt lat="59.0878269609" lon="30.0342219905"><ele>81.838</ele><time>2026-04-20T18:08:23.004Z</time></trkpt>
   <trkpt lat="59.0879069662" lon="30.0346819893"><ele>82.753</ele><time>2026-04-20T18:10:53.996Z</time></trkpt>
   <trkpt lat="59.0879929645" lon="30.0349039421"><ele>82.509</ele><time>2026-04-20T18:12:22.003Z</time></trkpt>
   <trkpt lat="59.0880709581" lon="30.0350659643"><ele>83.057</ele><time>2026-04-20T18:13:51.004Z</time></trkpt>
   <trkpt lat="59.08819698" lon="30.0349249807"><ele>79.095</ele><time>2026-04-20T18:18:05.003Z</time></trkpt>
   <trkpt lat="59.0883049809" lon="30.0349269923"><ele>79.034</ele><time>2026-04-20T18:18:44.997Z</time></trkpt>
   <trkpt lat="59.0884449586" lon="30.0347539899"><ele>79.705</ele><time>2026-04-20T18:19:57.003Z</time></trkpt>
   <trkpt lat="59.0887549633" lon="30.0347559177"><ele>82.356</ele><time>2026-04-20T18:21:50.999Z</time></trkpt>
   <trkpt lat="59.0889049994" lon="30.0345489685"><ele>84.582</ele><time>2026-04-20T18:23:07.999Z</time></trkpt>
   <trkpt lat="59.0891739747" lon="30.0345879444"><ele>86.441</ele><time>2026-04-20T18:29:55.997Z</time></trkpt>
   <trkpt lat="59.0892339891" lon="30.0344399199"><ele>88.483</ele><time>2026-04-20T18:30:40.000Z</time></trkpt>
   <trkpt lat="59.0893309677" lon="30.0344879482"><ele>88.666</ele><time>2026-04-20T18:31:35.996Z</time></trkpt>
   <trkpt lat="59.089460971" lon="30.0344099965"><ele>88.971</ele><time>2026-04-20T18:32:10.003Z</time></trkpt>
   <trkpt lat="59.0896109652" lon="30.0343879521"><ele>90.403</ele><time>2026-04-20T18:32:44.002Z</time></trkpt>
   <trkpt lat="59.0897599954" lon="30.0342919793"><ele>90.86</ele><time>2026-04-20T18:33:23.996Z</time></trkpt>
   <trkpt lat="59.0898879871" lon="30.0340579566"><ele>91.135</ele><time>2026-04-20T18:34:05.002Z</time></trkpt>
   <trkpt lat="59.0898809882" lon="30.0339119439"><ele>87.569</ele><time>2026-04-20T18:37:42.997Z</time></trkpt>
   <trkpt lat="59.0900999654" lon="30.0339869619"><ele>87.325</ele><time>2026-04-20T18:43:35.000Z</time></trkpt>
   <trkpt lat="59.0904229621" lon="30.0338819366"><ele>87.538</ele><time>2026-04-20T18:45:02.998Z</time></trkpt>
   <trkpt lat="59.0908529956" lon="30.0335319922"><ele>87.081</ele><time>2026-04-20T18:47:28.003Z</time></trkpt>
   <trkpt lat="59.0908989703" lon="30.0333869853"><ele>84.368</ele><time>2026-04-20T18:48:44.001Z</time></trkpt>
   <trkpt lat="59.0909069751" lon="30.0335509353"><ele>84.978</ele><time>2026-04-20T18:50:47.000Z</time></trkpt>
   <trkpt lat="59.0911689934" lon="30.0333579839"><ele>86.532</ele><time>2026-04-20T18:52:51.001Z</time></trkpt>
   <trkpt lat="59.0912609847" lon="30.03336997"><ele>87.294</ele><time>2026-04-20T18:53:08.998Z</time></trkpt>
   <trkpt lat="59.0915789942" lon="30.0331929442"><ele>86.349</ele><time>2026-04-20T18:54:47.002Z</time></trkpt>
   <trkpt lat="59.0919029966" lon="30.0332039245"><ele>84.734</ele><time>2026-04-20T18:56:21.998Z</time></trkpt>
   <trkpt lat="59.0919819961" lon="30.033149945"><ele>84.46</ele><time>2026-04-20T18:56:40.998Z</time></trkpt>
   <trkpt lat="59.0920499733" lon="30.0330249709"><ele>84.246</ele><time>2026-04-20T18:57:22.997Z</time></trkpt>
   <trkpt lat="59.0921699602" lon="30.0330379628"><ele>84.795</ele><time>2026-04-20T18:58:24.997Z</time></trkpt>
   <trkpt lat="59.0920969958" lon="30.0330459256"><ele>83.85</ele><time>2026-04-20T18:59:05.001Z</time></trkpt>
   <trkpt lat="59.0923239777" lon="30.0330289942"><ele>82.936</ele><time>2026-04-20T19:02:34.002Z</time></trkpt>
   <trkpt lat="59.092541991" lon="30.0329039362"><ele>85.618</ele><time>2026-04-20T19:03:08.001Z</time></trkpt>
   <trkpt lat="59.0927229982" lon="30.0328689836"><ele>87.081</ele><time>2026-04-20T19:03:28.002Z</time></trkpt>
   <trkpt lat="59.0928589946" lon="30.0327599351"><ele>85.587</ele><time>2026-04-20T19:04:07.003Z</time></trkpt>
   <trkpt lat="59.0931449851" lon="30.0322749582"><ele>84.063</ele><time>2026-04-20T19:05:01.997Z</time></trkpt>
   <trkpt lat="59.0933289679" lon="30.0321919773"><ele>86.045</ele><time>2026-04-20T19:06:22.997Z</time></trkpt>
   <trkpt lat="59.0932109926" lon="30.0321589526"><ele>82.692</ele><time>2026-04-20T19:08:11.999Z</time></trkpt>
   <trkpt lat="59.0939429842" lon="30.0319339823"><ele>82.997</ele><time>2026-04-20T19:10:41.998Z</time></trkpt>
   <trkpt lat="59.0943999656" lon="30.0318969343"><ele>85.648</ele><time>2026-04-20T19:11:58.998Z</time></trkpt>
   <trkpt lat="59.0944219681" lon="30.0321159535"><ele>91.805</ele><time>2026-04-20T19:14:01.997Z</time></trkpt>
   <trkpt lat="59.09437197" lon="30.0319579546"><ele>92.75</ele><time>2026-04-20T19:15:37.002Z</time></trkpt>
   <trkpt lat="59.0944799708" lon="30.0318649993"><ele>96.865</ele><time>2026-04-20T19:18:07.001Z</time></trkpt>
   <trkpt lat="59.0944559986" lon="30.0320099224"><ele>94.853</ele><time>2026-04-20T19:18:39.004Z</time></trkpt>
   <trkpt lat="59.0943809806" lon="30.0320979324"><ele>87.203</ele><time>2026-04-20T19:20:49.001Z</time></trkpt>
   <trkpt lat="59.0945839903" lon="30.0317819346"><ele>89.123</ele><time>2026-04-20T19:22:31.999Z</time></trkpt>
   <trkpt lat="59.0953869766" lon="30.0312179164"><ele>86.989</ele><time>2026-04-20T19:24:53.004Z</time></trkpt>
   <trkpt lat="59.0955709594" lon="30.0310259708"><ele>84.277</ele><time>2026-04-20T19:26:41.004Z</time></trkpt>
   <trkpt lat="59.0957569957" lon="30.0310399686"><ele>84.399</ele><time>2026-04-20T19:30:13.997Z</time></trkpt>
   <trkpt lat="59.0961529987" lon="30.0308259786"><ele>86.045</ele><time>2026-04-20T19:31:26.996Z</time></trkpt>
   <trkpt lat="59.0966259895" lon="30.0308689777"><ele>84.155</ele><time>2026-04-20T19:32:46.000Z</time></trkpt>
   <trkpt lat="59.096741995" lon="30.0308179319"><ele>79.369</ele><time>2026-04-20T19:34:43.003Z</time></trkpt>
   <trkpt lat="59.0967149634" lon="30.03067896"><ele>78.181</ele><time>2026-04-20T19:37:05.002Z</time></trkpt>
   <trkpt lat="59.0968539773" lon="30.0308379647"><ele>80.619</ele><time>2026-04-20T19:37:51.001Z</time></trkpt>
   <trkpt lat="59.0973289797" lon="30.0307779503"><ele>89.245</ele><time>2026-04-20T19:39:00.000Z</time></trkpt>
   <trkpt lat="59.0974159839" lon="30.0307079614"><ele>86.989</ele><time>2026-04-20T19:39:21.997Z</time></trkpt>
   <trkpt lat="59.0976439716" lon="30.0301549234"><ele>85.526</ele><time>2026-04-20T19:40:06.001Z</time></trkpt>
   <trkpt lat="59.0978069997" lon="30.0296419509"><ele>85.862</ele><time>2026-04-20T19:41:47.003Z</time></trkpt>
   <trkpt lat="59.097735963" lon="30.0295069185"><ele>83.423</ele><time>2026-04-20T19:42:48.001Z</time></trkpt>
   <trkpt lat="59.0977749808" lon="30.0297559448"><ele>87.081</ele><time>2026-04-20T19:43:16.997Z</time></trkpt>
   <trkpt lat="59.0978829816" lon="30.0298489839"><ele>86.258</ele><time>2026-04-20T19:44:18.004Z</time></trkpt>
   <trkpt lat="59.0981709838" lon="30.0298029673"><ele>77.754</ele><time>2026-04-20T19:45:08.997Z</time></trkpt>
   <trkpt lat="59.0983319583" lon="30.0298729562"><ele>78.729</ele><time>2026-04-20T19:45:43.004Z</time></trkpt>
   <trkpt lat="59.0986489618" lon="30.0298549351"><ele>75.133</ele><time>2026-04-20T19:46:52.003Z</time></trkpt>
   <trkpt lat="59.0988019735" lon="30.0295379315"><ele>73.03</ele><time>2026-04-20T19:47:38.003Z</time></trkpt>
   <trkpt lat="59.0990449649" lon="30.0295459781"><ele>75.59</ele><time>2026-04-20T19:49:18.002Z</time></trkpt>
   <trkpt lat="59.0991289934" lon="30.0294369296"><ele>76.931</ele><time>2026-04-20T19:49:48.000Z</time></trkpt>
   <trkpt lat="59.0989899796" lon="30.0296149612"><ele>81.869</ele><time>2026-04-20T19:51:26.997Z</time></trkpt>
   <trkpt lat="59.0990699848" lon="30.0294879754"><ele>82.448</ele><time>2026-04-20T19:51:50.999Z</time></trkpt>
   <trkpt lat="59.0991519598" lon="30.0294129573"><ele>79.369</ele><time>2026-04-20T19:53:02.996Z</time></trkpt>
   <trkpt lat="59.0995069754" lon="30.0292969518"><ele>78.638</ele><time>2026-04-20T19:55:41.998Z</time></trkpt>
   <trkpt lat="59.0995799817" lon="30.0291419704"><ele>78.455</ele><time>2026-04-20T19:56:19.997Z</time></trkpt>
   <trkpt lat="59.099590962" lon="30.0294719659"><ele>80.406</ele><time>2026-04-20T20:03:22.000Z</time></trkpt>
   <trkpt lat="59.0996859709" lon="30.0293589779"><ele>80.223</ele><time>2026-04-20T20:04:01.001Z</time></trkpt>
   <trkpt lat="59.0997619948" lon="30.0293609895"><ele>82.082</ele><time>2026-04-20T20:04:25.997Z</time></trkpt>
   <trkpt lat="59.099766982" lon="30.0295379315"><ele>80.924</ele><time>2026-04-20T20:04:44.003Z</time></trkpt>
   <trkpt lat="59.0998369709" lon="30.0301799853"><ele>75.316</ele><time>2026-04-20T20:05:35.998Z</time></trkpt>
   <trkpt lat="59.0998489989" lon="30.0307929539"><ele>75.255</ele><time>2026-04-20T20:08:20.996Z</time></trkpt>
   <trkpt lat="59.0997149723" lon="30.0308999908"><ele>78.943</ele><time>2026-04-20T20:09:53.004Z</time></trkpt>
   <trkpt lat="59.0995689595" lon="30.0311529566"><ele>79.583</ele><time>2026-04-20T20:11:10.003Z</time></trkpt>
   <trkpt lat="59.0993679615" lon="30.0312279746"><ele>79.613</ele><time>2026-04-20T20:12:05.999Z</time></trkpt>
   <trkpt lat="59.0992409757" lon="30.03132093"><ele>78.912</ele><time>2026-04-20T20:12:26.001Z</time></trkpt>
   <trkpt lat="59.0990769837" lon="30.0313639291"><ele>79.979</ele><time>2026-04-20T20:13:02.997Z</time></trkpt>
   <trkpt lat="59.0989509618" lon="30.0313169905"><ele>72.085</ele><time>2026-04-20T20:14:46.997Z</time></trkpt>
   <trkpt lat="59.0988889776" lon="30.0314319902"><ele>74.371</ele><time>2026-04-20T20:16:10.001Z</time></trkpt>
   <trkpt lat="59.0987599801" lon="30.0314039946"><ele>76.535</ele><time>2026-04-20T20:17:19.000Z</time></trkpt>
   <trkpt lat="59.0985719741" lon="30.0315859657"><ele>76.809</ele><time>2026-04-20T20:18:00.999Z</time></trkpt>
   <trkpt lat="59.0979899766" lon="30.0318099302"><ele>77.815</ele><time>2026-04-20T20:20:56.003Z</time></trkpt>
   <trkpt lat="59.0979579997" lon="30.0319679291"><ele>78.242</ele><time>2026-04-20T20:22:03.999Z</time></trkpt>
   <trkpt lat="59.0979729613" lon="30.0317389355"><ele>87.172</ele><time>2026-04-20T20:24:04.000Z</time></trkpt>
   <trkpt lat="59.0978949677" lon="30.0319459685"><ele>86.928</ele><time>2026-04-20T20:30:42.002Z</time></trkpt>
   <trkpt lat="59.0974869786" lon="30.0321559351"><ele>89.214</ele><time>2026-04-20T20:31:43.000Z</time></trkpt>
   <trkpt lat="59.0973849708" lon="30.0322599546"><ele>90.251</ele><time>2026-04-20T20:32:00.997Z</time></trkpt>
   <trkpt lat="59.0971659936" lon="30.0323809892"><ele>89.885</ele><time>2026-04-20T20:32:42.003Z</time></trkpt>
   <trkpt lat="59.0970309612" lon="30.0323549215"><ele>90.159</ele><time>2026-04-20T20:33:01.996Z</time></trkpt>
   <trkpt lat="59.0968549831" lon="30.0321999401"><ele>89.855</ele><time>2026-04-20T20:34:08.999Z</time></trkpt>
   <trkpt lat="59.096817977" lon="30.0320639857"><ele>88.087</ele><time>2026-04-20T20:34:39.999Z</time></trkpt>
   <trkpt lat="59.0966639595" lon="30.0325899501"><ele>89.794</ele><time>2026-04-20T20:37:38.001Z</time></trkpt>
   <trkpt lat="59.0964959862" lon="30.032873929"><ele>87.264</ele><time>2026-04-20T20:38:15.999Z</time></trkpt>
   <trkpt lat="59.0963689584" lon="30.0329629448"><ele>86.349</ele><time>2026-04-20T20:38:33.996Z</time></trkpt>
   <trkpt lat="59.0960139848" lon="30.033413975"><ele>80.711</ele><time>2026-04-20T20:39:32.999Z</time></trkpt>
   <trkpt lat="59.0957499968" lon="30.0330959656"><ele>82.356</ele><time>2026-04-20T20:40:37.004Z</time></trkpt>
   <trkpt lat="59.0955019763" lon="30.0328939617"><ele>82.235</ele><time>2026-04-20T20:41:46.997Z</time></trkpt>
   <trkpt lat="59.0954129605" lon="30.0330589176"><ele>81.869</ele><time>2026-04-20T20:42:52.998Z</time></trkpt>
   <trkpt lat="59.0954669818" lon="30.0329439179"><ele>87.386</ele><time>2026-04-20T20:43:57.003Z</time></trkpt>
   <trkpt lat="59.0955579674" lon="30.032948947"><ele>87.172</ele><time>2026-04-20T20:44:28.003Z</time></trkpt>
   <trkpt lat="59.0954499666" lon="30.0330009986"><ele>85.679</ele><time>2026-04-20T20:45:14.996Z</time></trkpt>
   <trkpt lat="59.0952489685" lon="30.0333039206"><ele>85.222</ele><time>2026-04-20T20:45:56.002Z</time></trkpt>
   <trkpt lat="59.0950589927" lon="30.0333939422"><ele>84.185</ele><time>2026-04-20T20:46:17.999Z</time></trkpt>
   <trkpt lat="59.0949209847" lon="30.0335379433"><ele>84.063</ele><time>2026-04-20T20:46:43.003Z</time></trkpt>
   <trkpt lat="59.0947939988" lon="30.0335829542"><ele>83.179</ele><time>2026-04-20T20:47:01.000Z</time></trkpt>
   <trkpt lat="59.0944899872" lon="30.0333899189"><ele>84.795</ele><time>2026-04-20T20:48:28.999Z</time></trkpt>
   <trkpt lat="59.094264975" lon="30.033658978"><ele>90.891</ele><time>2026-04-20T20:52:11.997Z</time></trkpt>
   <trkpt lat="59.0939639809" lon="30.0339139555"><ele>89.855</ele><time>2026-04-20T20:53:11.000Z</time></trkpt>
   <trkpt lat="59.093786997" lon="30.0341609702"><ele>88.3</ele><time>2026-04-20T20:53:51.003Z</time></trkpt>
   <trkpt lat="59.0932999665" lon="30.0346459471"><ele>81.412</ele><time>2026-04-20T20:56:02.003Z</time></trkpt>
   <trkpt lat="59.0930209749" lon="30.0345889502"><ele>81.137</ele><time>2026-04-20T21:00:41.999Z</time></trkpt>
   <trkpt lat="59.092799986" lon="30.0346619566"><ele>85.892</ele><time>2026-04-20T21:01:44.000Z</time></trkpt>
   <trkpt lat="59.0926559849" lon="30.0347709213"><ele>88.422</ele><time>2026-04-20T21:02:25.999Z</time></trkpt>
   <trkpt lat="59.0923639594" lon="30.0348279182"><ele>91.196</ele><time>2026-04-20T21:03:22.997Z</time></trkpt>
   <trkpt lat="59.0921849638" lon="30.0346879405"><ele>89.032</ele><time>2026-04-20T21:04:43.997Z</time></trkpt>
   <trkpt lat="59.091736993" lon="30.0349429179"><ele>80.04</ele><time>2026-04-20T21:07:10.004Z</time></trkpt>
   <trkpt lat="59.0918269728" lon="30.034891956"><ele>75.773</ele><time>2026-04-20T21:08:38.003Z</time></trkpt>
   <trkpt lat="59.0916979753" lon="30.0349089712"><ele>79.857</ele><time>2026-04-20T21:10:03.996Z</time></trkpt>
   <trkpt lat="59.0915209914" lon="30.0350409862"><ele>79.034</ele><time>2026-04-20T21:11:05.004Z</time></trkpt>
   <trkpt lat="59.0914809678" lon="30.035167972"><ele>75.834</ele><time>2026-04-20T21:11:20.003Z</time></trkpt>
   <trkpt lat="59.0912829872" lon="30.0350279943"><ele>65.562</ele><time>2026-04-20T21:12:10.996Z</time></trkpt>
   <trkpt lat="59.0911759922" lon="30.0352399726"><ele>71.688</ele><time>2026-04-20T21:13:28.004Z</time></trkpt>
   <trkpt lat="59.0908899598" lon="30.0353179243"><ele>76.413</ele><time>2026-04-20T21:14:56.996Z</time></trkpt>
   <trkpt lat="59.0907349784" lon="30.0354189262"><ele>78.76</ele><time>2026-04-20T21:15:51.998Z</time></trkpt>
   <trkpt lat="59.090642987" lon="30.0355349318"><ele>79.644</ele><time>2026-04-20T21:16:29.004Z</time></trkpt>
   <trkpt lat="59.0905519596" lon="30.0355909229"><ele>80.771</ele><time>2026-04-20T21:17:08.998Z</time></trkpt>
   <trkpt lat="59.0904729601" lon="30.0357199204"><ele>76.474</ele><time>2026-04-20T21:19:41.002Z</time></trkpt>
   <trkpt lat="59.090567969" lon="30.0356959481"><ele>81.015</ele><time>2026-04-20T21:21:14.003Z</time></trkpt>
   <trkpt lat="59.0903309707" lon="30.0355479237"><ele>85.13</ele><time>2026-04-20T21:24:27.996Z</time></trkpt>
   <trkpt lat="59.0902429607" lon="30.0356309884"><ele>86.075</ele><time>2026-04-20T21:25:26.999Z</time></trkpt>
   <trkpt lat="59.0901309785" lon="30.0356119615"><ele>87.721</ele><time>2026-04-20T21:26:10.000Z</time></trkpt>
   <trkpt lat="59.0900289707" lon="30.0356979598"><ele>89.946</ele><time>2026-04-20T21:26:46.997Z</time></trkpt>
   <trkpt lat="59.089831996" lon="30.0357489218"><ele>90.83</ele><time>2026-04-20T21:28:00.998Z</time></trkpt>
   <trkpt lat="59.0897409685" lon="30.0358049967"><ele>90.525</ele><time>2026-04-20T21:28:37.001Z</time></trkpt>
   <trkpt lat="59.0896599993" lon="30.0359469861"><ele>88.331</ele><time>2026-04-20T21:29:31.001Z</time></trkpt>
   <trkpt lat="59.0894089613" lon="30.0359109439"><ele>86.014</ele><time>2026-04-20T21:31:35.996Z</time></trkpt>
   <trkpt lat="59.0894929899" lon="30.0360479881"><ele>95.463</ele><time>2026-04-20T21:35:15.003Z</time></trkpt>
   <trkpt lat="59.089391988" lon="30.0358729739"><ele>93.238</ele><time>2026-04-20T21:38:12.002Z</time></trkpt>
   <trkpt lat="59.089259973" lon="30.0360829406"><ele>91.287</ele><time>2026-04-20T21:39:50.999Z</time></trkpt>
   <trkpt lat="59.0891579652" lon="30.0360479881"><ele>92.689</ele><time>2026-04-20T21:40:59.998Z</time></trkpt>
   <trkpt lat="59.0891449733" lon="30.0362699409"><ele>89.702</ele><time>2026-04-20T21:42:24.998Z</time></trkpt>
   <trkpt lat="59.088938988" lon="30.03648896"><ele>88.849</ele><time>2026-04-20T21:43:35.000Z</time></trkpt>
   <trkpt lat="59.0888579769" lon="30.0364649877"><ele>89.55</ele><time>2026-04-20T21:43:56.004Z</time></trkpt>
   <trkpt lat="59.0887029955" lon="30.0365729467"><ele>88.727</ele><time>2026-04-20T21:44:50.997Z</time></trkpt>
   <trkpt lat="59.0885439908" lon="30.0365889561"><ele>81.503</ele><time>2026-04-20T21:45:52.998Z</time></trkpt>
   <trkpt lat="59.0884589983" lon="30.0366469589"><ele>81.076</ele><time>2026-04-20T21:46:39.999Z</time></trkpt>
   <trkpt lat="59.0883319706" lon="30.0364699331"><ele>78.973</ele><time>2026-04-20T21:47:51.996Z</time></trkpt>
   <trkpt lat="59.0882429967" lon="30.0364799914"><ele>80.802</ele><time>2026-04-20T21:49:30.000Z</time></trkpt>
   <trkpt lat="59.0883429928" lon="30.0367639702"><ele>83.606</ele><time>2026-04-20T21:51:05.999Z</time></trkpt>
   <trkpt lat="59.0883379637" lon="30.0369589333"><ele>81.473</ele><time>2026-04-20T21:51:57.001Z</time></trkpt>
   <trkpt lat="59.0884069886" lon="30.0370249827"><ele>79.004</ele><time>2026-04-20T21:53:19.997Z</time></trkpt>
   <trkpt lat="59.0884199806" lon="30.0372629449"><ele>78.607</ele><time>2026-04-20T21:54:29.998Z</time></trkpt>
   <trkpt lat="59.0884959625" lon="30.0377489277"><ele>81.107</ele><time>2026-04-20T21:56:12.002Z</time></trkpt>
   <trkpt lat="59.088467967" lon="30.0381649215"><ele>84.947</ele><time>2026-04-20T21:57:37.002Z</time></trkpt>
   <trkpt lat="59.0888139719" lon="30.0383659196"><ele>82.356</ele><time>2026-04-20T21:58:58.002Z</time></trkpt>
   <trkpt lat="59.0890309794" lon="30.0383489881"><ele>82.905</ele><time>2026-04-20T22:00:12.997Z</time></trkpt>
   <trkpt lat="59.0891749805" lon="30.0382129498"><ele>84.094</ele><time>2026-04-20T22:01:01.001Z</time></trkpt>
   <trkpt lat="59.0892889744" lon="30.0384439551"><ele>70.744</ele><time>2026-04-20T22:03:52.004Z</time></trkpt>
   <trkpt lat="59.0893369608" lon="30.0380689487"><ele>88.361</ele><time>2026-04-20T22:05:32.004Z</time></trkpt>
   <trkpt lat="59.0893649982" lon="30.038343959"><ele>80.771</ele><time>2026-04-20T22:09:35.004Z</time></trkpt>
   <trkpt lat="59.0894809619" lon="30.0382679351"><ele>80.101</ele><time>2026-04-20T22:10:09.002Z</time></trkpt>
   <trkpt lat="59.0895559799" lon="30.0382639956"><ele>81.229</ele><time>2026-04-20T22:10:32.002Z</time></trkpt>
   <trkpt lat="59.0897109613" lon="30.0383259379"><ele>82.661</ele><time>2026-04-20T22:11:58.004Z</time></trkpt>
   <trkpt lat="59.0900109915" lon="30.0381459784"><ele>86.41</ele><time>2026-04-20T22:13:22.002Z</time></trkpt>
   <trkpt lat="59.0900369754" lon="30.037959984"><ele>86.045</ele><time>2026-04-20T22:13:58.999Z</time></trkpt>
   <trkpt lat="59.0902679807" lon="30.0378089421"><ele>82.235</ele><time>2026-04-20T22:14:54.001Z</time></trkpt>
   <trkpt lat="59.090221964" lon="30.0376809504"><ele>80.162</ele><time>2026-04-20T22:15:23.999Z</time></trkpt>
   <trkpt lat="59.0902189885" lon="30.0368069694"><ele>78.12</ele><time>2026-04-20T22:16:08.003Z</time></trkpt>
   <trkpt lat="59.0903459743" lon="30.0362809212"><ele>71.688</ele><time>2026-04-20T22:16:48.999Z</time></trkpt>
   <trkpt lat="59.090416969" lon="30.0360969384"><ele>66.08</ele><time>2026-04-20T22:17:07.999Z</time></trkpt>
   <trkpt lat="59.090510972" lon="30.0359709584"><ele>62.087</ele><time>2026-04-20T22:17:25.002Z</time></trkpt>
   <trkpt lat="59.0906269776" lon="30.0359329884"><ele>64.373</ele><time>2026-04-20T22:17:38.999Z</time></trkpt>
   <trkpt lat="59.0909959909" lon="30.035350949"><ele>72.877</ele><time>2026-04-20T22:19:20.001Z</time></trkpt>
   <trkpt lat="59.0912689895" lon="30.0351169263"><ele>72.176</ele><time>2026-04-20T22:19:51.001Z</time></trkpt>
   <trkpt lat="59.0918829639" lon="30.0340069946"><ele>69.951</ele><time>2026-04-20T22:21:16.001Z</time></trkpt>
   <trkpt lat="59.0921859697" lon="30.0333519489"><ele>63.703</ele><time>2026-04-20T22:21:59.003Z</time></trkpt>
   <trkpt lat="59.0922249874" lon="30.0331639428"><ele>64.587</ele><time>2026-04-20T22:22:11.004Z</time></trkpt>
   <trkpt lat="59.0923809746" lon="30.0330059439"><ele>68.884</ele><time>2026-04-20T22:22:29.001Z</time></trkpt>
   <trkpt lat="59.0925409852" lon="30.0329279922"><ele>70.622</ele><time>2026-04-20T22:22:45.002Z</time></trkpt>
   <trkpt lat="59.0927159993" lon="30.032954982"><ele>67.299</ele><time>2026-04-20T22:23:02.999Z</time></trkpt>
   <trkpt lat="59.0930959929" lon="30.0327379745"><ele>61.447</ele><time>2026-04-20T22:23:44.998Z</time></trkpt>
   <trkpt lat="59.0935559917" lon="30.0327019323"><ele>46.664</ele><time>2026-04-20T22:24:36.000Z</time></trkpt>
   <trkpt lat="59.0943469919" lon="30.0323819951"><ele>44.836</ele><time>2026-04-20T22:26:02.003Z</time></trkpt>
   <trkpt lat="59.0947259797" lon="30.0326569215"><ele>39.654</ele><time>2026-04-20T22:26:38.999Z</time></trkpt>
   <trkpt lat="59.0951529958" lon="30.0325059634"><ele>33.406</ele><time>2026-04-20T22:27:18.000Z</time></trkpt>
   <trkpt lat="59.0956389785" lon="30.0325309415"><ele>37.795</ele><time>2026-04-20T22:27:54.996Z</time></trkpt>
   <trkpt lat="59.095874971" lon="30.0324659817"><ele>40.325</ele><time>2026-04-20T22:28:16.000Z</time></trkpt>
   <trkpt lat="59.0968459726" lon="30.0316999596"><ele>61.264</ele><time>2026-04-20T22:29:33.000Z</time></trkpt>
   <trkpt lat="59.0970399717" lon="30.0310539663"><ele>61.112</ele><time>2026-04-20T22:30:05.996Z</time></trkpt>
   <trkpt lat="59.0974319933" lon="30.0307729211"><ele>59.801</ele><time>2026-04-20T22:30:44.997Z</time></trkpt>
   <trkpt lat="59.0975239847" lon="30.03055298"><ele>61.539</ele><time>2026-04-20T22:30:55.002Z</time></trkpt>
   <trkpt lat="59.0976429658" lon="30.030427922"><ele>61.203</ele><time>2026-04-20T22:31:06.001Z</time></trkpt>
   <trkpt lat="59.0981859874" lon="30.0302849267"><ele>65.897</ele><time>2026-04-20T22:31:53.003Z</time></trkpt>
   <trkpt lat="59.0984269671" lon="30.0300889578"><ele>68.61</ele><time>2026-04-20T22:32:13.998Z</time></trkpt>
   <trkpt lat="59.0986859679" lon="30.0297289551"><ele>67.635</ele><time>2026-04-20T22:32:54.001Z</time></trkpt>
   <trkpt lat="59.0990079588" lon="30.0293879793"><ele>61.904</ele><time>2026-04-20T22:33:33.002Z</time></trkpt>
   <trkpt lat="59.0993299915" lon="30.0288389646"><ele>60.167</ele><time>2026-04-20T22:34:11.001Z</time></trkpt>
   <trkpt lat="59.099565984" lon="30.0285799638"><ele>60.777</ele><time>2026-04-20T22:34:31.996Z</time></trkpt>
   <trkpt lat="59.0995959912" lon="30.0284389802"><ele>60.137</ele><time>2026-04-20T22:34:38.001Z</time></trkpt>
   <trkpt lat="59.0995649781" lon="30.0278879539"><ele>54.924</ele><time>2026-04-20T22:35:10.003Z</time></trkpt>
   <trkpt lat="59.0993339729" lon="30.0268969615"><ele>58.216</ele><time>2026-04-20T22:35:59.001Z</time></trkpt>
   <trkpt lat="59.0993029598" lon="30.0264939596"><ele>61.843</ele><time>2026-04-20T22:36:18.000Z</time></trkpt>
  </trkseg>
 </trk>
 <trk>
  <name>20260420_Lisa48</name>
  <desc>20260420_Lisa48</desc>
  <type>TrackStyle_2196F3C8</type>
  <extensions>
   <gom:time>2026-04-20T17:28:32.998Z</gom:time>
   <line xmlns="http://www.topografix.com/GPX/gpx_style/0/2">
    <color>2196F3</color>
   </line>
  </extensions>
  <trkseg>
   <trkpt lat="59.0924359599" lon="29.9877399788"><ele>70.53</ele><time>2026-04-20T17:28:32.998Z</time></trkpt>
   <trkpt lat="59.0925679749" lon="29.9884689529"><ele>66.141</ele><time>2026-04-20T17:29:10.997Z</time></trkpt>
   <trkpt lat="59.092724968" lon="29.9890889623"><ele>67.726</ele><time>2026-04-20T17:29:47.000Z</time></trkpt>
   <trkpt lat="59.0927589985" lon="29.9894379847"><ele>65.592</ele><time>2026-04-20T17:30:04.003Z</time></trkpt>
   <trkpt lat="59.0928899657" lon="29.989863953"><ele>54.985</ele><time>2026-04-20T17:30:31.003Z</time></trkpt>
   <trkpt lat="59.0929769699" lon="29.9903389555"><ele>51.267</ele><time>2026-04-20T17:30:45.000Z</time></trkpt>
   <trkpt lat="59.0930259621" lon="29.9908609804"><ele>62.544</ele><time>2026-04-20T17:32:30.002Z</time></trkpt>
   <trkpt lat="59.0930469588" lon="29.991208997"><ele>64.495</ele><time>2026-04-20T17:33:09.003Z</time></trkpt>
   <trkpt lat="59.093208981" lon="29.9917769548"><ele>67.36</ele><time>2026-04-20T17:33:33.998Z</time></trkpt>
   <trkpt lat="59.093346989" lon="29.9927049991"><ele>68.275</ele><time>2026-04-20T17:34:46.998Z</time></trkpt>
   <trkpt lat="59.0934039859" lon="29.9931489885"><ele>75.041</ele><time>2026-04-20T17:36:54.999Z</time></trkpt>
   <trkpt lat="59.0936509587" lon="29.9942589201"><ele>72.42</ele><time>2026-04-20T17:37:51.004Z</time></trkpt>
   <trkpt lat="59.0936389726" lon="29.9944549729"><ele>71.201</ele><time>2026-04-20T17:38:25.002Z</time></trkpt>
   <trkpt lat="59.0937229593" lon="29.9949219287"><ele>66.873</ele><time>2026-04-20T17:39:26.001Z</time></trkpt>
   <trkpt lat="59.0937769806" lon="29.9950659298"><ele>65.013</ele><time>2026-04-20T17:39:36.999Z</time></trkpt>
   <trkpt lat="59.0937989831" lon="29.9952679336"><ele>71.627</ele><time>2026-04-20T17:40:56.997Z</time></trkpt>
   <trkpt lat="59.0939069839" lon="29.9954649922"><ele>73.761</ele><time>2026-04-20T17:42:09.996Z</time></trkpt>
   <trkpt lat="59.0938669604" lon="29.995629948"><ele>74.828</ele><time>2026-04-20T17:42:35.001Z</time></trkpt>
   <trkpt lat="59.0940059742" lon="29.9966939468"><ele>60.015</ele><time>2026-04-20T17:43:22.002Z</time></trkpt>
   <trkpt lat="59.0941319961" lon="29.9973319773"><ele>54.528</ele><time>2026-04-20T17:43:52.000Z</time></trkpt>
   <trkpt lat="59.094151987" lon="29.9976189737"><ele>52.974</ele><time>2026-04-20T17:44:05.997Z</time></trkpt>
   <trkpt lat="59.0942949822" lon="29.9982169386"><ele>57.576</ele><time>2026-04-20T17:44:46.000Z</time></trkpt>
   <trkpt lat="59.094365977" lon="29.9988969624"><ele>56.327</ele><time>2026-04-20T17:45:17.001Z</time></trkpt>
   <trkpt lat="59.0944299728" lon="29.9990749941"><ele>57.607</ele><time>2026-04-20T17:45:30.997Z</time></trkpt>
   <trkpt lat="59.0944439706" lon="29.9992329929"><ele>59.375</ele><time>2026-04-20T17:45:38.998Z</time></trkpt>
   <trkpt lat="59.0945989939" lon="29.9998329696"><ele>56.083</ele><time>2026-04-20T17:46:12.996Z</time></trkpt>
   <trkpt lat="59.0945559947" lon="29.9999849335"><ele>69.037</ele><time>2026-04-20T17:47:26.998Z</time></trkpt>
   <trkpt lat="59.0946389755" lon="29.9999229912"><ele>73.304</ele><time>2026-04-20T17:48:24.998Z</time></trkpt>
   <trkpt lat="59.0947569927" lon="30.0009229523"><ele>61.112</ele><time>2026-04-20T17:49:10.998Z</time></trkpt>
   <trkpt lat="59.0948729983" lon="30.0013839569"><ele>61.965</ele><time>2026-04-20T17:49:32.002Z</time></trkpt>
   <trkpt lat="59.0948969705" lon="30.0021209777"><ele>62.453</ele><time>2026-04-20T17:50:11.996Z</time></trkpt>
   <trkpt lat="59.0950609625" lon="30.0023959879"><ele>67.238</ele><time>2026-04-20T17:51:45.999Z</time></trkpt>
   <trkpt lat="59.0950749602" lon="30.0027519674"><ele>63.367</ele><time>2026-04-20T17:52:15.004Z</time></trkpt>
   <trkpt lat="59.0951949891" lon="30.0035579712"><ele>59.71</ele><time>2026-04-20T17:53:00.001Z</time></trkpt>
   <trkpt lat="59.0952829991" lon="30.0039119389"><ele>55.625</ele><time>2026-04-20T17:53:16.996Z</time></trkpt>
   <trkpt lat="59.0953119585" lon="30.0046209641"><ele>44.013</ele><time>2026-04-20T17:53:51.003Z</time></trkpt>
   <trkpt lat="59.0954589771" lon="30.0054189213"><ele>55.747</ele><time>2026-04-20T17:55:19.001Z</time></trkpt>
   <trkpt lat="59.0955079694" lon="30.0059349951"><ele>50.474</ele><time>2026-04-20T17:55:43.003Z</time></trkpt>
   <trkpt lat="59.0957139965" lon="30.006640919"><ele>53.461</ele><time>2026-04-20T17:56:26.998Z</time></trkpt>
   <trkpt lat="59.0957009627" lon="30.0070309289"><ele>49.895</ele><time>2026-04-20T17:56:47.000Z</time></trkpt>
   <trkpt lat="59.0958449638" lon="30.0073159975"><ele>56.083</ele><time>2026-04-20T17:57:07.001Z</time></trkpt>
   <trkpt lat="59.0958679721" lon="30.0075419736"><ele>60.015</ele><time>2026-04-20T17:57:23.003Z</time></trkpt>
   <trkpt lat="59.0959579937" lon="30.0074569811"><ele>69.25</ele><time>2026-04-20T17:59:00.997Z</time></trkpt>
   <trkpt lat="59.0959999871" lon="30.0080869649"><ele>62.24</ele><time>2026-04-20T17:59:42.003Z</time></trkpt>
   <trkpt lat="59.0961749593" lon="30.0090089743"><ele>58.125</ele><time>2026-04-20T18:00:20.002Z</time></trkpt>
   <trkpt lat="59.0962689623" lon="30.0097079412"><ele>64.221</ele><time>2026-04-20T18:00:55.996Z</time></trkpt>
   <trkpt lat="59.0963059684" lon="30.0098529481"><ele>64.099</ele><time>2026-04-20T18:01:03.996Z</time></trkpt>
   <trkpt lat="59.0963799807" lon="30.0099069275"><ele>64.282</ele><time>2026-04-20T18:01:10.001Z</time></trkpt>
   <trkpt lat="59.0964799768" lon="30.01029392"><ele>61.691</ele><time>2026-04-20T18:01:34.997Z</time></trkpt>
   <trkpt lat="59.0965459842" lon="30.0108719361"><ele>65.592</ele><time>2026-04-20T18:02:31.001Z</time></trkpt>
   <trkpt lat="59.0965989998" lon="30.0114489463"><ele>61.721</ele><time>2026-04-20T18:03:13.000Z</time></trkpt>
   <trkpt lat="59.0967539812" lon="30.0120449834"><ele>68.244</ele><time>2026-04-20T18:04:01.998Z</time></trkpt>
   <trkpt lat="59.0968279934" lon="30.0126429484"><ele>67.025</ele><time>2026-04-20T18:04:30.000Z</time></trkpt>
   <trkpt lat="59.0968829787" lon="30.0128189683"><ele>69.098</ele><time>2026-04-20T18:05:10.997Z</time></trkpt>
   <trkpt lat="59.0967699906" lon="30.0129869417"><ele>73.151</ele><time>2026-04-20T18:06:11.002Z</time></trkpt>
   <trkpt lat="59.0968869601" lon="30.012871942"><ele>73.7</ele><time>2026-04-20T18:06:57.001Z</time></trkpt>
   <trkpt lat="59.0969289953" lon="30.0130579364"><ele>73.7</ele><time>2026-04-20T18:07:08.000Z</time></trkpt>
   <trkpt lat="59.09703796" lon="30.0136409816"><ele>64.373</ele><time>2026-04-20T18:07:40.002Z</time></trkpt>
   <trkpt lat="59.0971719867" lon="30.0145769887"><ele>59.314</ele><time>2026-04-20T18:08:53.002Z</time></trkpt>
   <trkpt lat="59.0971619703" lon="30.0147169665"><ele>59.283</ele><time>2026-04-20T18:09:13.003Z</time></trkpt>
   <trkpt lat="59.0972049695" lon="30.0149859418"><ele>57.485</ele><time>2026-04-20T18:09:31.000Z</time></trkpt>
   <trkpt lat="59.0971769739" lon="30.014512951"><ele>59.192</ele><time>2026-04-20T18:10:00.998Z</time></trkpt>
   <trkpt lat="59.0972659897" lon="30.0146799185"><ele>62.057</ele><time>2026-04-20T18:11:51.996Z</time></trkpt>
   <trkpt lat="59.0973299856" lon="30.0145169743"><ele>61.721</ele><time>2026-04-20T18:12:23.999Z</time></trkpt>
   <trkpt lat="59.0972509861" lon="30.0144069199"><ele>68.458</ele><time>2026-04-20T18:13:20.004Z</time></trkpt>
   <trkpt lat="59.0973329611" lon="30.0144189898"><ele>72.572</ele><time>2026-04-20T18:14:05.001Z</time></trkpt>
   <trkpt lat="59.0971789856" lon="30.0144709576"><ele>79.156</ele><time>2026-04-20T18:17:23.004Z</time></trkpt>
   <trkpt lat="59.0972699711" lon="30.0143889826"><ele>81.869</ele><time>2026-04-20T18:17:54.004Z</time></trkpt>
   <trkpt lat="59.0972919736" lon="30.0142289721"><ele>80.467</ele><time>2026-04-20T18:18:21.997Z</time></trkpt>
   <trkpt lat="59.0973939814" lon="30.014128976"><ele>80.253</ele><time>2026-04-20T18:18:40.997Z</time></trkpt>
   <trkpt lat="59.0974899961" lon="30.0141639285"><ele>79.156</ele><time>2026-04-20T18:18:55.996Z</time></trkpt>
   <trkpt lat="59.0975919619" lon="30.0140449893"><ele>76.474</ele><time>2026-04-20T18:19:15.997Z</time></trkpt>
   <trkpt lat="59.0976699975" lon="30.0136529677"><ele>72.054</ele><time>2026-04-20T18:19:50.998Z</time></trkpt>
   <trkpt lat="59.0977709994" lon="30.0136139919"><ele>71.749</ele><time>2026-04-20T18:22:20.004Z</time></trkpt>
   <trkpt lat="59.0980739633" lon="30.0135899358"><ele>73.487</ele><time>2026-04-20T18:26:20.999Z</time></trkpt>
   <trkpt lat="59.0981099636" lon="30.0134129938"><ele>75.559</ele><time>2026-04-20T18:29:39.002Z</time></trkpt>
   <trkpt lat="59.0981029647" lon="30.0135599286"><ele>75.194</ele><time>2026-04-20T18:30:07.998Z</time></trkpt>
   <trkpt lat="59.0981529627" lon="30.0131549988"><ele>72.999</ele><time>2026-04-20T18:31:43.997Z</time></trkpt>
   <trkpt lat="59.0983489735" lon="30.0129479658"><ele>72.085</ele><time>2026-04-20T18:32:21.002Z</time></trkpt>
   <trkpt lat="59.0984629674" lon="30.0128179625"><ele>72.207</ele><time>2026-04-20T18:33:49.000Z</time></trkpt>
   <trkpt lat="59.0985909591" lon="30.0127179664"><ele>70.744</ele><time>2026-04-20T18:34:08.000Z</time></trkpt>
   <trkpt lat="59.0986379815" lon="30.0126099237"><ele>66.659</ele><time>2026-04-20T18:34:29.997Z</time></trkpt>
   <trkpt lat="59.0987079704" lon="30.0126459659"><ele>69.22</ele><time>2026-04-20T18:36:59.003Z</time></trkpt>
   <trkpt lat="59.0988999998" lon="30.0124489911"><ele>65.928</ele><time>2026-04-20T18:37:31.999Z</time></trkpt>
   <trkpt lat="59.0990009599" lon="30.0124789983"><ele>64.587</ele><time>2026-04-20T18:37:49.996Z</time></trkpt>
   <trkpt lat="59.0990089646" lon="30.0123199936"><ele>65.288</ele><time>2026-04-20T18:38:09.004Z</time></trkpt>
   <trkpt lat="59.0991829729" lon="30.0122379348"><ele>77.815</ele><time>2026-04-20T18:40:58.996Z</time></trkpt>
   <trkpt lat="59.0991069909" lon="30.0123669323"><ele>84.886</ele><time>2026-04-20T18:41:57.998Z</time></trkpt>
   <trkpt lat="59.0992409757" lon="30.0123019726"><ele>86.41</ele><time>2026-04-20T18:42:54.996Z</time></trkpt>
   <trkpt lat="59.0991329748" lon="30.0122599792"><ele>87.477</ele><time>2026-04-20T18:44:15.003Z</time></trkpt>
   <trkpt lat="59.0991029676" lon="30.01255695"><ele>72.694</ele><time>2026-04-20T18:50:18.997Z</time></trkpt>
   <trkpt lat="59.0991799973" lon="30.0125559442"><ele>70.835</ele><time>2026-04-20T18:51:58.003Z</time></trkpt>
   <trkpt lat="59.0991809612" lon="30.0128459581"><ele>73.517</ele><time>2026-04-20T18:52:37.004Z</time></trkpt>
   <trkpt lat="59.0992129801" lon="30.0130119198"><ele>74.919</ele><time>2026-04-20T18:52:56.004Z</time></trkpt>
   <trkpt lat="59.0991809612" lon="30.0131689966"><ele>75.194</ele><time>2026-04-20T18:53:24.999Z</time></trkpt>
   <trkpt lat="59.0992849807" lon="30.0132649694"><ele>78.211</ele><time>2026-04-20T18:55:00.998Z</time></trkpt>
   <trkpt lat="59.0990719965" lon="30.0130879436"><ele>76.961</ele><time>2026-04-20T18:56:58.001Z</time></trkpt>
   <trkpt lat="59.0989539793" lon="30.0130439386"><ele>78.851</ele><time>2026-04-20T18:57:42.998Z</time></trkpt>
   <trkpt lat="59.0989079626" lon="30.0129049667"><ele>79.4</ele><time>2026-04-20T19:00:03.001Z</time></trkpt>
   <trkpt lat="59.0987979921" lon="30.0128669966"><ele>78.028</ele><time>2026-04-20T19:00:22.000Z</time></trkpt>
   <trkpt lat="59.0984529929" lon="30.0126399309"><ele>76.382</ele><time>2026-04-20T19:02:53.002Z</time></trkpt>
   <trkpt lat="59.0983799866" lon="30.012525937"><ele>75.559</ele><time>2026-04-20T19:03:10.999Z</time></trkpt>
   <trkpt lat="59.0983289827" lon="30.0123879709"><ele>73.944</ele><time>2026-04-20T19:05:01.997Z</time></trkpt>
   <trkpt lat="59.0982119713" lon="30.0123289623"><ele>73.334</ele><time>2026-04-20T19:05:13.004Z</time></trkpt>
   <trkpt lat="59.0981339777" lon="30.0121589773"><ele>73.883</ele><time>2026-04-20T19:05:32.997Z</time></trkpt>
   <trkpt lat="59.0980969716" lon="30.012028974"><ele>79.461</ele><time>2026-04-20T19:07:48.999Z</time></trkpt>
   <trkpt lat="59.0981409766" lon="30.011890924"><ele>80.131</ele><time>2026-04-20T19:08:10.003Z</time></trkpt>
   <trkpt lat="59.0980209897" lon="30.0118289818"><ele>73.395</ele><time>2026-04-20T19:09:53.001Z</time></trkpt>
   <trkpt lat="59.0980209897" lon="30.0116259721"><ele>72.999</ele><time>2026-04-20T19:10:13.002Z</time></trkpt>
   <trkpt lat="59.097942996" lon="30.0115289934"><ele>72.816</ele><time>2026-04-20T19:10:32.002Z</time></trkpt>
   <trkpt lat="59.0978139986" lon="30.0115039316"><ele>72.511</ele><time>2026-04-20T19:10:55.001Z</time></trkpt>
   <trkpt lat="59.0976779603" lon="30.0112079666"><ele>73.578</ele><time>2026-04-20T19:11:35.998Z</time></trkpt>
   <trkpt lat="59.0974779681" lon="30.0113389757"><ele>76.26</ele><time>2026-04-20T19:14:05.997Z</time></trkpt>
   <trkpt lat="59.0972719828" lon="30.0113109801"><ele>76.23</ele><time>2026-04-20T19:14:56.999Z</time></trkpt>
   <trkpt lat="59.0967909873" lon="30.0109239877"><ele>78.668</ele><time>2026-04-20T19:16:44.999Z</time></trkpt>
   <trkpt lat="59.0967829826" lon="30.0110839982"><ele>77.571</ele><time>2026-04-20T19:17:34.999Z</time></trkpt>
   <trkpt lat="59.0968449667" lon="30.0112099782"><ele>79.126</ele><time>2026-04-20T19:20:04.998Z</time></trkpt>
   <trkpt lat="59.0967889756" lon="30.0115379621"><ele>77.937</ele><time>2026-04-20T19:20:46.997Z</time></trkpt>
   <trkpt lat="59.0966769934" lon="30.0117529579"><ele>75.255</ele><time>2026-04-20T19:21:16.001Z</time></trkpt>
   <trkpt lat="59.0966049928" lon="30.0113709946"><ele>72.085</ele><time>2026-04-20T19:21:36.996Z</time></trkpt>
   <trkpt lat="59.0965779612" lon="30.0108659849"><ele>69.555</ele><time>2026-04-20T19:22:08.999Z</time></trkpt>
   <trkpt lat="59.0964559626" lon="30.0103139528"><ele>66.934</ele><time>2026-04-20T19:22:35.999Z</time></trkpt>
   <trkpt lat="59.0963219779" lon="30.0093749281"><ele>64.8</ele><time>2026-04-20T19:23:29.999Z</time></trkpt>
   <trkpt lat="59.0960049743" lon="30.0079509266"><ele>71.048</ele><time>2026-04-20T19:24:41.996Z</time></trkpt>
   <trkpt lat="59.0958139926" lon="30.0067279231"><ele>74.615</ele><time>2026-04-20T19:25:39.996Z</time></trkpt>
   <trkpt lat="59.0957329815" lon="30.0066489656"><ele>81.29</ele><time>2026-04-20T19:26:56.996Z</time></trkpt>
   <trkpt lat="59.0956369668" lon="30.005967936"><ele>80.406</ele><time>2026-04-20T19:27:30.001Z</time></trkpt>
   <trkpt lat="59.0955069635" lon="30.0054609985"><ele>78.729</ele><time>2026-04-20T19:27:54.003Z</time></trkpt>
   <trkpt lat="59.0953209691" lon="30.0043429364"><ele>74.371</ele><time>2026-04-20T19:28:51.001Z</time></trkpt>
   <trkpt lat="59.0952529919" lon="30.0036319834"><ele>68.0</ele><time>2026-04-20T19:29:23.997Z</time></trkpt>
   <trkpt lat="59.0950649858" lon="30.0028309249"><ele>65.105</ele><time>2026-04-20T19:29:58.004Z</time></trkpt>
   <trkpt lat="59.0949719886" lon="30.0018919841"><ele>61.081</ele><time>2026-04-20T19:30:44.997Z</time></trkpt>
   <trkpt lat="59.0949229963" lon="30.0016129505"><ele>57.881</ele><time>2026-04-20T19:31:03.996Z</time></trkpt>
   <trkpt lat="59.0949019997" lon="30.0010709767"><ele>56.54</ele><time>2026-04-20T19:31:23.998Z</time></trkpt>
   <trkpt lat="59.0945649633" lon="29.9995319754"><ele>58.673</ele><time>2026-04-20T19:32:32.004Z</time></trkpt>
   <trkpt lat="59.0943299767" lon="29.9981149309"><ele>62.91</ele><time>2026-04-20T19:33:44.001Z</time></trkpt>
   <trkpt lat="59.0941219798" lon="29.9971459829"><ele>63.489</ele><time>2026-04-20T19:34:26.000Z</time></trkpt>
   <trkpt lat="59.0939229934" lon="29.9956059758"><ele>61.813</ele><time>2026-04-20T19:35:33.003Z</time></trkpt>
   <trkpt lat="59.0937599654" lon="29.9949459847"><ele>66.629</ele><time>2026-04-20T19:36:31.003Z</time></trkpt>
   <trkpt lat="59.0936529704" lon="29.9940779549"><ele>66.781</ele><time>2026-04-20T19:37:25.997Z</time></trkpt>
   <trkpt lat="59.0933989987" lon="29.9928779178"><ele>68.214</ele><time>2026-04-20T19:38:27.004Z</time></trkpt>
   <trkpt lat="59.0933499646" lon="29.9922039289"><ele>65.836</ele><time>2026-04-20T19:39:08.001Z</time></trkpt>
   <trkpt lat="59.0932359707" lon="29.9919129931"><ele>65.562</ele><time>2026-04-20T19:39:23.000Z</time></trkpt>
   <trkpt lat="59.0931029918" lon="29.9910689354"><ele>65.775</ele><time>2026-04-20T19:39:59.996Z</time></trkpt>
   <trkpt lat="59.0929829629" lon="29.9905469943"><ele>65.196</ele><time>2026-04-20T19:40:26.003Z</time></trkpt>
   <trkpt lat="59.0929059752" lon="29.9898899369"><ele>65.775</ele><time>2026-04-20T19:41:01.997Z</time></trkpt>
   <trkpt lat="59.0927909754" lon="29.9893009406"><ele>65.836</ele><time>2026-04-20T19:41:47.996Z</time></trkpt>
   <trkpt lat="59.0926829746" lon="29.9887599726"><ele>65.836</ele><time>2026-04-20T19:43:11.001Z</time></trkpt>
   <trkpt lat="59.0924759835" lon="29.9876099755"><ele>65.684</ele><time>2026-04-20T19:44:06.003Z</time></trkpt>
   <trkpt lat="59.0924519694" lon="29.9877759371"><ele>71.14</ele><time>2026-04-20T19:48:44.004Z</time></trkpt>
   <trkpt lat="59.0924079644" lon="29.9876559921"><ele>70.53</ele><time>2026-04-20T19:49:08.999Z</time></trkpt>
  </trkseg>
 </trk>
 <trk>
  <name>20260420_Lisa49</name>
  <desc>20260420_Lisa49</desc>
  <type>TrackStyle_2196F3C8</type>
  <extensions>
   <gom:time>2026-04-20T18:50:55.000Z</gom:time>
   <line xmlns="http://www.topografix.com/GPX/gpx_style/0/2">
    <color>2196F3</color>
   </line>
  </extensions>
  <trkseg>
   <trkpt lat="59.0897209777" lon="29.9858679645"><ele>73.761</ele><time>2026-04-20T18:50:55.000Z</time></trkpt>
   <trkpt lat="59.0894669641" lon="29.9857639451"><ele>73.487</ele><time>2026-04-20T18:51:18.000Z</time></trkpt>
   <trkpt lat="59.0892569974" lon="29.9855089676"><ele>70.896</ele><time>2026-04-20T18:51:45.000Z</time></trkpt>
   <trkpt lat="59.0889259961" lon="29.9855509609"><ele>73.487</ele><time>2026-04-20T18:52:24.001Z</time></trkpt>
   <trkpt lat="59.0888079789" lon="29.9855189421"><ele>73.578</ele><time>2026-04-20T18:52:36.002Z</time></trkpt>
   <trkpt lat="59.0885839725" lon="29.9853419163"><ele>74.401</ele><time>2026-04-20T18:53:03.002Z</time></trkpt>
   <trkpt lat="59.0884249678" lon="29.9853119929"><ele>77.876</ele><time>2026-04-20T18:53:31.004Z</time></trkpt>
   <trkpt lat="59.0876759609" lon="29.985751959"><ele>72.146</ele><time>2026-04-20T18:54:59.996Z</time></trkpt>
   <trkpt lat="59.0872429937" lon="29.9859189265"><ele>74.736</ele><time>2026-04-20T18:55:48.000Z</time></trkpt>
   <trkpt lat="59.0868359685" lon="29.9861529492"><ele>75.407</ele><time>2026-04-20T18:56:32.997Z</time></trkpt>
   <trkpt lat="59.0866769638" lon="29.9863179889"><ele>76.352</ele><time>2026-04-20T18:56:48.998Z</time></trkpt>
   <trkpt lat="59.0865049672" lon="29.9866029736"><ele>78.943</ele><time>2026-04-20T18:57:19.999Z</time></trkpt>
   <trkpt lat="59.085857968" lon="29.9874159344"><ele>81.259</ele><time>2026-04-20T18:58:31.996Z</time></trkpt>
   <trkpt lat="59.0857599836" lon="29.9876369652"><ele>81.32</ele><time>2026-04-20T18:58:44.999Z</time></trkpt>
   <trkpt lat="59.0857299764" lon="29.9878399749"><ele>81.594</ele><time>2026-04-20T18:58:55.004Z</time></trkpt>
   <trkpt lat="59.0856519828" lon="29.9880819604"><ele>82.082</ele><time>2026-04-20T18:59:09.001Z</time></trkpt>
   <trkpt lat="59.0855459936" lon="29.9887539376"><ele>84.155</ele><time>2026-04-20T19:00:04.003Z</time></trkpt>
   <trkpt lat="59.0855479634" lon="29.9890489806"><ele>84.338</ele><time>2026-04-20T19:00:19.002Z</time></trkpt>
   <trkpt lat="59.085392982" lon="29.9896649667"><ele>84.277</ele><time>2026-04-20T19:01:03.999Z</time></trkpt>
   <trkpt lat="59.0850929937" lon="29.990498966"><ele>80.832</ele><time>2026-04-20T19:01:57.999Z</time></trkpt>
   <trkpt lat="59.0849359587" lon="29.9907079269"><ele>78.485</ele><time>2026-04-20T19:02:15.003Z</time></trkpt>
   <trkpt lat="59.0847239804" lon="29.9908239324"><ele>77.602</ele><time>2026-04-20T19:02:34.002Z</time></trkpt>
   <trkpt lat="59.0845259998" lon="29.9908669316"><ele>76.718</ele><time>2026-04-20T19:02:54.004Z</time></trkpt>
   <trkpt lat="59.0842089962" lon="29.9912459612"><ele>75.377</ele><time>2026-04-20T19:03:31.000Z</time></trkpt>
   <trkpt lat="59.0840649951" lon="29.9915059679"><ele>74.523</ele><time>2026-04-20T19:03:52.004Z</time></trkpt>
   <trkpt lat="59.0839599699" lon="29.9917849176"><ele>74.919</ele><time>2026-04-20T19:04:08.999Z</time></trkpt>
   <trkpt lat="59.0839229638" lon="29.9920809664"><ele>75.377</ele><time>2026-04-20T19:04:22.002Z</time></trkpt>
   <trkpt lat="59.0839869596" lon="29.9923019972"><ele>77.449</ele><time>2026-04-20T19:05:16.002Z</time></trkpt>
   <trkpt lat="59.083977991" lon="29.9921429925"><ele>77.602</ele><time>2026-04-20T19:05:40.998Z</time></trkpt>
   <trkpt lat="59.0839369616" lon="29.9923079484"><ele>76.901</ele><time>2026-04-20T19:07:20.997Z</time></trkpt>
   <trkpt lat="59.0840609718" lon="29.9926049192"><ele>77.815</ele><time>2026-04-20T19:07:55.998Z</time></trkpt>
   <trkpt lat="59.0840659591" lon="29.992856963"><ele>78.699</ele><time>2026-04-20T19:08:09.001Z</time></trkpt>
   <trkpt lat="59.0840079982" lon="29.9931139522"><ele>79.888</ele><time>2026-04-20T19:08:22.004Z</time></trkpt>
   <trkpt lat="59.0838169746" lon="29.993542938"><ele>77.937</ele><time>2026-04-20T19:09:27.003Z</time></trkpt>
   <trkpt lat="59.0835789705" lon="29.9940109834"><ele>80.802</ele><time>2026-04-20T19:10:13.996Z</time></trkpt>
   <trkpt lat="59.0834039983" lon="29.9948169873"><ele>81.198</ele><time>2026-04-20T19:11:06.000Z</time></trkpt>
   <trkpt lat="59.0832069816" lon="29.9951469828"><ele>77.236</ele><time>2026-04-20T19:12:13.997Z</time></trkpt>
   <trkpt lat="59.0831519963" lon="29.9953059875"><ele>78.882</ele><time>2026-04-20T19:14:15.000Z</time></trkpt>
   <trkpt lat="59.0829819694" lon="29.9954369966"><ele>79.187</ele><time>2026-04-20T19:14:33.999Z</time></trkpt>
   <trkpt lat="59.0828229647" lon="29.9953679298"><ele>78.76</ele><time>2026-04-20T19:14:55.003Z</time></trkpt>
   <trkpt lat="59.08277699" lon="29.9954899703"><ele>80.863</ele><time>2026-04-20T19:15:07.004Z</time></trkpt>
   <trkpt lat="59.0825679872" lon="29.9955779802"><ele>77.571</ele><time>2026-04-20T19:15:45.996Z</time></trkpt>
   <trkpt lat="59.0824919634" lon="29.9956469633"><ele>77.266</ele><time>2026-04-20T19:16:19.001Z</time></trkpt>
   <trkpt lat="59.0823749939" lon="29.9955579475"><ele>80.314</ele><time>2026-04-20T19:16:57.000Z</time></trkpt>
   <trkpt lat="59.082110964" lon="29.9958199658"><ele>81.229</ele><time>2026-04-20T19:17:24.000Z</time></trkpt>
   <trkpt lat="59.0817759812" lon="29.9960219697"><ele>84.886</ele><time>2026-04-20T19:17:55.000Z</time></trkpt>
   <trkpt lat="59.0815349596" lon="29.9963699863"><ele>85.008</ele><time>2026-04-20T19:18:23.003Z</time></trkpt>
   <trkpt lat="59.0815769948" lon="29.9965899274"><ele>83.88</ele><time>2026-04-20T19:18:39.997Z</time></trkpt>
   <trkpt lat="59.0816469837" lon="29.9974339851"><ele>84.063</ele><time>2026-04-20T19:19:22.999Z</time></trkpt>
   <trkpt lat="59.0818669668" lon="29.9992869724"><ele>83.271</ele><time>2026-04-20T19:20:56.000Z</time></trkpt>
   <trkpt lat="59.0819049787" lon="29.9994379305"><ele>83.362</ele><time>2026-04-20T19:21:04.000Z</time></trkpt>
   <trkpt lat="59.0819149951" lon="29.9996269424"><ele>82.814</ele><time>2026-04-20T19:21:17.004Z</time></trkpt>
   <trkpt lat="59.082154969" lon="30.0011559692"><ele>80.314</ele><time>2026-04-20T19:22:41.002Z</time></trkpt>
   <trkpt lat="59.0821919751" lon="30.0018459674"><ele>78.973</ele><time>2026-04-20T19:23:20.996Z</time></trkpt>
   <trkpt lat="59.0822969584" lon="30.0022419285"><ele>76.291</ele><time>2026-04-20T19:23:54.001Z</time></trkpt>
   <trkpt lat="59.0823659834" lon="30.0031639379"><ele>79.491</ele><time>2026-04-20T19:24:49.003Z</time></trkpt>
   <trkpt lat="59.0825459847" lon="30.0043939822"><ele>76.992</ele><time>2026-04-20T19:25:58.002Z</time></trkpt>
   <trkpt lat="59.0825729745" lon="30.0048389774"><ele>79.613</ele><time>2026-04-20T19:26:21.002Z</time></trkpt>
   <trkpt lat="59.0827679794" lon="30.0060959276"><ele>77.937</ele><time>2026-04-20T19:27:34.001Z</time></trkpt>
   <trkpt lat="59.0829459692" lon="30.0076589849"><ele>76.687</ele><time>2026-04-20T19:29:03.002Z</time></trkpt>
   <trkpt lat="59.0830509944" lon="30.0082739652"><ele>76.291</ele><time>2026-04-20T19:29:34.002Z</time></trkpt>
   <trkpt lat="59.0831359869" lon="30.0092309271"><ele>76.84</ele><time>2026-04-20T19:30:24.002Z</time></trkpt>
   <trkpt lat="59.0831969652" lon="30.0094739184"><ele>76.352</ele><time>2026-04-20T19:30:40.003Z</time></trkpt>
   <trkpt lat="59.0834469974" lon="30.0116929435"><ele>79.308</ele><time>2026-04-20T19:32:54.001Z</time></trkpt>
   <trkpt lat="59.0836549943" lon="30.0131619558"><ele>76.169</ele><time>2026-04-20T19:34:23.002Z</time></trkpt>
   <trkpt lat="59.0836899888" lon="30.0137379602"><ele>74.767</ele><time>2026-04-20T19:35:13.001Z</time></trkpt>
   <trkpt lat="59.0835789705" lon="30.0137649499"><ele>74.249</ele><time>2026-04-20T19:37:52.003Z</time></trkpt>
   <trkpt lat="59.0834229833" lon="30.0138159957"><ele>72.847</ele><time>2026-04-20T19:42:06.002Z</time></trkpt>
   <trkpt lat="59.083361963" lon="30.0140259624"><ele>72.115</ele><time>2026-04-20T19:42:34.998Z</time></trkpt>
   <trkpt lat="59.0831799919" lon="30.0139889982"><ele>72.268</ele><time>2026-04-20T19:43:19.001Z</time></trkpt>
   <trkpt lat="59.08275197" lon="30.0140509405"><ele>72.085</ele><time>2026-04-20T19:44:28.000Z</time></trkpt>
   <trkpt lat="59.0826759881" lon="30.0141239468"><ele>72.146</ele><time>2026-04-20T19:44:41.997Z</time></trkpt>
   <trkpt lat="59.0826319831" lon="30.0142399524"><ele>72.45</ele><time>2026-04-20T19:49:15.997Z</time></trkpt>
   <trkpt lat="59.0824539934" lon="30.0143469893"><ele>72.542</ele><time>2026-04-20T19:49:45.002Z</time></trkpt>
   <trkpt lat="59.082399972" lon="30.014505994"><ele>73.06</ele><time>2026-04-20T19:50:59.997Z</time></trkpt>
   <trkpt lat="59.0821929809" lon="30.0145539385"><ele>73.151</ele><time>2026-04-20T19:51:54.999Z</time></trkpt>
   <trkpt lat="59.0820879975" lon="30.0146989454"><ele>73.456</ele><time>2026-04-20T19:52:16.003Z</time></trkpt>
   <trkpt lat="59.0816899829" lon="30.0148939923"><ele>74.035</ele><time>2026-04-20T19:54:50.996Z</time></trkpt>
   <trkpt lat="59.0816159707" lon="30.0149739556"><ele>73.548</ele><time>2026-04-20T19:58:29.001Z</time></trkpt>
   <trkpt lat="59.0813889887" lon="30.0155159295"><ele>74.828</ele><time>2026-04-20T19:59:43.996Z</time></trkpt>
   <trkpt lat="59.0811979652" lon="30.0153619539"><ele>74.249</ele><time>2026-04-20T20:00:22.003Z</time></trkpt>
   <trkpt lat="59.081072991" lon="30.0153599423"><ele>73.731</ele><time>2026-04-20T20:00:46.999Z</time></trkpt>
   <trkpt lat="59.0810339732" lon="30.0152139295"><ele>74.371</ele><time>2026-04-20T20:01:01.004Z</time></trkpt>
   <trkpt lat="59.0808289938" lon="30.0152069726"><ele>75.986</ele><time>2026-04-20T20:03:23.003Z</time></trkpt>
   <trkpt lat="59.0807039777" lon="30.0154189509"><ele>74.919</ele><time>2026-04-20T20:06:12.001Z</time></trkpt>
   <trkpt lat="59.0806749763" lon="30.0156109803"><ele>75.133</ele><time>2026-04-20T20:06:40.003Z</time></trkpt>
   <trkpt lat="59.0807219988" lon="30.0157359545"><ele>75.011</ele><time>2026-04-20T20:07:11.997Z</time></trkpt>
   <trkpt lat="59.0806969788" lon="30.0160379544"><ele>73.974</ele><time>2026-04-20T20:08:04.001Z</time></trkpt>
   <trkpt lat="59.0805269938" lon="30.0160389603"><ele>74.645</ele><time>2026-04-20T20:08:43.002Z</time></trkpt>
   <trkpt lat="59.0803129619" lon="30.0161509425"><ele>75.864</ele><time>2026-04-20T20:09:38.998Z</time></trkpt>
   <trkpt lat="59.0802229822" lon="30.0160929397"><ele>76.139</ele><time>2026-04-20T20:09:53.997Z</time></trkpt>
   <trkpt lat="59.0801239919" lon="30.0159869925"><ele>78.028</ele><time>2026-04-20T20:10:16.997Z</time></trkpt>
   <trkpt lat="59.0799779792" lon="30.0161239528"><ele>78.394</ele><time>2026-04-20T20:11:14.997Z</time></trkpt>
   <trkpt lat="59.0799009914" lon="30.0162309897"><ele>81.076</ele><time>2026-04-20T20:13:06.997Z</time></trkpt>
   <trkpt lat="59.0797759753" lon="30.0161899183"><ele>81.442</ele><time>2026-04-20T20:13:20.001Z</time></trkpt>
   <trkpt lat="59.0796859956" lon="30.0163409602"><ele>81.869</ele><time>2026-04-20T20:13:37.004Z</time></trkpt>
   <trkpt lat="59.0793809781" lon="30.0163369369"><ele>82.753</ele><time>2026-04-20T20:14:23.997Z</time></trkpt>
   <trkpt lat="59.0793139648" lon="30.0165659305"><ele>82.631</ele><time>2026-04-20T20:14:37.000Z</time></trkpt>
   <trkpt lat="59.0792379828" lon="30.0166799244"><ele>83.545</ele><time>2026-04-20T20:14:50.997Z</time></trkpt>
   <trkpt lat="59.079054964" lon="30.0168489874"><ele>82.57</ele><time>2026-04-20T20:17:27.001Z</time></trkpt>
   <trkpt lat="59.0788349809" lon="30.0168229197"><ele>78.882</ele><time>2026-04-20T20:18:10.996Z</time></trkpt>
   <trkpt lat="59.0785979826" lon="30.0169759732"><ele>78.821</ele><time>2026-04-20T20:18:41.003Z</time></trkpt>
   <trkpt lat="59.078532981" lon="30.0171099999"><ele>79.796</ele><time>2026-04-20T20:19:03.000Z</time></trkpt>
   <trkpt lat="59.0784419954" lon="30.0169199821"><ele>79.278</ele><time>2026-04-20T20:19:30.000Z</time></trkpt>
   <trkpt lat="59.0783489982" lon="30.0171719421"><ele>80.65</ele><time>2026-04-20T20:20:07.999Z</time></trkpt>
   <trkpt lat="59.0781589804" lon="30.0174789712"><ele>81.046</ele><time>2026-04-20T20:20:41.997Z</time></trkpt>
   <trkpt lat="59.0780259596" lon="30.0174819887"><ele>80.528</ele><time>2026-04-20T20:22:12.000Z</time></trkpt>
   <trkpt lat="59.0779989699" lon="30.0176459387"><ele>81.747</ele><time>2026-04-20T20:25:03.003Z</time></trkpt>
   <trkpt lat="59.0780429749" lon="30.0177909457"><ele>82.966</ele><time>2026-04-20T20:25:18.002Z</time></trkpt>
   <trkpt lat="59.0780469982" lon="30.018158995"><ele>83.728</ele><time>2026-04-20T20:25:44.000Z</time></trkpt>
   <trkpt lat="59.0780059688" lon="30.0186829478"><ele>75.986</ele><time>2026-04-20T20:27:14.996Z</time></trkpt>
   <trkpt lat="59.0782199588" lon="30.0186369312"><ele>78.699</ele><time>2026-04-20T20:28:08.003Z</time></trkpt>
   <trkpt lat="59.0782629999" lon="30.0187719636"><ele>77.937</ele><time>2026-04-20T20:28:20.004Z</time></trkpt>
   <trkpt lat="59.0782779616" lon="30.0189759791"><ele>78.028</ele><time>2026-04-20T20:28:31.996Z</time></trkpt>
   <trkpt lat="59.0783359643" lon="30.0188689422"><ele>77.723</ele><time>2026-04-20T20:29:11.999Z</time></trkpt>
   <trkpt lat="59.0784179812" lon="30.0186849595"><ele>79.369</ele><time>2026-04-20T20:31:48.996Z</time></trkpt>
   <trkpt lat="59.0786429934" lon="30.0185329956"><ele>81.503</ele><time>2026-04-20T20:32:16.999Z</time></trkpt>
   <trkpt lat="59.078733979" lon="30.0182969612"><ele>80.436</ele><time>2026-04-20T20:32:57.002Z</time></trkpt>
   <trkpt lat="59.0788299937" lon="30.0182579853"><ele>76.565</ele><time>2026-04-20T20:33:28.996Z</time></trkpt>
   <trkpt lat="59.0789329654" lon="30.0184819498"><ele>76.352</ele><time>2026-04-20T20:33:51.002Z</time></trkpt>
   <trkpt lat="59.0790129706" lon="30.0185659364"><ele>76.626</ele><time>2026-04-20T20:34:06.001Z</time></trkpt>
   <trkpt lat="59.0791079795" lon="30.018498965"><ele>80.314</ele><time>2026-04-20T20:34:19.004Z</time></trkpt>
   <trkpt lat="59.0791909604" lon="30.0185709656"><ele>80.223</ele><time>2026-04-20T20:35:59.004Z</time></trkpt>
   <trkpt lat="59.0793329917" lon="30.0183449895"><ele>75.834</ele><time>2026-04-20T20:38:30.998Z</time></trkpt>
   <trkpt lat="59.0794019748" lon="30.0184139725"><ele>71.506</ele><time>2026-04-20T20:39:00.003Z</time></trkpt>
   <trkpt lat="59.0796049845" lon="30.0180509523"><ele>78.394</ele><time>2026-04-20T20:39:43.004Z</time></trkpt>
   <trkpt lat="59.0796099717" lon="30.0177529756"><ele>81.259</ele><time>2026-04-20T20:40:14.998Z</time></trkpt>
   <trkpt lat="59.0796529709" lon="30.0178809673"><ele>80.497</ele><time>2026-04-20T20:40:37.998Z</time></trkpt>
   <trkpt lat="59.0797479797" lon="30.0178779498"><ele>79.796</ele><time>2026-04-20T20:40:53.999Z</time></trkpt>
   <trkpt lat="59.0798259733" lon="30.0181029201"><ele>77.327</ele><time>2026-04-20T20:41:15.996Z</time></trkpt>
   <trkpt lat="59.0798349839" lon="30.0182549678"><ele>76.931</ele><time>2026-04-20T20:41:31.004Z</time></trkpt>
   <trkpt lat="59.0799669989" lon="30.0184839614"><ele>74.157</ele><time>2026-04-20T20:41:58.004Z</time></trkpt>
   <trkpt lat="59.0801099941" lon="30.0181399681"><ele>79.095</ele><time>2026-04-20T20:42:40.997Z</time></trkpt>
   <trkpt lat="59.0802329986" lon="30.0181339331"><ele>74.797</ele><time>2026-04-20T20:45:34.998Z</time></trkpt>
   <trkpt lat="59.0804109883" lon="30.0181259703"><ele>73.578</ele><time>2026-04-20T20:46:04.002Z</time></trkpt>
   <trkpt lat="59.0805409916" lon="30.0179879204"><ele>72.146</ele><time>2026-04-20T20:46:34.000Z</time></trkpt>
   <trkpt lat="59.0806309713" lon="30.0181069434"><ele>72.786</ele><time>2026-04-20T20:47:26.998Z</time></trkpt>
   <trkpt lat="59.0807469769" lon="30.017995967"><ele>73.395</ele><time>2026-04-20T20:47:45.004Z</time></trkpt>
   <trkpt lat="59.080890978" lon="30.0179329351"><ele>74.157</ele><time>2026-04-20T20:48:05.999Z</time></trkpt>
   <trkpt lat="59.081003966" lon="30.0177829829"><ele>74.675</ele><time>2026-04-20T20:48:24.998Z</time></trkpt>
   <trkpt lat="59.0812449876" lon="30.0176039454"><ele>77.114</ele><time>2026-04-20T20:54:18.996Z</time></trkpt>
   <trkpt lat="59.0812829996" lon="30.0174259976"><ele>76.565</ele><time>2026-04-20T20:54:34.004Z</time></trkpt>
   <trkpt lat="59.0813599873" lon="30.0173879438"><ele>75.681</ele><time>2026-04-20T20:54:48.001Z</time></trkpt>
   <trkpt lat="59.0814639649" lon="30.0171679188"><ele>74.98</ele><time>2026-04-20T20:55:15.001Z</time></trkpt>
   <trkpt lat="59.0815739773" lon="30.0171689246"><ele>73.67</ele><time>2026-04-20T20:55:43.003Z</time></trkpt>
   <trkpt lat="59.0816679804" lon="30.017165991"><ele>74.462</ele><time>2026-04-20T20:55:58.002Z</time></trkpt>
   <trkpt lat="59.0818169687" lon="30.0170929846"><ele>74.218</ele><time>2026-04-20T20:56:26.998Z</time></trkpt>
   <trkpt lat="59.0818439584" lon="30.016895926"><ele>75.041</ele><time>2026-04-20T20:56:59.001Z</time></trkpt>
   <trkpt lat="59.0819379615" lon="30.0167679344"><ele>74.889</ele><time>2026-04-20T21:01:27.998Z</time></trkpt>
   <trkpt lat="59.082141977" lon="30.0166329857"><ele>73.944</ele><time>2026-04-20T21:02:06.999Z</time></trkpt>
   <trkpt lat="59.0826899858" lon="30.0163779244"><ele>72.786</ele><time>2026-04-20T21:04:12.003Z</time></trkpt>
   <trkpt lat="59.0828199892" lon="30.016517986"><ele>71.658</ele><time>2026-04-20T21:05:06.996Z</time></trkpt>
   <trkpt lat="59.0829389703" lon="30.0165509269"><ele>72.45</ele><time>2026-04-20T21:07:28.001Z</time></trkpt>
   <trkpt lat="59.0830729969" lon="30.0164549541"><ele>72.511</ele><time>2026-04-20T21:07:53.999Z</time></trkpt>
   <trkpt lat="59.0831319636" lon="30.0161619228"><ele>72.024</ele><time>2026-04-20T21:08:38.003Z</time></trkpt>
   <trkpt lat="59.0832089933" lon="30.0160699733"><ele>71.414</ele><time>2026-04-20T21:08:53.002Z</time></trkpt>
   <trkpt lat="59.0833789783" lon="30.0159969669"><ele>71.719</ele><time>2026-04-20T21:09:47.002Z</time></trkpt>
   <trkpt lat="59.083405968" lon="30.0157479406"><ele>70.622</ele><time>2026-04-20T21:10:17.000Z</time></trkpt>
   <trkpt lat="59.083650971" lon="30.0158619345"><ele>71.536</ele><time>2026-04-20T21:11:09.004Z</time></trkpt>
   <trkpt lat="59.0837119913" lon="30.0159859866"><ele>71.627</ele><time>2026-04-20T21:11:21.998Z</time></trkpt>
   <trkpt lat="59.0839239696" lon="30.0161369447"><ele>71.902</ele><time>2026-04-20T21:12:10.996Z</time></trkpt>
   <trkpt lat="59.0838419946" lon="30.0148429465"><ele>73.517</ele><time>2026-04-20T21:15:57.001Z</time></trkpt>
   <trkpt lat="59.0835229794" lon="30.0124809262"><ele>74.919</ele><time>2026-04-20T21:18:21.997Z</time></trkpt>
   <trkpt lat="59.0834289763" lon="30.0114509579"><ele>75.651</ele><time>2026-04-20T21:19:26.996Z</time></trkpt>
   <trkpt lat="59.0833489711" lon="30.011016943"><ele>74.523</ele><time>2026-04-20T21:20:00.001Z</time></trkpt>
   <trkpt lat="59.0833479652" lon="30.0107929785"><ele>73.974</ele><time>2026-04-20T21:20:16.002Z</time></trkpt>
   <trkpt lat="59.0832789822" lon="30.0103539344"><ele>74.615</ele><time>2026-04-20T21:20:44.998Z</time></trkpt>
   <trkpt lat="59.083210963" lon="30.0096259661"><ele>74.95</ele><time>2026-04-20T21:21:34.004Z</time></trkpt>
   <trkpt lat="59.0831189716" lon="30.0092479423"><ele>74.615</ele><time>2026-04-20T21:22:03.000Z</time></trkpt>
   <trkpt lat="59.0830819655" lon="30.0087069743"><ele>75.072</ele><time>2026-04-20T21:23:06.996Z</time></trkpt>
   <trkpt lat="59.0829249725" lon="30.0078389444"><ele>75.986</ele><time>2026-04-20T21:24:00.996Z</time></trkpt>
   <trkpt lat="59.0827439653" lon="30.0059219193"><ele>77.693</ele><time>2026-04-20T21:25:52.997Z</time></trkpt>
   <trkpt lat="59.0826499622" lon="30.0055139721"><ele>76.382</ele><time>2026-04-20T21:26:18.001Z</time></trkpt>
   <trkpt lat="59.0824369781" lon="30.0039569498"><ele>77.266</ele><time>2026-04-20T21:27:56.998Z</time></trkpt>
   <trkpt lat="59.0824259978" lon="30.0032169953"><ele>79.644</ele><time>2026-04-20T21:28:45.002Z</time></trkpt>
   <trkpt lat="59.0823089864" lon="30.0026189466"><ele>78.638</ele><time>2026-04-20T21:29:23.001Z</time></trkpt>
   <trkpt lat="59.0822619639" lon="30.0020789843"><ele>77.236</ele><time>2026-04-20T21:29:52.999Z</time></trkpt>
   <trkpt lat="59.082110964" lon="30.0015569594"><ele>79.461</ele><time>2026-04-20T21:30:30.997Z</time></trkpt>
   <trkpt lat="59.0820779812" lon="30.0007919431"><ele>81.96</ele><time>2026-04-20T21:31:34.000Z</time></trkpt>
   <trkpt lat="59.0820059806" lon="30.0003609457"><ele>79.339</ele><time>2026-04-20T21:31:58.996Z</time></trkpt>
   <trkpt lat="59.0819459662" lon="29.9995589652"><ele>81.32</ele><time>2026-04-20T21:32:49.004Z</time></trkpt>
   <trkpt lat="59.0818279909" lon="29.9989449908"><ele>81.29</ele><time>2026-04-20T21:33:27.996Z</time></trkpt>
   <trkpt lat="59.081770994" lon="29.9983899411"><ele>80.528</ele><time>2026-04-20T21:34:21.003Z</time></trkpt>
   <trkpt lat="59.081732982" lon="29.9982569203"><ele>80.893</ele><time>2026-04-20T21:34:35.000Z</time></trkpt>
   <trkpt lat="59.081732982" lon="29.9978409265"><ele>81.655</ele><time>2026-04-20T21:34:57.999Z</time></trkpt>
   <trkpt lat="59.0816379732" lon="29.9973059934"><ele>83.637</ele><time>2026-04-20T21:35:31.998Z</time></trkpt>
   <trkpt lat="59.0816299685" lon="29.9968649377"><ele>83.179</ele><time>2026-04-20T21:36:01.996Z</time></trkpt>
   <trkpt lat="59.0815699959" lon="29.996264961"><ele>83.667</ele><time>2026-04-20T21:36:39.001Z</time></trkpt>
   <trkpt lat="59.0818369595" lon="29.9959219736"><ele>84.307</ele><time>2026-04-20T21:37:12.999Z</time></trkpt>
   <trkpt lat="59.0823039992" lon="29.9955619708"><ele>84.734</ele><time>2026-04-20T21:38:08.002Z</time></trkpt>
   <trkpt lat="59.0827719608" lon="29.9955639825"><ele>81.412</ele><time>2026-04-20T21:39:17.001Z</time></trkpt>
   <trkpt lat="59.0833839655" lon="29.9948249501"><ele>79.43</ele><time>2026-04-20T21:41:21.002Z</time></trkpt>
   <trkpt lat="59.0835719716" lon="29.9940419965"><ele>79.4</ele><time>2026-04-20T21:42:08.997Z</time></trkpt>
   <trkpt lat="59.0836659746" lon="29.993787941"><ele>78.821</ele><time>2026-04-20T21:42:24.998Z</time></trkpt>
   <trkpt lat="59.0840259774" lon="29.993064918"><ele>77.784</ele><time>2026-04-20T21:43:21.003Z</time></trkpt>
   <trkpt lat="59.0840499915" lon="29.9928609863"><ele>78.272</ele><time>2026-04-20T21:43:35.000Z</time></trkpt>
   <trkpt lat="59.0839599699" lon="29.9920299206"><ele>83.85</ele><time>2026-04-20T21:44:27.004Z</time></trkpt>
   <trkpt lat="59.0839809666" lon="29.991687939"><ele>83.118</ele><time>2026-04-20T21:44:41.001Z</time></trkpt>
   <trkpt lat="59.0842199765" lon="29.9911369965"><ele>80.162</ele><time>2026-04-20T21:45:24.002Z</time></trkpt>
   <trkpt lat="59.084480989" lon="29.9908869643"><ele>80.802</ele><time>2026-04-20T21:46:08.999Z</time></trkpt>
   <trkpt lat="59.0848169776" lon="29.9907859624"><ele>75.834</ele><time>2026-04-20T21:46:48.000Z</time></trkpt>
   <trkpt lat="59.0849769881" lon="29.9906359263"><ele>74.462</ele><time>2026-04-20T21:47:06.999Z</time></trkpt>
   <trkpt lat="59.0850859948" lon="29.9904629238"><ele>73.609</ele><time>2026-04-20T21:47:23.001Z</time></trkpt>
   <trkpt lat="59.0855419703" lon="29.9892299459"><ele>75.346</ele><time>2026-04-20T21:48:57.997Z</time></trkpt>
   <trkpt lat="59.0855349714" lon="29.9887159676"><ele>77.022</ele><time>2026-04-20T21:49:24.997Z</time></trkpt>
   <trkpt lat="59.0855829997" lon="29.9883159832"><ele>78.851</ele><time>2026-04-20T21:49:50.002Z</time></trkpt>
   <trkpt lat="59.0857399928" lon="29.9876279965"><ele>80.589</ele><time>2026-04-20T21:50:29.003Z</time></trkpt>
   <trkpt lat="59.0858259911" lon="29.9874039483"><ele>80.467</ele><time>2026-04-20T21:50:42.999Z</time></trkpt>
   <trkpt lat="59.0863209844" lon="29.98662594"><ele>82.966</ele><time>2026-04-20T21:51:55.999Z</time></trkpt>
   <trkpt lat="59.0867889879" lon="29.9861039989"><ele>79.705</ele><time>2026-04-20T21:52:48.996Z</time></trkpt>
   <trkpt lat="59.0871309696" lon="29.9859929387"><ele>77.815</ele><time>2026-04-20T21:53:23.997Z</time></trkpt>
   <trkpt lat="59.0873599632" lon="29.9858459201"><ele>77.327</ele><time>2026-04-20T21:53:50.004Z</time></trkpt>
   <trkpt lat="59.087473999" lon="29.9858239595"><ele>77.175</ele><time>2026-04-20T21:54:00.000Z</time></trkpt>
   <trkpt lat="59.0883739639" lon="29.9853599374"><ele>75.407</ele><time>2026-04-20T21:55:37.001Z</time></trkpt>
   <trkpt lat="59.0885569828" lon="29.9853629548"><ele>75.346</ele><time>2026-04-20T21:56:00.001Z</time></trkpt>
   <trkpt lat="59.0887979625" lon="29.9854749371"><ele>73.913</ele><time>2026-04-20T21:56:21.998Z</time></trkpt>
   <trkpt lat="59.0892309716" lon="29.9854819779"><ele>76.017</ele><time>2026-04-20T21:57:14.996Z</time></trkpt>
   <trkpt lat="59.0895579916" lon="29.9858499434"><ele>74.34</ele><time>2026-04-20T21:57:46.999Z</time></trkpt>
   <trkpt lat="59.0896649866" lon="29.9858889193"><ele>74.615</ele><time>2026-04-20T21:57:57.004Z</time></trkpt>
   <trkpt lat="59.0900699582" lon="29.9856919445"><ele>73.731</ele><time>2026-04-20T21:59:10.003Z</time></trkpt>
  </trkseg>
 </trk>
 <trk>
  <name>20260420_Lisa50</name>
  <desc>20260420_Lisa50</desc>
  <type>TrackStyle_2196F3C8</type>
  <extensions>
   <gom:time>2026-04-20T19:30:28.002Z</gom:time>
   <line xmlns="http://www.topografix.com/GPX/gpx_style/0/2">
    <color>2196F3</color>
   </line>
  </extensions>
  <trkseg>
   <trkpt lat="59.0817879673" lon="30.0013749883"><ele>82.57</ele><time>2026-04-20T19:30:28.002Z</time></trkpt>
   <trkpt lat="59.0816209998" lon="30.0013529439"><ele>77.632</ele><time>2026-04-20T19:31:19.004Z</time></trkpt>
   <trkpt lat="59.0815469876" lon="30.0014479947"><ele>77.388</ele><time>2026-04-20T19:31:37.001Z</time></trkpt>
   <trkpt lat="59.0814209657" lon="30.0018829316"><ele>78.089</ele><time>2026-04-20T19:32:56.999Z</time></trkpt>
   <trkpt lat="59.0813839596" lon="30.0021309521"><ele>78.028</ele><time>2026-04-20T19:33:57.004Z</time></trkpt>
   <trkpt lat="59.0813329976" lon="30.0022349716"><ele>78.211</ele><time>2026-04-20T19:34:58.002Z</time></trkpt>
   <trkpt lat="59.0811309938" lon="30.002263973"><ele>79.034</ele><time>2026-04-20T19:35:53.998Z</time></trkpt>
   <trkpt lat="59.0811869849" lon="30.0024299346"><ele>78.943</ele><time>2026-04-20T19:36:35.004Z</time></trkpt>
   <trkpt lat="59.0810969632" lon="30.0026479479"><ele>79.339</ele><time>2026-04-20T19:36:50.996Z</time></trkpt>
   <trkpt lat="59.0811509846" lon="30.0028809648"><ele>79.613</ele><time>2026-04-20T19:37:29.997Z</time></trkpt>
   <trkpt lat="59.0810749607" lon="30.0029379618"><ele>79.461</ele><time>2026-04-20T19:38:50.997Z</time></trkpt>
   <trkpt lat="59.081135981" lon="30.0030639418"><ele>79.217</ele><time>2026-04-20T19:39:54.000Z</time></trkpt>
   <trkpt lat="59.081072991" lon="30.0031649437"><ele>79.735</ele><time>2026-04-20T19:40:22.002Z</time></trkpt>
   <trkpt lat="59.0810709793" lon="30.0033049215"><ele>79.522</ele><time>2026-04-20T19:40:38.004Z</time></trkpt>
   <trkpt lat="59.0811659882" lon="30.0034069293"><ele>79.735</ele><time>2026-04-20T19:40:53.996Z</time></trkpt>
   <trkpt lat="59.0813269627" lon="30.003766932"><ele>79.674</ele><time>2026-04-20T19:41:42.000Z</time></trkpt>
   <trkpt lat="59.0814139668" lon="30.0040829298"><ele>79.888</ele><time>2026-04-20T19:42:19.999Z</time></trkpt>
   <trkpt lat="59.0808519602" lon="30.0043829181"><ele>80.253</ele><time>2026-04-20T19:43:48.999Z</time></trkpt>
   <trkpt lat="59.0807539757" lon="30.0044429325"><ele>80.07</ele><time>2026-04-20T19:44:02.996Z</time></trkpt>
   <trkpt lat="59.0806549855" lon="30.0045539927"><ele>80.314</ele><time>2026-04-20T19:44:28.000Z</time></trkpt>
   <trkpt lat="59.0801249977" lon="30.0047449325"><ele>80.954</ele><time>2026-04-20T19:46:08.000Z</time></trkpt>
   <trkpt lat="59.0801869819" lon="30.0046079722"><ele>80.375</ele><time>2026-04-20T19:48:01.002Z</time></trkpt>
   <trkpt lat="59.0801019894" lon="30.0045409169"><ele>80.284</ele><time>2026-04-20T19:51:48.001Z</time></trkpt>
   <trkpt lat="59.0799399672" lon="30.0047949724"><ele>80.924</ele><time>2026-04-20T19:52:53.000Z</time></trkpt>
   <trkpt lat="59.0800329644" lon="30.0048629497"><ele>80.314</ele><time>2026-04-20T19:53:29.996Z</time></trkpt>
   <trkpt lat="59.0799629755" lon="30.0047139194"><ele>80.528</ele><time>2026-04-20T19:54:04.997Z</time></trkpt>
   <trkpt lat="59.0797899731" lon="30.0048569985"><ele>80.406</ele><time>2026-04-20T19:54:39.997Z</time></trkpt>
   <trkpt lat="59.0797049806" lon="30.0048489519"><ele>80.467</ele><time>2026-04-20T19:54:54.996Z</time></trkpt>
   <trkpt lat="59.0795749772" lon="30.004639991"><ele>80.436</ele><time>2026-04-20T19:55:26.999Z</time></trkpt>
   <trkpt lat="59.0794029806" lon="30.0047629536"><ele>80.375</ele><time>2026-04-20T19:55:56.004Z</time></trkpt>
   <trkpt lat="59.0793339975" lon="30.0048879277"><ele>80.528</ele><time>2026-04-20T19:56:10.000Z</time></trkpt>
   <trkpt lat="59.0790219812" lon="30.0051549752"><ele>80.467</ele><time>2026-04-20T19:56:58.998Z</time></trkpt>
   <trkpt lat="59.0786869984" lon="30.0049879238"><ele>80.04</ele><time>2026-04-20T19:58:00.998Z</time></trkpt>
   <trkpt lat="59.0786309654" lon="30.0048749358"><ele>80.284</ele><time>2026-04-20T19:58:12.999Z</time></trkpt>
   <trkpt lat="59.0785259821" lon="30.0048479461"><ele>79.796</ele><time>2026-04-20T19:59:19.000Z</time></trkpt>
   <trkpt lat="59.0784609804" lon="30.0049329386"><ele>79.491</ele><time>2026-04-20T20:00:18.996Z</time></trkpt>
   <trkpt lat="59.0783599785" lon="30.005193951"><ele>79.766</ele><time>2026-04-20T20:00:45.996Z</time></trkpt>
   <trkpt lat="59.0782099843" lon="30.0053459987"><ele>79.827</ele><time>2026-04-20T20:01:20.997Z</time></trkpt>
   <trkpt lat="59.0780119619" lon="30.0054389541"><ele>79.308</ele><time>2026-04-20T20:02:07.999Z</time></trkpt>
   <trkpt lat="59.077909996" lon="30.0057559576"><ele>79.491</ele><time>2026-04-20T20:02:51.000Z</time></trkpt>
   <trkpt lat="59.0778069824" lon="30.0062279426"><ele>79.217</ele><time>2026-04-20T20:03:43.004Z</time></trkpt>
   <trkpt lat="59.078155963" lon="30.0062279426"><ele>79.247</ele><time>2026-04-20T20:05:06.000Z</time></trkpt>
   <trkpt lat="59.0782049971" lon="30.0061009568"><ele>78.973</ele><time>2026-04-20T20:06:09.003Z</time></trkpt>
   <trkpt lat="59.0783759879" lon="30.0062979315"><ele>78.485</ele><time>2026-04-20T20:08:46.000Z</time></trkpt>
   <trkpt lat="59.0784799654" lon="30.0063279387"><ele>78.607</ele><time>2026-04-20T20:08:59.997Z</time></trkpt>
   <trkpt lat="59.0786239665" lon="30.0062329717"><ele>78.729</ele><time>2026-04-20T20:09:19.999Z</time></trkpt>
   <trkpt lat="59.0788739987" lon="30.0059189856"><ele>78.485</ele><time>2026-04-20T20:10:07.000Z</time></trkpt>
   <trkpt lat="59.0789769704" lon="30.0058769923"><ele>78.303</ele><time>2026-04-20T20:10:24.997Z</time></trkpt>
   <trkpt lat="59.0790589873" lon="30.0056019821"><ele>77.845</ele><time>2026-04-20T20:11:33.996Z</time></trkpt>
   <trkpt lat="59.0789749587" lon="30.0056709651"><ele>78.028</ele><time>2026-04-20T20:12:49.000Z</time></trkpt>
   <trkpt lat="59.0790539581" lon="30.0054939393"><ele>78.242</ele><time>2026-04-20T20:14:04.004Z</time></trkpt>
   <trkpt lat="59.0791059679" lon="30.0052369502"><ele>79.979</ele><time>2026-04-20T20:16:44.000Z</time></trkpt>
   <trkpt lat="59.0792109931" lon="30.0051839766"><ele>80.253</ele><time>2026-04-20T20:16:58.999Z</time></trkpt>
   <trkpt lat="59.0794489972" lon="30.0054169935"><ele>80.101</ele><time>2026-04-20T20:17:36.004Z</time></trkpt>
   <trkpt lat="59.0796659628" lon="30.0054819532"><ele>79.705</ele><time>2026-04-20T20:18:07.004Z</time></trkpt>
   <trkpt lat="59.0798499875" lon="30.0054379482"><ele>79.522</ele><time>2026-04-20T20:18:36.000Z</time></trkpt>
   <trkpt lat="59.0799559767" lon="30.0055029918"><ele>79.4</ele><time>2026-04-20T20:18:52.001Z</time></trkpt>
   <trkpt lat="59.0800499797" lon="30.005841956"><ele>79.308</ele><time>2026-04-20T20:19:24.004Z</time></trkpt>
   <trkpt lat="59.0801129697" lon="30.0065249972"><ele>78.943</ele><time>2026-04-20T20:21:00.996Z</time></trkpt>
   <trkpt lat="59.0800689647" lon="30.0066369795"><ele>78.943</ele><time>2026-04-20T20:21:14.000Z</time></trkpt>
   <trkpt lat="59.07975896" lon="30.0066589401"><ele>78.729</ele><time>2026-04-20T20:22:21.996Z</time></trkpt>
   <trkpt lat="59.0794979895" lon="30.0068189506"><ele>78.699</ele><time>2026-04-20T20:23:00.004Z</time></trkpt>
   <trkpt lat="59.0792489631" lon="30.0069709983"><ele>78.668</ele><time>2026-04-20T20:23:31.004Z</time></trkpt>
   <trkpt lat="59.0789589912" lon="30.0072269816"><ele>78.242</ele><time>2026-04-20T20:24:16.001Z</time></trkpt>
   <trkpt lat="59.0787049776" lon="30.0072259758"><ele>78.181</ele><time>2026-04-20T20:24:48.997Z</time></trkpt>
   <trkpt lat="59.0785149599" lon="30.0071229622"><ele>78.333</ele><time>2026-04-20T20:25:26.996Z</time></trkpt>
   <trkpt lat="59.0782199588" lon="30.00679699"><ele>78.211</ele><time>2026-04-20T20:28:35.996Z</time></trkpt>
   <trkpt lat="59.0781649735" lon="30.0065279309"><ele>78.455</ele><time>2026-04-20T20:29:14.997Z</time></trkpt>
   <trkpt lat="59.0780729821" lon="30.0064339698"><ele>78.425</ele><time>2026-04-20T20:29:33.996Z</time></trkpt>
   <trkpt lat="59.0778969621" lon="30.0067249895"><ele>78.851</ele><time>2026-04-20T20:30:00.996Z</time></trkpt>
   <trkpt lat="59.0778259674" lon="30.0073009938"><ele>78.851</ele><time>2026-04-20T20:30:51.998Z</time></trkpt>
   <trkpt lat="59.0775449641" lon="30.0075619225"><ele>78.729</ele><time>2026-04-20T20:31:40.002Z</time></trkpt>
   <trkpt lat="59.0774729636" lon="30.007721933"><ele>78.821</ele><time>2026-04-20T20:31:53.999Z</time></trkpt>
   <trkpt lat="59.077425983" lon="30.008406986"><ele>78.577</ele><time>2026-04-20T20:32:49.001Z</time></trkpt>
   <trkpt lat="59.0774919905" lon="30.0084869493"><ele>78.455</ele><time>2026-04-20T20:33:12.001Z</time></trkpt>
   <trkpt lat="59.0774329819" lon="30.0086069782"><ele>78.425</ele><time>2026-04-20T20:33:25.998Z</time></trkpt>
   <trkpt lat="59.0773199938" lon="30.0085569382"><ele>78.15</ele><time>2026-04-20T20:33:40.003Z</time></trkpt>
   <trkpt lat="59.0772399886" lon="30.0086709321"><ele>78.394</ele><time>2026-04-20T20:33:55.002Z</time></trkpt>
   <trkpt lat="59.0773149647" lon="30.0088459462"><ele>78.089</ele><time>2026-04-20T20:34:25.000Z</time></trkpt>
   <trkpt lat="59.0774199899" lon="30.0086939823"><ele>77.754</ele><time>2026-04-20T20:34:38.997Z</time></trkpt>
   <trkpt lat="59.0774849916" lon="30.0084739574"><ele>77.784</ele><time>2026-04-20T20:34:53.996Z</time></trkpt>
   <trkpt lat="59.0776099658" lon="30.0084539246"><ele>77.784</ele><time>2026-04-20T20:35:36.004Z</time></trkpt>
   <trkpt lat="59.0777139852" lon="30.0083929882"><ele>77.784</ele><time>2026-04-20T20:37:42.001Z</time></trkpt>
   <trkpt lat="59.0779609999" lon="30.0084999413"><ele>77.784</ele><time>2026-04-20T20:38:38.999Z</time></trkpt>
   <trkpt lat="59.0786289957" lon="30.0083239213"><ele>77.022</ele><time>2026-04-20T20:40:17.996Z</time></trkpt>
   <trkpt lat="59.0787489826" lon="30.0083399307"><ele>77.114</ele><time>2026-04-20T20:40:37.004Z</time></trkpt>
   <trkpt lat="59.0789719831" lon="30.008645954"><ele>76.931</ele><time>2026-04-20T20:41:20.999Z</time></trkpt>
   <trkpt lat="59.0790589873" lon="30.0086929765"><ele>76.779</ele><time>2026-04-20T20:41:35.998Z</time></trkpt>
   <trkpt lat="59.0792759948" lon="30.0086349737"><ele>76.504</ele><time>2026-04-20T20:42:39.001Z</time></trkpt>
   <trkpt lat="59.0792919623" lon="30.0084899668"><ele>77.327</ele><time>2026-04-20T20:47:10.003Z</time></trkpt>
   <trkpt lat="59.0794799684" lon="30.0085999374"><ele>78.638</ele><time>2026-04-20T20:51:13.997Z</time></trkpt>
   <trkpt lat="59.0794689881" lon="30.0087429326"><ele>78.181</ele><time>2026-04-20T20:51:28.996Z</time></trkpt>
   <trkpt lat="59.0795309723" lon="30.0089379795"><ele>78.242</ele><time>2026-04-20T20:52:46.998Z</time></trkpt>
   <trkpt lat="59.0796469778" lon="30.0088379834"><ele>79.796</ele><time>2026-04-20T20:53:20.003Z</time></trkpt>
   <trkpt lat="59.0794709997" lon="30.0087839202"><ele>80.009</ele><time>2026-04-20T20:54:25.001Z</time></trkpt>
   <trkpt lat="59.0793929642" lon="30.0091279973"><ele>80.101</ele><time>2026-04-20T20:55:11.001Z</time></trkpt>
   <trkpt lat="59.0794139609" lon="30.0087199662"><ele>80.07</ele><time>2026-04-20T20:56:11.999Z</time></trkpt>
   <trkpt lat="59.0793729734" lon="30.008576971"><ele>80.131</ele><time>2026-04-20T20:57:55.999Z</time></trkpt>
   <trkpt lat="59.0794459798" lon="30.008727929"><ele>80.314</ele><time>2026-04-20T20:58:49.999Z</time></trkpt>
   <trkpt lat="59.0793589756" lon="30.0090949726"><ele>80.467</ele><time>2026-04-20T20:59:31.998Z</time></trkpt>
   <trkpt lat="59.0792419642" lon="30.0092139956"><ele>80.619</ele><time>2026-04-20T20:59:47.999Z</time></trkpt>
   <trkpt lat="59.0787599629" lon="30.0094369542"><ele>80.924</ele><time>2026-04-20T21:01:10.001Z</time></trkpt>
   <trkpt lat="59.0781369779" lon="30.0095589947"><ele>81.076</ele><time>2026-04-20T21:02:43.996Z</time></trkpt>
   <trkpt lat="59.0779849721" lon="30.009664942"><ele>81.32</ele><time>2026-04-20T21:03:17.001Z</time></trkpt>
   <trkpt lat="59.0778559746" lon="30.0098539539"><ele>80.375</ele><time>2026-04-20T21:06:08.997Z</time></trkpt>
   <trkpt lat="59.0776589999" lon="30.0100449775"><ele>81.046</ele><time>2026-04-20T21:06:57.001Z</time></trkpt>
   <trkpt lat="59.077576983" lon="30.0100169819"><ele>80.954</ele><time>2026-04-20T21:07:30.999Z</time></trkpt>
   <trkpt lat="59.0775149988" lon="30.0100999628"><ele>80.893</ele><time>2026-04-20T21:07:56.997Z</time></trkpt>
   <trkpt lat="59.0774209958" lon="30.0101339933"><ele>80.771</ele><time>2026-04-20T21:08:18.001Z</time></trkpt>
   <trkpt lat="59.0775029708" lon="30.01025595"><ele>80.436</ele><time>2026-04-20T21:09:01.002Z</time></trkpt>
   <trkpt lat="59.0776059844" lon="30.0100949336"><ele>81.015</ele><time>2026-04-20T21:09:18.999Z</time></trkpt>
   <trkpt lat="59.077796966" lon="30.0100569636"><ele>80.528</ele><time>2026-04-20T21:09:58.000Z</time></trkpt>
   <trkpt lat="59.0780299829" lon="30.0100879767"><ele>80.223</ele><time>2026-04-20T21:10:53.996Z</time></trkpt>
   <trkpt lat="59.0781959865" lon="30.0101959356"><ele>80.253</ele><time>2026-04-20T21:11:24.003Z</time></trkpt>
   <trkpt lat="59.0783019757" lon="30.0101529364"><ele>80.162</ele><time>2026-04-20T21:11:44.998Z</time></trkpt>
   <trkpt lat="59.0784049893" lon="30.0101879728"><ele>80.223</ele><time>2026-04-20T21:12:06.002Z</time></trkpt>
   <trkpt lat="59.0784899818" lon="30.0102149625"><ele>79.888</ele><time>2026-04-20T21:13:16.003Z</time></trkpt>
   <trkpt lat="59.0788449973" lon="30.0101519306"><ele>78.821</ele><time>2026-04-20T21:14:11.999Z</time></trkpt>
   <trkpt lat="59.079041972" lon="30.0102039822"><ele>79.918</ele><time>2026-04-20T21:14:38.999Z</time></trkpt>
   <trkpt lat="59.0792379828" lon="30.0101829436"><ele>79.979</ele><time>2026-04-20T21:15:08.997Z</time></trkpt>
   <trkpt lat="59.0795769889" lon="30.0103739672"><ele>79.857</ele><time>2026-04-20T21:16:13.996Z</time></trkpt>
   <trkpt lat="59.0797799986" lon="30.0102329836"><ele>79.827</ele><time>2026-04-20T21:16:52.997Z</time></trkpt>
   <trkpt lat="59.0798649911" lon="30.0100699556"><ele>79.796</ele><time>2026-04-20T21:17:22.001Z</time></trkpt>
   <trkpt lat="59.0799999816" lon="30.0099529442"><ele>79.796</ele><time>2026-04-20T21:17:50.004Z</time></trkpt>
   <trkpt lat="59.0801119639" lon="30.0098139722"><ele>79.766</ele><time>2026-04-20T21:19:21.000Z</time></trkpt>
   <trkpt lat="59.0799949944" lon="30.0097679556"><ele>80.375</ele><time>2026-04-20T21:21:57.997Z</time></trkpt>
   <trkpt lat="59.0801139755" lon="30.0099199195"><ele>80.375</ele><time>2026-04-20T21:22:26.000Z</time></trkpt>
   <trkpt lat="59.080047968" lon="30.0098159839"><ele>80.802</ele><time>2026-04-20T21:23:18.004Z</time></trkpt>
   <trkpt lat="59.080135978" lon="30.0097959511"><ele>81.991</ele><time>2026-04-20T21:24:34.001Z</time></trkpt>
   <trkpt lat="59.0801119639" lon="30.0096259661"><ele>82.326</ele><time>2026-04-20T21:24:54.003Z</time></trkpt>
   <trkpt lat="59.08023698" lon="30.0095109664"><ele>81.716</ele><time>2026-04-20T21:25:37.004Z</time></trkpt>
   <trkpt lat="59.0803069689" lon="30.0094039295"><ele>81.442</ele><time>2026-04-20T21:26:03.002Z</time></trkpt>
   <trkpt lat="59.0803869741" lon="30.009752952"><ele>81.32</ele><time>2026-04-20T21:27:01.002Z</time></trkpt>
   <trkpt lat="59.0805459788" lon="30.0098639284"><ele>81.655</ele><time>2026-04-20T21:27:32.996Z</time></trkpt>
   <trkpt lat="59.0806839869" lon="30.0100779184"><ele>81.473</ele><time>2026-04-20T21:28:15.004Z</time></trkpt>
   <trkpt lat="59.0807609746" lon="30.0101039861"><ele>81.29</ele><time>2026-04-20T21:28:27.998Z</time></trkpt>
   <trkpt lat="59.0810439896" lon="30.009840962"><ele>80.954</ele><time>2026-04-20T21:29:31.001Z</time></trkpt>
   <trkpt lat="59.0810799899" lon="30.0097079412"><ele>80.832</ele><time>2026-04-20T21:29:47.996Z</time></trkpt>
   <trkpt lat="59.0814929662" lon="30.0090879318"><ele>80.619</ele><time>2026-04-20T21:31:21.999Z</time></trkpt>
   <trkpt lat="59.081575989" lon="30.0092029315"><ele>80.741</ele><time>2026-04-20T21:32:01.000Z</time></trkpt>
   <trkpt lat="59.0816439662" lon="30.0091539812"><ele>80.954</ele><time>2026-04-20T21:32:20.000Z</time></trkpt>
   <trkpt lat="59.0817559904" lon="30.0089259934"><ele>80.528</ele><time>2026-04-20T21:32:53.998Z</time></trkpt>
   <trkpt lat="59.0821159931" lon="30.0089379795"><ele>80.741</ele><time>2026-04-20T21:34:35.000Z</time></trkpt>
   <trkpt lat="59.0824429711" lon="30.0094479345"><ele>80.467</ele><time>2026-04-20T21:36:04.000Z</time></trkpt>
   <trkpt lat="59.0825399917" lon="30.0096999784"><ele>80.284</ele><time>2026-04-20T21:36:43.001Z</time></trkpt>
   <trkpt lat="59.0826119922" lon="30.0097789359"><ele>79.827</ele><time>2026-04-20T21:36:59.003Z</time></trkpt>
   <trkpt lat="59.0826919975" lon="30.009714982"><ele>79.705</ele><time>2026-04-20T21:37:14.002Z</time></trkpt>
   <trkpt lat="59.0827599747" lon="30.0097919278"><ele>79.369</ele><time>2026-04-20T21:37:31.999Z</time></trkpt>
   <trkpt lat="59.0829879625" lon="30.0095099606"><ele>79.217</ele><time>2026-04-20T21:38:17.998Z</time></trkpt>
   <trkpt lat="59.083084983" lon="30.0093279895"><ele>79.552</ele><time>2026-04-20T21:38:50.001Z</time></trkpt>
   <trkpt lat="59.0829899741" lon="30.0091009237"><ele>79.522</ele><time>2026-04-20T21:39:18.003Z</time></trkpt>
   <trkpt lat="59.083015958" lon="30.008940997"><ele>79.644</ele><time>2026-04-20T21:39:33.002Z</time></trkpt>
   <trkpt lat="59.0829549797" lon="30.0086789787"><ele>80.101</ele><time>2026-04-20T21:40:04.996Z</time></trkpt>
   <trkpt lat="59.0830989808" lon="30.0082759768"><ele>80.192</ele><time>2026-04-20T21:40:55.998Z</time></trkpt>
   <trkpt lat="59.0829709891" lon="30.0077489228"><ele>80.314</ele><time>2026-04-20T21:41:29.996Z</time></trkpt>
   <trkpt lat="59.0827879703" lon="30.0058829435"><ele>81.168</ele><time>2026-04-20T21:43:25.003Z</time></trkpt>
   <trkpt lat="59.0825789675" lon="30.0044559245"><ele>80.65</ele><time>2026-04-20T21:44:50.004Z</time></trkpt>
   <trkpt lat="59.0824859703" lon="30.0036429637"><ele>80.558</ele><time>2026-04-20T21:45:37.999Z</time></trkpt>
   <trkpt lat="59.0824819889" lon="30.0033809454"><ele>80.345</ele><time>2026-04-20T21:45:52.004Z</time></trkpt>
   <trkpt lat="59.0824079767" lon="30.0031769298"><ele>80.314</ele><time>2026-04-20T21:46:56.001Z</time></trkpt>
  </trkseg>
 </trk>
 <trk>
  <name>20260420_Lisa51</name>
  <desc>20260420_Lisa51</desc>
  <type>TrackStyle_2196F3C8</type>
  <extensions>
   <gom:time>2026-04-20T17:10:28.004Z</gom:time>
   <line xmlns="http://www.topografix.com/GPX/gpx_style/0/2">
    <color>2196F3</color>
   </line>
  </extensions>
  <trkseg>
   <trkpt lat="59.0990929932" lon="30.0254869577"><ele>72.664</ele><time>2026-04-20T17:10:28.004Z</time></trkpt>
   <trkpt lat="59.0975869747" lon="30.0168209918"><ele>63.398</ele><time>2026-04-20T19:36:57.001Z</time></trkpt>
   <trkpt lat="59.0978459755" lon="30.0185279664"><ele>62.88</ele><time>2026-04-20T19:38:30.002Z</time></trkpt>
   <trkpt lat="59.0979269866" lon="30.0188929983"><ele>68.122</ele><time>2026-04-20T19:38:45.001Z</time></trkpt>
   <trkpt lat="59.0979319738" lon="30.019171948"><ele>67.177</ele><time>2026-04-20T19:39:37.999Z</time></trkpt>
   <trkpt lat="59.0980209897" lon="30.019109922"><ele>64.556</ele><time>2026-04-20T19:41:13.004Z</time></trkpt>
   <trkpt lat="59.0980539724" lon="30.0194279314"><ele>64.952</ele><time>2026-04-20T19:41:36.997Z</time></trkpt>
   <trkpt lat="59.0982599996" lon="30.0205569737"><ele>61.996</ele><time>2026-04-20T19:42:46.999Z</time></trkpt>
   <trkpt lat="59.0983299885" lon="30.0212559406"><ele>62.392</ele><time>2026-04-20T19:43:23.002Z</time></trkpt>
   <trkpt lat="59.0983999774" lon="30.0215559289"><ele>66.751</ele><time>2026-04-20T19:43:43.003Z</time></trkpt>
   <trkpt lat="59.0984829582" lon="30.022170993"><ele>65.714</ele><time>2026-04-20T19:44:17.002Z</time></trkpt>
   <trkpt lat="59.098584966" lon="30.0226009846"><ele>71.597</ele><time>2026-04-20T19:44:52.996Z</time></trkpt>
   <trkpt lat="59.0987259915" lon="30.0235749618"><ele>67.817</ele><time>2026-04-20T19:46:02.004Z</time></trkpt>
   <trkpt lat="59.0987099821" lon="30.0237189629"><ele>72.359</ele><time>2026-04-20T19:46:24.001Z</time></trkpt>
   <trkpt lat="59.0989669712" lon="30.0247359392"><ele>71.414</ele><time>2026-04-20T19:47:46.003Z</time></trkpt>
   <trkpt lat="59.0988459785" lon="30.0247959536"><ele>74.523</ele><time>2026-04-20T19:49:18.002Z</time></trkpt>
   <trkpt lat="59.0987889815" lon="30.0249289744"><ele>76.291</ele><time>2026-04-20T19:50:38.000Z</time></trkpt>
   <trkpt lat="59.0988409912" lon="30.0247659464"><ele>76.321</ele><time>2026-04-20T19:52:39.996Z</time></trkpt>
   <trkpt lat="59.0989299651" lon="30.0246829656"><ele>71.201</ele><time>2026-04-20T19:56:15.996Z</time></trkpt>
   <trkpt lat="59.0994499784" lon="30.0243699853"><ele>70.561</ele><time>2026-04-20T20:00:57.004Z</time></trkpt>
   <trkpt lat="59.0995099928" lon="30.0242879265"><ele>72.603</ele><time>2026-04-20T20:01:12.003Z</time></trkpt>
   <trkpt lat="59.0995439815" lon="30.0240849168"><ele>66.659</ele><time>2026-04-20T20:01:48.999Z</time></trkpt>
   <trkpt lat="59.0997299759" lon="30.023635982"><ele>66.629</ele><time>2026-04-20T20:03:51.998Z</time></trkpt>
   <trkpt lat="59.099659987" lon="30.0236029573"><ele>75.62</ele><time>2026-04-20T20:08:36.004Z</time></trkpt>
   <trkpt lat="59.0996819895" lon="30.0234649912"><ele>72.908</ele><time>2026-04-20T20:09:49.003Z</time></trkpt>
   <trkpt lat="59.0995829992" lon="30.0230629951"><ele>66.812</ele><time>2026-04-20T20:11:34.999Z</time></trkpt>
   <trkpt lat="59.0995139742" lon="30.0229779188"><ele>64.404</ele><time>2026-04-20T20:12:41.000Z</time></trkpt>
   <trkpt lat="59.0995129684" lon="30.0226419721"><ele>65.684</ele><time>2026-04-20T20:15:28.002Z</time></trkpt>
   <trkpt lat="59.0995109987" lon="30.0223669619"><ele>70.683</ele><time>2026-04-20T20:16:27.998Z</time></trkpt>
   <trkpt lat="59.0994939834" lon="30.0221869186"><ele>68.64</ele><time>2026-04-20T20:18:03.997Z</time></trkpt>
   <trkpt lat="59.0994999765" lon="30.0219449331"><ele>77.784</ele><time>2026-04-20T20:19:13.999Z</time></trkpt>
   <trkpt lat="59.0994259643" lon="30.0218479544"><ele>75.102</ele><time>2026-04-20T20:24:37.999Z</time></trkpt>
   <trkpt lat="59.0993479707" lon="30.0216379878"><ele>65.105</ele><time>2026-04-20T20:26:35.002Z</time></trkpt>
   <trkpt lat="59.0992359884" lon="30.0212569464"><ele>68.397</ele><time>2026-04-20T20:27:49.997Z</time></trkpt>
   <trkpt lat="59.0991559832" lon="30.0212069903"><ele>66.964</ele><time>2026-04-20T20:28:20.004Z</time></trkpt>
   <trkpt lat="59.0991969707" lon="30.0209909887"><ele>65.989</ele><time>2026-04-20T20:28:51.997Z</time></trkpt>
   <trkpt lat="59.0991659995" lon="30.0208329898"><ele>68.305</ele><time>2026-04-20T20:29:14.997Z</time></trkpt>
   <trkpt lat="59.0990759779" lon="30.0204869848"><ele>71.262</ele><time>2026-04-20T20:30:34.001Z</time></trkpt>
   <trkpt lat="59.0989049871" lon="30.0199549854"><ele>68.701</ele><time>2026-04-20T20:34:49.996Z</time></trkpt>
   <trkpt lat="59.0988579646" lon="30.0196999241"><ele>67.025</ele><time>2026-04-20T20:35:55.003Z</time></trkpt>
   <trkpt lat="59.0989039812" lon="30.0191329722"><ele>72.329</ele><time>2026-04-20T20:37:20.004Z</time></trkpt>
   <trkpt lat="59.0988639996" lon="30.0189809245"><ele>70.865</ele><time>2026-04-20T20:37:39.003Z</time></trkpt>
   <trkpt lat="59.0988559948" lon="30.0187559542"><ele>72.786</ele><time>2026-04-20T20:38:13.001Z</time></trkpt>
   <trkpt lat="59.0987789652" lon="30.0184629228"><ele>76.474</ele><time>2026-04-20T20:41:14.001Z</time></trkpt>
   <trkpt lat="59.0986529852" lon="30.0179299176"><ele>70.347</ele><time>2026-04-20T20:42:24.002Z</time></trkpt>
   <trkpt lat="59.0986699585" lon="30.017587936"><ele>76.26</ele><time>2026-04-20T20:42:59.996Z</time></trkpt>
   <trkpt lat="59.098854989" lon="30.017291971"><ele>73.212</ele><time>2026-04-20T20:44:28.003Z</time></trkpt>
   <trkpt lat="59.0989929971" lon="30.0172189646"><ele>74.858</ele><time>2026-04-20T20:45:14.996Z</time></trkpt>
   <trkpt lat="59.0990239682" lon="30.0170559366"><ele>75.681</ele><time>2026-04-20T20:46:03.000Z</time></trkpt>
   <trkpt lat="59.099175974" lon="30.0169599638"><ele>71.78</ele><time>2026-04-20T20:47:24.000Z</time></trkpt>
   <trkpt lat="59.0991969707" lon="30.0171439466"><ele>74.828</ele><time>2026-04-20T20:48:38.002Z</time></trkpt>
   <trkpt lat="59.099250992" lon="30.0170239177"><ele>80.314</ele><time>2026-04-20T20:49:25.003Z</time></trkpt>
   <trkpt lat="59.0991479784" lon="30.017492969"><ele>66.598</ele><time>2026-04-20T20:51:25.004Z</time></trkpt>
   <trkpt lat="59.0993699732" lon="30.0182969612"><ele>63.215</ele><time>2026-04-20T20:53:09.004Z</time></trkpt>
   <trkpt lat="59.0994309934" lon="30.0187229295"><ele>62.819</ele><time>2026-04-20T20:53:47.996Z</time></trkpt>
   <trkpt lat="59.099527972" lon="30.0188039825"><ele>78.272</ele><time>2026-04-20T20:54:13.000Z</time></trkpt>
   <trkpt lat="59.0995709712" lon="30.0190269411"><ele>69.341</ele><time>2026-04-20T20:57:08.004Z</time></trkpt>
   <trkpt lat="59.0996139704" lon="30.0193839264"><ele>61.904</ele><time>2026-04-20T20:57:45.000Z</time></trkpt>
   <trkpt lat="59.0996319914" lon="30.0198289216"><ele>69.402</ele><time>2026-04-20T20:58:32.002Z</time></trkpt>
   <trkpt lat="59.0997789681" lon="30.0201079552"><ele>67.147</ele><time>2026-04-20T20:59:20.999Z</time></trkpt>
   <trkpt lat="59.0998249848" lon="30.0203639385"><ele>62.483</ele><time>2026-04-20T20:59:58.004Z</time></trkpt>
   <trkpt lat="59.0997879787" lon="30.0205859751"><ele>74.005</ele><time>2026-04-20T21:00:23.000Z</time></trkpt>
   <trkpt lat="59.0998679839" lon="30.0207979534"><ele>68.976</ele><time>2026-04-20T21:04:35.003Z</time></trkpt>
   <trkpt lat="59.1000409864" lon="30.0212529231"><ele>64.587</ele><time>2026-04-20T21:06:16.004Z</time></trkpt>
   <trkpt lat="59.1001479814" lon="30.0219239783"><ele>65.349</ele><time>2026-04-20T21:07:48.996Z</time></trkpt>
   <trkpt lat="59.1001539745" lon="30.0220799655"><ele>63.215</ele><time>2026-04-20T21:08:31.998Z</time></trkpt>
   <trkpt lat="59.1002689742" lon="30.0221749325"><ele>72.908</ele><time>2026-04-20T21:11:01.997Z</time></trkpt>
   <trkpt lat="59.100225975" lon="30.0223059416"><ele>65.928</ele><time>2026-04-20T21:13:43.997Z</time></trkpt>
   <trkpt lat="59.1001269847" lon="30.0223469291"><ele>70.347</ele><time>2026-04-20T21:17:12.998Z</time></trkpt>
   <trkpt lat="59.1002089597" lon="30.0222439994"><ele>67.878</ele><time>2026-04-20T21:18:40.003Z</time></trkpt>
   <trkpt lat="59.1002459659" lon="30.0223879166"><ele>69.555</ele><time>2026-04-20T21:19:23.998Z</time></trkpt>
   <trkpt lat="59.1002279867" lon="30.0225259666"><ele>65.867</ele><time>2026-04-20T21:19:44.000Z</time></trkpt>
   <trkpt lat="59.1003149908" lon="30.0224959594"><ele>67.604</ele><time>2026-04-20T21:21:59.000Z</time></trkpt>
   <trkpt lat="59.1002459659" lon="30.0226589874"><ele>66.69</ele><time>2026-04-20T21:23:25.996Z</time></trkpt>
   <trkpt lat="59.1002309622" lon="30.0228479993"><ele>62.392</ele><time>2026-04-20T21:24:04.997Z</time></trkpt>
   <trkpt lat="59.1003029628" lon="30.0230119493"><ele>65.989</ele><time>2026-04-20T21:24:53.001Z</time></trkpt>
   <trkpt lat="59.1003109675" lon="30.023377987"><ele>63.032</ele><time>2026-04-20T21:25:52.997Z</time></trkpt>
   <trkpt lat="59.1004159928" lon="30.0233999476"><ele>65.684</ele><time>2026-04-20T21:28:52.000Z</time></trkpt>
   <trkpt lat="59.1004879933" lon="30.0234579504"><ele>86.654</ele><time>2026-04-20T21:35:10.000Z</time></trkpt>
   <trkpt lat="59.1006759994" lon="30.0234829285"><ele>69.281</ele><time>2026-04-20T21:38:12.002Z</time></trkpt>
   <trkpt lat="59.1007969922" lon="30.0232609757"><ele>70.043</ele><time>2026-04-20T21:39:27.999Z</time></trkpt>
   <trkpt lat="59.1010819769" lon="30.0231599737"><ele>68.945</ele><time>2026-04-20T21:41:11.999Z</time></trkpt>
   <trkpt lat="59.1011329808" lon="30.0230059982"><ele>67.787</ele><time>2026-04-20T21:42:19.996Z</time></trkpt>
   <trkpt lat="59.1010789594" lon="30.0227449857"><ele>70.957</ele><time>2026-04-20T21:45:20.002Z</time></trkpt>
   <trkpt lat="59.1009939669" lon="30.0226349313"><ele>66.446</ele><time>2026-04-20T21:46:12.999Z</time></trkpt>
   <trkpt lat="59.1009769935" lon="30.0221839849"><ele>65.714</ele><time>2026-04-20T21:47:16.996Z</time></trkpt>
   <trkpt lat="59.100923978" lon="30.0219899439"><ele>66.476</ele><time>2026-04-20T21:47:55.997Z</time></trkpt>
   <trkpt lat="59.1009199966" lon="30.0217779655"><ele>70.317</ele><time>2026-04-20T21:48:37.996Z</time></trkpt>
   <trkpt lat="59.1008419611" lon="30.0212969281"><ele>79.979</ele><time>2026-04-20T21:50:53.998Z</time></trkpt>
   <trkpt lat="59.1007699605" lon="30.0213539251"><ele>63.947</ele><time>2026-04-20T21:51:53.001Z</time></trkpt>
   <trkpt lat="59.1008159772" lon="30.0210299645"><ele>70.073</ele><time>2026-04-20T21:54:45.999Z</time></trkpt>
   <trkpt lat="59.1007209683" lon="30.0208519329"><ele>67.513</ele><time>2026-04-20T21:56:32.997Z</time></trkpt>
   <trkpt lat="59.1006629655" lon="30.0207519368"><ele>66.964</ele><time>2026-04-20T21:56:54.001Z</time></trkpt>
   <trkpt lat="59.1006229839" lon="30.0203119707"><ele>69.433</ele><time>2026-04-20T21:59:14.997Z</time></trkpt>
   <trkpt lat="59.1006089861" lon="30.0201499485"><ele>65.592</ele><time>2026-04-20T21:59:36.001Z</time></trkpt>
   <trkpt lat="59.1005459961" lon="30.0200359546"><ele>62.971</ele><time>2026-04-20T21:59:59.001Z</time></trkpt>
   <trkpt lat="59.1005459961" lon="30.0198259879"><ele>67.33</ele><time>2026-04-20T22:00:19.002Z</time></trkpt>
   <trkpt lat="59.1004869875" lon="30.0195449427"><ele>69.433</ele><time>2026-04-20T22:01:13.996Z</time></trkpt>
  </trkseg>
  <trkseg>
   <trkpt lat="59.1004529989" lon="30.0195339624"><ele>94.792</ele><time>2026-04-20T22:04:43.792Z</time></trkpt>
   <trkpt lat="59.100250995" lon="30.0187279586"><ele>94.518</ele><time>2026-04-20T22:07:31.642Z</time></trkpt>
   <trkpt lat="59.1001019648" lon="30.0178759382"><ele>93.725</ele><time>2026-04-20T22:13:42.790Z</time></trkpt>
   <trkpt lat="59.0999519706" lon="30.0170229957"><ele>92.933</ele><time>2026-04-20T22:15:16.465Z</time></trkpt>
   <trkpt lat="59.1002929883" lon="30.0164169841"><ele>91.165</ele><time>2026-04-20T22:19:45.791Z</time></trkpt>
   <trkpt lat="59.1006629655" lon="30.0158819672"><ele>91.318</ele><time>2026-04-20T22:21:49.887Z</time></trkpt>
   <trkpt lat="59.1006929727" lon="30.0167809263"><ele>93.055</ele><time>2026-04-20T22:27:52.793Z</time></trkpt>
   <trkpt lat="59.1009269955" lon="30.0175479543"><ele>93.207</ele><time>2026-04-20T22:29:49.399Z</time></trkpt>
   <trkpt lat="59.1009619899" lon="30.0184499309"><ele>93.085</ele><time>2026-04-20T22:33:48.779Z</time></trkpt>
   <trkpt lat="59.1010829827" lon="30.0193129316"><ele>93.238</ele><time>2026-04-20T22:35:09.796Z</time></trkpt>
   <trkpt lat="59.1011019677" lon="30.0202099629"><ele>93.847</ele><time>2026-04-20T22:38:51.455Z</time></trkpt>
   <trkpt lat="59.1012729585" lon="30.0210479856"><ele>93.969</ele><time>2026-04-20T22:40:49.572Z</time></trkpt>
   <trkpt lat="59.101564984" lon="30.021736978"><ele>93.604</ele><time>2026-04-20T22:45:23.797Z</time></trkpt>
   <trkpt lat="59.1015539618" lon="30.0226339255"><ele>93.207</ele><time>2026-04-20T22:48:10.800Z</time></trkpt>
   <trkpt lat="59.101671979" lon="30.0217619561"><ele>92.75</ele><time>2026-04-20T22:54:51.800Z</time></trkpt>
   <trkpt lat="59.1020829857" lon="30.0213529192"><ele>92.019</ele><time>2026-04-20T23:03:23.797Z</time></trkpt>
   <trkpt lat="59.1021269907" lon="30.0204589893"><ele>91.379</ele><time>2026-04-20T23:14:38.797Z</time></trkpt>
   <trkpt lat="59.1020689879" lon="30.0195729383"><ele>91.439</ele><time>2026-04-20T23:16:28.802Z</time></trkpt>
   <trkpt lat="59.1019609871" lon="30.0187039864"><ele>91.226</ele><time>2026-04-20T23:20:45.799Z</time></trkpt>
   <trkpt lat="59.1018219732" lon="30.0178519659"><ele>91.927</ele><time>2026-04-20T23:23:12.480Z</time></trkpt>
   <trkpt lat="59.1018349651" lon="30.0169449602"><ele>91.927</ele><time>2026-04-20T23:30:33.552Z</time></trkpt>
   <trkpt lat="59.101671979" lon="30.0161019922"><ele>91.683</ele><time>2026-04-20T23:32:47.351Z</time></trkpt>
   <trkpt lat="59.1017739868" lon="30.0152239878"><ele>91.5</ele><time>2026-04-20T23:36:58.801Z</time></trkpt>
   <trkpt lat="59.1022199879" lon="30.0149689265"><ele>91.379</ele><time>2026-04-20T23:38:49.808Z</time></trkpt>
   <trkpt lat="59.1021399826" lon="30.0158529658"><ele>91.714</ele><time>2026-04-20T23:45:01.803Z</time></trkpt>
   <trkpt lat="59.1024289906" lon="30.0165459816"><ele>91.348</ele><time>2026-04-20T23:47:20.803Z</time></trkpt>
   <trkpt lat="59.1024949981" lon="30.0174289313"><ele>90.586</ele><time>2026-04-20T23:50:37.804Z</time></trkpt>
   <trkpt lat="59.1025089959" lon="30.0183219392"><ele>91.287</ele><time>2026-04-20T23:53:21.808Z</time></trkpt>
   <trkpt lat="59.1026759634" lon="30.0191529211"><ele>90.83</ele><time>2026-04-20T23:56:31.586Z</time></trkpt>
   <trkpt lat="59.1027529931" lon="30.020033943"><ele>90.952</ele><time>2026-04-20T23:57:57.226Z</time></trkpt>
   <trkpt lat="59.1027889934" lon="30.020938937"><ele>91.439</ele><time>2026-04-21T00:01:35.809Z</time></trkpt>
   <trkpt lat="59.1032009639" lon="30.0213409331"><ele>90.982</ele><time>2026-04-21T00:06:54.806Z</time></trkpt>
   <trkpt lat="59.1035149919" lon="30.0206819479"><ele>90.312</ele><time>2026-04-21T00:10:56.813Z</time></trkpt>
   <trkpt lat="59.1034409797" lon="30.0197899458"><ele>90.037</ele><time>2026-04-21T00:14:21.805Z</time></trkpt>
   <trkpt lat="59.1033629861" lon="30.0189079181"><ele>89.915</ele><time>2026-04-21T00:15:50.409Z</time></trkpt>
   <trkpt lat="59.1032989903" lon="30.0180159998"><ele>89.702</ele><time>2026-04-21T00:18:55.745Z</time></trkpt>
   <trkpt lat="59.1031469844" lon="30.0171619677"><ele>89.397</ele><time>2026-04-21T00:21:05.924Z</time></trkpt>
   <trkpt lat="59.103067985" lon="30.0162809458"><ele>89.794</ele><time>2026-04-21T00:24:50.815Z</time></trkpt>
   <trkpt lat="59.1029999659" lon="30.0153879378"><ele>89.824</ele><time>2026-04-21T00:26:45.813Z</time></trkpt>
   <trkpt lat="59.1028869778" lon="30.0145089277"><ele>90.251</ele><time>2026-04-21T00:28:47.810Z</time></trkpt>
   <trkpt lat="59.1028129656" lon="30.0136239663"><ele>90.312</ele><time>2026-04-21T00:32:56.815Z</time></trkpt>
   <trkpt lat="59.1026069803" lon="30.0128229917"><ele>90.312</ele><time>2026-04-21T00:35:17.820Z</time></trkpt>
   <trkpt lat="59.102300999" lon="30.0121569656"><ele>90.281</ele><time>2026-04-21T00:45:35.813Z</time></trkpt>
   <trkpt lat="59.101841964" lon="30.0122469873"><ele>90.403</ele><time>2026-04-21T00:47:50.813Z</time></trkpt>
   <trkpt lat="59.1014019979" lon="30.012538929"><ele>90.556</ele><time>2026-04-21T00:50:25.814Z</time></trkpt>
   <trkpt lat="59.1009569608" lon="30.0127849378"><ele>90.403</ele><time>2026-04-21T00:53:47.567Z</time></trkpt>
   <trkpt lat="59.1005019911" lon="30.0129399192"><ele>90.434</ele><time>2026-04-21T00:57:13.812Z</time></trkpt>
   <trkpt lat="59.1000419922" lon="30.0129429367"><ele>90.373</ele><time>2026-04-21T01:01:00.811Z</time></trkpt>
   <trkpt lat="59.0995919679" lon="30.0131269195"><ele>89.672</ele><time>2026-04-21T01:03:44.816Z</time></trkpt>
   <trkpt lat="59.0991329748" lon="30.0131889455"><ele>89.428</ele><time>2026-04-21T01:05:53.448Z</time></trkpt>
   <trkpt lat="59.0987059588" lon="30.0135369622"><ele>89.824</ele><time>2026-04-21T01:08:52.365Z</time></trkpt>
   <trkpt lat="59.0982409727" lon="30.01367694"><ele>89.885</ele><time>2026-04-21T01:11:22.692Z</time></trkpt>
   <trkpt lat="59.0977829855" lon="30.0137199391"><ele>89.946</ele><time>2026-04-21T01:14:18.292Z</time></trkpt>
   <trkpt lat="59.097320975" lon="30.0138179236"><ele>90.068</ele><time>2026-04-21T01:15:53.755Z</time></trkpt>
  </trkseg>
 </trk>
 <trk>
  <name>20260420_Lisa52</name>
  <desc>20260420_Lisa52</desc>
  <type>TrackStyle_2196F3C8</type>
  <extensions>
   <gom:time>2026-04-20T19:32:01.003Z</gom:time>
   <line xmlns="http://www.topografix.com/GPX/gpx_style/0/2">
    <color>2196F3</color>
   </line>
  </extensions>
  <trkseg>
   <trkpt lat="59.093654982" lon="29.9941049446"><ele>64.068</ele><time>2026-04-20T19:32:01.003Z</time></trkpt>
   <trkpt lat="59.0936819717" lon="29.9944619298"><ele>70.926</ele><time>2026-04-20T19:32:28.003Z</time></trkpt>
   <trkpt lat="59.0935939618" lon="29.9945099581"><ele>68.732</ele><time>2026-04-20T19:32:44.998Z</time></trkpt>
   <trkpt lat="59.0935539801" lon="29.9947489262"><ele>66.598</ele><time>2026-04-20T19:33:03.997Z</time></trkpt>
   <trkpt lat="59.0935529743" lon="29.994925952"><ele>66.446</ele><time>2026-04-20T19:33:19.999Z</time></trkpt>
   <trkpt lat="59.0934509665" lon="29.9947259598"><ele>75.072</ele><time>2026-04-20T19:36:19.996Z</time></trkpt>
   <trkpt lat="59.0933409959" lon="29.9945229501"><ele>74.584</ele><time>2026-04-20T19:37:17.003Z</time></trkpt>
   <trkpt lat="59.0931869785" lon="29.994535942"><ele>73.639</ele><time>2026-04-20T19:37:36.002Z</time></trkpt>
   <trkpt lat="59.0929369882" lon="29.9944059387"><ele>72.786</ele><time>2026-04-20T19:38:18.001Z</time></trkpt>
   <trkpt lat="59.0925939588" lon="29.9943119776"><ele>71.658</ele><time>2026-04-20T19:39:18.999Z</time></trkpt>
   <trkpt lat="59.0925249757" lon="29.9943819665"><ele>71.445</ele><time>2026-04-20T19:39:40.997Z</time></trkpt>
   <trkpt lat="59.0923959783" lon="29.994283982"><ele>69.646</ele><time>2026-04-20T19:42:40.000Z</time></trkpt>
   <trkpt lat="59.0921319902" lon="29.9945069407"><ele>70.774</ele><time>2026-04-20T19:44:06.003Z</time></trkpt>
   <trkpt lat="59.0921069702" lon="29.9943049368"><ele>70.012</ele><time>2026-04-20T19:44:29.003Z</time></trkpt>
   <trkpt lat="59.0920249952" lon="29.9942759354"><ele>70.378</ele><time>2026-04-20T19:45:08.997Z</time></trkpt>
   <trkpt lat="59.0919679983" lon="29.9946009856"><ele>71.749</ele><time>2026-04-20T19:45:54.996Z</time></trkpt>
   <trkpt lat="59.0918769708" lon="29.994717997"><ele>72.847</ele><time>2026-04-20T19:46:26.999Z</time></trkpt>
   <trkpt lat="59.0917159964" lon="29.9947099504"><ele>75.011</ele><time>2026-04-20T19:47:42.996Z</time></trkpt>
   <trkpt lat="59.0916659983" lon="29.9944559787"><ele>74.889</ele><time>2026-04-20T19:48:50.000Z</time></trkpt>
   <trkpt lat="59.0916369969" lon="29.9946059309"><ele>73.883</ele><time>2026-04-20T19:49:07.997Z</time></trkpt>
   <trkpt lat="59.09146697" lon="29.9948409595"><ele>77.175</ele><time>2026-04-20T19:50:51.996Z</time></trkpt>
   <trkpt lat="59.09152996" lon="29.9945749179"><ele>76.321</ele><time>2026-04-20T19:51:26.004Z</time></trkpt>
   <trkpt lat="59.0914599711" lon="29.9945399654"><ele>75.437</ele><time>2026-04-20T19:52:58.002Z</time></trkpt>
   <trkpt lat="59.09152996" lon="29.9945999798"><ele>77.663</ele><time>2026-04-20T19:53:59.001Z</time></trkpt>
   <trkpt lat="59.0914459733" lon="29.994460924"><ele>74.249</ele><time>2026-04-20T19:56:18.001Z</time></trkpt>
   <trkpt lat="59.0914459733" lon="29.9946209345"><ele>74.432</ele><time>2026-04-20T19:57:20.002Z</time></trkpt>
   <trkpt lat="59.09149199" lon="29.9948169873"><ele>80.528</ele><time>2026-04-20T19:58:11.004Z</time></trkpt>
   <trkpt lat="59.0914319756" lon="29.9949539476"><ele>81.046</ele><time>2026-04-20T19:58:34.997Z</time></trkpt>
   <trkpt lat="59.0912139623" lon="29.9944849801"><ele>77.175</ele><time>2026-04-20T19:59:59.997Z</time></trkpt>
   <trkpt lat="59.0912459811" lon="29.9942209501"><ele>76.047</ele><time>2026-04-20T20:00:41.003Z</time></trkpt>
   <trkpt lat="59.0911569653" lon="29.994032944"><ele>74.919</ele><time>2026-04-20T20:01:21.999Z</time></trkpt>
   <trkpt lat="59.091026962" lon="29.9941309285"><ele>74.523</ele><time>2026-04-20T20:02:03.998Z</time></trkpt>
   <trkpt lat="59.0908999762" lon="29.9942189385"><ele>75.072</ele><time>2026-04-20T20:02:42.999Z</time></trkpt>
   <trkpt lat="59.0908189651" lon="29.9941439204"><ele>75.407</ele><time>2026-04-20T20:03:01.999Z</time></trkpt>
   <trkpt lat="59.0905899715" lon="29.994089941"><ele>72.603</ele><time>2026-04-20T20:04:02.997Z</time></trkpt>
   <trkpt lat="59.0906319648" lon="29.9939629551"><ele>70.317</ele><time>2026-04-20T20:06:21.997Z</time></trkpt>
   <trkpt lat="59.0905399734" lon="29.9939879332"><ele>74.249</ele><time>2026-04-20T20:08:00.001Z</time></trkpt>
   <trkpt lat="59.0907009898" lon="29.994069992"><ele>76.596</ele><time>2026-04-20T20:09:48.001Z</time></trkpt>
   <trkpt lat="59.0904969743" lon="29.9941019271"><ele>76.382</ele><time>2026-04-20T20:11:29.996Z</time></trkpt>
   <trkpt lat="59.0903889734" lon="29.9938699998"><ele>77.906</ele><time>2026-04-20T20:12:51.998Z</time></trkpt>
   <trkpt lat="59.0902149651" lon="29.9938159366"><ele>78.12</ele><time>2026-04-20T20:13:33.997Z</time></trkpt>
   <trkpt lat="59.0901999615" lon="29.9936709296"><ele>78.943</ele><time>2026-04-20T20:13:53.999Z</time></trkpt>
   <trkpt lat="59.0901029829" lon="29.993824989"><ele>77.876</ele><time>2026-04-20T20:14:33.000Z</time></trkpt>
   <trkpt lat="59.0899839599" lon="29.9938789685"><ele>76.413</ele><time>2026-04-20T20:15:21.004Z</time></trkpt>
   <trkpt lat="59.0900909968" lon="29.9939309363"><ele>79.461</ele><time>2026-04-20T20:20:06.003Z</time></trkpt>
   <trkpt lat="59.090265969" lon="29.9942829762"><ele>76.809</ele><time>2026-04-20T20:21:28.999Z</time></trkpt>
   <trkpt lat="59.0903299648" lon="29.9944659532"><ele>77.022</ele><time>2026-04-20T20:21:55.999Z</time></trkpt>
   <trkpt lat="59.0903649593" lon="29.9948039953"><ele>78.607</ele><time>2026-04-20T20:22:55.001Z</time></trkpt>
   <trkpt lat="59.0899689982" lon="29.9948419653"><ele>75.651</ele><time>2026-04-20T20:24:02.998Z</time></trkpt>
   <trkpt lat="59.0898799824" lon="29.995020919"><ele>75.986</ele><time>2026-04-20T20:24:48.004Z</time></trkpt>
   <trkpt lat="59.089938991" lon="29.9951099348"><ele>75.559</ele><time>2026-04-20T20:25:11.004Z</time></trkpt>
   <trkpt lat="59.0900659768" lon="29.9951789178"><ele>78.577</ele><time>2026-04-20T20:26:20.996Z</time></trkpt>
   <trkpt lat="59.0899079779" lon="29.9953999486"><ele>76.382</ele><time>2026-04-20T20:27:14.996Z</time></trkpt>
   <trkpt lat="59.089655976" lon="29.9953899742"><ele>70.286</ele><time>2026-04-20T20:29:21.002Z</time></trkpt>
   <trkpt lat="59.0897229893" lon="29.9954839353"><ele>75.895</ele><time>2026-04-20T20:32:08.998Z</time></trkpt>
   <trkpt lat="59.089561973" lon="29.9955699336"><ele>75.529</ele><time>2026-04-20T20:32:39.998Z</time></trkpt>
   <trkpt lat="59.0894009985" lon="29.9952549417"><ele>75.194</ele><time>2026-04-20T20:33:36.996Z</time></trkpt>
   <trkpt lat="59.0894599652" lon="29.9951319792"><ele>76.504</ele><time>2026-04-20T20:34:11.997Z</time></trkpt>
   <trkpt lat="59.0893709913" lon="29.9950969428"><ele>77.175</ele><time>2026-04-20T20:34:33.001Z</time></trkpt>
   <trkpt lat="59.0892799638" lon="29.99521496"><ele>76.565</ele><time>2026-04-20T20:34:58.999Z</time></trkpt>
   <trkpt lat="59.0891169777" lon="29.9953009583"><ele>74.95</ele><time>2026-04-20T20:35:50.001Z</time></trkpt>
   <trkpt lat="59.0889619963" lon="29.9956879508"><ele>75.072</ele><time>2026-04-20T20:37:16.003Z</time></trkpt>
   <trkpt lat="59.0888119603" lon="29.9957939819"><ele>75.559</ele><time>2026-04-20T20:38:10.997Z</time></trkpt>
   <trkpt lat="59.0888019858" lon="29.9954149522"><ele>78.089</ele><time>2026-04-20T20:39:19.996Z</time></trkpt>
   <trkpt lat="59.0888049614" lon="29.9952399381"><ele>78.242</ele><time>2026-04-20T20:41:19.003Z</time></trkpt>
   <trkpt lat="59.0888409617" lon="29.9953629844"><ele>80.07</ele><time>2026-04-20T20:42:17.997Z</time></trkpt>
   <trkpt lat="59.0886269717" lon="29.9950279598"><ele>79.888</ele><time>2026-04-20T20:44:00.001Z</time></trkpt>
   <trkpt lat="59.0885409733" lon="29.9948159814"><ele>77.602</ele><time>2026-04-20T20:45:07.004Z</time></trkpt>
   <trkpt lat="59.0886179611" lon="29.9946849723"><ele>77.998</ele><time>2026-04-20T20:45:30.997Z</time></trkpt>
   <trkpt lat="59.088448982" lon="29.9944919371"><ele>76.443</ele><time>2026-04-20T20:46:15.001Z</time></trkpt>
   <trkpt lat="59.0883339822" lon="29.9942549807"><ele>75.895</ele><time>2026-04-20T20:47:36.001Z</time></trkpt>
   <trkpt lat="59.0882269873" lon="29.9941389751"><ele>78.607</ele><time>2026-04-20T20:49:36.002Z</time></trkpt>
   <trkpt lat="59.088121962" lon="29.9938639649"><ele>77.022</ele><time>2026-04-20T20:50:49.001Z</time></trkpt>
   <trkpt lat="59.0882829784" lon="29.9938559182"><ele>76.504</ele><time>2026-04-20T20:52:45.002Z</time></trkpt>
   <trkpt lat="59.0881899811" lon="29.9938839976"><ele>76.199</ele><time>2026-04-20T20:53:12.002Z</time></trkpt>
   <trkpt lat="59.0881799648" lon="29.9937429302"><ele>76.26</ele><time>2026-04-20T20:54:18.996Z</time></trkpt>
   <trkpt lat="59.0880869676" lon="29.9937309441"><ele>78.028</ele><time>2026-04-20T20:56:51.000Z</time></trkpt>
   <trkpt lat="59.0881149631" lon="29.9935929779"><ele>79.918</ele><time>2026-04-20T20:57:16.998Z</time></trkpt>
   <trkpt lat="59.0881769892" lon="29.9936979194"><ele>78.638</ele><time>2026-04-20T20:58:17.003Z</time></trkpt>
   <trkpt lat="59.0880229717" lon="29.9937589396"><ele>79.766</ele><time>2026-04-20T20:59:37.000Z</time></trkpt>
   <trkpt lat="59.0880299706" lon="29.9934679199"><ele>79.705</ele><time>2026-04-20T21:00:18.999Z</time></trkpt>
   <trkpt lat="59.0881019712" lon="29.9932199832"><ele>89.367</ele><time>2026-04-20T21:02:27.001Z</time></trkpt>
   <trkpt lat="59.0879259931" lon="29.9930019699"><ele>85.252</ele><time>2026-04-20T21:04:01.004Z</time></trkpt>
   <trkpt lat="59.0877749931" lon="29.9930679355"><ele>85.587</ele><time>2026-04-20T21:05:15.999Z</time></trkpt>
   <trkpt lat="59.0876659865" lon="29.9930309713"><ele>85.13</ele><time>2026-04-20T21:05:38.999Z</time></trkpt>
   <trkpt lat="59.0875649845" lon="29.9929339927"><ele>84.216</ele><time>2026-04-20T21:06:23.003Z</time></trkpt>
   <trkpt lat="59.0872999907" lon="29.9927929253"><ele>83.149</ele><time>2026-04-20T21:07:39.000Z</time></trkpt>
   <trkpt lat="59.0871829793" lon="29.9927499261"><ele>80.985</ele><time>2026-04-20T21:08:53.002Z</time></trkpt>
   <trkpt lat="59.0871449674" lon="29.992869955"><ele>79.979</ele><time>2026-04-20T21:09:16.001Z</time></trkpt>
   <trkpt lat="59.0868649699" lon="29.9929559533"><ele>80.101</ele><time>2026-04-20T21:10:26.996Z</time></trkpt>
   <trkpt lat="59.0867189991" lon="29.993076988"><ele>80.558</ele><time>2026-04-20T21:11:24.003Z</time></trkpt>
   <trkpt lat="59.0865389977" lon="29.9929739744"><ele>79.949</ele><time>2026-04-20T21:12:09.000Z</time></trkpt>
   <trkpt lat="59.0864679611" lon="29.9928409536"><ele>80.436</ele><time>2026-04-20T21:13:00.002Z</time></trkpt>
   <trkpt lat="59.08632396" lon="29.99273794"><ele>80.771</ele><time>2026-04-20T21:13:40.999Z</time></trkpt>
   <trkpt lat="59.0861109758" lon="29.9928059172"><ele>79.43</ele><time>2026-04-20T21:14:30.998Z</time></trkpt>
   <trkpt lat="59.0859689864" lon="29.9927579727"><ele>88.544</ele><time>2026-04-20T21:16:05.002Z</time></trkpt>
   <trkpt lat="59.0860459741" lon="29.9928899877"><ele>88.666</ele><time>2026-04-20T21:16:30.999Z</time></trkpt>
   <trkpt lat="59.0861419888" lon="29.9928579688"><ele>88.087</ele><time>2026-04-20T21:17:03.002Z</time></trkpt>
   <trkpt lat="59.0859109836" lon="29.9925819528"><ele>87.264</ele><time>2026-04-20T21:18:14.999Z</time></trkpt>
   <trkpt lat="59.0859629933" lon="29.9927269597"><ele>85.191</ele><time>2026-04-20T21:18:36.996Z</time></trkpt>
   <trkpt lat="59.0858869694" lon="29.9927119561"><ele>81.96</ele><time>2026-04-20T21:19:04.999Z</time></trkpt>
   <trkpt lat="59.0860079622" lon="29.9926239461"><ele>82.417</ele><time>2026-04-20T21:20:15.000Z</time></trkpt>
   <trkpt lat="59.0859339919" lon="29.9926029914"><ele>82.509</ele><time>2026-04-20T21:20:43.996Z</time></trkpt>
   <trkpt lat="59.0860129913" lon="29.9926769197"><ele>82.113</ele><time>2026-04-20T21:21:23.999Z</time></trkpt>
   <trkpt lat="59.0859349977" lon="29.9926719744"><ele>84.185</ele><time>2026-04-20T21:22:19.001Z</time></trkpt>
   <trkpt lat="59.0858459819" lon="29.9926039972"><ele>83.393</ele><time>2026-04-20T21:22:43.997Z</time></trkpt>
   <trkpt lat="59.0856739853" lon="29.9927109503"><ele>86.105</ele><time>2026-04-20T21:23:32.001Z</time></trkpt>
   <trkpt lat="59.0859569583" lon="29.993083945"><ele>91.165</ele><time>2026-04-20T21:25:53.999Z</time></trkpt>
   <trkpt lat="59.0859669747" lon="29.9932239227"><ele>90.098</ele><time>2026-04-20T21:26:16.999Z</time></trkpt>
   <trkpt lat="59.0860589661" lon="29.9935139366"><ele>90.921</ele><time>2026-04-20T21:26:53.002Z</time></trkpt>
   <trkpt lat="59.0860379694" lon="29.9940479476"><ele>91.805</ele><time>2026-04-20T21:28:19.004Z</time></trkpt>
   <trkpt lat="59.0859569583" lon="29.9939449341"><ele>89.672</ele><time>2026-04-20T21:31:28.004Z</time></trkpt>
   <trkpt lat="59.0860479858" lon="29.9938879371"><ele>90.921</ele><time>2026-04-20T21:31:55.998Z</time></trkpt>
   <trkpt lat="59.0859749794" lon="29.9937779665"><ele>86.502</ele><time>2026-04-20T21:33:26.001Z</time></trkpt>
   <trkpt lat="59.0860649591" lon="29.9937179521"><ele>86.045</ele><time>2026-04-20T21:33:53.001Z</time></trkpt>
   <trkpt lat="59.0861179747" lon="29.9938529846"><ele>94.67</ele><time>2026-04-20T21:34:47.001Z</time></trkpt>
   <trkpt lat="59.0860299647" lon="29.9938729335"><ele>90.159</ele><time>2026-04-20T21:37:50.998Z</time></trkpt>
   <trkpt lat="59.0862619758" lon="29.9939309363"><ele>87.599</ele><time>2026-04-20T21:38:38.000Z</time></trkpt>
   <trkpt lat="59.0863489799" lon="29.9940349557"><ele>87.111</ele><time>2026-04-20T21:38:58.001Z</time></trkpt>
   <trkpt lat="59.0864599982" lon="29.993963961"><ele>95.158</ele><time>2026-04-20T21:39:59.000Z</time></trkpt>
   <trkpt lat="59.086580991" lon="29.9939919565"><ele>94.457</ele><time>2026-04-20T21:40:31.002Z</time></trkpt>
   <trkpt lat="59.0866989663" lon="29.9942279909"><ele>94.183</ele><time>2026-04-20T21:41:22.998Z</time></trkpt>
   <trkpt lat="59.0867879821" lon="29.9945219443"><ele>93.543</ele><time>2026-04-20T21:42:23.003Z</time></trkpt>
   <trkpt lat="59.0868379802" lon="29.9949049972"><ele>94.823</ele><time>2026-04-20T21:43:16.000Z</time></trkpt>
   <trkpt lat="59.0869609846" lon="29.9950089328"><ele>94.67</ele><time>2026-04-20T21:43:55.001Z</time></trkpt>
   <trkpt lat="59.0870119885" lon="29.9952179775"><ele>94.853</ele><time>2026-04-20T21:44:38.996Z</time></trkpt>
   <trkpt lat="59.0869249843" lon="29.9952479847"><ele>96.316</ele><time>2026-04-20T21:46:03.003Z</time></trkpt>
   <trkpt lat="59.0870349968" lon="29.995220995"><ele>99.395</ele><time>2026-04-20T21:46:54.998Z</time></trkpt>
   <trkpt lat="59.0869469868" lon="29.9951719609"><ele>96.834</ele><time>2026-04-20T21:47:24.003Z</time></trkpt>
   <trkpt lat="59.0870359607" lon="29.9951729667"><ele>93.39</ele><time>2026-04-20T21:49:42.001Z</time></trkpt>
   <trkpt lat="59.0871189835" lon="29.995051932"><ele>99.12</ele><time>2026-04-20T21:52:26.999Z</time></trkpt>
   <trkpt lat="59.0870509643" lon="29.9951819353"><ele>100.34</ele><time>2026-04-20T21:53:34.996Z</time></trkpt>
   <trkpt lat="59.0871579593" lon="29.9950299714"><ele>97.078</ele><time>2026-04-20T21:56:15.000Z</time></trkpt>
   <trkpt lat="59.0870869646" lon="29.995095937"><ele>97.535</ele><time>2026-04-20T21:58:16.997Z</time></trkpt>
   <trkpt lat="59.0870149641" lon="29.9949439731"><ele>96.682</ele><time>2026-04-20T21:59:47.000Z</time></trkpt>
   <trkpt lat="59.087083989" lon="29.995013962"><ele>101.376</ele><time>2026-04-20T22:01:02.997Z</time></trkpt>
   <trkpt lat="59.0870189874" lon="29.9951989506"><ele>97.17</ele><time>2026-04-20T22:02:37.000Z</time></trkpt>
   <trkpt lat="59.0871189835" lon="29.9951719609"><ele>98.602</ele><time>2026-04-20T22:03:28.002Z</time></trkpt>
   <trkpt lat="59.0873129826" lon="29.9954999447"><ele>96.956</ele><time>2026-04-20T22:05:16.002Z</time></trkpt>
   <trkpt lat="59.087171999" lon="29.9961759452"><ele>92.72</ele><time>2026-04-20T22:06:53.997Z</time></trkpt>
   <trkpt lat="59.0870279979" lon="29.9962739297"><ele>88.361</ele><time>2026-04-20T22:07:43.003Z</time></trkpt>
   <trkpt lat="59.0868859666" lon="29.9965589982"><ele>84.978</ele><time>2026-04-20T22:08:29.003Z</time></trkpt>
   <trkpt lat="59.0867829949" lon="29.9965699785"><ele>86.227</ele><time>2026-04-20T22:08:55.000Z</time></trkpt>
   <trkpt lat="59.086549978" lon="29.9968229443"><ele>84.856</ele><time>2026-04-20T22:10:20.001Z</time></trkpt>
   <trkpt lat="59.0865539594" lon="29.9969709687"><ele>88.879</ele><time>2026-04-20T22:10:47.001Z</time></trkpt>
   <trkpt lat="59.0865289813" lon="29.9966949527"><ele>84.947</ele><time>2026-04-20T22:12:01.996Z</time></trkpt>
   <trkpt lat="59.0863319647" lon="29.9964499496"><ele>83.545</ele><time>2026-04-20T22:13:07.003Z</time></trkpt>
   <trkpt lat="59.0863969663" lon="29.9963189405"><ele>84.124</ele><time>2026-04-20T22:13:38.004Z</time></trkpt>
   <trkpt lat="59.0863219902" lon="29.9962459341"><ele>85.618</ele><time>2026-04-20T22:15:14.996Z</time></trkpt>
   <trkpt lat="59.0862959644" lon="29.9964219541"><ele>89.885</ele><time>2026-04-20T22:16:15.001Z</time></trkpt>
   <trkpt lat="59.0863489799" lon="29.9959359713"><ele>88.239</ele><time>2026-04-20T22:17:20.000Z</time></trkpt>
   <trkpt lat="59.0861719961" lon="29.9957429361"><ele>87.782</ele><time>2026-04-20T22:18:32.999Z</time></trkpt>
   <trkpt lat="59.0861559866" lon="29.9955789861"><ele>88.849</ele><time>2026-04-20T22:18:55.999Z</time></trkpt>
   <trkpt lat="59.0861059886" lon="29.9954759725"><ele>88.026</ele><time>2026-04-20T22:19:57.999Z</time></trkpt>
   <trkpt lat="59.0862399733" lon="29.9955089972"><ele>93.268</ele><time>2026-04-20T22:20:43.999Z</time></trkpt>
   <trkpt lat="59.0861679727" lon="29.9956589494"><ele>90.617</ele><time>2026-04-20T22:22:19.998Z</time></trkpt>
   <trkpt lat="59.0861469761" lon="29.9954399303"><ele>91.775</ele><time>2026-04-20T22:23:20.003Z</time></trkpt>
   <trkpt lat="59.0861419888" lon="29.9956009467"><ele>90.281</ele><time>2026-04-20T22:24:18.003Z</time></trkpt>
   <trkpt lat="59.0860039808" lon="29.9953659181"><ele>90.403</ele><time>2026-04-20T22:24:49.997Z</time></trkpt>
   <trkpt lat="59.0859079661" lon="29.99542895"><ele>90.251</ele><time>2026-04-20T22:25:30.000Z</time></trkpt>
   <trkpt lat="59.0858759891" lon="29.9952919897"><ele>86.258</ele><time>2026-04-20T22:26:41.997Z</time></trkpt>
   <trkpt lat="59.0857219717" lon="29.9954379186"><ele>86.532</ele><time>2026-04-20T22:27:31.997Z</time></trkpt>
   <trkpt lat="59.0856339617" lon="29.9953519203"><ele>85.953</ele><time>2026-04-20T22:27:58.003Z</time></trkpt>
   <trkpt lat="59.0856149767" lon="29.9951889761"><ele>86.014</ele><time>2026-04-20T22:28:24.001Z</time></trkpt>
   <trkpt lat="59.0856999692" lon="29.9950169795"><ele>84.947</ele><time>2026-04-20T22:28:48.003Z</time></trkpt>
   <trkpt lat="59.0856639689" lon="29.9948349245"><ele>89.306</ele><time>2026-04-20T22:29:38.996Z</time></trkpt>
   <trkpt lat="59.0855739892" lon="29.9949089367"><ele>87.751</ele><time>2026-04-20T22:30:18.999Z</time></trkpt>
   <trkpt lat="59.0855069759" lon="29.9947469984"><ele>87.812</ele><time>2026-04-20T22:30:52.004Z</time></trkpt>
   <trkpt lat="59.0856179942" lon="29.9943739199"><ele>87.294</ele><time>2026-04-20T22:31:27.998Z</time></trkpt>
   <trkpt lat="59.0856299803" lon="29.9942139931"><ele>87.203</ele><time>2026-04-20T22:32:29.999Z</time></trkpt>
   <trkpt lat="59.0855869811" lon="29.9943439965"><ele>89.519</ele><time>2026-04-20T22:33:30.997Z</time></trkpt>
   <trkpt lat="59.0854549661" lon="29.9942549807"><ele>90.769</ele><time>2026-04-20T22:35:06.003Z</time></trkpt>
   <trkpt lat="59.0853919761" lon="29.9941119854"><ele>88.727</ele><time>2026-04-20T22:35:37.003Z</time></trkpt>
   <trkpt lat="59.0853769725" lon="29.9938929663"><ele>87.904</ele><time>2026-04-20T22:36:04.997Z</time></trkpt>
   <trkpt lat="59.0852349831" lon="29.9937079776"><ele>87.782</ele><time>2026-04-20T22:36:32.999Z</time></trkpt>
   <trkpt lat="59.0850979809" lon="29.993699931"><ele>86.349</ele><time>2026-04-20T22:37:49.999Z</time></trkpt>
   <trkpt lat="59.0851969712" lon="29.9934979272"><ele>87.172</ele><time>2026-04-20T22:38:20.999Z</time></trkpt>
   <trkpt lat="59.0850819715" lon="29.9936759588"><ele>86.288</ele><time>2026-04-20T22:39:02.998Z</time></trkpt>
   <trkpt lat="59.0849319773" lon="29.993705966"><ele>84.978</ele><time>2026-04-20T22:39:54.000Z</time></trkpt>
   <trkpt lat="59.0847799715" lon="29.9938159366"><ele>87.142</ele><time>2026-04-20T22:40:54.998Z</time></trkpt>
   <trkpt lat="59.0847379781" lon="29.9937019427"><ele>93.573</ele><time>2026-04-20T22:41:32.004Z</time></trkpt>
   <trkpt lat="59.0846879801" lon="29.9935649824"><ele>92.445</ele><time>2026-04-20T22:41:51.996Z</time></trkpt>
   <trkpt lat="59.0845569709" lon="29.9934079893"><ele>89.275</ele><time>2026-04-20T22:42:34.004Z</time></trkpt>
   <trkpt lat="59.0845019857" lon="29.9931809236"><ele>85.679</ele><time>2026-04-20T22:43:17.999Z</time></trkpt>
   <trkpt lat="59.0843759637" lon="29.9930459749"><ele>82.052</ele><time>2026-04-20T22:44:06.003Z</time></trkpt>
   <trkpt lat="59.0844469585" lon="29.9928299733"><ele>87.142</ele><time>2026-04-20T22:44:41.997Z</time></trkpt>
   <trkpt lat="59.0843519915" lon="29.9927679472"><ele>88.605</ele><time>2026-04-20T22:45:39.997Z</time></trkpt>
   <trkpt lat="59.0844629679" lon="29.99278798"><ele>81.412</ele><time>2026-04-20T22:47:15.996Z</time></trkpt>
   <trkpt lat="59.0844889937" lon="29.99243594"><ele>78.973</ele><time>2026-04-20T22:50:32.004Z</time></trkpt>
   <trkpt lat="59.0845109962" lon="29.9926749919"><ele>79.766</ele><time>2026-04-20T22:50:46.000Z</time></trkpt>
   <trkpt lat="59.0844359782" lon="29.9929569591"><ele>79.979</ele><time>2026-04-20T22:51:46.999Z</time></trkpt>
   <trkpt lat="59.0843829626" lon="29.9928049952"><ele>79.705</ele><time>2026-04-20T22:52:12.996Z</time></trkpt>
   <trkpt lat="59.084235986" lon="29.9926769197"><ele>79.126</ele><time>2026-04-20T22:53:11.999Z</time></trkpt>
   <trkpt lat="59.0842449965" lon="29.9924349342"><ele>80.436</ele><time>2026-04-20T22:53:45.997Z</time></trkpt>
   <trkpt lat="59.0841549749" lon="29.9923109658"><ele>79.613</ele><time>2026-04-20T22:54:35.004Z</time></trkpt>
   <trkpt lat="59.0840879616" lon="29.9922289908"><ele>78.851</ele><time>2026-04-20T22:55:12.000Z</time></trkpt>
   <trkpt lat="59.083996976" lon="29.9920729198"><ele>79.004</ele><time>2026-04-20T22:58:14.002Z</time></trkpt>
   <trkpt lat="59.0837169785" lon="29.9920219578"><ele>81.259</ele><time>2026-04-20T23:00:49.003Z</time></trkpt>
   <trkpt lat="59.0836599816" lon="29.9919059523"><ele>80.802</ele><time>2026-04-20T23:01:08.996Z</time></trkpt>
   <trkpt lat="59.0834629649" lon="29.9918259889"><ele>78.851</ele><time>2026-04-20T23:02:45.997Z</time></trkpt>
   <trkpt lat="59.0833129708" lon="29.9919959739"><ele>82.448</ele><time>2026-04-20T23:03:35.004Z</time></trkpt>
   <trkpt lat="59.0832409702" lon="29.9921109736"><ele>82.356</ele><time>2026-04-20T23:05:22.001Z</time></trkpt>
   <trkpt lat="59.0830949994" lon="29.9922869936"><ele>79.613</ele><time>2026-04-20T23:06:25.004Z</time></trkpt>
   <trkpt lat="59.0831259705" lon="29.9924309947"><ele>83.027</ele><time>2026-04-20T23:07:22.002Z</time></trkpt>
   <trkpt lat="59.0831979711" lon="29.99278798"><ele>83.332</ele><time>2026-04-20T23:10:59.998Z</time></trkpt>
   <trkpt lat="59.0833209755" lon="29.9930299655"><ele>80.893</ele><time>2026-04-20T23:12:23.003Z</time></trkpt>
   <trkpt lat="59.0835169863" lon="29.992975986"><ele>85.74</ele><time>2026-04-20T23:13:30.999Z</time></trkpt>
   <trkpt lat="59.0836659746" lon="29.9933299538"><ele>84.49</ele><time>2026-04-20T23:14:27.997Z</time></trkpt>
   <trkpt lat="59.0836849597" lon="29.9935199716"><ele>89.062</ele><time>2026-04-20T23:14:54.997Z</time></trkpt>
   <trkpt lat="59.0838069583" lon="29.9935539183"><ele>97.901</ele><time>2026-04-20T23:18:34.004Z</time></trkpt>
   <trkpt lat="59.0839739677" lon="29.9938599416"><ele>94.244</ele><time>2026-04-20T23:19:42.001Z</time></trkpt>
   <trkpt lat="59.0841739599" lon="29.9940249812"><ele>90.586</ele><time>2026-04-20T23:20:45.004Z</time></trkpt>
   <trkpt lat="59.0842969643" lon="29.9945129756"><ele>88.757</ele><time>2026-04-20T23:21:54.003Z</time></trkpt>
   <trkpt lat="59.0844269676" lon="29.9947619182"><ele>88.087</ele><time>2026-04-20T23:22:41.998Z</time></trkpt>
   <trkpt lat="59.084361966" lon="29.9946139776"><ele>85.222</ele><time>2026-04-20T23:25:17.000Z</time></trkpt>
   <trkpt lat="59.0843859801" lon="29.9947639298"><ele>88.026</ele><time>2026-04-20T23:26:16.996Z</time></trkpt>
   <trkpt lat="59.0844779715" lon="29.9947889917"><ele>90.86</ele><time>2026-04-20T23:28:04.002Z</time></trkpt>
   <trkpt lat="59.0844589865" lon="29.9949439731"><ele>91.318</ele><time>2026-04-20T23:28:34.000Z</time></trkpt>
   <trkpt lat="59.0845649757" lon="29.995082945"><ele>91.043</ele><time>2026-04-20T23:29:01.000Z</time></trkpt>
   <trkpt lat="59.0846479984" lon="29.9950509262"><ele>90.22</ele><time>2026-04-20T23:29:21.002Z</time></trkpt>
   <trkpt lat="59.0848179834" lon="29.9952139542"><ele>87.599</ele><time>2026-04-20T23:30:04.003Z</time></trkpt>
   <trkpt lat="59.0849039817" lon="29.9953799997"><ele>86.38</ele><time>2026-04-20T23:30:41.000Z</time></trkpt>
   <trkpt lat="59.0850329792" lon="29.9954579514"><ele>84.856</ele><time>2026-04-20T23:31:30.999Z</time></trkpt>
   <trkpt lat="59.0851919839" lon="29.9957489711"><ele>86.227</ele><time>2026-04-20T23:33:17.004Z</time></trkpt>
   <trkpt lat="59.0854319997" lon="29.9956609611"><ele>83.911</ele><time>2026-04-20T23:37:24.004Z</time></trkpt>
   <trkpt lat="59.085398975" lon="29.9962159269"><ele>80.985</ele><time>2026-04-20T23:38:37.997Z</time></trkpt>
   <trkpt lat="59.0854859792" lon="29.996239983"><ele>78.973</ele><time>2026-04-20T23:39:19.996Z</time></trkpt>
   <trkpt lat="59.0855419703" lon="29.9963739258"><ele>81.655</ele><time>2026-04-20T23:39:39.997Z</time></trkpt>
   <trkpt lat="59.0855419703" lon="29.9966129777"><ele>79.461</ele><time>2026-04-20T23:40:13.002Z</time></trkpt>
   <trkpt lat="59.0857069681" lon="29.9968109582"><ele>80.284</ele><time>2026-04-20T23:41:38.003Z</time></trkpt>
   <trkpt lat="59.0857219717" lon="29.9970229365"><ele>78.089</ele><time>2026-04-20T23:42:16.001Z</time></trkpt>
   <trkpt lat="59.085914965" lon="29.9970229365"><ele>85.618</ele><time>2026-04-20T23:48:46.996Z</time></trkpt>
   <trkpt lat="59.0858739775" lon="29.9973029759"><ele>82.143</ele><time>2026-04-20T23:49:33.997Z</time></trkpt>
   <trkpt lat="59.0859679805" lon="29.9976729531"><ele>80.863</ele><time>2026-04-20T23:50:22.001Z</time></trkpt>
   <trkpt lat="59.0859639991" lon="29.9978429381"><ele>80.954</ele><time>2026-04-20T23:51:00.000Z</time></trkpt>
   <trkpt lat="59.0861329783" lon="29.9978479673"><ele>81.808</ele><time>2026-04-20T23:52:29.001Z</time></trkpt>
   <trkpt lat="59.0861619797" lon="29.9980939761"><ele>82.295</ele><time>2026-04-20T23:52:48.000Z</time></trkpt>
   <trkpt lat="59.0860409869" lon="29.9981239833"><ele>82.143</ele><time>2026-04-20T23:53:19.000Z</time></trkpt>
   <trkpt lat="59.0861609738" lon="29.9981029448"><ele>80.04</ele><time>2026-04-20T23:54:10.002Z</time></trkpt>
   <trkpt lat="59.0862529652" lon="29.9981829919"><ele>77.723</ele><time>2026-04-20T23:54:49.003Z</time></trkpt>
   <trkpt lat="59.0863389636" lon="29.9978139367"><ele>76.84</ele><time>2026-04-20T23:55:23.002Z</time></trkpt>
   <trkpt lat="59.0863899674" lon="29.9979889509"><ele>78.973</ele><time>2026-04-20T23:56:14.997Z</time></trkpt>
   <trkpt lat="59.0864059769" lon="29.9982979916"><ele>78.272</ele><time>2026-04-20T23:56:48.002Z</time></trkpt>
   <trkpt lat="59.0862969702" lon="29.9982399889"><ele>80.192</ele><time>2026-04-20T23:58:35.000Z</time></trkpt>
   <trkpt lat="59.0862329744" lon="29.9984129914"><ele>77.815</ele><time>2026-04-20T23:59:39.998Z</time></trkpt>
   <trkpt lat="59.0863959605" lon="29.9981539905"><ele>79.705</ele><time>2026-04-21T00:01:06.001Z</time></trkpt>
   <trkpt lat="59.0863749638" lon="29.9982999195"><ele>78.485</ele><time>2026-04-21T00:02:39.002Z</time></trkpt>
   <trkpt lat="59.0862889655" lon="29.998516927"><ele>76.961</ele><time>2026-04-21T00:03:11.998Z</time></trkpt>
   <trkpt lat="59.0863769755" lon="29.9982629553"><ele>76.291</ele><time>2026-04-21T00:04:46.001Z</time></trkpt>
   <trkpt lat="59.0863459625" lon="29.9980959878"><ele>78.15</ele><time>2026-04-21T00:05:45.997Z</time></trkpt>
   <trkpt lat="59.0865009858" lon="29.9983129953"><ele>77.022</ele><time>2026-04-21T00:06:31.997Z</time></trkpt>
   <trkpt lat="59.0866309891" lon="29.9983429186"><ele>78.699</ele><time>2026-04-21T00:06:50.996Z</time></trkpt>
   <trkpt lat="59.0868019799" lon="29.9981089797"><ele>82.204</ele><time>2026-04-21T00:07:45.998Z</time></trkpt>
   <trkpt lat="59.0869149679" lon="29.9984339461"><ele>78.699</ele><time>2026-04-21T00:08:26.002Z</time></trkpt>
   <trkpt lat="59.0869669777" lon="29.9986399733"><ele>76.626</ele><time>2026-04-21T00:09:16.001Z</time></trkpt>
   <trkpt lat="59.0871989887" lon="29.9987169192"><ele>78.028</ele><time>2026-04-21T00:10:17.000Z</time></trkpt>
   <trkpt lat="59.0872879626" lon="29.9986639455"><ele>77.663</ele><time>2026-04-21T00:10:48.000Z</time></trkpt>
   <trkpt lat="59.0873059837" lon="29.9990229425"><ele>74.371</ele><time>2026-04-21T00:12:10.996Z</time></trkpt>
   <trkpt lat="59.0872339832" lon="29.99906393"><ele>74.066</ele><time>2026-04-21T00:13:16.003Z</time></trkpt>
   <trkpt lat="59.0874009926" lon="29.9991039955"><ele>74.249</ele><time>2026-04-21T00:14:56.996Z</time></trkpt>
   <trkpt lat="59.0874349812" lon="29.9992289696"><ele>73.334</ele><time>2026-04-21T00:15:15.002Z</time></trkpt>
   <trkpt lat="59.0875259668" lon="29.9995299638"><ele>72.146</ele><time>2026-04-21T00:16:06.997Z</time></trkpt>
   <trkpt lat="59.0874859851" lon="29.9998089973"><ele>73.304</ele><time>2026-04-21T00:16:44.003Z</time></trkpt>
   <trkpt lat="59.087725959" lon="30.0005449284"><ele>74.401</ele><time>2026-04-21T00:19:39.999Z</time></trkpt>
   <trkpt lat="59.0876359793" lon="30.0006159231"><ele>72.816</ele><time>2026-04-21T00:20:01.003Z</time></trkpt>
   <trkpt lat="59.0876069779" lon="30.0007569906"><ele>72.572</ele><time>2026-04-21T00:20:20.996Z</time></trkpt>
   <trkpt lat="59.0876139768" lon="30.0012969528"><ele>73.761</ele><time>2026-04-21T00:21:32.000Z</time></trkpt>
   <trkpt lat="59.0876469596" lon="30.0016029761"><ele>72.298</ele><time>2026-04-21T00:22:55.998Z</time></trkpt>
   <trkpt lat="59.0877629651" lon="30.0016949255"><ele>73.121</ele><time>2026-04-21T00:23:34.999Z</time></trkpt>
   <trkpt lat="59.0878289726" lon="30.0017639924"><ele>74.797</ele><time>2026-04-21T00:24:49.000Z</time></trkpt>
   <trkpt lat="59.0878519809" lon="30.0016019702"><ele>76.474</ele><time>2026-04-21T00:25:40.996Z</time></trkpt>
   <trkpt lat="59.0879249873" lon="30.0015669339"><ele>77.998</ele><time>2026-04-21T00:26:27.004Z</time></trkpt>
   <trkpt lat="59.0880329881" lon="30.0015579652"><ele>85.008</ele><time>2026-04-21T00:30:18.003Z</time></trkpt>
   <trkpt lat="59.0879219698" lon="30.0015109428"><ele>81.686</ele><time>2026-04-21T00:32:07.999Z</time></trkpt>
   <trkpt lat="59.0880469859" lon="30.0015179836"><ele>80.954</ele><time>2026-04-21T00:32:57.998Z</time></trkpt>
   <trkpt lat="59.0881239737" lon="30.0015959353"><ele>80.832</ele><time>2026-04-21T00:33:31.003Z</time></trkpt>
   <trkpt lat="59.0882109778" lon="30.0017279502"><ele>80.04</ele><time>2026-04-21T00:34:25.003Z</time></trkpt>
   <trkpt lat="59.0882709922" lon="30.0015259464"><ele>77.693</ele><time>2026-04-21T00:35:37.000Z</time></trkpt>
   <trkpt lat="59.0884339784" lon="30.0013349228"><ele>79.187</ele><time>2026-04-21T00:37:08.999Z</time></trkpt>
   <trkpt lat="59.0887319969" lon="30.0013899919"><ele>77.632</ele><time>2026-04-21T00:38:24.996Z</time></trkpt>
   <trkpt lat="59.0888869783" lon="30.0014949333"><ele>82.417</ele><time>2026-04-21T00:39:42.998Z</time></trkpt>
   <trkpt lat="59.0890079711" lon="30.001445983"><ele>81.351</ele><time>2026-04-21T00:41:01.000Z</time></trkpt>
   <trkpt lat="59.0892369647" lon="30.0011499342"><ele>82.966</ele><time>2026-04-21T00:42:41.000Z</time></trkpt>
   <trkpt lat="59.0894709874" lon="30.0012239464"><ele>81.076</ele><time>2026-04-21T00:43:59.002Z</time></trkpt>
   <trkpt lat="59.0895979732" lon="30.0013869744"><ele>81.29</ele><time>2026-04-21T00:44:49.001Z</time></trkpt>
   <trkpt lat="59.0898649788" lon="30.0012879841"><ele>83.118</ele><time>2026-04-21T00:45:56.998Z</time></trkpt>
   <trkpt lat="59.0899509771" lon="30.0011559692"><ele>83.149</ele><time>2026-04-21T00:46:19.004Z</time></trkpt>
   <trkpt lat="59.0898529926" lon="30.0009979703"><ele>80.07</ele><time>2026-04-21T00:47:11.000Z</time></trkpt>
   <trkpt lat="59.0899409607" lon="30.0010919314"><ele>74.767</ele><time>2026-04-21T00:48:22.997Z</time></trkpt>
   <trkpt lat="59.0898619613" lon="30.0008999858"><ele>72.298</ele><time>2026-04-21T00:49:27.002Z</time></trkpt>
   <trkpt lat="59.0900829921" lon="30.0006279931"><ele>80.802</ele><time>2026-04-21T00:52:10.998Z</time></trkpt>
   <trkpt lat="59.0903899793" lon="30.0006579165"><ele>82.905</ele><time>2026-04-21T00:53:23.997Z</time></trkpt>
   <trkpt lat="59.0905819668" lon="30.0007199426"><ele>81.046</ele><time>2026-04-21T00:54:21.997Z</time></trkpt>
   <trkpt lat="59.0907269737" lon="30.0006019254"><ele>79.339</ele><time>2026-04-21T00:55:08.999Z</time></trkpt>
   <trkpt lat="59.0908139778" lon="30.0006949645"><ele>81.046</ele><time>2026-04-21T00:55:30.003Z</time></trkpt>
   <trkpt lat="59.090931995" lon="30.0005089701"><ele>86.045</ele><time>2026-04-21T00:56:59.997Z</time></trkpt>
   <trkpt lat="59.0908739923" lon="30.0004229717"><ele>86.989</ele><time>2026-04-21T00:57:34.998Z</time></trkpt>
   <trkpt lat="59.0909349706" lon="30.0005809706"><ele>86.075</ele><time>2026-04-21T00:58:55.998Z</time></trkpt>
   <trkpt lat="59.0909969967" lon="30.0005009234"><ele>87.172</ele><time>2026-04-21T01:00:46.996Z</time></trkpt>
   <trkpt lat="59.0910549995" lon="30.0004009273"><ele>86.38</ele><time>2026-04-21T01:01:06.004Z</time></trkpt>
   <trkpt lat="59.0913269922" lon="30.000012929"><ele>82.143</ele><time>2026-04-21T01:02:46.997Z</time></trkpt>
   <trkpt lat="59.0913709972" lon="29.9998219893"><ele>80.101</ele><time>2026-04-21T01:03:36.996Z</time></trkpt>
   <trkpt lat="59.0913179817" lon="29.9995769863"><ele>80.802</ele><time>2026-04-21T01:04:07.003Z</time></trkpt>
   <trkpt lat="59.0914129906" lon="29.9993319832"><ele>84.277</ele><time>2026-04-21T01:05:01.003Z</time></trkpt>
   <trkpt lat="59.0915119808" lon="29.9992329929"><ele>82.966</ele><time>2026-04-21T01:05:20.996Z</time></trkpt>
   <trkpt lat="59.0915519625" lon="29.999056973"><ele>80.497</ele><time>2026-04-21T01:05:55.003Z</time></trkpt>
   <trkpt lat="59.0915249728" lon="29.9989129719"><ele>80.04</ele><time>2026-04-21T01:06:22.003Z</time></trkpt>
   <trkpt lat="59.0915869989" lon="29.9987709824"><ele>80.07</ele><time>2026-04-21T01:06:41.003Z</time></trkpt>
   <trkpt lat="59.0918039644" lon="29.99854794"><ele>79.918</ele><time>2026-04-21T01:07:28.004Z</time></trkpt>
   <trkpt lat="59.0921139691" lon="29.9985389714"><ele>80.375</ele><time>2026-04-21T01:09:22.000Z</time></trkpt>
   <trkpt lat="59.0922039908" lon="29.9983319384"><ele>78.485</ele><time>2026-04-21T01:10:03.999Z</time></trkpt>
   <trkpt lat="59.092227963" lon="29.9981919606"><ele>78.059</ele><time>2026-04-21T01:10:26.999Z</time></trkpt>
   <trkpt lat="59.0923959783" lon="29.9980529886"><ele>77.937</ele><time>2026-04-21T01:11:00.997Z</time></trkpt>
   <trkpt lat="59.0923569605" lon="29.9978449498"><ele>77.144</ele><time>2026-04-21T01:11:29.000Z</time></trkpt>
   <trkpt lat="59.092422968" lon="29.9976389226"><ele>76.321</ele><time>2026-04-21T01:12:17.997Z</time></trkpt>
   <trkpt lat="59.0924899813" lon="29.9975319695"><ele>79.918</ele><time>2026-04-21T01:13:48.000Z</time></trkpt>
   <trkpt lat="59.0925389735" lon="29.9973539379"><ele>82.6</ele><time>2026-04-21T01:15:25.001Z</time></trkpt>
   <trkpt lat="59.0926449627" lon="29.9973569554"><ele>82.509</ele><time>2026-04-21T01:16:01.998Z</time></trkpt>
   <trkpt lat="59.092742989" lon="29.9975829315"><ele>81.351</ele><time>2026-04-21T01:16:44.999Z</time></trkpt>
   <trkpt lat="59.0928929832" lon="29.9977199756"><ele>81.137</ele><time>2026-04-21T01:17:24.000Z</time></trkpt>
   <trkpt lat="59.0931879843" lon="29.997616962"><ele>83.941</ele><time>2026-04-21T01:19:25.997Z</time></trkpt>
   <trkpt lat="59.0932249904" lon="29.9977539223"><ele>83.606</ele><time>2026-04-21T01:19:48.996Z</time></trkpt>
   <trkpt lat="59.0934369687" lon="29.9978289403"><ele>82.478</ele><time>2026-04-21T01:20:51.999Z</time></trkpt>
   <trkpt lat="59.093698987" lon="29.9975379207"><ele>82.174</ele><time>2026-04-21T01:21:54.000Z</time></trkpt>
   <trkpt lat="59.0939849775" lon="29.9970729765"><ele>80.131</ele><time>2026-04-21T01:23:01.003Z</time></trkpt>
   <trkpt lat="59.0941169925" lon="29.9969759979"><ele>81.96</ele><time>2026-04-21T01:23:44.998Z</time></trkpt>
   <trkpt lat="59.0941889931" lon="29.9969729804"><ele>84.002</ele><time>2026-04-21T01:25:07.000Z</time></trkpt>
   <trkpt lat="59.0940299884" lon="29.996390941"><ele>87.843</ele><time>2026-04-21T01:27:20.998Z</time></trkpt>
   <trkpt lat="59.0939039665" lon="29.9957709317"><ele>82.448</ele><time>2026-04-21T01:27:57.001Z</time></trkpt>
   <trkpt lat="59.0936789962" lon="29.9945559748"><ele>78.211</ele><time>2026-04-21T01:29:23.997Z</time></trkpt>
   <trkpt lat="59.0936349912" lon="29.994283982"><ele>75.377</ele><time>2026-04-21T01:29:42.003Z</time></trkpt>
   <trkpt lat="59.0936449656" lon="29.9940809723"><ele>73.974</ele><time>2026-04-21T01:29:58.004Z</time></trkpt>
  </trkseg>
 </trk>
 <trk>
  <name>20260420_Lisa53</name>
  <desc>20260420_Lisa53</desc>
  <type>TrackStyle_2196F3C8</type>
  <extensions>
   <gom:time>2026-04-20T20:46:31.002Z</gom:time>
   <line xmlns="http://www.topografix.com/GPX/gpx_style/0/2">
    <color>2196F3</color>
   </line>
  </extensions>
  <trkseg>
   <trkpt lat="59.0903519673" lon="29.9836109694"><ele>78.425</ele><time>2026-04-20T20:46:31.002Z</time></trkpt>
   <trkpt lat="59.0901819823" lon="29.9841089383"><ele>78.668</ele><time>2026-04-20T20:46:57.000Z</time></trkpt>
   <trkpt lat="59.0897389988" lon="29.9844609782"><ele>81.351</ele><time>2026-04-20T20:48:46.996Z</time></trkpt>
   <trkpt lat="59.0902079662" lon="29.9840859719"><ele>82.753</ele><time>2026-04-20T20:50:57.002Z</time></trkpt>
   <trkpt lat="59.0900219718" lon="29.9842819408"><ele>80.101</ele><time>2026-04-20T20:53:13.998Z</time></trkpt>
   <trkpt lat="59.0898839638" lon="29.9848559335"><ele>78.699</ele><time>2026-04-20T20:54:22.997Z</time></trkpt>
   <trkpt lat="59.0897679582" lon="29.9849829194"><ele>78.485</ele><time>2026-04-20T20:54:45.003Z</time></trkpt>
   <trkpt lat="59.0897209777" lon="29.985122981"><ele>77.967</ele><time>2026-04-20T20:55:04.002Z</time></trkpt>
   <trkpt lat="59.0897319999" lon="29.9853429221"><ele>77.876</ele><time>2026-04-20T20:55:54.002Z</time></trkpt>
   <trkpt lat="59.0896399666" lon="29.9854249809"><ele>76.687</ele><time>2026-04-20T20:56:48.002Z</time></trkpt>
   <trkpt lat="59.0893069955" lon="29.9854849954"><ele>76.504</ele><time>2026-04-20T20:57:43.998Z</time></trkpt>
   <trkpt lat="59.0893119827" lon="29.9849389982"><ele>78.12</ele><time>2026-04-20T20:59:06.000Z</time></trkpt>
   <trkpt lat="59.0893009605" lon="29.9847779818"><ele>82.966</ele><time>2026-04-20T21:01:38.004Z</time></trkpt>
   <trkpt lat="59.0892929977" lon="29.9849859368"><ele>83.606</ele><time>2026-04-20T21:03:26.997Z</time></trkpt>
   <trkpt lat="59.088932995" lon="29.9849369865"><ele>81.594</ele><time>2026-04-20T21:06:04.003Z</time></trkpt>
   <trkpt lat="59.0888419675" lon="29.9848779779"><ele>82.113</ele><time>2026-04-20T21:06:27.003Z</time></trkpt>
   <trkpt lat="59.0887389958" lon="29.9850559257"><ele>81.991</ele><time>2026-04-20T21:08:34.002Z</time></trkpt>
   <trkpt lat="59.0884459645" lon="29.9850059696"><ele>81.137</ele><time>2026-04-20T21:09:48.997Z</time></trkpt>
   <trkpt lat="59.0884349842" lon="29.9852619529"><ele>82.052</ele><time>2026-04-20T21:10:15.004Z</time></trkpt>
   <trkpt lat="59.0883949606" lon="29.9855099734"><ele>86.624</ele><time>2026-04-20T21:11:23.001Z</time></trkpt>
   <trkpt lat="59.0884629797" lon="29.9853399884"><ele>85.77</ele><time>2026-04-20T21:13:04.996Z</time></trkpt>
   <trkpt lat="59.0883989839" lon="29.9855519668"><ele>84.307</ele><time>2026-04-20T21:13:58.996Z</time></trkpt>
   <trkpt lat="59.0884079945" lon="29.9857379612"><ele>89.336</ele><time>2026-04-20T21:14:29.003Z</time></trkpt>
   <trkpt lat="59.0883139914" lon="29.9856159207"><ele>84.033</ele><time>2026-04-20T21:15:45.000Z</time></trkpt>
   <trkpt lat="59.0884299969" lon="29.9855219596"><ele>81.229</ele><time>2026-04-20T21:16:44.996Z</time></trkpt>
   <trkpt lat="59.088328995" lon="29.9854479473"><ele>78.973</ele><time>2026-04-20T21:18:13.997Z</time></trkpt>
   <trkpt lat="59.0884289911" lon="29.9854819779"><ele>81.381</ele><time>2026-04-20T21:18:44.004Z</time></trkpt>
   <trkpt lat="59.0883329764" lon="29.9856109754"><ele>80.65</ele><time>2026-04-20T21:19:07.003Z</time></trkpt>
   <trkpt lat="59.0880539848" lon="29.9857469298"><ele>81.96</ele><time>2026-04-20T21:19:48.000Z</time></trkpt>
   <trkpt lat="59.0878229795" lon="29.9859689664"><ele>83.85</ele><time>2026-04-20T21:20:36.997Z</time></trkpt>
   <trkpt lat="59.0876809901" lon="29.9859759234"><ele>85.801</ele><time>2026-04-20T21:21:19.999Z</time></trkpt>
   <trkpt lat="59.0875519926" lon="29.985745924"><ele>90.373</ele><time>2026-04-20T21:22:46.001Z</time></trkpt>
   <trkpt lat="59.0874599593" lon="29.9860359379"><ele>89.367</ele><time>2026-04-20T21:23:41.004Z</time></trkpt>
   <trkpt lat="59.0875139807" lon="29.9858979717"><ele>94.853</ele><time>2026-04-20T21:25:10.998Z</time></trkpt>
   <trkpt lat="59.0874339754" lon="29.9861099501"><ele>93.146</ele><time>2026-04-20T21:26:07.002Z</time></trkpt>
   <trkpt lat="59.0875059759" lon="29.9860669509"><ele>93.969</ele><time>2026-04-20T21:26:38.003Z</time></trkpt>
   <trkpt lat="59.0874199776" lon="29.9858669587"><ele>92.323</ele><time>2026-04-20T21:28:06.001Z</time></trkpt>
   <trkpt lat="59.0875179621" lon="29.9860359379"><ele>95.737</ele><time>2026-04-20T21:30:53.997Z</time></trkpt>
   <trkpt lat="59.0873429898" lon="29.9860599939"><ele>96.042</ele><time>2026-04-20T21:31:23.002Z</time></trkpt>
   <trkpt lat="59.0875209795" lon="29.9859839701"><ele>95.432</ele><time>2026-04-20T21:31:57.000Z</time></trkpt>
   <trkpt lat="59.0871709932" lon="29.9860529531"><ele>90.22</ele><time>2026-04-20T21:34:25.997Z</time></trkpt>
   <trkpt lat="59.0870829832" lon="29.9861139734"><ele>89.946</ele><time>2026-04-20T21:34:49.999Z</time></trkpt>
   <trkpt lat="59.0869089749" lon="29.9863999639"><ele>91.561</ele><time>2026-04-20T21:35:30.002Z</time></trkpt>
   <trkpt lat="59.086775996" lon="29.9864139617"><ele>92.537</ele><time>2026-04-20T21:35:54.997Z</time></trkpt>
   <trkpt lat="59.0866479624" lon="29.9866559472"><ele>95.219</ele><time>2026-04-20T21:36:27.000Z</time></trkpt>
   <trkpt lat="59.0865639758" lon="29.9865579628"><ele>93.817</ele><time>2026-04-20T21:37:14.002Z</time></trkpt>
   <trkpt lat="59.0865149835" lon="29.9863339983"><ele>93.024</ele><time>2026-04-20T21:37:46.004Z</time></trkpt>
   <trkpt lat="59.0865139777" lon="29.9861899972"><ele>94.0</ele><time>2026-04-20T21:38:24.996Z</time></trkpt>
   <trkpt lat="59.0864319608" lon="29.9862619978"><ele>96.713</ele><time>2026-04-20T21:39:49.997Z</time></trkpt>
   <trkpt lat="59.0864949927" lon="29.9860989698"><ele>98.176</ele><time>2026-04-20T21:41:32.001Z</time></trkpt>
   <trkpt lat="59.0864539633" lon="29.9859509454"><ele>98.877</ele><time>2026-04-20T21:42:00.003Z</time></trkpt>
   <trkpt lat="59.0864129758" lon="29.9862469942"><ele>100.553</ele><time>2026-04-20T21:42:53.001Z</time></trkpt>
   <trkpt lat="59.0862359919" lon="29.9861849681"><ele>98.602</ele><time>2026-04-20T21:44:23.004Z</time></trkpt>
   <trkpt lat="59.0863129797" lon="29.9862699606"><ele>99.7</ele><time>2026-04-20T21:44:46.997Z</time></trkpt>
   <trkpt lat="59.0864029594" lon="29.9862359301"><ele>98.45</ele><time>2026-04-20T21:45:17.004Z</time></trkpt>
   <trkpt lat="59.0865169952" lon="29.9863099423"><ele>98.237</ele><time>2026-04-20T21:45:45.999Z</time></trkpt>
   <trkpt lat="59.086473996" lon="29.9861069326"><ele>100.827</ele><time>2026-04-20T21:47:13.998Z</time></trkpt>
   <trkpt lat="59.0862219941" lon="29.9864159733"><ele>96.438</ele><time>2026-04-20T21:47:56.999Z</time></trkpt>
   <trkpt lat="59.085970998" lon="29.9865489941"><ele>93.847</ele><time>2026-04-20T21:48:23.999Z</time></trkpt>
   <trkpt lat="59.0856169883" lon="29.9866449669"><ele>90.83</ele><time>2026-04-20T21:49:24.997Z</time></trkpt>
   <trkpt lat="59.0856219756" lon="29.987008993"><ele>89.275</ele><time>2026-04-20T21:50:02.003Z</time></trkpt>
   <trkpt lat="59.0857969897" lon="29.9872359749"><ele>91.5</ele><time>2026-04-20T21:54:32.003Z</time></trkpt>
   <trkpt lat="59.085876995" lon="29.9871689197"><ele>92.842</ele><time>2026-04-20T21:54:58.000Z</time></trkpt>
   <trkpt lat="59.0857849617" lon="29.987178978"><ele>92.567</ele><time>2026-04-20T21:55:21.000Z</time></trkpt>
   <trkpt lat="59.0856859714" lon="29.9870659899"><ele>92.384</ele><time>2026-04-20T21:55:45.002Z</time></trkpt>
   <trkpt lat="59.0856079778" lon="29.9870759644"><ele>93.634</ele><time>2026-04-20T21:56:05.997Z</time></trkpt>
   <trkpt lat="59.0855339656" lon="29.9869559355"><ele>99.242</ele><time>2026-04-20T21:57:52.001Z</time></trkpt>
   <trkpt lat="59.08553099" lon="29.9871959933"><ele>99.578</ele><time>2026-04-20T21:58:36.998Z</time></trkpt>
   <trkpt lat="59.0856219756" lon="29.9870069813"><ele>97.901</ele><time>2026-04-20T21:59:33.003Z</time></trkpt>
   <trkpt lat="59.0855269667" lon="29.9871269264"><ele>95.31</ele><time>2026-04-20T22:04:56.001Z</time></trkpt>
   <trkpt lat="59.085455972" lon="29.987008993"><ele>92.08</ele><time>2026-04-20T22:05:40.004Z</time></trkpt>
   <trkpt lat="59.085310965" lon="29.9869939894"><ele>90.556</ele><time>2026-04-20T22:06:03.997Z</time></trkpt>
   <trkpt lat="59.084920997" lon="29.9871339672"><ele>87.081</ele><time>2026-04-20T22:07:00.002Z</time></trkpt>
   <trkpt lat="59.0847789657" lon="29.9872859311"><ele>84.764</ele><time>2026-04-20T22:07:43.003Z</time></trkpt>
   <trkpt lat="59.0848099787" lon="29.9874459416"><ele>84.185</ele><time>2026-04-20T22:07:58.996Z</time></trkpt>
   <trkpt lat="59.0847739784" lon="29.9876749352"><ele>84.094</ele><time>2026-04-20T22:08:21.002Z</time></trkpt>
   <trkpt lat="59.0846689951" lon="29.9877839838"><ele>85.283</ele><time>2026-04-20T22:08:37.997Z</time></trkpt>
   <trkpt lat="59.0845179951" lon="29.9876829818"><ele>85.679</ele><time>2026-04-20T22:10:21.996Z</time></trkpt>
   <trkpt lat="59.0844189629" lon="29.987436973"><ele>83.637</ele><time>2026-04-20T22:11:00.004Z</time></trkpt>
   <trkpt lat="59.0842699746" lon="29.987467986"><ele>79.369</ele><time>2026-04-20T22:14:21.998Z</time></trkpt>
   <trkpt lat="59.0842069846" lon="29.9877559882"><ele>80.223</ele><time>2026-04-20T22:15:15.998Z</time></trkpt>
   <trkpt lat="59.0842619699" lon="29.9878989835"><ele>79.918</ele><time>2026-04-20T22:15:26.997Z</time></trkpt>
   <trkpt lat="59.084197974" lon="29.9880709801"><ele>80.406</ele><time>2026-04-20T22:16:11.001Z</time></trkpt>
   <trkpt lat="59.0840239657" lon="29.9879139871"><ele>82.052</ele><time>2026-04-20T22:17:01.000Z</time></trkpt>
   <trkpt lat="59.083964999" lon="29.9877979815"><ele>82.448</ele><time>2026-04-20T22:17:24.000Z</time></trkpt>
   <trkpt lat="59.0837339938" lon="29.9877049424"><ele>81.899</ele><time>2026-04-20T22:18:15.002Z</time></trkpt>
   <trkpt lat="59.0836269988" lon="29.9877159227"><ele>79.156</ele><time>2026-04-20T22:19:01.001Z</time></trkpt>
   <trkpt lat="59.0833889947" lon="29.9878849857"><ele>77.693</ele><time>2026-04-20T22:19:44.996Z</time></trkpt>
   <trkpt lat="59.083266996" lon="29.9878699821"><ele>76.565</ele><time>2026-04-20T22:20:04.004Z</time></trkpt>
   <trkpt lat="59.0832839694" lon="29.9880629335"><ele>78.394</ele><time>2026-04-20T22:21:02.998Z</time></trkpt>
   <trkpt lat="59.0831889605" lon="29.9878809624"><ele>78.425</ele><time>2026-04-20T22:22:46.998Z</time></trkpt>
   <trkpt lat="59.083097975" lon="29.9878779449"><ele>76.596</ele><time>2026-04-20T22:26:25.996Z</time></trkpt>
   <trkpt lat="59.0830239628" lon="29.9880129774"><ele>76.474</ele><time>2026-04-20T22:27:04.997Z</time></trkpt>
   <trkpt lat="59.0828229647" lon="29.9881689646"><ele>77.022</ele><time>2026-04-20T22:27:53.001Z</time></trkpt>
   <trkpt lat="59.0825529836" lon="29.9881989718"><ele>77.175</ele><time>2026-04-20T22:28:40.002Z</time></trkpt>
   <trkpt lat="59.0823309889" lon="29.9884069268"><ele>78.455</ele><time>2026-04-20T22:29:46.003Z</time></trkpt>
   <trkpt lat="59.082248972" lon="29.9883799371"><ele>84.124</ele><time>2026-04-20T22:32:00.001Z</time></trkpt>
   <trkpt lat="59.0822189648" lon="29.9882079404"><ele>80.924</ele><time>2026-04-20T22:33:38.998Z</time></trkpt>
   <trkpt lat="59.0822809909" lon="29.9884019815"><ele>78.729</ele><time>2026-04-20T22:35:06.996Z</time></trkpt>
   <trkpt lat="59.0822569767" lon="29.9882069346"><ele>89.245</ele><time>2026-04-20T22:39:41.999Z</time></trkpt>
   <trkpt lat="59.0823139737" lon="29.9883509357"><ele>80.893</ele><time>2026-04-20T22:40:44.000Z</time></trkpt>
   <trkpt lat="59.082248972" lon="29.9884289712"><ele>79.491</ele><time>2026-04-20T22:41:43.002Z</time></trkpt>
   <trkpt lat="59.0821439887" lon="29.9887059931"><ele>78.485</ele><time>2026-04-20T22:42:49.997Z</time></trkpt>
   <trkpt lat="59.0821659912" lon="29.9891549278"><ele>78.973</ele><time>2026-04-20T22:44:55.000Z</time></trkpt>
   <trkpt lat="59.0819789909" lon="29.9892159481"><ele>78.089</ele><time>2026-04-20T22:45:47.998Z</time></trkpt>
   <trkpt lat="59.0818919867" lon="29.9894309439"><ele>77.693</ele><time>2026-04-20T22:46:21.996Z</time></trkpt>
   <trkpt lat="59.0817889732" lon="29.9894959875"><ele>77.205</ele><time>2026-04-20T22:46:55.001Z</time></trkpt>
   <trkpt lat="59.0817029748" lon="29.9895279225"><ele>77.144</ele><time>2026-04-20T22:47:12.998Z</time></trkpt>
   <trkpt lat="59.0815659726" lon="29.989448965"><ele>77.297</ele><time>2026-04-20T22:47:45.001Z</time></trkpt>
   <trkpt lat="59.081122989" lon="29.9896059581"><ele>73.456</ele><time>2026-04-20T22:49:38.997Z</time></trkpt>
   <trkpt lat="59.080984981" lon="29.9899869994"><ele>76.961</ele><time>2026-04-20T22:53:22.998Z</time></trkpt>
   <trkpt lat="59.0810359849" lon="29.9904829566"><ele>74.919</ele><time>2026-04-20T22:54:15.002Z</time></trkpt>
   <trkpt lat="59.0811509846" lon="29.9906549532"><ele>73.792</ele><time>2026-04-20T22:54:49.000Z</time></trkpt>
   <trkpt lat="59.0811829616" lon="29.9909589649"><ele>73.913</ele><time>2026-04-20T22:56:06.000Z</time></trkpt>
   <trkpt lat="59.0811219832" lon="29.9910489865"><ele>73.212</ele><time>2026-04-20T22:56:23.997Z</time></trkpt>
   <trkpt lat="59.0810169999" lon="29.991208997"><ele>77.754</ele><time>2026-04-20T23:02:52.002Z</time></trkpt>
   <trkpt lat="59.0810809957" lon="29.9910379224"><ele>78.912</ele><time>2026-04-20T23:06:29.998Z</time></trkpt>
   <trkpt lat="59.0811299879" lon="29.9912829254"><ele>75.62</ele><time>2026-04-20T23:11:24.000Z</time></trkpt>
   <trkpt lat="59.0810689677" lon="29.9914889526"><ele>75.62</ele><time>2026-04-20T23:12:08.997Z</time></trkpt>
   <trkpt lat="59.0811139785" lon="29.991636977"><ele>75.163</ele><time>2026-04-20T23:12:31.997Z</time></trkpt>
   <trkpt lat="59.0810859829" lon="29.9917709198"><ele>73.639</ele><time>2026-04-20T23:12:54.996Z</time></trkpt>
   <trkpt lat="59.0811739929" lon="29.9919589259"><ele>72.542</ele><time>2026-04-20T23:13:35.000Z</time></trkpt>
   <trkpt lat="59.0812449876" lon="29.9922889214"><ele>72.664</ele><time>2026-04-20T23:14:19.997Z</time></trkpt>
   <trkpt lat="59.0812519865" lon="29.9927859683"><ele>75.895</ele><time>2026-04-20T23:15:32.996Z</time></trkpt>
   <trkpt lat="59.0811449915" lon="29.99286392"><ele>74.706</ele><time>2026-04-20T23:16:10.001Z</time></trkpt>
   <trkpt lat="59.0811319996" lon="29.9930539377"><ele>73.395</ele><time>2026-04-20T23:16:53.003Z</time></trkpt>
   <trkpt lat="59.0812409643" lon="29.9930179794"><ele>76.047</ele><time>2026-04-20T23:18:53.997Z</time></trkpt>
   <trkpt lat="59.0810999807" lon="29.9930779938"><ele>77.663</ele><time>2026-04-20T23:20:30.998Z</time></trkpt>
   <trkpt lat="59.0812089874" lon="29.9933579494"><ele>76.748</ele><time>2026-04-20T23:22:06.004Z</time></trkpt>
   <trkpt lat="59.0812439818" lon="29.993610999"><ele>74.645</ele><time>2026-04-20T23:23:23.004Z</time></trkpt>
   <trkpt lat="59.0812899985" lon="29.9937739432"><ele>74.736</ele><time>2026-04-20T23:24:55.996Z</time></trkpt>
   <trkpt lat="59.0813109951" lon="29.9940869235"><ele>73.517</ele><time>2026-04-20T23:25:23.998Z</time></trkpt>
   <trkpt lat="59.0812379887" lon="29.9941559904"><ele>75.407</ele><time>2026-04-20T23:26:42.000Z</time></trkpt>
   <trkpt lat="59.0813109951" lon="29.994384984"><ele>74.919</ele><time>2026-04-20T23:27:22.003Z</time></trkpt>
   <trkpt lat="59.0813799782" lon="29.9944309168"><ele>75.468</ele><time>2026-04-20T23:27:49.997Z</time></trkpt>
   <trkpt lat="59.0814529846" lon="29.9949729745"><ele>74.34</ele><time>2026-04-20T23:29:25.002Z</time></trkpt>
   <trkpt lat="59.0814979954" lon="29.9951049895"><ele>74.371</ele><time>2026-04-20T23:29:48.002Z</time></trkpt>
   <trkpt lat="59.0814999651" lon="29.9953229189"><ele>76.23</ele><time>2026-04-20T23:31:56.004Z</time></trkpt>
   <trkpt lat="59.081412961" lon="29.9952709511"><ele>76.047</ele><time>2026-04-20T23:32:27.004Z</time></trkpt>
   <trkpt lat="59.0815039884" lon="29.9951929994"><ele>78.272</ele><time>2026-04-20T23:33:41.999Z</time></trkpt>
   <trkpt lat="59.081607966" lon="29.9956349772"><ele>76.291</ele><time>2026-04-20T23:34:52.000Z</time></trkpt>
   <trkpt lat="59.0815979915" lon="29.9958209716"><ele>76.321</ele><time>2026-04-20T23:35:16.996Z</time></trkpt>
   <trkpt lat="59.081468994" lon="29.9963899352"><ele>75.011</ele><time>2026-04-20T23:37:08.996Z</time></trkpt>
   <trkpt lat="59.0814969896" lon="29.9965589982"><ele>74.218</ele><time>2026-04-20T23:37:30.000Z</time></trkpt>
   <trkpt lat="59.0816249812" lon="29.9967549671"><ele>71.353</ele><time>2026-04-20T23:37:48.999Z</time></trkpt>
   <trkpt lat="59.0816659687" lon="29.9969289754"><ele>68.122</ele><time>2026-04-20T23:38:10.003Z</time></trkpt>
   <trkpt lat="59.0817789987" lon="29.9969849665"><ele>68.64</ele><time>2026-04-20T23:38:29.003Z</time></trkpt>
   <trkpt lat="59.0818729598" lon="29.9971669376"><ele>68.579</ele><time>2026-04-20T23:38:51.000Z</time></trkpt>
   <trkpt lat="59.0818879634" lon="29.9973489926"><ele>75.377</ele><time>2026-04-20T23:39:53.001Z</time></trkpt>
   <trkpt lat="59.0817889732" lon="29.9975309637"><ele>78.272</ele><time>2026-04-20T23:40:48.003Z</time></trkpt>
   <trkpt lat="59.0819399731" lon="29.9973799218"><ele>83.698</ele><time>2026-04-20T23:41:19.997Z</time></trkpt>
   <trkpt lat="59.0818749715" lon="29.9971459829"><ele>89.306</ele><time>2026-04-20T23:43:07.003Z</time></trkpt>
   <trkpt lat="59.0818369595" lon="29.9973359168"><ele>81.625</ele><time>2026-04-20T23:46:21.999Z</time></trkpt>
   <trkpt lat="59.0819209881" lon="29.9974289559"><ele>80.192</ele><time>2026-04-20T23:47:15.999Z</time></trkpt>
   <trkpt lat="59.0819109718" lon="29.9977839295"><ele>79.857</ele><time>2026-04-20T23:48:04.003Z</time></trkpt>
   <trkpt lat="59.0820249656" lon="29.9981749453"><ele>79.949</ele><time>2026-04-20T23:48:54.996Z</time></trkpt>
   <trkpt lat="59.0820179667" lon="29.9985119816"><ele>78.455</ele><time>2026-04-20T23:49:17.996Z</time></trkpt>
   <trkpt lat="59.0821049709" lon="29.9989399616"><ele>75.072</ele><time>2026-04-20T23:50:00.997Z</time></trkpt>
   <trkpt lat="59.0820889615" lon="29.9991149757"><ele>74.889</ele><time>2026-04-20T23:50:15.996Z</time></trkpt>
   <trkpt lat="59.0819899712" lon="29.9993999605"><ele>74.096</ele><time>2026-04-20T23:51:44.997Z</time></trkpt>
   <trkpt lat="59.0820089981" lon="29.999905976"><ele>72.633</ele><time>2026-04-20T23:54:36.000Z</time></trkpt>
   <trkpt lat="59.0821149873" lon="30.0000809901"><ele>73.792</ele><time>2026-04-20T23:55:04.996Z</time></trkpt>
   <trkpt lat="59.0821679609" lon="30.0004859198"><ele>74.554</ele><time>2026-04-20T23:56:15.999Z</time></trkpt>
   <trkpt lat="59.0821219862" lon="30.0007149972"><ele>74.157</ele><time>2026-04-20T23:56:47.000Z</time></trkpt>
   <trkpt lat="59.0821369898" lon="30.000942985"><ele>77.693</ele><time>2026-04-20T23:58:29.997Z</time></trkpt>
   <trkpt lat="59.0821489759" lon="30.0012589828"><ele>75.956</ele><time>2026-04-20T23:59:15.003Z</time></trkpt>
   <trkpt lat="59.0822059728" lon="30.0013979547"><ele>76.199</ele><time>2026-04-20T23:59:35.998Z</time></trkpt>
   <trkpt lat="59.0822219823" lon="30.0015399442"><ele>79.583</ele><time>2026-04-21T00:00:32.003Z</time></trkpt>
   <trkpt lat="59.0822879898" lon="30.0014499225"><ele>82.052</ele><time>2026-04-21T00:01:30.996Z</time></trkpt>
   <trkpt lat="59.0821379956" lon="30.0013689533"><ele>88.331</ele><time>2026-04-21T00:04:28.004Z</time></trkpt>
   <trkpt lat="59.0824819889" lon="30.0017879647"><ele>86.288</ele><time>2026-04-21T00:06:03.001Z</time></trkpt>
   <trkpt lat="59.0823599903" lon="30.0019639846"><ele>85.222</ele><time>2026-04-21T00:07:44.003Z</time></trkpt>
   <trkpt lat="59.0823909614" lon="30.0022319541"><ele>82.661</ele><time>2026-04-21T00:09:36.003Z</time></trkpt>
   <trkpt lat="59.0824389897" lon="30.0024309405"><ele>79.674</ele><time>2026-04-21T00:11:40.998Z</time></trkpt>
   <trkpt lat="59.0824029895" lon="30.002685918"><ele>77.815</ele><time>2026-04-21T00:12:33.002Z</time></trkpt>
   <trkpt lat="59.0823219784" lon="30.0028659612"><ele>76.931</ele><time>2026-04-21T00:12:57.997Z</time></trkpt>
   <trkpt lat="59.0823219784" lon="30.0031259679"><ele>74.279</ele><time>2026-04-21T00:13:36.998Z</time></trkpt>
   <trkpt lat="59.0824979983" lon="30.0032959529"><ele>75.437</ele><time>2026-04-21T00:15:05.999Z</time></trkpt>
   <trkpt lat="59.0823919673" lon="30.0033169914"><ele>77.175</ele><time>2026-04-21T00:15:35.004Z</time></trkpt>
   <trkpt lat="59.0823989662" lon="30.0031509459"><ele>78.364</ele><time>2026-04-21T00:16:25.003Z</time></trkpt>
   <trkpt lat="59.0824769598" lon="30.0033289776"><ele>79.43</ele><time>2026-04-21T00:17:29.000Z</time></trkpt>
   <trkpt lat="59.0825549953" lon="30.004099945"><ele>67.696</ele><time>2026-04-21T00:18:31.000Z</time></trkpt>
   <trkpt lat="59.0825269997" lon="30.00431997"><ele>68.153</ele><time>2026-04-21T00:18:51.002Z</time></trkpt>
   <trkpt lat="59.0826289656" lon="30.0045469519"><ele>67.604</ele><time>2026-04-21T00:19:08.999Z</time></trkpt>
   <trkpt lat="59.0826419994" lon="30.004866973"><ele>66.233</ele><time>2026-04-21T00:19:30.996Z</time></trkpt>
   <trkpt lat="59.0825659756" lon="30.0049679749"><ele>73.548</ele><time>2026-04-21T00:21:26.997Z</time></trkpt>
   <trkpt lat="59.0826509681" lon="30.0050729163"><ele>78.425</ele><time>2026-04-21T00:22:31.002Z</time></trkpt>
   <trkpt lat="59.0827219628" lon="30.0053909257"><ele>75.072</ele><time>2026-04-21T00:22:53.000Z</time></trkpt>
   <trkpt lat="59.082732985" lon="30.0057619926"><ele>72.115</ele><time>2026-04-21T00:23:26.998Z</time></trkpt>
   <trkpt lat="59.0828519661" lon="30.0062639848"><ele>67.086</ele><time>2026-04-21T00:24:00.996Z</time></trkpt>
   <trkpt lat="59.0828309694" lon="30.0066469539"><ele>72.268</ele><time>2026-04-21T00:24:55.999Z</time></trkpt>
   <trkpt lat="59.0829059875" lon="30.0067259953"><ele>75.041</ele><time>2026-04-21T00:25:30.999Z</time></trkpt>
   <trkpt lat="59.082826988" lon="30.0068169389"><ele>75.559</ele><time>2026-04-21T00:26:07.002Z</time></trkpt>
   <trkpt lat="59.0829379644" lon="30.0067689945"><ele>78.272</ele><time>2026-04-21T00:27:09.996Z</time></trkpt>
   <trkpt lat="59.0828359986" lon="30.0066869356"><ele>77.083</ele><time>2026-04-21T00:27:36.996Z</time></trkpt>
   <trkpt lat="59.0829679717" lon="30.0075219408"><ele>70.805</ele><time>2026-04-21T00:28:39.999Z</time></trkpt>
   <trkpt lat="59.0829829753" lon="30.0080469832"><ele>71.262</ele><time>2026-04-21T00:29:24.996Z</time></trkpt>
   <trkpt lat="59.083059963" lon="30.0083769788"><ele>71.597</ele><time>2026-04-21T00:30:14.996Z</time></trkpt>
   <trkpt lat="59.0830899703" lon="30.0089969881"><ele>75.346</ele><time>2026-04-21T00:32:02.003Z</time></trkpt>
   <trkpt lat="59.0831389625" lon="30.0092399795"><ele>75.559</ele><time>2026-04-21T00:34:53.999Z</time></trkpt>
   <trkpt lat="59.083210963" lon="30.0092229642"><ele>75.346</ele><time>2026-04-21T00:36:51.002Z</time></trkpt>
   <trkpt lat="59.0831749628" lon="30.0089989998"><ele>78.181</ele><time>2026-04-21T00:38:24.003Z</time></trkpt>
   <trkpt lat="59.0832369888" lon="30.0090709165"><ele>80.771</ele><time>2026-04-21T00:39:57.004Z</time></trkpt>
   <trkpt lat="59.0832269725" lon="30.0089079723"><ele>87.172</ele><time>2026-04-21T00:42:24.998Z</time></trkpt>
   <trkpt lat="59.0832619669" lon="30.0087749515"><ele>82.6</ele><time>2026-04-21T00:44:04.998Z</time></trkpt>
   <trkpt lat="59.0833969994" lon="30.008607984"><ele>81.32</ele><time>2026-04-21T00:44:50.997Z</time></trkpt>
   <trkpt lat="59.0835749891" lon="30.0083159585"><ele>80.345</ele><time>2026-04-21T00:45:48.997Z</time></trkpt>
   <trkpt lat="59.0836179882" lon="30.008180926"><ele>83.179</ele><time>2026-04-21T00:46:18.002Z</time></trkpt>
   <trkpt lat="59.0835449819" lon="30.0082929921"><ele>84.246</ele><time>2026-04-21T00:46:46.004Z</time></trkpt>
   <trkpt lat="59.0837339938" lon="30.0083479774"><ele>86.227</ele><time>2026-04-21T00:50:15.999Z</time></trkpt>
   <trkpt lat="59.0837899849" lon="30.0081919902"><ele>84.917</ele><time>2026-04-21T00:50:33.996Z</time></trkpt>
   <trkpt lat="59.0838029768" lon="30.007897953"><ele>83.759</ele><time>2026-04-21T00:50:56.996Z</time></trkpt>
   <trkpt lat="59.0837549905" lon="30.0073579908"><ele>81.351</ele><time>2026-04-21T00:51:46.996Z</time></trkpt>
   <trkpt lat="59.0838219619" lon="30.0072379619"><ele>79.827</ele><time>2026-04-21T00:52:09.002Z</time></trkpt>
   <trkpt lat="59.0839179766" lon="30.0072329328"><ele>78.394</ele><time>2026-04-21T00:52:26.999Z</time></trkpt>
   <trkpt lat="59.0840139913" lon="30.0070999958"><ele>78.973</ele><time>2026-04-21T00:53:19.997Z</time></trkpt>
   <trkpt lat="59.0841099641" lon="30.0067389872"><ele>83.149</ele><time>2026-04-21T00:54:32.996Z</time></trkpt>
   <trkpt lat="59.0842449965" lon="30.0066869356"><ele>81.594</ele><time>2026-04-21T00:56:04.001Z</time></trkpt>
   <trkpt lat="59.0843559729" lon="30.0067399931"><ele>80.802</ele><time>2026-04-21T00:56:31.001Z</time></trkpt>
   <trkpt lat="59.0845279696" lon="30.0066769612"><ele>76.748</ele><time>2026-04-21T00:56:51.996Z</time></trkpt>
   <trkpt lat="59.0845779676" lon="30.006545952"><ele>76.474</ele><time>2026-04-21T00:57:14.996Z</time></trkpt>
   <trkpt lat="59.0846989604" lon="30.0065439404"><ele>75.072</ele><time>2026-04-21T00:57:41.003Z</time></trkpt>
   <trkpt lat="59.0848559953" lon="30.006419972"><ele>68.305</ele><time>2026-04-21T00:58:04.996Z</time></trkpt>
   <trkpt lat="59.0849449692" lon="30.0063139409"><ele>66.751</ele><time>2026-04-21T00:58:26.000Z</time></trkpt>
   <trkpt lat="59.0849219609" lon="30.0061809201"><ele>69.585</ele><time>2026-04-21T00:58:59.998Z</time></trkpt>
   <trkpt lat="59.0849539798" lon="30.005923931"><ele>77.114</ele><time>2026-04-21T01:00:05.999Z</time></trkpt>
   <trkpt lat="59.0850839831" lon="30.006137921"><ele>83.819</ele><time>2026-04-21T01:01:53.999Z</time></trkpt>
   <trkpt lat="59.0853839714" lon="30.0062029645"><ele>81.107</ele><time>2026-04-21T01:02:37.000Z</time></trkpt>
   <trkpt lat="59.0855159864" lon="30.0061479792"><ele>79.126</ele><time>2026-04-21T01:02:57.002Z</time></trkpt>
   <trkpt lat="59.0860609777" lon="30.0063369912"><ele>76.87</ele><time>2026-04-21T01:04:23.998Z</time></trkpt>
   <trkpt lat="59.0864329666" lon="30.0063769728"><ele>75.712</ele><time>2026-04-21T01:05:20.996Z</time></trkpt>
   <trkpt lat="59.0866269658" lon="30.0064749573"><ele>75.681</ele><time>2026-04-21T01:06:00.999Z</time></trkpt>
   <trkpt lat="59.0869619904" lon="30.0062799942"><ele>69.585</ele><time>2026-04-21T01:07:12.003Z</time></trkpt>
   <trkpt lat="59.087203976" lon="30.006249987"><ele>70.043</ele><time>2026-04-21T01:07:46.001Z</time></trkpt>
   <trkpt lat="59.0874389626" lon="30.0063099176"><ele>70.195</ele><time>2026-04-21T01:08:25.002Z</time></trkpt>
   <trkpt lat="59.0875019945" lon="30.0062379171"><ele>70.134</ele><time>2026-04-21T01:08:45.997Z</time></trkpt>
   <trkpt lat="59.0883959664" lon="30.0060839415"><ele>70.439</ele><time>2026-04-21T01:11:57.002Z</time></trkpt>
   <trkpt lat="59.0885379978" lon="30.0059709534"><ele>65.501</ele><time>2026-04-21T01:12:17.004Z</time></trkpt>
   <trkpt lat="59.0888329989" lon="30.0057729729"><ele>60.99</ele><time>2026-04-21T01:13:17.000Z</time></trkpt>
   <trkpt lat="59.0893089652" lon="30.0054489285"><ele>65.288</ele><time>2026-04-21T01:15:09.000Z</time></trkpt>
   <trkpt lat="59.0898679963" lon="30.0053359405"><ele>73.121</ele><time>2026-04-21T01:17:34.999Z</time></trkpt>
   <trkpt lat="59.0900149729" lon="30.0052119721"><ele>73.67</ele><time>2026-04-21T01:19:08.000Z</time></trkpt>
   <trkpt lat="59.0901139632" lon="30.0052629341"><ele>73.853</ele><time>2026-04-21T01:19:43.000Z</time></trkpt>
   <trkpt lat="59.0903039809" lon="30.0051379599"><ele>76.017</ele><time>2026-04-21T01:21:00.000Z</time></trkpt>
   <trkpt lat="59.0905629818" lon="30.0050449208"><ele>75.011</ele><time>2026-04-21T01:22:34.003Z</time></trkpt>
   <trkpt lat="59.0907159934" lon="30.004935956"><ele>76.84</ele><time>2026-04-21T01:23:12.002Z</time></trkpt>
   <trkpt lat="59.090875962" lon="30.0050489441"><ele>76.413</ele><time>2026-04-21T01:23:55.003Z</time></trkpt>
   <trkpt lat="59.0910359726" lon="30.0047599361"><ele>75.468</ele><time>2026-04-21T01:24:36.000Z</time></trkpt>
   <trkpt lat="59.09131597" lon="30.0044479616"><ele>75.255</ele><time>2026-04-21T01:25:46.001Z</time></trkpt>
   <trkpt lat="59.0914159661" lon="30.0044489675"><ele>76.017</ele><time>2026-04-21T01:26:05.001Z</time></trkpt>
   <trkpt lat="59.091523967" lon="30.0045349658"><ele>76.504</ele><time>2026-04-21T01:26:52.996Z</time></trkpt>
   <trkpt lat="59.0917819619" lon="30.0042569381"><ele>72.938</ele><time>2026-04-21T01:27:53.001Z</time></trkpt>
   <trkpt lat="59.0921709661" lon="30.0040039722"><ele>76.779</ele><time>2026-04-21T01:29:33.000Z</time></trkpt>
   <trkpt lat="59.0924189866" lon="30.0039539323"><ele>76.718</ele><time>2026-04-21T01:30:32.996Z</time></trkpt>
   <trkpt lat="59.0924799649" lon="30.0038679339"><ele>75.62</ele><time>2026-04-21T01:30:54.000Z</time></trkpt>
   <trkpt lat="59.0927939929" lon="30.0038409442"><ele>76.26</ele><time>2026-04-21T01:32:16.996Z</time></trkpt>
   <trkpt lat="59.092862976" lon="30.0037399423"><ele>78.851</ele><time>2026-04-21T01:33:11.998Z</time></trkpt>
   <trkpt lat="59.0930479646" lon="30.0037209992"><ele>79.095</ele><time>2026-04-21T01:34:27.002Z</time></trkpt>
   <trkpt lat="59.0932469929" lon="30.0037739728"><ele>79.126</ele><time>2026-04-21T01:35:09.001Z</time></trkpt>
   <trkpt lat="59.0933959812" lon="30.0036189914"><ele>80.802</ele><time>2026-04-21T01:35:53.998Z</time></trkpt>
   <trkpt lat="59.0934859609" lon="30.0036699534"><ele>78.607</ele><time>2026-04-21T01:36:35.997Z</time></trkpt>
   <trkpt lat="59.0939409726" lon="30.0036639184"><ele>73.517</ele><time>2026-04-21T01:38:29.000Z</time></trkpt>
   <trkpt lat="59.094264975" lon="30.0034619984"><ele>73.03</ele><time>2026-04-21T01:39:28.996Z</time></trkpt>
   <trkpt lat="59.0947029714" lon="30.0032869842"><ele>70.561</ele><time>2026-04-21T01:41:09.004Z</time></trkpt>
   <trkpt lat="59.0947749719" lon="30.0031699729"><ele>71.658</ele><time>2026-04-21T01:41:36.004Z</time></trkpt>
   <trkpt lat="59.0950269738" lon="30.0029319268"><ele>72.085</ele><time>2026-04-21T01:43:08.996Z</time></trkpt>
   <trkpt lat="59.095006983" lon="30.0026459363"><ele>75.986</ele><time>2026-04-21T01:44:56.003Z</time></trkpt>
   <trkpt lat="59.0950789835" lon="30.0026329443"><ele>77.114</ele><time>2026-04-21T01:45:46.996Z</time></trkpt>
   <trkpt lat="59.0949929852" lon="30.0025459402"><ele>78.394</ele><time>2026-04-21T01:47:31.004Z</time></trkpt>
   <trkpt lat="59.0948509958" lon="30.0013879803"><ele>73.974</ele><time>2026-04-21T01:48:48.004Z</time></trkpt>
   <trkpt lat="59.0948349863" lon="30.0010189251"><ele>72.755</ele><time>2026-04-21T01:49:07.003Z</time></trkpt>
   <trkpt lat="59.094704983" lon="30.0004149251"><ele>63.886</ele><time>2026-04-21T01:49:46.004Z</time></trkpt>
   <trkpt lat="59.0942799786" lon="29.9978979234"><ele>50.657</ele><time>2026-04-21T01:51:34.004Z</time></trkpt>
   <trkpt lat="59.0941209739" lon="29.9971689493"><ele>50.657</ele><time>2026-04-21T01:52:08.996Z</time></trkpt>
  </trkseg>
 </trk>
 <trk>
  <name>20260420_Lisa54</name>
  <desc>20260420_Lisa54</desc>
  <type>TrackStyle_2196F3C8</type>
  <extensions>
   <gom:time>2026-04-20T22:10:52.997Z</gom:time>
   <line xmlns="http://www.topografix.com/GPX/gpx_style/0/2">
    <color>2196F3</color>
   </line>
  </extensions>
  <trkseg>
   <trkpt lat="59.0983579841" lon="30.0209859595"><ele>62.453</ele><time>2026-04-20T22:10:52.997Z</time></trkpt>
   <trkpt lat="59.0983659888" lon="30.0212799967"><ele>62.91</ele><time>2026-04-20T22:11:07.996Z</time></trkpt>
   <trkpt lat="59.0987739779" lon="30.023296934"><ele>71.536</ele><time>2026-04-20T22:13:34.997Z</time></trkpt>
   <trkpt lat="59.0988029793" lon="30.0238019437"><ele>72.115</ele><time>2026-04-20T22:14:09.997Z</time></trkpt>
   <trkpt lat="59.0988759857" lon="30.0241429195"><ele>72.694</ele><time>2026-04-20T22:14:31.001Z</time></trkpt>
   <trkpt lat="59.099037966" lon="30.0244589173"><ele>72.969</ele><time>2026-04-20T22:14:51.996Z</time></trkpt>
   <trkpt lat="59.0990149996" lon="30.0247789383"><ele>72.45</ele><time>2026-04-20T22:15:10.002Z</time></trkpt>
   <trkpt lat="59.099049994" lon="30.0251299724"><ele>72.481</ele><time>2026-04-20T22:15:29.002Z</time></trkpt>
   <trkpt lat="59.0991549773" lon="30.0253919907"><ele>72.786</ele><time>2026-04-20T22:15:46.999Z</time></trkpt>
   <trkpt lat="59.099313982" lon="30.025748976"><ele>74.645</ele><time>2026-04-20T22:17:56.003Z</time></trkpt>
   <trkpt lat="59.099238964" lon="30.0256469682"><ele>75.864</ele><time>2026-04-20T22:18:19.996Z</time></trkpt>
   <trkpt lat="59.0993259682" lon="30.0259979185"><ele>78.425</ele><time>2026-04-20T22:19:03.999Z</time></trkpt>
   <trkpt lat="59.0993749604" lon="30.0271159806"><ele>82.052</ele><time>2026-04-20T22:20:19.003Z</time></trkpt>
   <trkpt lat="59.0994719809" lon="30.0275239278"><ele>78.394</ele><time>2026-04-20T22:20:45.001Z</time></trkpt>
   <trkpt lat="59.099615982" lon="30.0283869286"><ele>73.365</ele><time>2026-04-20T22:21:40.997Z</time></trkpt>
   <trkpt lat="59.0995869806" lon="30.0286159222"><ele>73.273</ele><time>2026-04-20T22:21:59.996Z</time></trkpt>
   <trkpt lat="59.0994949892" lon="30.0285379705"><ele>77.388</ele><time>2026-04-20T22:28:44.996Z</time></trkpt>
   <trkpt lat="59.0994389981" lon="30.0287619349"><ele>79.43</ele><time>2026-04-20T22:30:28.996Z</time></trkpt>
   <trkpt lat="59.0993159937" lon="30.0288519566"><ele>77.541</ele><time>2026-04-20T22:30:52.998Z</time></trkpt>
   <trkpt lat="59.0991379621" lon="30.0291709718"><ele>75.986</ele><time>2026-04-20T22:31:38.997Z</time></trkpt>
   <trkpt lat="59.0989599724" lon="30.0293439743"><ele>72.786</ele><time>2026-04-20T22:31:58.999Z</time></trkpt>
   <trkpt lat="59.0988179829" lon="30.0296309706"><ele>68.732</ele><time>2026-04-20T22:32:17.998Z</time></trkpt>
   <trkpt lat="59.098546996" lon="30.0300379959"><ele>67.482</ele><time>2026-04-20T22:32:55.003Z</time></trkpt>
   <trkpt lat="59.0983039627" lon="30.0302739464"><ele>71.079</ele><time>2026-04-20T22:33:18.003Z</time></trkpt>
   <trkpt lat="59.0981419824" lon="30.0303349667"><ele>69.707</ele><time>2026-04-20T22:33:36.000Z</time></trkpt>
   <trkpt lat="59.0981239613" lon="30.0306179397"><ele>75.59</ele><time>2026-04-20T22:36:16.004Z</time></trkpt>
   <trkpt lat="59.0981349835" lon="30.0303049595"><ele>73.121</ele><time>2026-04-20T22:39:28.002Z</time></trkpt>
   <trkpt lat="59.0982359855" lon="30.0303539936"><ele>71.993</ele><time>2026-04-20T22:39:59.996Z</time></trkpt>
   <trkpt lat="59.0977789622" lon="30.0304439314"><ele>73.67</ele><time>2026-04-20T22:41:59.997Z</time></trkpt>
   <trkpt lat="59.0972049695" lon="30.0309199397"><ele>72.481</ele><time>2026-04-20T22:43:15.001Z</time></trkpt>
   <trkpt lat="59.0969979784" lon="30.0311989733"><ele>67.939</ele><time>2026-04-20T22:43:34.000Z</time></trkpt>
   <trkpt lat="59.0968769856" lon="30.0314739835"><ele>65.44</ele><time>2026-04-20T22:43:51.004Z</time></trkpt>
   <trkpt lat="59.0968339864" lon="30.0316739757"><ele>65.958</ele><time>2026-04-20T22:44:09.001Z</time></trkpt>
   <trkpt lat="59.0967659673" lon="30.0317369238"><ele>71.567</ele><time>2026-04-20T22:46:02.997Z</time></trkpt>
   <trkpt lat="59.0967939628" lon="30.0319239241"><ele>70.53</ele><time>2026-04-20T22:47:07.002Z</time></trkpt>
   <trkpt lat="59.0966789631" lon="30.0319059868"><ele>73.06</ele><time>2026-04-20T22:48:09.003Z</time></trkpt>
   <trkpt lat="59.0962449901" lon="30.0321489782"><ele>68.549</ele><time>2026-04-20T22:49:23.998Z</time></trkpt>
   <trkpt lat="59.0954189955" lon="30.0324559235"><ele>61.813</ele><time>2026-04-20T22:50:39.002Z</time></trkpt>
   <trkpt lat="59.0950219866" lon="30.0325229787"><ele>76.657</ele><time>2026-04-20T22:57:18.999Z</time></trkpt>
   <trkpt lat="59.0945519714" lon="30.0323619623"><ele>73.243</ele><time>2026-04-20T22:58:04.999Z</time></trkpt>
   <trkpt lat="59.094264975" lon="30.0324249942"><ele>71.597</ele><time>2026-04-20T22:58:39.999Z</time></trkpt>
   <trkpt lat="59.0937769806" lon="30.0326499645"><ele>71.506</ele><time>2026-04-20T22:59:44.998Z</time></trkpt>
   <trkpt lat="59.0937009987" lon="30.0327489548"><ele>75.803</ele><time>2026-04-20T23:00:50.999Z</time></trkpt>
   <trkpt lat="59.0932699593" lon="30.0326559995"><ele>74.889</ele><time>2026-04-20T23:03:36.999Z</time></trkpt>
   <trkpt lat="59.0929579849" lon="30.0328589254"><ele>74.554</ele><time>2026-04-20T23:04:12.000Z</time></trkpt>
   <trkpt lat="59.0925959705" lon="30.0329579995"><ele>73.151</ele><time>2026-04-20T23:04:41.998Z</time></trkpt>
   <trkpt lat="59.0923239777" lon="30.0331349414"><ele>72.847</ele><time>2026-04-20T23:05:19.997Z</time></trkpt>
   <trkpt lat="59.0922729738" lon="30.0330269825"><ele>79.065</ele><time>2026-04-20T23:08:56.999Z</time></trkpt>
   <trkpt lat="59.0921769591" lon="30.0330979772"><ele>78.699</ele><time>2026-04-20T23:09:19.999Z</time></trkpt>
   <trkpt lat="59.092082998" lon="30.0335479178"><ele>79.43</ele><time>2026-04-20T23:10:27.002Z</time></trkpt>
   <trkpt lat="59.0920559664" lon="30.0337049947"><ele>80.314</ele><time>2026-04-20T23:11:22.004Z</time></trkpt>
   <trkpt lat="59.0919899589" lon="30.0338339922"><ele>80.131</ele><time>2026-04-20T23:11:47.000Z</time></trkpt>
   <trkpt lat="59.0919089897" lon="30.0338509236"><ele>80.131</ele><time>2026-04-20T23:12:28.999Z</time></trkpt>
   <trkpt lat="59.0916059839" lon="30.0343879521"><ele>74.645</ele><time>2026-04-20T23:14:04.998Z</time></trkpt>
   <trkpt lat="59.091208975" lon="30.0351659604"><ele>72.603</ele><time>2026-04-20T23:15:21.997Z</time></trkpt>
   <trkpt lat="59.0911099848" lon="30.0352949579"><ele>72.237</ele><time>2026-04-20T23:15:36.996Z</time></trkpt>
   <trkpt lat="59.0908479665" lon="30.0355009851"><ele>69.311</ele><time>2026-04-20T23:20:37.997Z</time></trkpt>
   <trkpt lat="59.090730997" lon="30.0357929268"><ele>67.909</ele><time>2026-04-20T23:21:50.996Z</time></trkpt>
   <trkpt lat="59.0905139895" lon="30.0359689467"><ele>68.153</ele><time>2026-04-20T23:23:22.001Z</time></trkpt>
   <trkpt lat="59.0903359998" lon="30.036192995"><ele>68.336</ele><time>2026-04-20T23:24:09.996Z</time></trkpt>
   <trkpt lat="59.0901859638" lon="30.0367139303"><ele>68.214</ele><time>2026-04-20T23:24:52.004Z</time></trkpt>
   <trkpt lat="59.0901669787" lon="30.0369149283"><ele>67.635</ele><time>2026-04-20T23:25:00.998Z</time></trkpt>
   <trkpt lat="59.0901729718" lon="30.0377219379"><ele>68.549</ele><time>2026-04-20T23:25:38.997Z</time></trkpt>
   <trkpt lat="59.0901659729" lon="30.0378959463"><ele>69.463</ele><time>2026-04-20T23:25:53.003Z</time></trkpt>
   <trkpt lat="59.0901319843" lon="30.0382409454"><ele>70.957</ele><time>2026-04-20T23:28:24.997Z</time></trkpt>
   <trkpt lat="59.0902429607" lon="30.0390489609"><ele>65.379</ele><time>2026-04-20T23:29:10.997Z</time></trkpt>
   <trkpt lat="59.0903449685" lon="30.0394479394"><ele>61.6</ele><time>2026-04-20T23:29:34.999Z</time></trkpt>
   <trkpt lat="59.090598982" lon="30.0400889874"><ele>49.743</ele><time>2026-04-20T23:30:19.002Z</time></trkpt>
   <trkpt lat="59.0907479704" lon="30.0404299632"><ele>55.26</ele><time>2026-04-20T23:30:39.004Z</time></trkpt>
   <trkpt lat="59.0908419734" lon="30.040456953"><ele>64.648</ele><time>2026-04-20T23:31:48.003Z</time></trkpt>
   <trkpt lat="59.0908999762" lon="30.0405499921"><ele>67.726</ele><time>2026-04-20T23:33:12.001Z</time></trkpt>
   <trkpt lat="59.0912489986" lon="30.0416379631"><ele>71.384</ele><time>2026-04-20T23:34:31.999Z</time></trkpt>
   <trkpt lat="59.0914659642" lon="30.04203493"><ele>71.841</ele><time>2026-04-20T23:35:04.001Z</time></trkpt>
   <trkpt lat="59.0916409783" lon="30.0425329827"><ele>72.176</ele><time>2026-04-20T23:35:36.004Z</time></trkpt>
   <trkpt lat="59.0919209758" lon="30.0431009405"><ele>71.018</ele><time>2026-04-20T23:39:22.000Z</time></trkpt>
   <trkpt lat="59.0921939744" lon="30.0438789487"><ele>67.147</ele><time>2026-04-20T23:40:10.004Z</time></trkpt>
   <trkpt lat="59.0924549869" lon="30.0448029697"><ele>62.697</ele><time>2026-04-20T23:41:04.004Z</time></trkpt>
   <trkpt lat="59.0925269874" lon="30.0448699412"><ele>64.709</ele><time>2026-04-20T23:41:24.999Z</time></trkpt>
   <trkpt lat="59.0925719982" lon="30.0450519961"><ele>72.877</ele><time>2026-04-20T23:48:31.003Z</time></trkpt>
   <trkpt lat="59.0927179691" lon="30.0455649686"><ele>68.976</ele><time>2026-04-20T23:48:58.003Z</time></trkpt>
   <trkpt lat="59.0929749582" lon="30.0470119365"><ele>55.961</ele><time>2026-04-20T23:50:07.002Z</time></trkpt>
   <trkpt lat="59.0932539918" lon="30.047731942"><ele>64.465</ele><time>2026-04-20T23:50:53.002Z</time></trkpt>
   <trkpt lat="59.0933389843" lon="30.0477919564"><ele>69.067</ele><time>2026-04-20T23:51:36.996Z</time></trkpt>
   <trkpt lat="59.0934079673" lon="30.0478939642"><ele>66.903</ele><time>2026-04-20T23:53:36.997Z</time></trkpt>
   <trkpt lat="59.0935189856" lon="30.0481019192"><ele>68.579</ele><time>2026-04-20T23:53:52.999Z</time></trkpt>
   <trkpt lat="59.0937469734" lon="30.0488399458"><ele>68.0</ele><time>2026-04-20T23:54:41.003Z</time></trkpt>
   <trkpt lat="59.0938739592" lon="30.0493969232"><ele>65.227</ele><time>2026-04-20T23:55:11.001Z</time></trkpt>
   <trkpt lat="59.0939149887" lon="30.0500059523"><ele>63.093</ele><time>2026-04-20T23:55:43.003Z</time></trkpt>
   <trkpt lat="59.0939499831" lon="30.0502459262"><ele>62.636</ele><time>2026-04-20T23:56:01.000Z</time></trkpt>
   <trkpt lat="59.0940059742" lon="30.0509739783"><ele>63.52</ele><time>2026-04-20T23:57:08.997Z</time></trkpt>
   <trkpt lat="59.0939789845" lon="30.0514869508"><ele>64.922</ele><time>2026-04-20T23:57:54.003Z</time></trkpt>
   <trkpt lat="59.0939399667" lon="30.0516209774"><ele>65.928</ele><time>2026-04-21T00:00:08.001Z</time></trkpt>
   <trkpt lat="59.0939329678" lon="30.0522309285"><ele>65.958</ele><time>2026-04-21T00:00:48.004Z</time></trkpt>
   <trkpt lat="59.0939619692" lon="30.0525039271"><ele>66.842</ele><time>2026-04-21T00:01:14.002Z</time></trkpt>
   <trkpt lat="59.094088997" lon="30.0529979565"><ele>68.336</ele><time>2026-04-21T00:02:01.997Z</time></trkpt>
   <trkpt lat="59.0942789728" lon="30.053283947"><ele>70.591</ele><time>2026-04-21T00:02:25.999Z</time></trkpt>
   <trkpt lat="59.0950419774" lon="30.0551019818"><ele>72.085</ele><time>2026-04-21T00:08:02.000Z</time></trkpt>
   <trkpt lat="59.0953679916" lon="30.055691984"><ele>73.578</ele><time>2026-04-21T00:08:58.998Z</time></trkpt>
   <trkpt lat="59.0955589732" lon="30.0559469615"><ele>75.681</ele><time>2026-04-21T00:09:21.004Z</time></trkpt>
   <trkpt lat="59.0958979793" lon="30.0567549769"><ele>69.982</ele><time>2026-04-21T00:11:50.001Z</time></trkpt>
   <trkpt lat="59.095943996" lon="30.0570269697"><ele>68.854</ele><time>2026-04-21T00:13:08.003Z</time></trkpt>
   <trkpt lat="59.0960739993" lon="30.0571789336"><ele>68.549</ele><time>2026-04-21T00:13:39.996Z</time></trkpt>
   <trkpt lat="59.0961369893" lon="30.0574199971"><ele>65.41</ele><time>2026-04-21T00:13:59.998Z</time></trkpt>
   <trkpt lat="59.0969159614" lon="30.0585729279"><ele>56.113</ele><time>2026-04-21T00:15:47.998Z</time></trkpt>
   <trkpt lat="59.0978209974" lon="30.0592009839"><ele>75.377</ele><time>2026-04-21T00:18:58.000Z</time></trkpt>
   <trkpt lat="59.0980639888" lon="30.0591769279"><ele>75.59</ele><time>2026-04-21T00:19:22.996Z</time></trkpt>
   <trkpt lat="59.0985549588" lon="30.0592679553"><ele>70.317</ele><time>2026-04-21T00:21:13.000Z</time></trkpt>
   <trkpt lat="59.098810984" lon="30.0591689651"><ele>73.548</ele><time>2026-04-21T00:22:53.000Z</time></trkpt>
   <trkpt lat="59.0988609821" lon="30.0594049994"><ele>71.323</ele><time>2026-04-21T00:23:10.997Z</time></trkpt>
   <trkpt lat="59.0993259682" lon="30.0597079214"><ele>68.64</ele><time>2026-04-21T00:24:08.997Z</time></trkpt>
   <trkpt lat="59.0996099889" lon="30.0599999469"><ele>70.5</ele><time>2026-04-21T00:24:46.996Z</time></trkpt>
   <trkpt lat="59.0999769906" lon="30.0607329444"><ele>67.36</ele><time>2026-04-21T00:27:18.999Z</time></trkpt>
   <trkpt lat="59.1002089597" lon="30.0612889998"><ele>67.116</ele><time>2026-04-21T00:27:52.004Z</time></trkpt>
   <trkpt lat="59.1004009892" lon="30.0615799357"><ele>69.524</ele><time>2026-04-21T00:28:11.004Z</time></trkpt>
   <trkpt lat="59.1007569686" lon="30.0618559518"><ele>71.414</ele><time>2026-04-21T00:28:45.002Z</time></trkpt>
   <trkpt lat="59.1011729624" lon="30.0619409443"><ele>70.286</ele><time>2026-04-21T00:29:20.003Z</time></trkpt>
   <trkpt lat="59.1013699791" lon="30.0620459695"><ele>70.043</ele><time>2026-04-21T00:29:46.000Z</time></trkpt>
   <trkpt lat="59.1015769702" lon="30.0623369892"><ele>68.305</ele><time>2026-04-21T00:31:38.001Z</time></trkpt>
   <trkpt lat="59.1017769624" lon="30.0629719183"><ele>69.311</ele><time>2026-04-21T00:32:13.001Z</time></trkpt>
   <trkpt lat="59.1021049882" lon="30.0634509441"><ele>67.635</ele><time>2026-04-21T00:32:51.000Z</time></trkpt>
   <trkpt lat="59.1023579959" lon="30.0639529363"><ele>65.105</ele><time>2026-04-21T00:33:26.001Z</time></trkpt>
   <trkpt lat="59.1024559804" lon="30.0642909784"><ele>65.288</ele><time>2026-04-21T00:33:43.998Z</time></trkpt>
   <trkpt lat="59.1024429884" lon="30.0648139254"><ele>68.549</ele><time>2026-04-21T00:34:08.000Z</time></trkpt>
   <trkpt lat="59.1024749654" lon="30.0652579986"><ele>69.768</ele><time>2026-04-21T00:34:29.997Z</time></trkpt>
   <trkpt lat="59.1026139792" lon="30.0659799319"><ele>62.453</ele><time>2026-04-21T00:35:07.002Z</time></trkpt>
   <trkpt lat="59.1026709762" lon="30.0667929765"><ele>58.308</ele><time>2026-04-21T00:35:58.004Z</time></trkpt>
   <trkpt lat="59.1026599959" lon="30.0672969804"><ele>54.376</ele><time>2026-04-21T00:36:28.002Z</time></trkpt>
   <trkpt lat="59.1026929787" lon="30.0674589187"><ele>72.389</ele><time>2026-04-21T00:39:30.004Z</time></trkpt>
   <trkpt lat="59.102778977" lon="30.0679889903"><ele>71.109</ele><time>2026-04-21T00:40:08.003Z</time></trkpt>
   <trkpt lat="59.1027589862" lon="30.0682459795"><ele>72.45</ele><time>2026-04-21T00:40:23.002Z</time></trkpt>
   <trkpt lat="59.1028179947" lon="30.0691579305"><ele>77.144</ele><time>2026-04-21T00:41:13.001Z</time></trkpt>
   <trkpt lat="59.1030389836" lon="30.0699459971"><ele>79.278</ele><time>2026-04-21T00:41:56.996Z</time></trkpt>
   <trkpt lat="59.1032239722" lon="30.0704259448"><ele>79.735</ele><time>2026-04-21T00:42:23.003Z</time></trkpt>
   <trkpt lat="59.1036939874" lon="30.0713569228"><ele>75.712</ele><time>2026-04-21T00:43:25.003Z</time></trkpt>
   <trkpt lat="59.1038529922" lon="30.0717369583"><ele>73.7</ele><time>2026-04-21T00:44:15.003Z</time></trkpt>
   <trkpt lat="59.1036139822" lon="30.0711699226"><ele>68.915</ele><time>2026-04-21T00:50:21.002Z</time></trkpt>
   <trkpt lat="59.1031659695" lon="30.0704429601"><ele>71.902</ele><time>2026-04-21T00:51:35.997Z</time></trkpt>
   <trkpt lat="59.1028519834" lon="30.0695569929"><ele>74.797</ele><time>2026-04-21T00:52:39.000Z</time></trkpt>
   <trkpt lat="59.1028389914" lon="30.0697479327"><ele>73.395</ele><time>2026-04-21T00:54:51.002Z</time></trkpt>
   <trkpt lat="59.1028889895" lon="30.0695599266"><ele>71.14</ele><time>2026-04-21T00:55:34.003Z</time></trkpt>
   <trkpt lat="59.1031679811" lon="30.0703759887"><ele>72.176</ele><time>2026-04-21T00:56:38.000Z</time></trkpt>
   <trkpt lat="59.103438968" lon="30.0708729517"><ele>71.719</ele><time>2026-04-21T00:58:38.001Z</time></trkpt>
   <trkpt lat="59.103570983" lon="30.0711809867"><ele>71.993</ele><time>2026-04-21T01:00:38.002Z</time></trkpt>
   <trkpt lat="59.1034689753" lon="30.0708879553"><ele>72.877</ele><time>2026-04-21T01:07:31.002Z</time></trkpt>
   <trkpt lat="59.103545963" lon="30.0710719381"><ele>71.506</ele><time>2026-04-21T01:14:17.998Z</time></trkpt>
   <trkpt lat="59.1037169958" lon="30.0714449328"><ele>70.408</ele><time>2026-04-21T01:16:01.998Z</time></trkpt>
   <trkpt lat="59.103966986" lon="30.0720979669"><ele>72.329</ele><time>2026-04-21T01:16:47.004Z</time></trkpt>
   <trkpt lat="59.1040099852" lon="30.0722389505"><ele>72.938</ele><time>2026-04-21T01:17:02.996Z</time></trkpt>
   <trkpt lat="59.1042019727" lon="30.072656956"><ele>72.603</ele><time>2026-04-21T01:20:14.001Z</time></trkpt>
   <trkpt lat="59.1044759771" lon="30.0729439524"><ele>70.073</ele><time>2026-04-21T01:20:46.003Z</time></trkpt>
   <trkpt lat="59.1050999679" lon="30.0732029532"><ele>61.6</ele><time>2026-04-21T01:21:55.996Z</time></trkpt>
   <trkpt lat="59.1053549873" lon="30.0733999279"><ele>60.137</ele><time>2026-04-21T01:22:22.996Z</time></trkpt>
   <trkpt lat="59.1054879662" lon="30.0736009259"><ele>62.026</ele><time>2026-04-21T01:22:42.004Z</time></trkpt>
   <trkpt lat="59.105708997" lon="30.0743899983"><ele>67.452</ele><time>2026-04-21T01:23:32.997Z</time></trkpt>
   <trkpt lat="59.1058059756" lon="30.074423945"><ele>69.616</ele><time>2026-04-21T01:24:30.004Z</time></trkpt>
   <trkpt lat="59.1058639784" lon="30.0748539366"><ele>73.03</ele><time>2026-04-21T01:26:30.998Z</time></trkpt>
   <trkpt lat="59.1064329839" lon="30.0767639209"><ele>64.038</ele><time>2026-04-21T01:28:35.000Z</time></trkpt>
   <trkpt lat="59.1064739714" lon="30.0770349917"><ele>67.482</ele><time>2026-04-21T01:29:24.999Z</time></trkpt>
   <trkpt lat="59.1064669725" lon="30.077950966"><ele>69.433</ele><time>2026-04-21T01:31:33.001Z</time></trkpt>
   <trkpt lat="59.106475983" lon="30.0781309255"><ele>68.823</ele><time>2026-04-21T01:31:46.998Z</time></trkpt>
   <trkpt lat="59.1065929944" lon="30.0787399546"><ele>69.372</ele><time>2026-04-21T01:33:37.996Z</time></trkpt>
   <trkpt lat="59.1067109697" lon="30.0795959984"><ele>69.006</ele><time>2026-04-21T01:36:32.999Z</time></trkpt>
   <trkpt lat="59.1069229899" lon="30.0803849869"><ele>70.896</ele><time>2026-04-21T01:37:26.999Z</time></trkpt>
   <trkpt lat="59.1072549971" lon="30.0806439877"><ele>68.183</ele><time>2026-04-21T01:38:04.004Z</time></trkpt>
   <trkpt lat="59.1075729646" lon="30.0807179999"><ele>69.189</ele><time>2026-04-21T01:38:37.000Z</time></trkpt>
   <trkpt lat="59.1077639882" lon="30.0809679483"><ele>71.627</ele><time>2026-04-21T01:39:04.000Z</time></trkpt>
   <trkpt lat="59.1081539981" lon="30.0812239316"><ele>74.462</ele><time>2026-04-21T01:39:45.999Z</time></trkpt>
   <trkpt lat="59.1082569698" lon="30.0811499194"><ele>72.207</ele><time>2026-04-21T01:41:51.996Z</time></trkpt>
  </trkseg>
 </trk>
 <trk>
  <name>20260420_Lisa55</name>
  <desc>20260420_Lisa55</desc>
  <type>TrackStyle_2196F3C8</type>
  <extensions>
   <gom:time>2026-04-20T21:41:11.999Z</gom:time>
   <line xmlns="http://www.topografix.com/GPX/gpx_style/0/2">
    <color>2196F3</color>
   </line>
  </extensions>
  <trkseg>
   <trkpt lat="59.0924769893" lon="29.9879079521"><ele>71.658</ele><time>2026-04-20T21:41:11.999Z</time></trkpt>
   <trkpt lat="59.0926159613" lon="29.9885679432"><ele>69.829</ele><time>2026-04-20T21:41:25.002Z</time></trkpt>
   <trkpt lat="59.0926349882" lon="29.9883319926"><ele>74.157</ele><time>2026-04-20T21:42:58.997Z</time></trkpt>
   <trkpt lat="59.0925289991" lon="29.9879589979"><ele>75.072</ele><time>2026-04-20T21:43:45.998Z</time></trkpt>
   <trkpt lat="59.0925399793" lon="29.9881519493"><ele>74.401</ele><time>2026-04-20T21:44:24.999Z</time></trkpt>
   <trkpt lat="59.0925749738" lon="29.9883529474"><ele>71.658</ele><time>2026-04-20T21:57:57.004Z</time></trkpt>
   <trkpt lat="59.0925249757" lon="29.9879609257"><ele>70.926</ele><time>2026-04-20T22:04:00.998Z</time></trkpt>
   <trkpt lat="59.0925939588" lon="29.9882859759"><ele>67.513</ele><time>2026-04-20T22:04:37.001Z</time></trkpt>
   <trkpt lat="59.0929909676" lon="29.9879959621"><ele>70.926</ele><time>2026-04-20T22:06:37.996Z</time></trkpt>
   <trkpt lat="59.0930959929" lon="29.9878639471"><ele>71.749</ele><time>2026-04-20T22:07:07.000Z</time></trkpt>
   <trkpt lat="59.0932019821" lon="29.987820948"><ele>72.268</ele><time>2026-04-20T22:07:24.004Z</time></trkpt>
   <trkpt lat="59.0933759904" lon="29.987556918"><ele>70.256</ele><time>2026-04-20T22:08:29.996Z</time></trkpt>
   <trkpt lat="59.0933249865" lon="29.9874479533"><ele>71.353</ele><time>2026-04-20T22:09:43.004Z</time></trkpt>
   <trkpt lat="59.0933499646" lon="29.9870399222"><ele>73.03</ele><time>2026-04-20T22:11:39.998Z</time></trkpt>
   <trkpt lat="59.0933429657" lon="29.9875399866"><ele>69.311</ele><time>2026-04-20T22:13:10.001Z</time></trkpt>
   <trkpt lat="59.0934909901" lon="29.9874799721"><ele>68.793</ele><time>2026-04-20T22:13:34.003Z</time></trkpt>
   <trkpt lat="59.0937379629" lon="29.9872559239"><ele>68.823</ele><time>2026-04-20T22:14:56.999Z</time></trkpt>
   <trkpt lat="59.0940029986" lon="29.9872129247"><ele>76.657</ele><time>2026-04-20T22:18:19.002Z</time></trkpt>
   <trkpt lat="59.093937997" lon="29.9870969192"><ele>78.79</ele><time>2026-04-20T22:20:31.004Z</time></trkpt>
   <trkpt lat="59.0940239953" lon="29.9871429358"><ele>78.485</ele><time>2026-04-20T22:20:53.002Z</time></trkpt>
   <trkpt lat="59.0942479598" lon="29.9870299478"><ele>75.834</ele><time>2026-04-20T22:21:55.002Z</time></trkpt>
   <trkpt lat="59.0943429686" lon="29.9870689236"><ele>73.974</ele><time>2026-04-20T22:22:41.002Z</time></trkpt>
   <trkpt lat="59.0944079703" lon="29.9869669997"><ele>74.858</ele><time>2026-04-20T22:22:58.999Z</time></trkpt>
   <trkpt lat="59.0946469803" lon="29.9868639861"><ele>71.993</ele><time>2026-04-20T22:25:17.999Z</time></trkpt>
   <trkpt lat="59.0947149994" lon="29.9867649958"><ele>73.792</ele><time>2026-04-20T22:25:39.996Z</time></trkpt>
   <trkpt lat="59.0951089908" lon="29.9865429592"><ele>67.878</ele><time>2026-04-20T22:27:08.004Z</time></trkpt>
   <trkpt lat="59.0952949852" lon="29.9865019717"><ele>68.884</ele><time>2026-04-20T22:28:05.002Z</time></trkpt>
   <trkpt lat="59.095207981" lon="29.9864869681"><ele>79.705</ele><time>2026-04-20T22:29:51.999Z</time></trkpt>
   <trkpt lat="59.0953159819" lon="29.9863829486"><ele>78.577</ele><time>2026-04-20T22:30:43.001Z</time></trkpt>
   <trkpt lat="59.095484961" lon="29.9866309692"><ele>82.966</ele><time>2026-04-20T22:33:03.997Z</time></trkpt>
   <trkpt lat="59.0959329738" lon="29.9863709625"><ele>72.298</ele><time>2026-04-20T22:34:24.997Z</time></trkpt>
   <trkpt lat="59.0960929843" lon="29.9863909953"><ele>71.262</ele><time>2026-04-20T22:35:01.000Z</time></trkpt>
   <trkpt lat="59.0962159887" lon="29.9863199167"><ele>74.188</ele><time>2026-04-20T22:35:44.002Z</time></trkpt>
   <trkpt lat="59.096301987" lon="29.986203995"><ele>74.584</ele><time>2026-04-20T22:36:07.001Z</time></trkpt>
   <trkpt lat="59.0964329962" lon="29.9861549609"><ele>75.316</ele><time>2026-04-20T22:37:10.004Z</time></trkpt>
   <trkpt lat="59.0964649731" lon="29.9863169831"><ele>72.481</ele><time>2026-04-20T22:38:06.000Z</time></trkpt>
   <trkpt lat="59.0964949804" lon="29.9861519434"><ele>75.041</ele><time>2026-04-20T22:39:08.001Z</time></trkpt>
   <trkpt lat="59.0965869717" lon="29.9861429748"><ele>73.456</ele><time>2026-04-20T22:42:34.998Z</time></trkpt>
   <trkpt lat="59.0964879815" lon="29.9862469942"><ele>74.157</ele><time>2026-04-20T22:43:39.003Z</time></trkpt>
   <trkpt lat="59.0965309806" lon="29.9867119383"><ele>73.944</ele><time>2026-04-20T22:45:35.004Z</time></trkpt>
   <trkpt lat="59.0966709584" lon="29.986852922"><ele>74.401</ele><time>2026-04-20T22:46:25.997Z</time></trkpt>
   <trkpt lat="59.0968739681" lon="29.9869179655"><ele>74.035</ele><time>2026-04-20T22:47:45.001Z</time></trkpt>
   <trkpt lat="59.0967859581" lon="29.9864409514"><ele>73.944</ele><time>2026-04-20T22:48:55.002Z</time></trkpt>
   <trkpt lat="59.096798992" lon="29.9860749975"><ele>72.969</ele><time>2026-04-20T22:50:35.002Z</time></trkpt>
   <trkpt lat="59.0967249798" lon="29.9859419767"><ele>72.329</ele><time>2026-04-20T22:51:26.997Z</time></trkpt>
   <trkpt lat="59.0967699906" lon="29.9858319223"><ele>74.706</ele><time>2026-04-20T22:54:31.003Z</time></trkpt>
   <trkpt lat="59.0969299592" lon="29.9859159928"><ele>72.908</ele><time>2026-04-20T22:55:56.004Z</time></trkpt>
   <trkpt lat="59.0970929872" lon="29.9857979756"><ele>70.469</ele><time>2026-04-20T22:56:39.998Z</time></trkpt>
   <trkpt lat="59.0971749623" lon="29.9858029209"><ele>71.475</ele><time>2026-04-20T22:57:04.000Z</time></trkpt>
   <trkpt lat="59.0973129703" lon="29.9856839817"><ele>70.896</ele><time>2026-04-20T22:57:47.002Z</time></trkpt>
   <trkpt lat="59.0975749886" lon="29.9855879251"><ele>71.445</ele><time>2026-04-20T22:58:54.998Z</time></trkpt>
   <trkpt lat="59.0980649946" lon="29.9853729293"><ele>73.334</ele><time>2026-04-20T23:01:24.004Z</time></trkpt>
   <trkpt lat="59.0981749652" lon="29.9853149265"><ele>77.327</ele><time>2026-04-20T23:04:40.002Z</time></trkpt>
   <trkpt lat="59.0983319583" lon="29.985449959"><ele>76.321</ele><time>2026-04-20T23:05:49.001Z</time></trkpt>
   <trkpt lat="59.0984189624" lon="29.9854129948"><ele>77.083</ele><time>2026-04-20T23:06:16.001Z</time></trkpt>
   <trkpt lat="59.098521976" lon="29.9851839174"><ele>74.34</ele><time>2026-04-20T23:06:59.996Z</time></trkpt>
   <trkpt lat="59.0988359621" lon="29.9850049638"><ele>73.761</ele><time>2026-04-20T23:08:06.999Z</time></trkpt>
   <trkpt lat="59.0991029676" lon="29.984953918"><ele>69.768</ele><time>2026-04-20T23:09:06.002Z</time></trkpt>
   <trkpt lat="59.0993879942" lon="29.9847599607"><ele>70.53</ele><time>2026-04-20T23:13:09.002Z</time></trkpt>
   <trkpt lat="59.0994439854" lon="29.9849439435"><ele>72.207</ele><time>2026-04-20T23:14:07.996Z</time></trkpt>
   <trkpt lat="59.099458989" lon="29.9847799935"><ele>69.524</ele><time>2026-04-20T23:14:31.004Z</time></trkpt>
   <trkpt lat="59.0994909659" lon="29.9849299457"><ele>69.921</ele><time>2026-04-20T23:15:18.999Z</time></trkpt>
   <trkpt lat="59.0995709712" lon="29.9849839252"><ele>65.471</ele><time>2026-04-20T23:15:39.001Z</time></trkpt>
   <trkpt lat="59.0996259984" lon="29.9851179518"><ele>65.745</ele><time>2026-04-20T23:15:59.996Z</time></trkpt>
   <trkpt lat="59.0998039881" lon="29.984977974"><ele>67.604</ele><time>2026-04-20T23:17:05.004Z</time></trkpt>
   <trkpt lat="59.0999939639" lon="29.985166986"><ele>63.794</ele><time>2026-04-20T23:17:56.999Z</time></trkpt>
   <trkpt lat="59.1000769867" lon="29.9851219751"><ele>67.726</ele><time>2026-04-20T23:19:57.000Z</time></trkpt>
   <trkpt lat="59.1000979834" lon="29.9853449338"><ele>68.427</ele><time>2026-04-20T23:23:00.004Z</time></trkpt>
   <trkpt lat="59.1001609734" lon="29.9854819779"><ele>68.458</ele><time>2026-04-20T23:23:27.004Z</time></trkpt>
   <trkpt lat="59.1002909767" lon="29.9856149987"><ele>69.067</ele><time>2026-04-20T23:25:04.999Z</time></trkpt>
   <trkpt lat="59.1003829681" lon="29.9855769448"><ele>72.45</ele><time>2026-04-20T23:26:11.000Z</time></trkpt>
   <trkpt lat="59.1003909728" lon="29.9854279984"><ele>72.085</ele><time>2026-04-20T23:26:51.003Z</time></trkpt>
   <trkpt lat="59.1004749594" lon="29.985462951"><ele>70.134</ele><time>2026-04-20T23:29:14.997Z</time></trkpt>
   <trkpt lat="59.1005509833" lon="29.9855269887"><ele>69.372</ele><time>2026-04-20T23:29:37.003Z</time></trkpt>
   <trkpt lat="59.1006419689" lon="29.9854529765"><ele>64.007</ele><time>2026-04-20T23:31:18.998Z</time></trkpt>
   <trkpt lat="59.1007309847" lon="29.9856039346"><ele>64.404</ele><time>2026-04-20T23:32:02.000Z</time></trkpt>
   <trkpt lat="59.1010069588" lon="29.9854829837"><ele>70.53</ele><time>2026-04-20T23:33:31.000Z</time></trkpt>
   <trkpt lat="59.1010899816" lon="29.9854599335"><ele>70.622</ele><time>2026-04-20T23:34:11.997Z</time></trkpt>
   <trkpt lat="59.1011939591" lon="29.9854289204"><ele>74.371</ele><time>2026-04-20T23:35:09.997Z</time></trkpt>
   <trkpt lat="59.1011389738" lon="29.9855459318"><ele>79.187</ele><time>2026-04-20T23:38:33.003Z</time></trkpt>
   <trkpt lat="59.1011809671" lon="29.9856999912"><ele>77.967</ele><time>2026-04-20T23:38:52.996Z</time></trkpt>
   <trkpt lat="59.1012769819" lon="29.9858379573"><ele>77.022</ele><time>2026-04-20T23:39:39.004Z</time></trkpt>
   <trkpt lat="59.1014629763" lon="29.9859359418"><ele>73.853</ele><time>2026-04-20T23:40:26.999Z</time></trkpt>
   <trkpt lat="59.1015509863" lon="29.9859399651"><ele>73.7</ele><time>2026-04-20T23:41:20.999Z</time></trkpt>
   <trkpt lat="59.1016229868" lon="29.9858469259"><ele>73.609</ele><time>2026-04-20T23:41:49.001Z</time></trkpt>
   <trkpt lat="59.1016359788" lon="29.9862379417"><ele>72.085</ele><time>2026-04-20T23:43:18.002Z</time></trkpt>
   <trkpt lat="59.1016859768" lon="29.9864139617"><ele>70.103</ele><time>2026-04-20T23:44:09.004Z</time></trkpt>
   <trkpt lat="59.101772981" lon="29.9863039911"><ele>74.096</ele><time>2026-04-20T23:45:52.001Z</time></trkpt>
   <trkpt lat="59.1016889943" lon="29.9864779994"><ele>74.279</ele><time>2026-04-20T23:47:17.002Z</time></trkpt>
   <trkpt lat="59.1017769624" lon="29.9866469786"><ele>73.944</ele><time>2026-04-20T23:48:12.004Z</time></trkpt>
   <trkpt lat="59.1018599851" lon="29.9864039872"><ele>74.249</ele><time>2026-04-20T23:49:29.004Z</time></trkpt>
   <trkpt lat="59.1019419601" lon="29.9866169714"><ele>71.506</ele><time>2026-04-20T23:52:58.999Z</time></trkpt>
   <trkpt lat="59.1020889787" lon="29.9863489181"><ele>70.622</ele><time>2026-04-20T23:53:58.001Z</time></trkpt>
   <trkpt lat="59.1020339934" lon="29.9869269342"><ele>69.189</ele><time>2026-04-20T23:55:16.997Z</time></trkpt>
   <trkpt lat="59.102149999" lon="29.9871639744"><ele>68.458</ele><time>2026-04-20T23:55:58.996Z</time></trkpt>
   <trkpt lat="59.1024949981" lon="29.9868549336"><ele>68.458</ele><time>2026-04-20T23:58:25.003Z</time></trkpt>
   <trkpt lat="59.1025429845" lon="29.9867159617"><ele>69.037</ele><time>2026-04-20T23:58:41.998Z</time></trkpt>
   <trkpt lat="59.1025929826" lon="29.9863389437"><ele>68.244</ele><time>2026-04-20T23:59:27.004Z</time></trkpt>
   <trkpt lat="59.1029229781" lon="29.9866249342"><ele>74.615</ele><time>2026-04-21T00:05:47.000Z</time></trkpt>
   <trkpt lat="59.1029039931" lon="29.9868179694"><ele>72.816</ele><time>2026-04-21T00:06:35.997Z</time></trkpt>
   <trkpt lat="59.1029399933" lon="29.9869459611"><ele>72.207</ele><time>2026-04-21T00:06:58.003Z</time></trkpt>
   <trkpt lat="59.1029219723" lon="29.9871889525"><ele>71.78</ele><time>2026-04-21T00:07:37.998Z</time></trkpt>
   <trkpt lat="59.1029779634" lon="29.9873469513"><ele>70.774</ele><time>2026-04-21T00:07:56.997Z</time></trkpt>
   <trkpt lat="59.1031999581" lon="29.9875029385"><ele>72.725</ele><time>2026-04-21T00:09:17.997Z</time></trkpt>
   <trkpt lat="59.1032759819" lon="29.9876309302"><ele>74.066</ele><time>2026-04-21T00:10:07.003Z</time></trkpt>
   <trkpt lat="59.1034129841" lon="29.9875139188"><ele>73.974</ele><time>2026-04-21T00:10:53.996Z</time></trkpt>
   <trkpt lat="59.1036599988" lon="29.987467986"><ele>70.439</ele><time>2026-04-21T00:12:02.002Z</time></trkpt>
   <trkpt lat="59.1037099969" lon="29.9873299361"><ele>71.17</ele><time>2026-04-21T00:12:23.999Z</time></trkpt>
   <trkpt lat="59.1038839633" lon="29.9874359671"><ele>71.109</ele><time>2026-04-21T00:13:43.003Z</time></trkpt>
   <trkpt lat="59.1040019805" lon="29.9875649646"><ele>77.205</ele><time>2026-04-21T00:18:35.001Z</time></trkpt>
   <trkpt lat="59.1041989971" lon="29.987474943"><ele>77.205</ele><time>2026-04-21T00:19:25.000Z</time></trkpt>
   <trkpt lat="59.1043039805" lon="29.9876459338"><ele>76.017</ele><time>2026-04-21T00:20:01.003Z</time></trkpt>
   <trkpt lat="59.1044599677" lon="29.9877219577"><ele>76.078</ele><time>2026-04-21T00:20:38.000Z</time></trkpt>
   <trkpt lat="59.1045859896" lon="29.9876299244"><ele>75.651</ele><time>2026-04-21T00:21:19.999Z</time></trkpt>
   <trkpt lat="59.1046619715" lon="29.9874979932"><ele>74.736</ele><time>2026-04-21T00:21:42.998Z</time></trkpt>
   <trkpt lat="59.1048229879" lon="29.9876919505"><ele>72.207</ele><time>2026-04-21T00:22:19.001Z</time></trkpt>
   <trkpt lat="59.1048829604" lon="29.9877879233"><ele>68.671</ele><time>2026-04-21T00:25:39.000Z</time></trkpt>
   <trkpt lat="59.1047439885" lon="29.9877389729"><ele>71.567</ele><time>2026-04-21T00:28:06.001Z</time></trkpt>
   <trkpt lat="59.1047309965" lon="29.987555996"><ele>73.03</ele><time>2026-04-21T00:29:16.002Z</time></trkpt>
  </trkseg>
 </trk>
 <trk>
  <name>20260420_Lisa56</name>
  <desc>20260420_Lisa56</desc>
  <type>TrackStyle_2196F3C8</type>
  <extensions>
   <gom:time>2026-04-20T22:08:55.000Z</gom:time>
   <line xmlns="http://www.topografix.com/GPX/gpx_style/0/2">
    <color>2196F3</color>
   </line>
  </extensions>
  <trkseg>
   <trkpt lat="59.0967269914" lon="30.0120999687"><ele>64.221</ele><time>2026-04-20T22:08:55.000Z</time></trkpt>
   <trkpt lat="59.0967529753" lon="30.0124199898"><ele>62.544</ele><time>2026-04-20T22:09:15.002Z</time></trkpt>
   <trkpt lat="59.0969009998" lon="30.0128419348"><ele>62.544</ele><time>2026-04-20T22:09:38.002Z</time></trkpt>
   <trkpt lat="59.097043995" lon="30.0138479308"><ele>65.501</ele><time>2026-04-20T22:10:24.001Z</time></trkpt>
   <trkpt lat="59.0974639703" lon="30.0155259878"><ele>70.865</ele><time>2026-04-20T22:12:06.998Z</time></trkpt>
   <trkpt lat="59.0975179916" lon="30.0158279878"><ele>71.78</ele><time>2026-04-20T22:12:25.004Z</time></trkpt>
   <trkpt lat="59.0976809778" lon="30.0173919671"><ele>60.38</ele><time>2026-04-20T22:13:52.000Z</time></trkpt>
   <trkpt lat="59.0977869669" lon="30.0177739304"><ele>61.965</ele><time>2026-04-20T22:14:13.998Z</time></trkpt>
   <trkpt lat="59.0979039783" lon="30.0184269645"><ele>62.819</ele><time>2026-04-20T22:14:54.001Z</time></trkpt>
   <trkpt lat="59.0979489891" lon="30.0190179725"><ele>70.408</ele><time>2026-04-20T22:15:33.002Z</time></trkpt>
   <trkpt lat="59.0980779866" lon="30.0197419174"><ele>70.774</ele><time>2026-04-20T22:16:27.002Z</time></trkpt>
   <trkpt lat="59.0984939804" lon="30.0208909926"><ele>56.174</ele><time>2026-04-20T22:17:47.000Z</time></trkpt>
   <trkpt lat="59.0984289788" lon="30.0212989398"><ele>62.331</ele><time>2026-04-20T22:18:04.997Z</time></trkpt>
   <trkpt lat="59.098534968" lon="30.0220119883"><ele>63.215</ele><time>2026-04-20T22:18:50.996Z</time></trkpt>
   <trkpt lat="59.0988069607" lon="30.023265921"><ele>66.05</ele><time>2026-04-20T22:20:16.999Z</time></trkpt>
   <trkpt lat="59.0988649635" lon="30.0238889479"><ele>67.299</ele><time>2026-04-20T22:20:58.004Z</time></trkpt>
   <trkpt lat="59.0990089646" lon="30.0245569855"><ele>66.964</ele><time>2026-04-20T22:21:43.001Z</time></trkpt>
   <trkpt lat="59.0989989901" lon="30.0247179181"><ele>64.952</ele><time>2026-04-20T22:21:51.002Z</time></trkpt>
   <trkpt lat="59.0992779818" lon="30.0263419956"><ele>76.139</ele><time>2026-04-20T22:24:10.002Z</time></trkpt>
   <trkpt lat="59.0993639801" lon="30.0264539779"><ele>75.559</ele><time>2026-04-20T22:28:35.000Z</time></trkpt>
   <trkpt lat="59.0994439854" lon="30.0263889343"><ele>75.529</ele><time>2026-04-20T22:30:12.001Z</time></trkpt>
   <trkpt lat="59.0994599948" lon="30.0262199551"><ele>76.87</ele><time>2026-04-20T22:30:44.997Z</time></trkpt>
   <trkpt lat="59.0994539598" lon="30.0264119845"><ele>76.992</ele><time>2026-04-20T22:31:46.998Z</time></trkpt>
   <trkpt lat="59.0995299837" lon="30.0263419956"><ele>81.503</ele><time>2026-04-20T22:32:36.997Z</time></trkpt>
   <trkpt lat="59.0995589851" lon="30.026119959"><ele>80.192</ele><time>2026-04-20T22:33:41.003Z</time></trkpt>
   <trkpt lat="59.0996939756" lon="30.0262399879"><ele>78.638</ele><time>2026-04-20T22:34:17.999Z</time></trkpt>
   <trkpt lat="59.0996469951" lon="30.0263939634"><ele>74.554</ele><time>2026-04-20T22:35:42.999Z</time></trkpt>
   <trkpt lat="59.0995509803" lon="30.0263889343"><ele>74.127</ele><time>2026-04-20T22:36:04.003Z</time></trkpt>
   <trkpt lat="59.0995179976" lon="30.0261889421"><ele>73.609</ele><time>2026-04-20T22:36:41.000Z</time></trkpt>
   <trkpt lat="59.0996439776" lon="30.0262139202"><ele>74.005</ele><time>2026-04-20T22:42:22.003Z</time></trkpt>
   <trkpt lat="59.0996989628" lon="30.0261059613"><ele>74.462</ele><time>2026-04-20T22:42:50.999Z</time></trkpt>
   <trkpt lat="59.0998319837" lon="30.0261869304"><ele>75.011</ele><time>2026-04-20T22:43:31.996Z</time></trkpt>
   <trkpt lat="59.0999309739" lon="30.0261799735"><ele>75.803</ele><time>2026-04-20T22:43:51.004Z</time></trkpt>
   <trkpt lat="59.100099995" lon="30.0259439391"><ele>75.285</ele><time>2026-04-20T22:44:40.001Z</time></trkpt>
   <trkpt lat="59.1001529686" lon="30.0258139357"><ele>76.779</ele><time>2026-04-20T22:45:28.999Z</time></trkpt>
   <trkpt lat="59.1001479814" lon="30.0256449566"><ele>76.321</ele><time>2026-04-20T22:46:09.002Z</time></trkpt>
   <trkpt lat="59.1002189761" lon="30.0257189688"><ele>77.205</ele><time>2026-04-20T22:46:28.001Z</time></trkpt>
   <trkpt lat="59.100344998" lon="30.025629953"><ele>78.973</ele><time>2026-04-20T22:47:12.998Z</time></trkpt>
   <trkpt lat="59.1005419728" lon="30.0257979263"><ele>79.796</ele><time>2026-04-20T22:48:08.001Z</time></trkpt>
   <trkpt lat="59.1006339641" lon="30.0259649776"><ele>80.253</ele><time>2026-04-20T22:49:30.996Z</time></trkpt>
   <trkpt lat="59.1005619636" lon="30.0257789832"><ele>80.589</ele><time>2026-04-20T22:51:00.999Z</time></trkpt>
   <trkpt lat="59.1006129675" lon="30.025924996"><ele>81.655</ele><time>2026-04-20T22:54:46.996Z</time></trkpt>
   <trkpt lat="59.1007939747" lon="30.0258499779"><ele>78.15</ele><time>2026-04-20T22:56:06.000Z</time></trkpt>
   <trkpt lat="59.1009839924" lon="30.0259389937"><ele>76.169</ele><time>2026-04-20T22:56:46.003Z</time></trkpt>
   <trkpt lat="59.1011579588" lon="30.0257909693"><ele>73.426</ele><time>2026-04-20T22:57:48.997Z</time></trkpt>
   <trkpt lat="59.1013059832" lon="30.0257449527"><ele>73.883</ele><time>2026-04-20T22:58:56.001Z</time></trkpt>
   <trkpt lat="59.1015239965" lon="30.0255929888"><ele>70.622</ele><time>2026-04-20T23:00:38.998Z</time></trkpt>
   <trkpt lat="59.1015839691" lon="30.0254189805"><ele>70.073</ele><time>2026-04-20T23:02:56.003Z</time></trkpt>
   <trkpt lat="59.1015419757" lon="30.0255529233"><ele>70.317</ele><time>2026-04-20T23:04:28.001Z</time></trkpt>
   <trkpt lat="59.1019679859" lon="30.0253609777"><ele>67.513</ele><time>2026-04-20T23:07:19.004Z</time></trkpt>
   <trkpt lat="59.1020759868" lon="30.0252279569"><ele>70.774</ele><time>2026-04-20T23:08:25.999Z</time></trkpt>
   <trkpt lat="59.1021719596" lon="30.0252369255"><ele>70.957</ele><time>2026-04-20T23:08:50.001Z</time></trkpt>
   <trkpt lat="59.1022479834" lon="30.0251459819"><ele>69.707</ele><time>2026-04-20T23:09:11.998Z</time></trkpt>
   <trkpt lat="59.1024119754" lon="30.0252219219"><ele>69.402</ele><time>2026-04-20T23:10:20.997Z</time></trkpt>
   <trkpt lat="59.102495962" lon="30.0252239336"><ele>68.976</ele><time>2026-04-20T23:13:47.001Z</time></trkpt>
   <trkpt lat="59.10265899" lon="30.0251869694"><ele>65.653</ele><time>2026-04-20T23:19:04.002Z</time></trkpt>
   <trkpt lat="59.1028739859" lon="30.0250649289"><ele>65.562</ele><time>2026-04-20T23:21:39.997Z</time></trkpt>
   <trkpt lat="59.1031329867" lon="30.0249679503"><ele>68.671</ele><time>2026-04-20T23:23:35.998Z</time></trkpt>
   <trkpt lat="59.1032529736" lon="30.0248919264"><ele>68.427</ele><time>2026-04-20T23:23:57.002Z</time></trkpt>
   <trkpt lat="59.1033269858" lon="30.0247829617"><ele>68.366</ele><time>2026-04-20T23:24:44.004Z</time></trkpt>
   <trkpt lat="59.10326299" lon="30.0246959575"><ele>69.494</ele><time>2026-04-20T23:25:26.003Z</time></trkpt>
   <trkpt lat="59.1034039736" lon="30.02481892"><ele>66.781</ele><time>2026-04-20T23:32:23.004Z</time></trkpt>
   <trkpt lat="59.1035289897" lon="30.0248719775"><ele>65.318</ele><time>2026-04-20T23:33:51.002Z</time></trkpt>
   <trkpt lat="59.1036109647" lon="30.0248789344"><ele>65.897</ele><time>2026-04-20T23:34:12.999Z</time></trkpt>
   <trkpt lat="59.1037359808" lon="30.0247519486"><ele>66.293</ele><time>2026-04-20T23:34:57.003Z</time></trkpt>
   <trkpt lat="59.1038449874" lon="30.0247779325"><ele>68.366</ele><time>2026-04-20T23:35:43.996Z</time></trkpt>
   <trkpt lat="59.1039829955" lon="30.0245959614"><ele>68.214</ele><time>2026-04-20T23:37:47.997Z</time></trkpt>
   <trkpt lat="59.1040379808" lon="30.024239982"><ele>70.652</ele><time>2026-04-20T23:41:18.001Z</time></trkpt>
   <trkpt lat="59.103966986" lon="30.0243239686"><ele>69.86</ele><time>2026-04-20T23:42:25.004Z</time></trkpt>
   <trkpt lat="59.1039429719" lon="30.0244619348"><ele>67.391</ele><time>2026-04-20T23:43:39.999Z</time></trkpt>
   <trkpt lat="59.103979978" lon="30.0243119825"><ele>52.669</ele><time>2026-04-20T23:51:04.000Z</time></trkpt>
   <trkpt lat="59.1039629627" lon="30.0241729267"><ele>74.523</ele><time>2026-04-20T23:57:23.996Z</time></trkpt>
   <trkpt lat="59.1040999649" lon="30.0242109806"><ele>72.847</ele><time>2026-04-20T23:58:47.001Z</time></trkpt>
   <trkpt lat="59.1041539863" lon="30.0241059553"><ele>72.085</ele><time>2026-04-20T23:59:11.003Z</time></trkpt>
   <trkpt lat="59.1041549921" lon="30.0239099864"><ele>76.687</ele><time>2026-04-21T00:01:03.996Z</time></trkpt>
   <trkpt lat="59.1041519746" lon="30.0241349567"><ele>76.291</ele><time>2026-04-21T00:02:20.996Z</time></trkpt>
   <trkpt lat="59.1042269927" lon="30.0240549934"><ele>78.729</ele><time>2026-04-21T00:03:54.999Z</time></trkpt>
   <trkpt lat="59.1041439699" lon="30.0238729384"><ele>76.809</ele><time>2026-04-21T00:09:18.999Z</time></trkpt>
   <trkpt lat="59.104149963" lon="30.024182985"><ele>74.34</ele><time>2026-04-21T00:10:49.002Z</time></trkpt>
   <trkpt lat="59.104092966" lon="30.0238829967"><ele>81.015</ele><time>2026-04-21T00:12:32.000Z</time></trkpt>
   <trkpt lat="59.1041849993" lon="30.0240129162"><ele>79.187</ele><time>2026-04-21T00:13:20.997Z</time></trkpt>
   <trkpt lat="59.104312991" lon="30.0239419215"><ele>76.291</ele><time>2026-04-21T00:17:58.998Z</time></trkpt>
   <trkpt lat="59.1043649588" lon="30.0237929751"><ele>75.163</ele><time>2026-04-21T00:19:22.996Z</time></trkpt>
   <trkpt lat="59.1043719996" lon="30.0236209784"><ele>74.675</ele><time>2026-04-21T00:21:52.001Z</time></trkpt>
   <trkpt lat="59.1044469757" lon="30.0236329645"><ele>75.224</ele><time>2026-04-21T00:22:20.997Z</time></trkpt>
   <trkpt lat="59.1045449602" lon="30.0237399176"><ele>73.548</ele><time>2026-04-21T00:24:35.004Z</time></trkpt>
   <trkpt lat="59.1043779927" lon="30.0236519915"><ele>76.108</ele><time>2026-04-21T00:28:35.999Z</time></trkpt>
   <trkpt lat="59.1045739616" lon="30.0235189707"><ele>81.747</ele><time>2026-04-21T00:34:03.999Z</time></trkpt>
   <trkpt lat="59.1044729596" lon="30.0236009457"><ele>84.033</ele><time>2026-04-21T00:37:46.004Z</time></trkpt>
   <trkpt lat="59.1043999952" lon="30.023611926"><ele>81.229</ele><time>2026-04-21T00:38:12.002Z</time></trkpt>
   <trkpt lat="59.1043399807" lon="30.0234539271"><ele>81.168</ele><time>2026-04-21T00:39:36.000Z</time></trkpt>
   <trkpt lat="59.1042659685" lon="30.0234779832"><ele>79.857</ele><time>2026-04-21T00:41:13.001Z</time></trkpt>
   <trkpt lat="59.1042199938" lon="30.0236409273"><ele>78.333</ele><time>2026-04-21T00:42:04.997Z</time></trkpt>
   <trkpt lat="59.1040829916" lon="30.0237009418"><ele>78.242</ele><time>2026-04-21T00:42:54.003Z</time></trkpt>
   <trkpt lat="59.104023983" lon="30.0239519798"><ele>74.615</ele><time>2026-04-21T00:45:14.999Z</time></trkpt>
   <trkpt lat="59.1040749869" lon="30.0238329568"><ele>75.864</ele><time>2026-04-21T00:48:22.997Z</time></trkpt>
   <trkpt lat="59.1039979991" lon="30.0238399975"><ele>81.442</ele><time>2026-04-21T00:50:48.002Z</time></trkpt>
   <trkpt lat="59.103922981" lon="30.0238099903"><ele>75.346</ele><time>2026-04-21T01:00:04.003Z</time></trkpt>
   <trkpt lat="59.1040289702" lon="30.0234949984"><ele>73.548</ele><time>2026-04-21T01:02:06.000Z</time></trkpt>
   <trkpt lat="59.104004998" lon="30.0233589601"><ele>73.761</ele><time>2026-04-21T01:02:38.003Z</time></trkpt>
   <trkpt lat="59.1040999649" lon="30.0232909829"><ele>79.339</ele><time>2026-04-21T01:03:29.998Z</time></trkpt>
   <trkpt lat="59.1040289702" lon="30.0233319704"><ele>79.705</ele><time>2026-04-21T01:04:39.999Z</time></trkpt>
   <trkpt lat="59.1041189919" lon="30.0233399332"><ele>76.748</ele><time>2026-04-21T01:06:49.003Z</time></trkpt>
   <trkpt lat="59.1039959874" lon="30.0232779909"><ele>75.407</ele><time>2026-04-21T01:07:23.002Z</time></trkpt>
   <trkpt lat="59.1040259946" lon="30.0230999593"><ele>74.858</ele><time>2026-04-21T01:08:44.002Z</time></trkpt>
   <trkpt lat="59.1039209694" lon="30.023000969"><ele>76.626</ele><time>2026-04-21T01:09:41.000Z</time></trkpt>
   <trkpt lat="59.1038679958" lon="30.0227839616"><ele>80.893</ele><time>2026-04-21T01:14:05.997Z</time></trkpt>
   <trkpt lat="59.1039079774" lon="30.0229709618"><ele>83.393</ele><time>2026-04-21T01:16:24.997Z</time></trkpt>
   <trkpt lat="59.103797965" lon="30.0228369352"><ele>80.345</ele><time>2026-04-21T01:17:29.996Z</time></trkpt>
   <trkpt lat="59.1038819935" lon="30.022579946"><ele>75.773</ele><time>2026-04-21T01:18:41.000Z</time></trkpt>
   <trkpt lat="59.1038249966" lon="30.0224689696"><ele>75.956</ele><time>2026-04-21T01:19:03.999Z</time></trkpt>
   <trkpt lat="59.1038559677" lon="30.022334943"><ele>80.68</ele><time>2026-04-21T01:21:17.004Z</time></trkpt>
   <trkpt lat="59.1039119588" lon="30.0224339333"><ele>85.404</ele><time>2026-04-21T01:23:59.004Z</time></trkpt>
   <trkpt lat="59.1038989669" lon="30.0226019905"><ele>79.949</ele><time>2026-04-21T01:25:28.004Z</time></trkpt>
   <trkpt lat="59.1039069716" lon="30.0220429175"><ele>75.468</ele><time>2026-04-21T01:27:01.999Z</time></trkpt>
   <trkpt lat="59.1040419622" lon="30.0215249997"><ele>73.426</ele><time>2026-04-21T01:28:48.003Z</time></trkpt>
   <trkpt lat="59.1043199899" lon="30.0210569542"><ele>63.367</ele><time>2026-04-21T01:30:48.004Z</time></trkpt>
   <trkpt lat="59.1044669666" lon="30.0209929165"><ele>56.448</ele><time>2026-04-21T01:31:26.003Z</time></trkpt>
   <trkpt lat="59.1043089677" lon="30.0212199823"><ele>60.563</ele><time>2026-04-21T01:32:08.002Z</time></trkpt>
   <trkpt lat="59.1041209616" lon="30.0212209881"><ele>67.269</ele><time>2026-04-21T01:32:48.998Z</time></trkpt>
   <trkpt lat="59.1039449835" lon="30.0214209803"><ele>72.237</ele><time>2026-04-21T01:34:05.998Z</time></trkpt>
   <trkpt lat="59.1038709713" lon="30.02144797"><ele>72.603</ele><time>2026-04-21T01:34:24.004Z</time></trkpt>
   <trkpt lat="59.1037559716" lon="30.0215019495"><ele>66.629</ele><time>2026-04-21T01:35:20.000Z</time></trkpt>
   <trkpt lat="59.1036309974" lon="30.0215009436"><ele>66.05</ele><time>2026-04-21T01:36:18.000Z</time></trkpt>
   <trkpt lat="59.1036919758" lon="30.0216249958"><ele>69.646</ele><time>2026-04-21T01:38:43.999Z</time></trkpt>
   <trkpt lat="59.1036899641" lon="30.0218149297"><ele>70.896</ele><time>2026-04-21T01:39:27.000Z</time></trkpt>
   <trkpt lat="59.1037149841" lon="30.0221189414"><ele>73.853</ele><time>2026-04-21T01:40:41.002Z</time></trkpt>
   <trkpt lat="59.1040069677" lon="30.0222059455"><ele>74.675</ele><time>2026-04-21T01:43:58.996Z</time></trkpt>
   <trkpt lat="59.1041419583" lon="30.0222499505"><ele>77.571</ele><time>2026-04-21T01:44:40.001Z</time></trkpt>
   <trkpt lat="59.1040349633" lon="30.0217729364"><ele>77.723</ele><time>2026-04-21T01:47:46.003Z</time></trkpt>
   <trkpt lat="59.1038469991" lon="30.0217719306"><ele>80.223</ele><time>2026-04-21T01:50:16.002Z</time></trkpt>
   <trkpt lat="59.1037339691" lon="30.0216479622"><ele>79.369</ele><time>2026-04-21T01:50:59.997Z</time></trkpt>
   <trkpt lat="59.1036749605" lon="30.0214999378"><ele>77.602</ele><time>2026-04-21T01:51:41.003Z</time></trkpt>
   <trkpt lat="59.1037129725" lon="30.021365995"><ele>78.181</ele><time>2026-04-21T01:54:04.997Z</time></trkpt>
   <trkpt lat="59.1036319614" lon="30.0211319723"><ele>77.419</ele><time>2026-04-21T01:54:47.998Z</time></trkpt>
   <trkpt lat="59.1035529619" lon="30.0210349937"><ele>76.23</ele><time>2026-04-21T01:55:32.002Z</time></trkpt>
   <trkpt lat="59.1034709869" lon="30.0207729754"><ele>77.937</ele><time>2026-04-21T01:56:15.996Z</time></trkpt>
   <trkpt lat="59.1032339886" lon="30.0206259568"><ele>76.565</ele><time>2026-04-21T01:58:56.001Z</time></trkpt>
   <trkpt lat="59.1031549892" lon="30.0207289704"><ele>75.377</ele><time>2026-04-21T01:59:46.000Z</time></trkpt>
   <trkpt lat="59.102885972" lon="30.020743974"><ele>73.913</ele><time>2026-04-21T02:01:05.998Z</time></trkpt>
   <trkpt lat="59.1026449923" lon="30.0206659385"><ele>70.774</ele><time>2026-04-21T02:03:14.000Z</time></trkpt>
   <trkpt lat="59.1024539687" lon="30.0207759928"><ele>67.452</ele><time>2026-04-21T02:03:47.998Z</time></trkpt>
   <trkpt lat="59.1023809623" lon="30.0208779168"><ele>70.103</ele><time>2026-04-21T02:04:33.004Z</time></trkpt>
   <trkpt lat="59.1021349954" lon="30.0208039884"><ele>62.453</ele><time>2026-04-21T02:05:15.996Z</time></trkpt>
   <trkpt lat="59.1019279624" lon="30.0208649248"><ele>58.399</ele><time>2026-04-21T02:05:54.004Z</time></trkpt>
   <trkpt lat="59.1018079754" lon="30.021063995"><ele>60.441</ele><time>2026-04-21T02:06:21.004Z</time></trkpt>
   <trkpt lat="59.1016499765" lon="30.021070952"><ele>66.324</ele><time>2026-04-21T02:07:04.999Z</time></trkpt>
   <trkpt lat="59.1017519843" lon="30.0215839245"><ele>70.103</ele><time>2026-04-21T02:08:38.000Z</time></trkpt>
   <trkpt lat="59.1018389885" lon="30.0227299821"><ele>67.33</ele><time>2026-04-21T02:10:01.004Z</time></trkpt>
   <trkpt lat="59.1020029804" lon="30.0225679599"><ele>62.057</ele><time>2026-04-21T02:10:47.997Z</time></trkpt>
   <trkpt lat="59.1020839915" lon="30.022667956"><ele>59.161</ele><time>2026-04-21T02:11:10.003Z</time></trkpt>
   <trkpt lat="59.1021779945" lon="30.0225709774"><ele>61.539</ele><time>2026-04-21T02:11:49.004Z</time></trkpt>
   <trkpt lat="59.1019339973" lon="30.0224899244"><ele>50.048</ele><time>2026-04-21T02:12:39.004Z</time></trkpt>
   <trkpt lat="59.1018459873" lon="30.0223199394"><ele>45.14</ele><time>2026-04-21T02:12:59.999Z</time></trkpt>
   <trkpt lat="59.1017869787" lon="30.0220809713"><ele>49.347</ele><time>2026-04-21T02:13:24.001Z</time></trkpt>
   <trkpt lat="59.1017949835" lon="30.0219019339"><ele>52.73</ele><time>2026-04-21T02:14:00.004Z</time></trkpt>
   <trkpt lat="59.1017339632" lon="30.021756927"><ele>59.009</ele><time>2026-04-21T02:14:23.997Z</time></trkpt>
   <trkpt lat="59.1017359749" lon="30.0214569387"><ele>63.154</ele><time>2026-04-21T02:15:05.996Z</time></trkpt>
   <trkpt lat="59.1016709732" lon="30.0210929964"><ele>63.703</ele><time>2026-04-21T02:15:48.997Z</time></trkpt>
   <trkpt lat="59.1016749965" lon="30.0207339995"><ele>63.154</ele><time>2026-04-21T02:16:29.001Z</time></trkpt>
   <trkpt lat="59.1016289799" lon="30.0203309976"><ele>62.362</ele><time>2026-04-21T02:17:12.002Z</time></trkpt>
   <trkpt lat="59.1015529979" lon="30.0200279918"><ele>63.55</ele><time>2026-04-21T02:17:35.002Z</time></trkpt>
   <trkpt lat="59.1014749624" lon="30.019341933"><ele>67.726</ele><time>2026-04-21T02:19:55.004Z</time></trkpt>
   <trkpt lat="59.1014559774" lon="30.0191729539"><ele>69.25</ele><time>2026-04-21T02:22:29.004Z</time></trkpt>
   <trkpt lat="59.1014619705" lon="30.018963993"><ele>66.08</ele><time>2026-04-21T02:22:51.001Z</time></trkpt>
   <trkpt lat="59.1013489824" lon="30.0184769206"><ele>61.904</ele><time>2026-04-21T02:23:57.002Z</time></trkpt>
   <trkpt lat="59.1012469746" lon="30.017530939"><ele>62.331</ele><time>2026-04-21T02:25:27.998Z</time></trkpt>
   <trkpt lat="59.1012529677" lon="30.0172899593"><ele>63.306</ele><time>2026-04-21T02:25:53.003Z</time></trkpt>
   <trkpt lat="59.1010989921" lon="30.0160729908"><ele>61.935</ele><time>2026-04-21T02:27:53.997Z</time></trkpt>
   <trkpt lat="59.1009699946" lon="30.0161579833"><ele>62.88</ele><time>2026-04-21T02:29:41.004Z</time></trkpt>
   <trkpt lat="59.1010489941" lon="30.016014988"><ele>63.154</ele><time>2026-04-21T02:30:08.997Z</time></trkpt>
   <trkpt lat="59.1009719644" lon="30.0160489347"><ele>67.269</ele><time>2026-04-21T02:31:06.997Z</time></trkpt>
   <trkpt lat="59.1010769896" lon="30.0161419739"><ele>61.539</ele><time>2026-04-21T02:33:13.997Z</time></trkpt>
   <trkpt lat="59.1010389777" lon="30.0159999844"><ele>61.935</ele><time>2026-04-21T02:33:36.003Z</time></trkpt>
   <trkpt lat="59.1009389816" lon="30.0161489308"><ele>65.135</ele><time>2026-04-21T02:34:35.999Z</time></trkpt>
   <trkpt lat="59.1007929689" lon="30.0162449874"><ele>63.306</ele><time>2026-04-21T02:34:58.999Z</time></trkpt>
   <trkpt lat="59.1004549686" lon="30.0159859866"><ele>68.671</ele><time>2026-04-21T02:36:06.002Z</time></trkpt>
   <trkpt lat="59.1002879592" lon="30.0156499561"><ele>69.982</ele><time>2026-04-21T02:36:50.999Z</time></trkpt>
   <trkpt lat="59.1002419844" lon="30.0154449348"><ele>72.085</ele><time>2026-04-21T02:37:54.002Z</time></trkpt>
   <trkpt lat="59.1002639869" lon="30.0152359739"><ele>70.591</ele><time>2026-04-21T02:38:10.997Z</time></trkpt>
   <trkpt lat="59.1002189761" lon="30.0146959279"><ele>68.397</ele><time>2026-04-21T02:39:14.000Z</time></trkpt>
   <trkpt lat="59.1002779847" lon="30.0143479951"><ele>68.092</ele><time>2026-04-21T02:41:22.001Z</time></trkpt>
   <trkpt lat="59.1002029667" lon="30.0143389427"><ele>68.793</ele><time>2026-04-21T02:41:53.002Z</time></trkpt>
   <trkpt lat="59.10011898" lon="30.0140089471"><ele>70.043</ele><time>2026-04-21T02:42:56.998Z</time></trkpt>
   <trkpt lat="59.1000209956" lon="30.0137619324"><ele>69.555</ele><time>2026-04-21T02:43:39.999Z</time></trkpt>
   <trkpt lat="59.0998879748" lon="30.013656991"><ele>69.341</ele><time>2026-04-21T02:44:31.001Z</time></trkpt>
   <trkpt lat="59.0998369709" lon="30.0131959863"><ele>68.244</ele><time>2026-04-21T02:45:57.004Z</time></trkpt>
   <trkpt lat="59.0995889923" lon="30.01316095"><ele>68.336</ele><time>2026-04-21T02:47:22.004Z</time></trkpt>
   <trkpt lat="59.0995509803" lon="30.0130019453"><ele>69.25</ele><time>2026-04-21T02:47:44.002Z</time></trkpt>
   <trkpt lat="59.0994599948" lon="30.0128599558"><ele>69.86</ele><time>2026-04-21T02:48:08.004Z</time></trkpt>
   <trkpt lat="59.0994079851" lon="30.0129869417"><ele>71.079</ele><time>2026-04-21T02:49:36.002Z</time></trkpt>
   <trkpt lat="59.0993379962" lon="30.0128169567"><ele>72.694</ele><time>2026-04-21T02:50:29.000Z</time></trkpt>
   <trkpt lat="59.0992289895" lon="30.0126659986"><ele>74.066</ele><time>2026-04-21T02:51:01.996Z</time></trkpt>
   <trkpt lat="59.0991749682" lon="30.0125589617"><ele>74.249</ele><time>2026-04-21T02:51:55.002Z</time></trkpt>
   <trkpt lat="59.0989049871" lon="30.012531972"><ele>72.999</ele><time>2026-04-21T02:52:49.996Z</time></trkpt>
   <trkpt lat="59.0988259876" lon="30.0124739692"><ele>76.199</ele><time>2026-04-21T02:53:43.996Z</time></trkpt>
   <trkpt lat="59.0986429688" lon="30.0124899786"><ele>74.493</ele><time>2026-04-21T02:54:34.004Z</time></trkpt>
   <trkpt lat="59.0985089841" lon="30.012657952"><ele>74.493</ele><time>2026-04-21T02:55:00.002Z</time></trkpt>
   <trkpt lat="59.0984159868" lon="30.012538929"><ele>77.327</ele><time>2026-04-21T02:56:01.000Z</time></trkpt>
   <trkpt lat="59.0983359816" lon="30.0128019531"><ele>76.017</ele><time>2026-04-21T02:56:36.001Z</time></trkpt>
   <trkpt lat="59.0982299924" lon="30.0128729478"><ele>75.102</ele><time>2026-04-21T02:56:56.996Z</time></trkpt>
   <trkpt lat="59.0980859913" lon="30.0127889611"><ele>73.334</ele><time>2026-04-21T02:57:39.004Z</time></trkpt>
   <trkpt lat="59.0975489628" lon="30.0132169411"><ele>73.974</ele><time>2026-04-21T02:59:07.002Z</time></trkpt>
   <trkpt lat="59.0973069772" lon="30.0132389855"><ele>73.091</ele><time>2026-04-21T02:59:54.004Z</time></trkpt>
   <trkpt lat="59.0971139839" lon="30.0133969844"><ele>73.151</ele><time>2026-04-21T03:00:59.003Z</time></trkpt>
   <trkpt lat="59.0969989842" lon="30.0131829944"><ele>71.414</ele><time>2026-04-21T03:01:39.999Z</time></trkpt>
   <trkpt lat="59.0970279856" lon="30.0130469561"><ele>71.445</ele><time>2026-04-21T03:02:06.999Z</time></trkpt>
   <trkpt lat="59.0969669653" lon="30.0132079725"><ele>70.469</ele><time>2026-04-21T03:02:43.002Z</time></trkpt>
   <trkpt lat="59.09691198" lon="30.0128629733"><ele>69.128</ele><time>2026-04-21T03:04:58.996Z</time></trkpt>
   <trkpt lat="59.0968209945" lon="30.0124449678"><ele>71.902</ele><time>2026-04-21T03:05:44.002Z</time></trkpt>
   <trkpt lat="59.0967909873" lon="30.0119859748"><ele>65.684</ele><time>2026-04-21T03:06:20.998Z</time></trkpt>
  </trkseg>
 </trk>
 <trk>
  <name>20260420_Lisa57</name>
  <desc>20260420_Lisa57</desc>
  <type>TrackStyle_2196F3C8</type>
  <extensions>
   <gom:time>2026-04-20T22:52:08.996Z</gom:time>
   <line xmlns="http://www.topografix.com/GPX/gpx_style/0/2">
    <color>2196F3</color>
   </line>
  </extensions>
  <trkseg>
   <trkpt lat="59.1013439952" lon="30.0343669974"><ele>70.865</ele><time>2026-04-20T22:52:08.996Z</time></trkpt>
   <trkpt lat="59.1013849827" lon="30.0341809191"><ele>67.452</ele><time>2026-04-20T22:55:53.999Z</time></trkpt>
   <trkpt lat="59.1014879963" lon="30.0340599683"><ele>67.36</ele><time>2026-04-20T22:56:15.003Z</time></trkpt>
   <trkpt lat="59.1014499843" lon="30.0338699505"><ele>66.385</ele><time>2026-04-20T22:56:45.001Z</time></trkpt>
   <trkpt lat="59.1014869904" lon="30.0336839561"><ele>70.286</ele><time>2026-04-20T22:57:29.998Z</time></trkpt>
   <trkpt lat="59.1014779799" lon="30.0334859755"><ele>68.092</ele><time>2026-04-20T23:00:18.003Z</time></trkpt>
   <trkpt lat="59.1014449971" lon="30.0333549664"><ele>69.524</ele><time>2026-04-20T23:04:40.002Z</time></trkpt>
   <trkpt lat="59.1014729927" lon="30.033570968"><ele>69.799</ele><time>2026-04-20T23:07:39.999Z</time></trkpt>
   <trkpt lat="59.1015399641" lon="30.0338869658"><ele>66.995</ele><time>2026-04-20T23:11:20.000Z</time></trkpt>
   <trkpt lat="59.1015209791" lon="30.0340919871"><ele>69.006</ele><time>2026-04-20T23:11:59.001Z</time></trkpt>
   <trkpt lat="59.1015919738" lon="30.0343159516"><ele>68.671</ele><time>2026-04-20T23:12:45.000Z</time></trkpt>
   <trkpt lat="59.1013779838" lon="30.0342049752"><ele>66.507</ele><time>2026-04-20T23:14:37.000Z</time></trkpt>
   <trkpt lat="59.1010049891" lon="30.0342929852"><ele>61.996</ele><time>2026-04-20T23:16:00.998Z</time></trkpt>
   <trkpt lat="59.1007009775" lon="30.0345759582"><ele>59.405</ele><time>2026-04-20T23:17:06.999Z</time></trkpt>
   <trkpt lat="59.1007019833" lon="30.0347839971"><ele>59.588</ele><time>2026-04-20T23:17:27.001Z</time></trkpt>
   <trkpt lat="59.1007739838" lon="30.0350249768"><ele>54.589</ele><time>2026-04-20T23:17:46.000Z</time></trkpt>
   <trkpt lat="59.1007829944" lon="30.0354949501"><ele>53.461</ele><time>2026-04-20T23:18:03.997Z</time></trkpt>
   <trkpt lat="59.1008469902" lon="30.0358859659"><ele>45.323</ele><time>2026-04-20T23:18:26.997Z</time></trkpt>
   <trkpt lat="59.1008459844" lon="30.0361339864"><ele>39.776</ele><time>2026-04-20T23:18:42.998Z</time></trkpt>
   <trkpt lat="59.1009249838" lon="30.0364169594"><ele>30.479</ele><time>2026-04-20T23:19:04.996Z</time></trkpt>
   <trkpt lat="59.1010849944" lon="30.0367309455"><ele>28.133</ele><time>2026-04-20T23:19:27.002Z</time></trkpt>
   <trkpt lat="59.1012309652" lon="30.0374659546"><ele>25.968</ele><time>2026-04-20T23:20:06.996Z</time></trkpt>
   <trkpt lat="59.1012649957" lon="30.0377669488"><ele>31.059</ele><time>2026-04-20T23:20:49.998Z</time></trkpt>
   <trkpt lat="59.1013209868" lon="30.0378679507"><ele>66.172</ele><time>2026-04-20T23:24:04.000Z</time></trkpt>
   <trkpt lat="59.1013439952" lon="30.0385909737"><ele>61.996</ele><time>2026-04-20T23:25:08.999Z</time></trkpt>
   <trkpt lat="59.1014919777" lon="30.03921794"><ele>47.975</ele><time>2026-04-20T23:25:53.996Z</time></trkpt>
   <trkpt lat="59.1014999824" lon="30.039424973"><ele>49.773</ele><time>2026-04-20T23:26:13.004Z</time></trkpt>
   <trkpt lat="59.1015959971" lon="30.0394049403"><ele>52.151</ele><time>2026-04-20T23:26:39.002Z</time></trkpt>
   <trkpt lat="59.101665986" lon="30.0392489531"><ele>51.511</ele><time>2026-04-20T23:27:05.000Z</time></trkpt>
   <trkpt lat="59.1019089774" lon="30.0391369708"><ele>58.43</ele><time>2026-04-20T23:28:04.002Z</time></trkpt>
   <trkpt lat="59.1019819837" lon="30.039186927"><ele>62.819</ele><time>2026-04-20T23:28:39.003Z</time></trkpt>
   <trkpt lat="59.1028409612" lon="30.0387049676"><ele>63.886</ele><time>2026-04-20T23:32:16.999Z</time></trkpt>
   <trkpt lat="59.1031599764" lon="30.0384599645"><ele>65.928</ele><time>2026-04-20T23:33:01.996Z</time></trkpt>
   <trkpt lat="59.1032529736" lon="30.0384139479"><ele>65.501</ele><time>2026-04-20T23:33:21.997Z</time></trkpt>
   <trkpt lat="59.1033999922" lon="30.0384529237"><ele>72.42</ele><time>2026-04-20T23:34:26.996Z</time></trkpt>
   <trkpt lat="59.1035229966" lon="30.0382729643"><ele>73.792</ele><time>2026-04-20T23:36:33.002Z</time></trkpt>
   <trkpt lat="59.1036829652" lon="30.0383099285"><ele>72.786</ele><time>2026-04-20T23:37:31.996Z</time></trkpt>
   <trkpt lat="59.1039019844" lon="30.0381109421"><ele>71.81</ele><time>2026-04-20T23:39:04.003Z</time></trkpt>
   <trkpt lat="59.1040879788" lon="30.0380709604"><ele>71.353</ele><time>2026-04-20T23:39:46.996Z</time></trkpt>
   <trkpt lat="59.104180976" lon="30.0382079207"><ele>69.463</ele><time>2026-04-20T23:40:29.997Z</time></trkpt>
   <trkpt lat="59.1044449641" lon="30.0382609781"><ele>68.854</ele><time>2026-04-20T23:41:08.998Z</time></trkpt>
   <trkpt lat="59.1043709938" lon="30.0382169731"><ele>72.694</ele><time>2026-04-20T23:41:42.003Z</time></trkpt>
   <trkpt lat="59.1044529688" lon="30.038255949"><ele>77.754</ele><time>2026-04-20T23:43:41.002Z</time></trkpt>
   <trkpt lat="59.1043969777" lon="30.0381189887"><ele>75.651</ele><time>2026-04-20T23:45:07.998Z</time></trkpt>
   <trkpt lat="59.1044619793" lon="30.0380239379"><ele>74.615</ele><time>2026-04-20T23:45:34.998Z</time></trkpt>
   <trkpt lat="59.1045639871" lon="30.0379779213"><ele>75.986</ele><time>2026-04-20T23:49:06.004Z</time></trkpt>
   <trkpt lat="59.1047649851" lon="30.0379589782"><ele>76.748</ele><time>2026-04-20T23:49:48.996Z</time></trkpt>
   <trkpt lat="59.1048339682" lon="30.0377999735"><ele>76.596</ele><time>2026-04-20T23:50:08.998Z</time></trkpt>
   <trkpt lat="59.1050289732" lon="30.0376109615"><ele>76.047</ele><time>2026-04-20T23:51:12.001Z</time></trkpt>
   <trkpt lat="59.1051379798" lon="30.0375799485"><ele>76.23</ele><time>2026-04-20T23:51:33.998Z</time></trkpt>
   <trkpt lat="59.1053389779" lon="30.0373719935"><ele>72.877</ele><time>2026-04-20T23:52:25.000Z</time></trkpt>
   <trkpt lat="59.1052529795" lon="30.036953988"><ele>76.321</ele><time>2026-04-20T23:53:16.002Z</time></trkpt>
   <trkpt lat="59.1052659715" lon="30.0367679935"><ele>76.748</ele><time>2026-04-20T23:53:36.997Z</time></trkpt>
   <trkpt lat="59.1051819848" lon="30.0364979286"><ele>76.565</ele><time>2026-04-20T23:54:26.004Z</time></trkpt>
   <trkpt lat="59.1052169793" lon="30.0367769622"><ele>80.162</ele><time>2026-04-20T23:55:28.998Z</time></trkpt>
   <trkpt lat="59.1052899856" lon="30.0365799875"><ele>81.747</ele><time>2026-04-20T23:56:17.002Z</time></trkpt>
   <trkpt lat="59.1053089706" lon="30.0370069616"><ele>81.594</ele><time>2026-04-20T23:57:26.001Z</time></trkpt>
   <trkpt lat="59.1054349926" lon="30.0372129888"><ele>81.259</ele><time>2026-04-20T23:57:58.997Z</time></trkpt>
   <trkpt lat="59.1055379642" lon="30.0372279924"><ele>82.326</ele><time>2026-04-20T23:58:21.003Z</time></trkpt>
   <trkpt lat="59.1056139881" lon="30.0371229671"><ele>82.174</ele><time>2026-04-20T23:59:06.000Z</time></trkpt>
   <trkpt lat="59.1057629764" lon="30.0371399824"><ele>81.076</ele><time>2026-04-20T23:59:27.004Z</time></trkpt>
   <trkpt lat="59.1058709773" lon="30.037110981"><ele>78.364</ele><time>2026-04-20T23:59:42.996Z</time></trkpt>
   <trkpt lat="59.1060029922" lon="30.0369889405"><ele>76.443</ele><time>2026-04-21T00:00:01.996Z</time></trkpt>
   <trkpt lat="59.1061189978" lon="30.0369779602"><ele>76.961</ele><time>2026-04-21T00:00:51.002Z</time></trkpt>
   <trkpt lat="59.1059609989" lon="30.0369229749"><ele>84.673</ele><time>2026-04-21T00:03:26.997Z</time></trkpt>
   <trkpt lat="59.1060669881" lon="30.0368779641"><ele>85.039</ele><time>2026-04-21T00:05:38.999Z</time></trkpt>
   <trkpt lat="59.1060069736" lon="30.0369809777"><ele>84.734</ele><time>2026-04-21T00:07:48.996Z</time></trkpt>
   <trkpt lat="59.1059739908" lon="30.0368409999"><ele>82.509</ele><time>2026-04-21T00:09:21.004Z</time></trkpt>
   <trkpt lat="59.106035975" lon="30.0371119869"><ele>86.898</ele><time>2026-04-21T00:10:42.004Z</time></trkpt>
   <trkpt lat="59.1060059678" lon="30.036953988"><ele>89.55</ele><time>2026-04-21T00:12:45.996Z</time></trkpt>
   <trkpt lat="59.1058989728" lon="30.0367949833"><ele>94.305</ele><time>2026-04-21T00:13:47.997Z</time></trkpt>
   <trkpt lat="59.1060039981" lon="30.0369429239"><ele>92.11</ele><time>2026-04-21T00:14:41.997Z</time></trkpt>
   <trkpt lat="59.1059549639" lon="30.0370559957"><ele>93.878</ele><time>2026-04-21T00:15:12.997Z</time></trkpt>
   <trkpt lat="59.1060479611" lon="30.0369969871"><ele>94.122</ele><time>2026-04-21T00:16:13.996Z</time></trkpt>
   <trkpt lat="59.1059169939" lon="30.0368609489"><ele>97.414</ele><time>2026-04-21T00:18:13.003Z</time></trkpt>
   <trkpt lat="59.1059209753" lon="30.0370609411"><ele>97.109</ele><time>2026-04-21T00:20:13.998Z</time></trkpt>
   <trkpt lat="59.1060309878" lon="30.0370729272"><ele>97.444</ele><time>2026-04-21T00:20:42.000Z</time></trkpt>
   <trkpt lat="59.1059609989" lon="30.0371199497"><ele>97.932</ele><time>2026-04-21T00:21:11.998Z</time></trkpt>
   <trkpt lat="59.1061119989" lon="30.0371559918"><ele>93.573</ele><time>2026-04-21T00:22:36.998Z</time></trkpt>
   <trkpt lat="59.1062639628" lon="30.0372279924"><ele>98.176</ele><time>2026-04-21T00:23:09.001Z</time></trkpt>
   <trkpt lat="59.1061789703" lon="30.0371499569"><ele>97.749</ele><time>2026-04-21T00:24:05.999Z</time></trkpt>
   <trkpt lat="59.1062969875" lon="30.0371789583"><ele>94.061</ele><time>2026-04-21T00:25:01.001Z</time></trkpt>
   <trkpt lat="59.1063079678" lon="30.036940996"><ele>90.921</ele><time>2026-04-21T00:25:21.996Z</time></trkpt>
   <trkpt lat="59.1064049883" lon="30.0367579353"><ele>87.904</ele><time>2026-04-21T00:25:44.996Z</time></trkpt>
   <trkpt lat="59.1065309683" lon="30.0368309416"><ele>86.197</ele><time>2026-04-21T00:26:07.996Z</time></trkpt>
   <trkpt lat="59.1066249714" lon="30.0367619586"><ele>84.46</ele><time>2026-04-21T00:26:33.000Z</time></trkpt>
   <trkpt lat="59.1065539766" lon="30.0366659858"><ele>82.448</ele><time>2026-04-21T00:27:59.996Z</time></trkpt>
   <trkpt lat="59.1067129813" lon="30.0365609605"><ele>80.711</ele><time>2026-04-21T00:28:45.002Z</time></trkpt>
   <trkpt lat="59.106733978" lon="30.0362149556"><ele>79.552</ele><time>2026-04-21T00:29:33.999Z</time></trkpt>
   <trkpt lat="59.1067819644" lon="30.0360859581"><ele>74.919</ele><time>2026-04-21T00:30:54.999Z</time></trkpt>
   <trkpt lat="59.1067269791" lon="30.0359399453"><ele>73.7</ele><time>2026-04-21T00:32:29.003Z</time></trkpt>
   <trkpt lat="59.1067049766" lon="30.036073972"><ele>77.51</ele><time>2026-04-21T00:36:21.997Z</time></trkpt>
   <trkpt lat="59.1067249675" lon="30.035721932"><ele>76.352</ele><time>2026-04-21T00:37:38.004Z</time></trkpt>
   <trkpt lat="59.1065949641" lon="30.0354469218"><ele>77.297</ele><time>2026-04-21T00:38:28.997Z</time></trkpt>
   <trkpt lat="59.1066829741" lon="30.0355479237"><ele>80.467</ele><time>2026-04-21T00:41:09.001Z</time></trkpt>
   <trkpt lat="59.1065759791" lon="30.035299987"><ele>77.083</ele><time>2026-04-21T00:42:22.000Z</time></trkpt>
   <trkpt lat="59.1066189783" lon="30.0347749446"><ele>76.23</ele><time>2026-04-21T00:43:02.997Z</time></trkpt>
   <trkpt lat="59.1066929905" lon="30.0343789835"><ele>76.199</ele><time>2026-04-21T00:43:55.001Z</time></trkpt>
   <trkpt lat="59.10665896" lon="30.0340209924"><ele>76.961</ele><time>2026-04-21T00:44:35.998Z</time></trkpt>
   <trkpt lat="59.1067369955" lon="30.0339539372"><ele>78.882</ele><time>2026-04-21T00:45:28.002Z</time></trkpt>
   <trkpt lat="59.1067159988" lon="30.0337309786"><ele>78.79</ele><time>2026-04-21T00:45:48.004Z</time></trkpt>
   <trkpt lat="59.1066609716" lon="30.0335829542"><ele>78.79</ele><time>2026-04-21T00:46:22.996Z</time></trkpt>
   <trkpt lat="59.1066809625" lon="30.0334179983"><ele>83.972</ele><time>2026-04-21T00:48:02.002Z</time></trkpt>
   <trkpt lat="59.1067419827" lon="30.0336019811"><ele>83.057</ele><time>2026-04-21T00:49:32.998Z</time></trkpt>
   <trkpt lat="59.1067569863" lon="30.0331299961"><ele>79.735</ele><time>2026-04-21T00:51:50.996Z</time></trkpt>
   <trkpt lat="59.1066449622" lon="30.0330569897"><ele>78.973</ele><time>2026-04-21T00:52:22.999Z</time></trkpt>
   <trkpt lat="59.1066799985" lon="30.0328199495"><ele>78.607</ele><time>2026-04-21T00:53:58.004Z</time></trkpt>
   <trkpt lat="59.1066389691" lon="30.0325739407"><ele>76.779</ele><time>2026-04-21T00:54:24.002Z</time></trkpt>
   <trkpt lat="59.1066609716" lon="30.0324099906"><ele>76.535</ele><time>2026-04-21T00:54:48.997Z</time></trkpt>
   <trkpt lat="59.1066209899" lon="30.0321899657"><ele>80.284</ele><time>2026-04-21T00:55:26.996Z</time></trkpt>
   <trkpt lat="59.1065499952" lon="30.0320539274"><ele>84.551</ele><time>2026-04-21T00:55:58.999Z</time></trkpt>
   <trkpt lat="59.1066099677" lon="30.0319629837"><ele>82.692</ele><time>2026-04-21T00:56:44.998Z</time></trkpt>
   <trkpt lat="59.1065159647" lon="30.0318969343"><ele>83.118</ele><time>2026-04-21T00:59:24.000Z</time></trkpt>
   <trkpt lat="59.1065869594" lon="30.0319769815"><ele>81.838</ele><time>2026-04-21T00:59:56.003Z</time></trkpt>
   <trkpt lat="59.1065119833" lon="30.0320729543"><ele>71.445</ele><time>2026-04-21T01:03:04.000Z</time></trkpt>
   <trkpt lat="59.1065879652" lon="30.0320769776"><ele>72.725</ele><time>2026-04-21T01:04:39.999Z</time></trkpt>
   <trkpt lat="59.1065269869" lon="30.0319609721"><ele>73.212</ele><time>2026-04-21T01:08:09.001Z</time></trkpt>
   <trkpt lat="59.1065099716" lon="30.031803979"><ele>71.78</ele><time>2026-04-21T01:08:45.004Z</time></trkpt>
   <trkpt lat="59.1064679783" lon="30.0319199846"><ele>71.567</ele><time>2026-04-21T01:09:54.996Z</time></trkpt>
   <trkpt lat="59.1063209597" lon="30.0318729621"><ele>74.828</ele><time>2026-04-21T01:12:27.000Z</time></trkpt>
   <trkpt lat="59.1062069658" lon="30.0319599662"><ele>75.834</ele><time>2026-04-21T01:13:18.002Z</time></trkpt>
   <trkpt lat="59.1060649764" lon="30.0320629798"><ele>75.041</ele><time>2026-04-21T01:14:31.001Z</time></trkpt>
   <trkpt lat="59.1059469592" lon="30.0319709465"><ele>76.352</ele><time>2026-04-21T01:15:53.997Z</time></trkpt>
   <trkpt lat="59.1060379867" lon="30.0319959246"><ele>77.998</ele><time>2026-04-21T01:17:25.002Z</time></trkpt>
   <trkpt lat="59.1059439836" lon="30.0319449626"><ele>78.333</ele><time>2026-04-21T01:18:55.999Z</time></trkpt>
   <trkpt lat="59.1058649842" lon="30.0318119418"><ele>82.692</ele><time>2026-04-21T01:20:00.004Z</time></trkpt>
   <trkpt lat="59.1058609609" lon="30.0316609838"><ele>82.052</ele><time>2026-04-21T01:20:30.002Z</time></trkpt>
   <trkpt lat="59.1057929836" lon="30.0317269493"><ele>81.198</ele><time>2026-04-21T01:20:50.997Z</time></trkpt>
   <trkpt lat="59.1056969689" lon="30.0316879735"><ele>80.07</ele><time>2026-04-21T01:21:20.002Z</time></trkpt>
   <trkpt lat="59.1056479767" lon="30.0314359297"><ele>79.491</ele><time>2026-04-21T01:22:30.996Z</time></trkpt>
   <trkpt lat="59.1055199851" lon="30.0311409705"><ele>79.187</ele><time>2026-04-21T01:23:48.998Z</time></trkpt>
   <trkpt lat="59.1056109706" lon="30.0310949538"><ele>76.565</ele><time>2026-04-21T01:27:03.001Z</time></trkpt>
   <trkpt lat="59.1056019601" lon="30.0308629428"><ele>73.639</ele><time>2026-04-21T01:29:24.999Z</time></trkpt>
   <trkpt lat="59.1056369964" lon="30.030257937"><ele>73.456</ele><time>2026-04-21T01:31:10.001Z</time></trkpt>
   <trkpt lat="59.1057489787" lon="30.0302719348"><ele>76.535</ele><time>2026-04-21T01:37:35.000Z</time></trkpt>
   <trkpt lat="59.105652964" lon="30.0301509839"><ele>73.334</ele><time>2026-04-21T01:40:03.003Z</time></trkpt>
   <trkpt lat="59.1055719948" lon="30.0302079808"><ele>74.035</ele><time>2026-04-21T01:40:46.004Z</time></trkpt>
   <trkpt lat="59.1055789937" lon="30.0303689972"><ele>82.509</ele><time>2026-04-21T01:44:32.001Z</time></trkpt>
   <trkpt lat="59.1054879662" lon="30.0303819892"><ele>77.723</ele><time>2026-04-21T02:00:17.001Z</time></trkpt>
   <trkpt lat="59.1051589765" lon="30.0304619525"><ele>73.822</ele><time>2026-04-21T02:02:29.996Z</time></trkpt>
   <trkpt lat="59.1051639637" lon="30.0306919519"><ele>73.67</ele><time>2026-04-21T02:03:09.999Z</time></trkpt>
   <trkpt lat="59.1051259937" lon="30.030848945"><ele>74.249</ele><time>2026-04-21T02:03:34.001Z</time></trkpt>
   <trkpt lat="59.105016987" lon="30.0308019225"><ele>68.732</ele><time>2026-04-21T02:17:47.003Z</time></trkpt>
   <trkpt lat="59.1050059648" lon="30.0310479314"><ele>72.329</ele><time>2026-04-21T02:20:40.001Z</time></trkpt>
   <trkpt lat="59.1050149754" lon="30.0309019186"><ele>75.194</ele><time>2026-04-21T02:23:08.998Z</time></trkpt>
   <trkpt lat="59.1049379876" lon="30.0309209455"><ele>80.223</ele><time>2026-04-21T02:24:04.000Z</time></trkpt>
   <trkpt lat="59.1050249918" lon="30.0310029205"><ele>76.504</ele><time>2026-04-21T02:25:22.996Z</time></trkpt>
   <trkpt lat="59.1049579784" lon="30.0309039303"><ele>70.469</ele><time>2026-04-21T02:26:28.003Z</time></trkpt>
   <trkpt lat="59.1050589804" lon="30.0309629389"><ele>68.244</ele><time>2026-04-21T02:27:49.003Z</time></trkpt>
   <trkpt lat="59.1050019834" lon="30.0308599253"><ele>68.214</ele><time>2026-04-21T02:28:16.997Z</time></trkpt>
   <trkpt lat="59.1051419612" lon="30.0310469255"><ele>67.421</ele><time>2026-04-21T02:30:11.002Z</time></trkpt>
   <trkpt lat="59.1053499582" lon="30.0311719835"><ele>70.043</ele><time>2026-04-21T02:32:23.004Z</time></trkpt>
   <trkpt lat="59.105444967" lon="30.0312829599"><ele>68.61</ele><time>2026-04-21T02:33:40.997Z</time></trkpt>
   <trkpt lat="59.1055549795" lon="30.0313419685"><ele>70.408</ele><time>2026-04-21T02:35:17.998Z</time></trkpt>
   <trkpt lat="59.1056409778" lon="30.0312799424"><ele>78.211</ele><time>2026-04-21T02:41:31.998Z</time></trkpt>
   <trkpt lat="59.1058229909" lon="30.0311259669"><ele>75.559</ele><time>2026-04-21T02:50:14.001Z</time></trkpt>
   <trkpt lat="59.105897967" lon="30.0311979674"><ele>71.201</ele><time>2026-04-21T02:51:05.996Z</time></trkpt>
   <trkpt lat="59.1059559697" lon="30.0313219358"><ele>69.372</ele><time>2026-04-21T02:52:03.996Z</time></trkpt>
   <trkpt lat="59.1060909603" lon="30.031816971"><ele>69.402</ele><time>2026-04-21T02:53:36.997Z</time></trkpt>
   <trkpt lat="59.1060829975" lon="30.0321029615"><ele>67.33</ele><time>2026-04-21T02:54:59.000Z</time></trkpt>
   <trkpt lat="59.10614297" lon="30.032225924"><ele>67.025</ele><time>2026-04-21T02:55:20.004Z</time></trkpt>
   <trkpt lat="59.1063099794" lon="30.0324189593"><ele>69.159</ele><time>2026-04-21T02:57:04.997Z</time></trkpt>
   <trkpt lat="59.1063519728" lon="30.0325889443"><ele>70.469</ele><time>2026-04-21T02:57:50.003Z</time></trkpt>
   <trkpt lat="59.1064619852" lon="30.0326289259"><ele>70.896</ele><time>2026-04-21T02:58:16.000Z</time></trkpt>
   <trkpt lat="59.1065169705" lon="30.0327389803"><ele>70.469</ele><time>2026-04-21T02:58:47.001Z</time></trkpt>
   <trkpt lat="59.106456998" lon="30.0330409803"><ele>78.79</ele><time>2026-04-21T02:59:18.001Z</time></trkpt>
   <trkpt lat="59.1065749733" lon="30.0330789503"><ele>83.057</ele><time>2026-04-21T03:00:06.998Z</time></trkpt>
   <trkpt lat="59.106714993" lon="30.0331269786"><ele>82.722</ele><time>2026-04-21T03:00:52.998Z</time></trkpt>
   <trkpt lat="59.1066029689" lon="30.0337059167"><ele>75.407</ele><time>2026-04-21T03:02:38.000Z</time></trkpt>
   <trkpt lat="59.1066859916" lon="30.034086958"><ele>71.749</ele><time>2026-04-21T03:03:21.001Z</time></trkpt>
   <trkpt lat="59.1066669647" lon="30.0343129341"><ele>70.865</ele><time>2026-04-21T03:04:01.998Z</time></trkpt>
   <trkpt lat="59.1067109697" lon="30.0344779738"><ele>71.292</ele><time>2026-04-21T03:04:26.000Z</time></trkpt>
   <trkpt lat="59.1066029689" lon="30.0345569313"><ele>72.481</ele><time>2026-04-21T03:05:01.000Z</time></trkpt>
   <trkpt lat="59.1066129852" lon="30.0349589274"><ele>73.151</ele><time>2026-04-21T03:06:05.999Z</time></trkpt>
   <trkpt lat="59.1065569941" lon="30.0353179243"><ele>73.06</ele><time>2026-04-21T03:06:51.998Z</time></trkpt>
   <trkpt lat="59.1065999933" lon="30.0354619254"><ele>72.816</ele><time>2026-04-21T03:07:10.998Z</time></trkpt>
   <trkpt lat="59.1066069922" lon="30.0356379454"><ele>72.999</ele><time>2026-04-21T03:07:33.004Z</time></trkpt>
   <trkpt lat="59.1065559883" lon="30.0358989578"><ele>72.633</ele><time>2026-04-21T03:08:23.004Z</time></trkpt>
   <trkpt lat="59.106551965" lon="30.0360709545"><ele>72.268</ele><time>2026-04-21T03:08:46.997Z</time></trkpt>
   <trkpt lat="59.1065469777" lon="30.0362229184"><ele>74.736</ele><time>2026-04-21T03:09:17.004Z</time></trkpt>
   <trkpt lat="59.1065859955" lon="30.0363759719"><ele>73.913</ele><time>2026-04-21T03:10:21.000Z</time></trkpt>
   <trkpt lat="59.1064609794" lon="30.0364699331"><ele>73.7</ele><time>2026-04-21T03:11:09.997Z</time></trkpt>
   <trkpt lat="59.1064329839" lon="30.0367829972"><ele>72.176</ele><time>2026-04-21T03:11:46.000Z</time></trkpt>
   <trkpt lat="59.1062729733" lon="30.0369669799"><ele>71.079</ele><time>2026-04-21T03:12:57.997Z</time></trkpt>
   <trkpt lat="59.1054269878" lon="30.0373799563"><ele>69.555</ele><time>2026-04-21T03:15:27.003Z</time></trkpt>
   <trkpt lat="59.1050199626" lon="30.0377029948"><ele>69.159</ele><time>2026-04-21T03:17:10.000Z</time></trkpt>
   <trkpt lat="59.104878979" lon="30.0378339202"><ele>70.378</ele><time>2026-04-21T03:18:24.002Z</time></trkpt>
   <trkpt lat="59.104784976" lon="30.0378829543"><ele>71.932</ele><time>2026-04-21T03:18:50.000Z</time></trkpt>
   <trkpt lat="59.1046309585" lon="30.0377819524"><ele>72.847</ele><time>2026-04-21T03:19:18.002Z</time></trkpt>
   <trkpt lat="59.1044759771" lon="30.0375319202"><ele>73.212</ele><time>2026-04-21T03:20:05.997Z</time></trkpt>
   <trkpt lat="59.1043959718" lon="30.0375359435"><ele>74.035</ele><time>2026-04-21T03:20:33.999Z</time></trkpt>
   <trkpt lat="59.1042919943" lon="30.0374419824"><ele>73.578</ele><time>2026-04-21T03:21:18.996Z</time></trkpt>
   <trkpt lat="59.1040659763" lon="30.0375359435"><ele>73.792</ele><time>2026-04-21T03:21:56.002Z</time></trkpt>
   <trkpt lat="59.1038409641" lon="30.0378069304"><ele>72.847</ele><time>2026-04-21T03:22:43.997Z</time></trkpt>
   <trkpt lat="59.1034479786" lon="30.037953949"><ele>69.22</ele><time>2026-04-21T03:23:52.996Z</time></trkpt>
   <trkpt lat="59.1033619803" lon="30.0381849543"><ele>68.488</ele><time>2026-04-21T03:24:36.999Z</time></trkpt>
   <trkpt lat="59.1032579608" lon="30.0386429415"><ele>67.97</ele><time>2026-04-21T03:25:40.996Z</time></trkpt>
   <trkpt lat="59.1030389836" lon="30.0387469609"><ele>67.421</ele><time>2026-04-21T03:26:38.996Z</time></trkpt>
   <trkpt lat="59.1028629637" lon="30.038771939"><ele>69.494</ele><time>2026-04-21T03:27:24.002Z</time></trkpt>
   <trkpt lat="59.1024589978" lon="30.0389879406"><ele>70.225</ele><time>2026-04-21T03:28:12.999Z</time></trkpt>
   <trkpt lat="59.1023749693" lon="30.0390249886"><ele>73.243</ele><time>2026-04-21T03:28:57.003Z</time></trkpt>
   <trkpt lat="59.1021659665" lon="30.0391119928"><ele>76.382</ele><time>2026-04-21T03:29:44.998Z</time></trkpt>
   <trkpt lat="59.1019509707" lon="30.0393169303"><ele>77.449</ele><time>2026-04-21T03:30:29.002Z</time></trkpt>
   <trkpt lat="59.1017829973" lon="30.0393299223"><ele>77.967</ele><time>2026-04-21T03:30:57.004Z</time></trkpt>
   <trkpt lat="59.1016169938" lon="30.0392199517"><ele>77.022</ele><time>2026-04-21T03:31:15.001Z</time></trkpt>
   <trkpt lat="59.1014169596" lon="30.0387769681"><ele>73.67</ele><time>2026-04-21T03:31:46.001Z</time></trkpt>
   <trkpt lat="59.1012639899" lon="30.0380529393"><ele>69.646</ele><time>2026-04-21T03:32:37.997Z</time></trkpt>
   <trkpt lat="59.1011829788" lon="30.037507948"><ele>69.89</ele><time>2026-04-21T03:33:19.996Z</time></trkpt>
   <trkpt lat="59.1008439727" lon="30.0359779992"><ele>63.459</ele><time>2026-04-21T03:35:16.999Z</time></trkpt>
   <trkpt lat="59.1007719722" lon="30.0354639371"><ele>66.354</ele><time>2026-04-21T03:40:04.002Z</time></trkpt>
   <trkpt lat="59.1007339603" lon="30.0347709213"><ele>73.578</ele><time>2026-04-21T03:40:57.000Z</time></trkpt>
   <trkpt lat="59.1005729858" lon="30.0340939988"><ele>68.275</ele><time>2026-04-21T03:42:01.999Z</time></trkpt>
  </trkseg>
 </trk>
 <trk>
  <name>20260420_Lisa58</name>
  <desc>20260420_Lisa58</desc>
  <type>TrackStyle_2196F3C8</type>
  <extensions>
   <gom:time>2026-04-20T22:07:03.000Z</gom:time>
   <line xmlns="http://www.topografix.com/GPX/gpx_style/0/2">
    <color>2196F3</color>
   </line>
  </extensions>
  <trkseg>
   <trkpt lat="59.0937109731" lon="29.9944219482"><ele>65.806</ele><time>2026-04-20T22:07:03.000Z</time></trkpt>
   <trkpt lat="59.0938159984" lon="29.9957209755"><ele>63.306</ele><time>2026-04-20T22:08:10.003Z</time></trkpt>
   <trkpt lat="59.0939119712" lon="29.996094976"><ele>66.69</ele><time>2026-04-20T22:08:25.002Z</time></trkpt>
   <trkpt lat="59.0939789845" lon="29.9965779413"><ele>64.434</ele><time>2026-04-20T22:08:49.004Z</time></trkpt>
   <trkpt lat="59.0941319961" lon="29.9971089349"><ele>64.465</ele><time>2026-04-20T22:09:12.004Z</time></trkpt>
   <trkpt lat="59.0941809884" lon="29.997623919"><ele>62.758</ele><time>2026-04-20T22:09:35.004Z</time></trkpt>
   <trkpt lat="59.0943419628" lon="29.9983249814"><ele>65.013</ele><time>2026-04-20T22:09:58.997Z</time></trkpt>
   <trkpt lat="59.0943759933" lon="29.9991589807"><ele>60.502</ele><time>2026-04-20T22:10:41.998Z</time></trkpt>
   <trkpt lat="59.0944329903" lon="29.9992449791"><ele>61.295</ele><time>2026-04-20T22:11:00.997Z</time></trkpt>
   <trkpt lat="59.0945899833" lon="29.9999589496"><ele>63.002</ele><time>2026-04-20T22:11:37.000Z</time></trkpt>
   <trkpt lat="59.0948199827" lon="30.0012539536"><ele>61.203</ele><time>2026-04-20T22:12:35.001Z</time></trkpt>
   <trkpt lat="59.0947759777" lon="30.0004919548"><ele>67.604</ele><time>2026-04-20T22:13:19.004Z</time></trkpt>
   <trkpt lat="59.094704983" lon="30.0003339559"><ele>72.725</ele><time>2026-04-20T22:13:52.000Z</time></trkpt>
   <trkpt lat="59.0946319767" lon="29.9996489868"><ele>76.565</ele><time>2026-04-20T22:14:48.998Z</time></trkpt>
   <trkpt lat="59.0947649975" lon="29.9997509946"><ele>77.784</ele><time>2026-04-20T22:15:33.002Z</time></trkpt>
   <trkpt lat="59.0948799972" lon="29.9997799959"><ele>79.369</ele><time>2026-04-20T22:17:18.004Z</time></trkpt>
   <trkpt lat="59.0947939988" lon="29.9997189757"><ele>78.425</ele><time>2026-04-20T22:17:53.998Z</time></trkpt>
   <trkpt lat="59.0948619761" lon="29.999654938"><ele>80.345</ele><time>2026-04-20T22:18:23.003Z</time></trkpt>
   <trkpt lat="59.095006983" lon="29.9999049701"><ele>79.674</ele><time>2026-04-20T22:19:13.996Z</time></trkpt>
   <trkpt lat="59.0951179594" lon="29.9998749629"><ele>78.76</ele><time>2026-04-20T22:19:33.004Z</time></trkpt>
   <trkpt lat="59.0951659877" lon="29.9994479888"><ele>77.51</ele><time>2026-04-20T22:20:24.999Z</time></trkpt>
   <trkpt lat="59.0952919677" lon="29.9992459849"><ele>76.413</ele><time>2026-04-20T22:20:58.004Z</time></trkpt>
   <trkpt lat="59.0954259943" lon="29.9991839588"><ele>79.674</ele><time>2026-04-20T22:21:21.004Z</time></trkpt>
   <trkpt lat="59.0956279982" lon="29.9992899899"><ele>77.754</ele><time>2026-04-20T22:22:00.998Z</time></trkpt>
   <trkpt lat="59.0956709974" lon="29.9995639943"><ele>88.452</ele><time>2026-04-20T22:24:44.001Z</time></trkpt>
   <trkpt lat="59.0957429979" lon="29.9995309696"><ele>90.251</ele><time>2026-04-20T22:25:12.996Z</time></trkpt>
   <trkpt lat="59.0960909726" lon="29.998955971"><ele>82.57</ele><time>2026-04-20T22:26:44.002Z</time></trkpt>
   <trkpt lat="59.0961589918" lon="29.9988679611"><ele>80.497</ele><time>2026-04-20T22:26:59.001Z</time></trkpt>
   <trkpt lat="59.0962639751" lon="29.9988479283"><ele>81.96</ele><time>2026-04-20T22:27:23.003Z</time></trkpt>
   <trkpt lat="59.0963799807" lon="29.9990339227"><ele>80.68</ele><time>2026-04-20T22:28:25.997Z</time></trkpt>
   <trkpt lat="59.0965519773" lon="29.9989499361"><ele>79.278</ele><time>2026-04-20T22:29:08.998Z</time></trkpt>
   <trkpt lat="59.0966499618" lon="29.9989179172"><ele>78.668</ele><time>2026-04-20T22:30:09.996Z</time></trkpt>
   <trkpt lat="59.0967979862" lon="29.9990279716"><ele>83.118</ele><time>2026-04-20T22:33:49.003Z</time></trkpt>
   <trkpt lat="59.0967269914" lon="29.9990789336"><ele>85.862</ele><time>2026-04-20T22:34:24.004Z</time></trkpt>
   <trkpt lat="59.0966379756" lon="29.9989769258"><ele>84.429</ele><time>2026-04-20T22:35:22.004Z</time></trkpt>
   <trkpt lat="59.0966879737" lon="29.9988469225"><ele>84.033</ele><time>2026-04-20T22:36:07.001Z</time></trkpt>
   <trkpt lat="59.0967639975" lon="29.9987819627"><ele>83.423</ele><time>2026-04-20T22:36:32.999Z</time></trkpt>
   <trkpt lat="59.0968729623" lon="29.9988269736"><ele>83.698</ele><time>2026-04-20T22:36:54.996Z</time></trkpt>
   <trkpt lat="59.0969469745" lon="29.9987689708"><ele>82.631</ele><time>2026-04-20T22:37:17.996Z</time></trkpt>
   <trkpt lat="59.0970779836" lon="29.9987889197"><ele>81.533</ele><time>2026-04-20T22:37:39.000Z</time></trkpt>
   <trkpt lat="59.0971739983" lon="29.9986459244"><ele>79.796</ele><time>2026-04-20T22:37:57.999Z</time></trkpt>
   <trkpt lat="59.0973099947" lon="29.998591945"><ele>80.284</ele><time>2026-04-20T22:38:49.001Z</time></trkpt>
   <trkpt lat="59.0973749964" lon="29.9982469459"><ele>79.491</ele><time>2026-04-20T22:39:32.003Z</time></trkpt>
   <trkpt lat="59.097546993" lon="29.9981159367"><ele>79.613</ele><time>2026-04-20T22:40:27.998Z</time></trkpt>
   <trkpt lat="59.0974079792" lon="29.9985029292"><ele>74.615</ele><time>2026-04-20T22:41:39.002Z</time></trkpt>
   <trkpt lat="59.0973599928" lon="29.9987909314"><ele>74.34</ele><time>2026-04-20T22:42:11.998Z</time></trkpt>
   <trkpt lat="59.0972469628" lon="29.9990699649"><ele>74.096</ele><time>2026-04-20T22:44:24.000Z</time></trkpt>
   <trkpt lat="59.0971489784" lon="29.9991719727"><ele>70.164</ele><time>2026-04-20T22:45:36.999Z</time></trkpt>
   <trkpt lat="59.0971749623" lon="29.9990299833"><ele>71.902</ele><time>2026-04-20T22:46:40.002Z</time></trkpt>
   <trkpt lat="59.0972619664" lon="29.9992119544"><ele>75.925</ele><time>2026-04-20T22:48:28.996Z</time></trkpt>
   <trkpt lat="59.0971519958" lon="29.9991349247"><ele>74.432</ele><time>2026-04-20T22:49:11.997Z</time></trkpt>
   <trkpt lat="59.0970329728" lon="29.9990869802"><ele>74.371</ele><time>2026-04-20T22:50:12.002Z</time></trkpt>
   <trkpt lat="59.0968989881" lon="29.9990759999"><ele>74.858</ele><time>2026-04-20T22:50:35.002Z</time></trkpt>
   <trkpt lat="59.0967159692" lon="29.9993119505"><ele>72.633</ele><time>2026-04-20T22:51:11.998Z</time></trkpt>
   <trkpt lat="59.0965639634" lon="29.9996849452"><ele>79.369</ele><time>2026-04-20T22:52:39.003Z</time></trkpt>
   <trkpt lat="59.0967019715" lon="29.9996609729"><ele>77.663</ele><time>2026-04-20T22:53:10.997Z</time></trkpt>
   <trkpt lat="59.0966019754" lon="29.9999609612"><ele>78.364</ele><time>2026-04-20T22:54:35.997Z</time></trkpt>
   <trkpt lat="59.0964789709" lon="29.999930954"><ele>76.901</ele><time>2026-04-20T22:55:17.996Z</time></trkpt>
   <trkpt lat="59.0964049587" lon="30.0000009429"><ele>75.986</ele><time>2026-04-20T22:55:40.996Z</time></trkpt>
   <trkpt lat="59.0963119615" lon="29.9998939898"><ele>75.163</ele><time>2026-04-20T22:55:59.002Z</time></trkpt>
   <trkpt lat="59.0964639673" lon="29.9996129446"><ele>75.895</ele><time>2026-04-20T22:58:30.996Z</time></trkpt>
   <trkpt lat="59.0965809787" lon="29.9998819199"><ele>76.199</ele><time>2026-04-20T22:59:35.002Z</time></trkpt>
   <trkpt lat="59.0963639712" lon="29.9999839277"><ele>68.031</ele><time>2026-04-20T23:01:07.000Z</time></trkpt>
   <trkpt lat="59.0962789787" lon="29.999936989"><ele>70.622</ele><time>2026-04-20T23:01:51.997Z</time></trkpt>
   <trkpt lat="59.0966269953" lon="29.9997999449"><ele>76.382</ele><time>2026-04-20T23:06:51.002Z</time></trkpt>
   <trkpt lat="59.0967959745" lon="29.9998899665"><ele>80.497</ele><time>2026-04-20T23:08:31.001Z</time></trkpt>
   <trkpt lat="59.0969339825" lon="30.0001269229"><ele>77.541</ele><time>2026-04-20T23:09:42.998Z</time></trkpt>
   <trkpt lat="59.0972759642" lon="29.9999709357"><ele>75.285</ele><time>2026-04-20T23:11:06.996Z</time></trkpt>
   <trkpt lat="59.0973989686" lon="30.0001849257"><ele>74.462</ele><time>2026-04-20T23:12:19.996Z</time></trkpt>
   <trkpt lat="59.0974759983" lon="30.0001659826"><ele>75.437</ele><time>2026-04-20T23:12:38.002Z</time></trkpt>
   <trkpt lat="59.0976839952" lon="30.0000509829"><ele>71.78</ele><time>2026-04-20T23:13:08.000Z</time></trkpt>
   <trkpt lat="59.0977919961" lon="29.9998539243"><ele>67.36</ele><time>2026-04-20T23:13:26.999Z</time></trkpt>
   <trkpt lat="59.0978249788" lon="29.9996529263"><ele>66.141</ele><time>2026-04-20T23:13:43.000Z</time></trkpt>
   <trkpt lat="59.0979079597" lon="29.9994319793"><ele>66.05</ele><time>2026-04-20T23:14:19.003Z</time></trkpt>
   <trkpt lat="59.0979719974" lon="29.9993629963"><ele>73.121</ele><time>2026-04-20T23:16:19.998Z</time></trkpt>
   <trkpt lat="59.0980349874" lon="29.9994449713"><ele>85.465</ele><time>2026-04-20T23:18:54.999Z</time></trkpt>
   <trkpt lat="59.0979609752" lon="29.9993389402"><ele>87.782</ele><time>2026-04-20T23:22:06.004Z</time></trkpt>
   <trkpt lat="59.0979089655" lon="29.9995359987"><ele>89.336</ele><time>2026-04-20T23:23:11.003Z</time></trkpt>
   <trkpt lat="59.0979769847" lon="29.9994579632"><ele>87.629</ele><time>2026-04-20T23:23:42.003Z</time></trkpt>
   <trkpt lat="59.0982719857" lon="29.9989209347"><ele>80.162</ele><time>2026-04-20T23:26:28.997Z</time></trkpt>
   <trkpt lat="59.0983249594" lon="29.9987269775"><ele>79.552</ele><time>2026-04-20T23:26:46.000Z</time></trkpt>
   <trkpt lat="59.0984599918" lon="29.9984369636"><ele>74.675</ele><time>2026-04-20T23:27:18.996Z</time></trkpt>
   <trkpt lat="59.0985369796" lon="29.9979369831"><ele>72.176</ele><time>2026-04-20T23:27:50.999Z</time></trkpt>
   <trkpt lat="59.0986699585" lon="29.9979449459"><ele>69.951</ele><time>2026-04-20T23:28:24.997Z</time></trkpt>
   <trkpt lat="59.0988669751" lon="29.9979899567"><ele>65.471</ele><time>2026-04-20T23:28:58.996Z</time></trkpt>
   <trkpt lat="59.0990099704" lon="29.9981399928"><ele>68.976</ele><time>2026-04-20T23:29:57.998Z</time></trkpt>
   <trkpt lat="59.0992179673" lon="29.9981519789"><ele>84.947</ele><time>2026-04-20T23:31:36.002Z</time></trkpt>
   <trkpt lat="59.0994099967" lon="29.9982559983"><ele>78.638</ele><time>2026-04-20T23:32:11.996Z</time></trkpt>
   <trkpt lat="59.0996689975" lon="29.9981319461"><ele>73.091</ele><time>2026-04-20T23:32:56.000Z</time></trkpt>
   <trkpt lat="59.09990499" lon="29.9980419245"><ele>72.664</ele><time>2026-04-20T23:33:47.002Z</time></trkpt>
   <trkpt lat="59.1001349895" lon="29.9976779823"><ele>70.439</ele><time>2026-04-20T23:34:33.001Z</time></trkpt>
   <trkpt lat="59.1002359914" lon="29.9973349948"><ele>71.018</ele><time>2026-04-20T23:35:01.003Z</time></trkpt>
   <trkpt lat="59.1001099695" lon="29.9973509204"><ele>68.061</ele><time>2026-04-20T23:35:38.000Z</time></trkpt>
   <trkpt lat="59.1002119772" lon="29.9974199873"><ele>64.8</ele><time>2026-04-20T23:35:59.004Z</time></trkpt>
   <trkpt lat="59.1002789905" lon="29.9972929176"><ele>67.147</ele><time>2026-04-20T23:36:26.004Z</time></trkpt>
   <trkpt lat="59.1004169986" lon="29.9973079212"><ele>63.367</ele><time>2026-04-20T23:36:45.003Z</time></trkpt>
   <trkpt lat="59.1005369855" lon="29.9970499263"><ele>67.878</ele><time>2026-04-20T23:37:55.998Z</time></trkpt>
   <trkpt lat="59.1005879894" lon="29.9969149776"><ele>77.51</ele><time>2026-04-20T23:40:30.999Z</time></trkpt>
   <trkpt lat="59.1006639714" lon="29.9970079329"><ele>80.893</ele><time>2026-04-20T23:42:01.002Z</time></trkpt>
   <trkpt lat="59.1005579822" lon="29.997018997"><ele>80.162</ele><time>2026-04-20T23:45:00.999Z</time></trkpt>
   <trkpt lat="59.1006299827" lon="29.9968949449"><ele>79.796</ele><time>2026-04-20T23:45:52.001Z</time></trkpt>
   <trkpt lat="59.1005009853" lon="29.9967699707"><ele>80.528</ele><time>2026-04-20T23:46:12.996Z</time></trkpt>
   <trkpt lat="59.1004309964" lon="29.9965989799"><ele>79.918</ele><time>2026-04-20T23:46:31.002Z</time></trkpt>
   <trkpt lat="59.1003629772" lon="29.9967699707"><ele>72.389</ele><time>2026-04-20T23:46:55.998Z</time></trkpt>
   <trkpt lat="59.1003409747" lon="29.9970629182"><ele>67.97</ele><time>2026-04-20T23:47:17.002Z</time></trkpt>
   <trkpt lat="59.1005679986" lon="29.9972929176"><ele>68.976</ele><time>2026-04-20T23:48:00.996Z</time></trkpt>
   <trkpt lat="59.1007549988" lon="29.9971799296"><ele>69.006</ele><time>2026-04-20T23:48:32.999Z</time></trkpt>
   <trkpt lat="59.100684968" lon="29.9972429615"><ele>65.958</ele><time>2026-04-20T23:49:33.997Z</time></trkpt>
   <trkpt lat="59.1007959863" lon="29.9971229326"><ele>68.61</ele><time>2026-04-20T23:50:34.002Z</time></trkpt>
   <trkpt lat="59.1008139655" lon="29.9968539574"><ele>72.816</ele><time>2026-04-20T23:51:21.997Z</time></trkpt>
   <trkpt lat="59.1010149636" lon="29.9967619241"><ele>73.944</ele><time>2026-04-20T23:52:22.002Z</time></trkpt>
   <trkpt lat="59.1011469785" lon="29.9968259618"><ele>72.694</ele><time>2026-04-20T23:52:44.000Z</time></trkpt>
   <trkpt lat="59.1012329769" lon="29.9970119562"><ele>71.445</ele><time>2026-04-20T23:53:01.003Z</time></trkpt>
   <trkpt lat="59.1013629802" lon="29.9970549554"><ele>71.353</ele><time>2026-04-20T23:53:24.996Z</time></trkpt>
   <trkpt lat="59.1014829671" lon="29.9972379324"><ele>69.555</ele><time>2026-04-20T23:54:03.997Z</time></trkpt>
   <trkpt lat="59.1015299896" lon="29.9974199873"><ele>70.744</ele><time>2026-04-20T23:54:46.999Z</time></trkpt>
   <trkpt lat="59.1015429815" lon="29.9976539262"><ele>69.128</ele><time>2026-04-20T23:55:04.996Z</time></trkpt>
   <trkpt lat="59.1015259663" lon="29.9987829686"><ele>61.965</ele><time>2026-04-20T23:56:44.002Z</time></trkpt>
   <trkpt lat="59.1015909679" lon="29.9990989663"><ele>62.788</ele><time>2026-04-20T23:57:12.997Z</time></trkpt>
   <trkpt lat="59.1017059677" lon="29.9991599866"><ele>62.758</ele><time>2026-04-20T23:57:28.999Z</time></trkpt>
   <trkpt lat="59.1018939737" lon="29.9986889236"><ele>65.349</ele><time>2026-04-20T23:58:16.000Z</time></trkpt>
   <trkpt lat="59.1018589793" lon="29.9983969819"><ele>67.025</ele><time>2026-04-20T23:58:52.997Z</time></trkpt>
   <trkpt lat="59.101860991" lon="29.9981989176"><ele>68.275</ele><time>2026-04-20T23:59:27.997Z</time></trkpt>
   <trkpt lat="59.1019449776" lon="29.9980769609"><ele>70.134</ele><time>2026-04-20T23:59:45.001Z</time></trkpt>
   <trkpt lat="59.1020299701" lon="29.9978219834"><ele>70.805</ele><time>2026-04-21T00:00:17.004Z</time></trkpt>
   <trkpt lat="59.1019799721" lon="29.9975629826"><ele>71.902</ele><time>2026-04-21T00:00:55.996Z</time></trkpt>
   <trkpt lat="59.101910989" lon="29.9971359246"><ele>79.247</ele><time>2026-04-21T00:01:38.997Z</time></trkpt>
   <trkpt lat="59.1018889865" lon="29.9967329227"><ele>77.571</ele><time>2026-04-21T00:02:25.999Z</time></trkpt>
   <trkpt lat="59.1018259965" lon="29.9965819646"><ele>76.504</ele><time>2026-04-21T00:02:42.000Z</time></trkpt>
   <trkpt lat="59.1017219771" lon="29.9965259735"><ele>75.468</ele><time>2026-04-21T00:03:11.998Z</time></trkpt>
   <trkpt lat="59.1016999746" lon="29.9960469477"><ele>75.742</ele><time>2026-04-21T00:05:21.002Z</time></trkpt>
   <trkpt lat="59.1018149743" lon="29.995843938"><ele>74.98</ele><time>2026-04-21T00:06:09.999Z</time></trkpt>
   <trkpt lat="59.1018809818" lon="29.9959129211"><ele>81.229</ele><time>2026-04-21T00:07:56.997Z</time></trkpt>
   <trkpt lat="59.1017769624" lon="29.9959239852"><ele>91.013</ele><time>2026-04-21T00:11:06.999Z</time></trkpt>
   <trkpt lat="59.1019249868" lon="29.9958349694"><ele>92.567</ele><time>2026-04-21T00:12:11.998Z</time></trkpt>
   <trkpt lat="59.101866984" lon="29.99569298"><ele>85.648</ele><time>2026-04-21T00:16:32.002Z</time></trkpt>
   <trkpt lat="59.1020829857" lon="29.9956979253"><ele>82.905</ele><time>2026-04-21T00:17:54.997Z</time></trkpt>
   <trkpt lat="59.1020739751" lon="29.9960989993"><ele>79.4</ele><time>2026-04-21T00:19:00.998Z</time></trkpt>
   <trkpt lat="59.1021509629" lon="29.9961429205"><ele>78.059</ele><time>2026-04-21T00:19:17.000Z</time></trkpt>
   <trkpt lat="59.1021649607" lon="29.9962819763"><ele>79.278</ele><time>2026-04-21T00:21:03.997Z</time></trkpt>
   <trkpt lat="59.1020119909" lon="29.9966819607"><ele>75.59</ele><time>2026-04-21T00:22:07.000Z</time></trkpt>
   <trkpt lat="59.1019629987" lon="29.9969049193"><ele>75.102</ele><time>2026-04-21T00:22:28.004Z</time></trkpt>
   <trkpt lat="59.1019659743" lon="29.9970519379"><ele>73.395</ele><time>2026-04-21T00:22:47.004Z</time></trkpt>
   <trkpt lat="59.1018319896" lon="29.9971489165"><ele>77.266</ele><time>2026-04-21T00:24:07.001Z</time></trkpt>
   <trkpt lat="59.1019039901" lon="29.9971299734"><ele>79.308</ele><time>2026-04-21T00:25:37.998Z</time></trkpt>
   <trkpt lat="59.1017759985" lon="29.9971379362"><ele>79.552</ele><time>2026-04-21T00:27:12.001Z</time></trkpt>
   <trkpt lat="59.1018639665" lon="29.9971329909"><ele>82.174</ele><time>2026-04-21T00:28:12.999Z</time></trkpt>
   <trkpt lat="59.1019029843" lon="29.9972679396"><ele>80.131</ele><time>2026-04-21T00:28:41.002Z</time></trkpt>
   <trkpt lat="59.1018949796" lon="29.997484947"><ele>80.009</ele><time>2026-04-21T00:29:02.999Z</time></trkpt>
   <trkpt lat="59.1019819837" lon="29.9975579534"><ele>80.223</ele><time>2026-04-21T00:29:25.999Z</time></trkpt>
   <trkpt lat="59.1021109812" lon="29.997836987"><ele>77.419</ele><time>2026-04-21T00:30:05.000Z</time></trkpt>
   <trkpt lat="59.1021959737" lon="29.9978939839"><ele>77.053</ele><time>2026-04-21T00:30:23.999Z</time></trkpt>
   <trkpt lat="59.1023119793" lon="29.997629954"><ele>74.889</ele><time>2026-04-21T00:31:03.000Z</time></trkpt>
   <trkpt lat="59.1022079598" lon="29.9973389343"><ele>77.022</ele><time>2026-04-21T00:31:31.996Z</time></trkpt>
   <trkpt lat="59.1022119831" lon="29.9970539496"><ele>76.657</ele><time>2026-04-21T00:31:58.996Z</time></trkpt>
   <trkpt lat="59.1023249712" lon="29.9968659435"><ele>74.066</ele><time>2026-04-21T00:32:57.998Z</time></trkpt>
   <trkpt lat="59.1022029726" lon="29.996692941"><ele>82.204</ele><time>2026-04-21T00:34:40.996Z</time></trkpt>
   <trkpt lat="59.1022789965" lon="29.9967859801"><ele>82.783</ele><time>2026-04-21T00:36:01.002Z</time></trkpt>
   <trkpt lat="59.1024129812" lon="29.9965899274"><ele>80.68</ele><time>2026-04-21T00:36:33.998Z</time></trkpt>
   <trkpt lat="59.1023109734" lon="29.9965409771"><ele>80.924</ele><time>2026-04-21T00:37:08.999Z</time></trkpt>
   <trkpt lat="59.1023899729" lon="29.9964679707"><ele>79.095</ele><time>2026-04-21T00:37:26.003Z</time></trkpt>
   <trkpt lat="59.1023409806" lon="29.9961869255"><ele>80.314</ele><time>2026-04-21T00:38:01.997Z</time></trkpt>
   <trkpt lat="59.1024029648" lon="29.9960469477"><ele>79.4</ele><time>2026-04-21T00:38:24.996Z</time></trkpt>
   <trkpt lat="59.1024659967" lon="29.9959609494"><ele>79.004</ele><time>2026-04-21T00:38:42.000Z</time></trkpt>
   <trkpt lat="59.1026629714" lon="29.9959259969"><ele>77.632</ele><time>2026-04-21T00:39:45.003Z</time></trkpt>
   <trkpt lat="59.1027269673" lon="29.9958419264"><ele>78.638</ele><time>2026-04-21T00:39:59.000Z</time></trkpt>
   <trkpt lat="59.1027539989" lon="29.99603295"><ele>74.98</ele><time>2026-04-21T00:40:38.001Z</time></trkpt>
   <trkpt lat="59.102703959" lon="29.9961419985"><ele>73.517</ele><time>2026-04-21T00:41:07.999Z</time></trkpt>
   <trkpt lat="59.102979975" lon="29.9960939702"><ele>73.853</ele><time>2026-04-21T00:42:08.997Z</time></trkpt>
   <trkpt lat="59.10308697" lon="29.9961269949"><ele>76.687</ele><time>2026-04-21T00:42:59.999Z</time></trkpt>
   <trkpt lat="59.1031239761" lon="29.9959749472"><ele>76.352</ele><time>2026-04-21T00:43:28.001Z</time></trkpt>
   <trkpt lat="59.1032529736" lon="29.9959019408"><ele>76.931</ele><time>2026-04-21T00:43:52.003Z</time></trkpt>
   <trkpt lat="59.1034209889" lon="29.9958789744"><ele>77.602</ele><time>2026-04-21T00:44:11.996Z</time></trkpt>
   <trkpt lat="59.1034979766" lon="29.9959479575"><ele>77.663</ele><time>2026-04-21T00:44:34.996Z</time></trkpt>
   <trkpt lat="59.1034249703" lon="29.9958179541"><ele>74.34</ele><time>2026-04-21T00:45:31.000Z</time></trkpt>
   <trkpt lat="59.1033589628" lon="29.9959199619"><ele>77.053</ele><time>2026-04-21T00:46:26.003Z</time></trkpt>
   <trkpt lat="59.1034819672" lon="29.9959579319"><ele>70.865</ele><time>2026-04-21T00:49:51.004Z</time></trkpt>
   <trkpt lat="59.103375978" lon="29.9958749511"><ele>65.562</ele><time>2026-04-21T00:52:25.997Z</time></trkpt>
   <trkpt lat="59.1035259722" lon="29.9958519847"><ele>68.579</ele><time>2026-04-21T00:53:54.004Z</time></trkpt>
   <trkpt lat="59.1035689714" lon="29.9956599553"><ele>79.187</ele><time>2026-04-21T00:54:37.999Z</time></trkpt>
   <trkpt lat="59.10369097" lon="29.995629948"><ele>81.899</ele><time>2026-04-21T00:54:59.996Z</time></trkpt>
   <trkpt lat="59.1035119744" lon="29.9959599436"><ele>75.011</ele><time>2026-04-21T00:56:20.996Z</time></trkpt>
   <trkpt lat="59.1035319653" lon="29.9961209599"><ele>75.316</ele><time>2026-04-21T00:56:38.000Z</time></trkpt>
   <trkpt lat="59.1034789916" lon="29.9963179347"><ele>74.188</ele><time>2026-04-21T00:57:09.000Z</time></trkpt>
   <trkpt lat="59.1036699733" lon="29.996478951"><ele>70.835</ele><time>2026-04-21T00:57:41.996Z</time></trkpt>
   <trkpt lat="59.1035789877" lon="29.9965309188"><ele>70.957</ele><time>2026-04-21T00:58:05.998Z</time></trkpt>
   <trkpt lat="59.1037989708" lon="29.9963329383"><ele>77.845</ele><time>2026-04-21T00:59:22.998Z</time></trkpt>
   <trkpt lat="59.1038859749" lon="29.9961029388"><ele>79.034</ele><time>2026-04-21T00:59:55.000Z</time></trkpt>
   <trkpt lat="59.10390496" lon="29.9957899586"><ele>79.888</ele><time>2026-04-21T01:00:27.003Z</time></trkpt>
   <trkpt lat="59.1039789722" lon="29.9956279364"><ele>82.326</ele><time>2026-04-21T01:00:54.003Z</time></trkpt>
   <trkpt lat="59.1038589852" lon="29.9956309539"><ele>80.406</ele><time>2026-04-21T01:01:28.001Z</time></trkpt>
   <trkpt lat="59.1039319916" lon="29.9956349772"><ele>79.522</ele><time>2026-04-21T01:02:19.997Z</time></trkpt>
   <trkpt lat="59.1039429719" lon="29.9959309422"><ele>78.668</ele><time>2026-04-21T01:03:37.999Z</time></trkpt>
   <trkpt lat="59.103922981" lon="29.9957609572"><ele>77.571</ele><time>2026-04-21T01:04:22.996Z</time></trkpt>
   <trkpt lat="59.1038269663" lon="29.9958869372"><ele>79.126</ele><time>2026-04-21T01:04:57.003Z</time></trkpt>
   <trkpt lat="59.1038129686" lon="29.9957319558"><ele>77.632</ele><time>2026-04-21T01:05:32.004Z</time></trkpt>
   <trkpt lat="59.1039559638" lon="29.9958259169"><ele>76.961</ele><time>2026-04-21T01:06:42.998Z</time></trkpt>
   <trkpt lat="59.1038129686" lon="29.9959269189"><ele>77.51</ele><time>2026-04-21T01:08:49.998Z</time></trkpt>
   <trkpt lat="59.1036399661" lon="29.9956519925"><ele>75.62</ele><time>2026-04-21T01:09:19.002Z</time></trkpt>
   <trkpt lat="59.1035059814" lon="29.995893978"><ele>73.761</ele><time>2026-04-21T01:09:47.998Z</time></trkpt>
   <trkpt lat="59.1033839828" lon="29.9958959897"><ele>73.944</ele><time>2026-04-21T01:10:08.000Z</time></trkpt>
   <trkpt lat="59.1033289975" lon="29.9956469633"><ele>71.536</ele><time>2026-04-21T01:10:29.004Z</time></trkpt>
   <trkpt lat="59.1032479864" lon="29.995591978"><ele>73.731</ele><time>2026-04-21T01:11:23.004Z</time></trkpt>
   <trkpt lat="59.103205993" lon="29.995434985"><ele>75.742</ele><time>2026-04-21T01:11:42.003Z</time></trkpt>
   <trkpt lat="59.1031649636" lon="29.9950969428"><ele>76.26</ele><time>2026-04-21T01:12:17.004Z</time></trkpt>
   <trkpt lat="59.1032019697" lon="29.9953249306"><ele>78.485</ele><time>2026-04-21T01:13:15.997Z</time></trkpt>
   <trkpt lat="59.1031109842" lon="29.9955429439"><ele>76.474</ele><time>2026-04-21T01:13:27.998Z</time></trkpt>
   <trkpt lat="59.1029979961" lon="29.9955719453"><ele>75.986</ele><time>2026-04-21T01:13:42.997Z</time></trkpt>
   <trkpt lat="59.1027879875" lon="29.9953969311"><ele>77.266</ele><time>2026-04-21T01:15:14.003Z</time></trkpt>
   <trkpt lat="59.1025879953" lon="29.9953829334"><ele>76.901</ele><time>2026-04-21T01:15:38.998Z</time></trkpt>
   <trkpt lat="59.1026759634" lon="29.9956209794"><ele>76.108</ele><time>2026-04-21T01:16:09.998Z</time></trkpt>
   <trkpt lat="59.1026429806" lon="29.9957839236"><ele>75.346</ele><time>2026-04-21T01:16:24.004Z</time></trkpt>
   <trkpt lat="59.102445964" lon="29.9958899547"><ele>72.938</ele><time>2026-04-21T01:16:58.002Z</time></trkpt>
   <trkpt lat="59.1023749693" lon="29.9959929683"><ele>73.548</ele><time>2026-04-21T01:17:15.999Z</time></trkpt>
   <trkpt lat="59.1022609754" lon="29.9961229716"><ele>75.194</ele><time>2026-04-21T01:17:48.002Z</time></trkpt>
   <trkpt lat="59.1022359973" lon="29.9963239696"><ele>75.437</ele><time>2026-04-21T01:18:04.997Z</time></trkpt>
   <trkpt lat="59.1021319779" lon="29.9965189327"><ele>78.577</ele><time>2026-04-21T01:18:31.997Z</time></trkpt>
   <trkpt lat="59.1018659782" lon="29.9966239579"><ele>77.571</ele><time>2026-04-21T01:20:50.997Z</time></trkpt>
   <trkpt lat="59.1017419679" lon="29.9967629299"><ele>76.87</ele><time>2026-04-21T01:21:21.997Z</time></trkpt>
   <trkpt lat="59.1016619627" lon="29.996729989"><ele>78.912</ele><time>2026-04-21T01:21:43.001Z</time></trkpt>
   <trkpt lat="59.1016999746" lon="29.9969579768"><ele>76.84</ele><time>2026-04-21T01:22:15.997Z</time></trkpt>
   <trkpt lat="59.1015889982" lon="29.9969039973"><ele>77.815</ele><time>2026-04-21T01:23:02.999Z</time></trkpt>
   <trkpt lat="59.1015059754" lon="29.9971009721"><ele>78.089</ele><time>2026-04-21T01:23:21.998Z</time></trkpt>
   <trkpt lat="59.1013119763" lon="29.9972599768"><ele>77.693</ele><time>2026-04-21T01:23:51.996Z</time></trkpt>
   <trkpt lat="59.101137968" lon="29.9973689415"><ele>72.115</ele><time>2026-04-21T01:24:18.996Z</time></trkpt>
   <trkpt lat="59.1008249877" lon="29.9971089349"><ele>65.684</ele><time>2026-04-21T01:25:01.998Z</time></trkpt>
   <trkpt lat="59.1007269614" lon="29.997232987"><ele>66.812</ele><time>2026-04-21T01:25:20.004Z</time></trkpt>
   <trkpt lat="59.1004379953" lon="29.9973709532"><ele>67.97</ele><time>2026-04-21T01:26:29.003Z</time></trkpt>
   <trkpt lat="59.10024496" lon="29.9975899723"><ele>67.055</ele><time>2026-04-21T01:27:08.997Z</time></trkpt>
   <trkpt lat="59.1000869611" lon="29.9976289481"><ele>68.762</ele><time>2026-04-21T01:27:35.997Z</time></trkpt>
   <trkpt lat="59.0999289623" lon="29.9974989448"><ele>66.202</ele><time>2026-04-21T01:27:57.001Z</time></trkpt>
   <trkpt lat="59.0995139742" lon="29.9977379967"><ele>66.385</ele><time>2026-04-21T01:28:37.998Z</time></trkpt>
   <trkpt lat="59.0993489765" lon="29.9977529165"><ele>74.584</ele><time>2026-04-21T01:29:51.999Z</time></trkpt>
   <trkpt lat="59.0994469609" lon="29.9977449537"><ele>81.442</ele><time>2026-04-21T01:32:55.003Z</time></trkpt>
   <trkpt lat="59.0993649859" lon="29.9976779823"><ele>87.02</ele><time>2026-04-21T01:34:31.996Z</time></trkpt>
   <trkpt lat="59.0992719887" lon="29.9976789881"><ele>93.177</ele><time>2026-04-21T01:38:39.998Z</time></trkpt>
   <trkpt lat="59.0992819632" lon="29.9978269287"><ele>98.968</ele><time>2026-04-21T01:39:39.001Z</time></trkpt>
   <trkpt lat="59.099332967" lon="29.9976829276"><ele>100.553</ele><time>2026-04-21T01:40:08.999Z</time></trkpt>
   <trkpt lat="59.0992649898" lon="29.9977989331"><ele>99.303</ele><time>2026-04-21T01:40:33.001Z</time></trkpt>
   <trkpt lat="59.0991629821" lon="29.997868922"><ele>94.64</ele><time>2026-04-21T01:40:54.998Z</time></trkpt>
   <trkpt lat="59.0988119899" lon="29.9978179601"><ele>87.386</ele><time>2026-04-21T01:41:48.998Z</time></trkpt>
   <trkpt lat="59.0986849621" lon="29.9977449537"><ele>84.185</ele><time>2026-04-21T01:42:26.997Z</time></trkpt>
   <trkpt lat="59.0986189965" lon="29.9978729453"><ele>79.583</ele><time>2026-04-21T01:42:45.996Z</time></trkpt>
   <trkpt lat="59.0984029949" lon="29.9979419284"><ele>76.687</ele><time>2026-04-21T01:43:24.997Z</time></trkpt>
   <trkpt lat="59.0982599996" lon="29.9979089875"><ele>77.083</ele><time>2026-04-21T01:43:46.001Z</time></trkpt>
   <trkpt lat="59.0981499871" lon="29.9979979195"><ele>76.474</ele><time>2026-04-21T01:44:09.001Z</time></trkpt>
   <trkpt lat="59.0978259847" lon="29.9986149952"><ele>75.407</ele><time>2026-04-21T01:45:19.002Z</time></trkpt>
   <trkpt lat="59.0977499608" lon="29.9986209464"><ele>78.242</ele><time>2026-04-21T01:45:39.997Z</time></trkpt>
   <trkpt lat="59.0976579694" lon="29.9987169192"><ele>77.784</ele><time>2026-04-21T01:46:01.001Z</time></trkpt>
   <trkpt lat="59.0976509705" lon="29.9985229619"><ele>77.541</ele><time>2026-04-21T01:47:16.999Z</time></trkpt>
   <trkpt lat="59.0977189897" lon="29.9979549203"><ele>76.565</ele><time>2026-04-21T01:48:12.001Z</time></trkpt>
   <trkpt lat="59.0978889747" lon="29.9971989565"><ele>71.353</ele><time>2026-04-21T01:48:59.003Z</time></trkpt>
   <trkpt lat="59.0977789622" lon="29.9969579768"><ele>72.115</ele><time>2026-04-21T01:50:05.997Z</time></trkpt>
   <trkpt lat="59.0976639625" lon="29.9968989682"><ele>79.522</ele><time>2026-04-21T01:51:30.997Z</time></trkpt>
   <trkpt lat="59.0976409961" lon="29.9967269715"><ele>79.43</ele><time>2026-04-21T01:52:11.001Z</time></trkpt>
   <trkpt lat="59.0975249905" lon="29.9966029194"><ele>85.404</ele><time>2026-04-21T01:54:50.003Z</time></trkpt>
   <trkpt lat="59.0973769661" lon="29.9966359441"><ele>80.589</ele><time>2026-04-21T01:55:10.004Z</time></trkpt>
   <trkpt lat="59.097257985" lon="29.9966939468"><ele>78.059</ele><time>2026-04-21T01:55:29.004Z</time></trkpt>
   <trkpt lat="59.097100992" lon="29.9967449926"><ele>77.48</ele><time>2026-04-21T01:56:19.003Z</time></trkpt>
   <trkpt lat="59.0970749662" lon="29.9968949449"><ele>82.356</ele><time>2026-04-21T01:57:52.004Z</time></trkpt>
   <trkpt lat="59.0969449628" lon="29.9970149737"><ele>80.802</ele><time>2026-04-21T01:58:14.002Z</time></trkpt>
   <trkpt lat="59.0968409853" lon="29.9972589709"><ele>79.705</ele><time>2026-04-21T01:58:37.001Z</time></trkpt>
   <trkpt lat="59.0965069665" lon="29.9976859451"><ele>62.971</ele><time>2026-04-21T01:59:28.003Z</time></trkpt>
   <trkpt lat="59.0962719798" lon="29.997861965"><ele>54.863</ele><time>2026-04-21T02:00:13.000Z</time></trkpt>
   <trkpt lat="59.0961839698" lon="29.997880992"><ele>55.321</ele><time>2026-04-21T02:00:33.002Z</time></trkpt>
   <trkpt lat="59.0959759729" lon="29.9977099173"><ele>55.443</ele><time>2026-04-21T02:01:08.003Z</time></trkpt>
   <trkpt lat="59.0958759768" lon="29.9975389265"><ele>51.236</ele><time>2026-04-21T02:01:36.998Z</time></trkpt>
   <trkpt lat="59.0957959715" lon="29.9976249248"><ele>55.473</ele><time>2026-04-21T02:01:59.998Z</time></trkpt>
   <trkpt lat="59.0957449677" lon="29.997786947"><ele>55.747</ele><time>2026-04-21T02:02:20.000Z</time></trkpt>
   <trkpt lat="59.0953199633" lon="29.9983639572"><ele>51.846</ele><time>2026-04-21T02:03:27.996Z</time></trkpt>
   <trkpt lat="59.0951239944" lon="29.9988039233"><ele>56.052</ele><time>2026-04-21T02:04:10.004Z</time></trkpt>
   <trkpt lat="59.0949349825" lon="29.9990479205"><ele>55.168</ele><time>2026-04-21T02:05:06.000Z</time></trkpt>
   <trkpt lat="59.0948479783" lon="29.9990489264"><ele>57.485</ele><time>2026-04-21T02:05:38.996Z</time></trkpt>
   <trkpt lat="59.0947949628" lon="29.9988599983"><ele>66.69</ele><time>2026-04-21T02:07:34.003Z</time></trkpt>
   <trkpt lat="59.09482497" lon="29.9985459283"><ele>72.176</ele><time>2026-04-21T02:11:52.996Z</time></trkpt>
   <trkpt lat="59.0947149994" lon="29.9982839939"><ele>69.555</ele><time>2026-04-21T02:12:15.002Z</time></trkpt>
   <trkpt lat="59.0947279914" lon="29.9981149309"><ele>67.482</ele><time>2026-04-21T02:12:35.997Z</time></trkpt>
   <trkpt lat="59.0946999958" lon="29.9979659845"><ele>66.354</ele><time>2026-04-21T02:12:58.003Z</time></trkpt>
   <trkpt lat="59.0945159711" lon="29.9978839256"><ele>63.185</ele><time>2026-04-21T02:13:17.996Z</time></trkpt>
   <trkpt lat="59.0943199603" lon="29.9980629631"><ele>62.026</ele><time>2026-04-21T02:13:52.003Z</time></trkpt>
   <trkpt lat="59.0941359775" lon="29.9969899957"><ele>63.306</ele><time>2026-04-21T02:15:21.997Z</time></trkpt>
   <trkpt lat="59.0939939881" lon="29.9963109777"><ele>63.124</ele><time>2026-04-21T02:15:52.004Z</time></trkpt>
   <trkpt lat="59.0938989792" lon="29.9960589339"><ele>74.706</ele><time>2026-04-21T02:16:07.997Z</time></trkpt>
   <trkpt lat="59.0938049762" lon="29.9954999447"><ele>82.936</ele><time>2026-04-21T02:16:34.997Z</time></trkpt>
   <trkpt lat="59.0937229593" lon="29.9952919897"><ele>88.087</ele><time>2026-04-21T02:16:49.996Z</time></trkpt>
   <trkpt lat="59.0935829815" lon="29.9945889995"><ele>85.008</ele><time>2026-04-21T02:17:27.001Z</time></trkpt>
  </trkseg>
 </trk>
</gpx>